<?xml version="1.0" encoding="UTF-8" standalone="no" ?>
<gpx xmlns="http://www.topografix.com/GPX/1/1" xmlns:gpxtpx="http://www.garmin.com/xmlschemas/TrackPointExtension/v1" creator="OruxMaps v.7.0.2" version="1.1" xmlns:xsi="http://www.w3.org/2001/XMLSchema-instance" xsi:schemaLocation="http://www.topografix.com/GPX/1/1 http://www.topografix.com/GPX/1/1/gpx.xsd">
<metadata>
<name><![CDATA[Kloster Lluc Mallorca 16.10.2016]]></name>
<link href="http://www.oruxmaps.com">
<text>OruxMaps</text>
</link>
<time>2016-10-16T07:20:01Z</time><bounds maxlat="39.8830794" maxlon="3.1486295" minlat="39.7560875" minlon="2.8840981"/>
</metadata>
<trk>
<name><![CDATA[Kloster Lluc Mallorca 16.10.2016]]></name>
<desc><![CDATA[<p>Startzeit: 10/16/2016 09:20<br/>Zielzeit: 10/16/2016 16:26<br/>Strecke: 82 km (07:06)<br/>Bewegungszeit: 04:05<br/>Ø-Geschwindigkeit: 11,54 km/h<br/>Netto-Geschwindigkeit: 20,01 km/h<br/>Max. Geschwindigkeit: 56,37 km/h<br/>Minimale Höhe: 0 m<br/>Maximale Höhe: 600 m<br/>Steig-Geschw.: 344,3 m/h<br/>Sink-Geschw.: -891,7 m/h<br/>Aufstieg: 1438 m<br/>Abstieg: -1449 m<br/>Steigzeit: 04:10<br/>Sinkzeit: 01:37<br/></p><hr align="center" width="480" style="height: 2px; width: 517px"/>]]></desc>
<type>Fahrrad/ Strasse</type>
<extensions>
<om:oruxmapsextensions xmlns:om="http://www.oruxmaps.com/oruxmapsextensions/1/0">
<om:ext type="TYPE" subtype="0">8</om:ext>
<om:ext type="DIFFICULTY">0</om:ext>
</om:oruxmapsextensions>
</extensions>
<trkseg>
<trkpt lat="39.7653039" lon="3.1477343">
<ele>17.99</ele>
<time>2016-10-16T07:20:01Z</time>
</trkpt>
<trkpt lat="39.7654747" lon="3.1480097">
<ele>20.77</ele>
<time>2016-10-16T07:22:30Z</time>
</trkpt>
<trkpt lat="39.7655754" lon="3.1482128">
<ele>16.57</ele>
<time>2016-10-16T07:23:57Z</time>
</trkpt>
<trkpt lat="39.7654686" lon="3.1484181">
<ele>16.55</ele>
<time>2016-10-16T07:24:03Z</time>
</trkpt>
<trkpt lat="39.7653382" lon="3.1486295">
<ele>17.06</ele>
<time>2016-10-16T07:24:09Z</time>
</trkpt>
<trkpt lat="39.7655217" lon="3.1485055">
<ele>15.54</ele>
<time>2016-10-16T07:24:19Z</time>
</trkpt>
<trkpt lat="39.7656757" lon="3.1482930">
<ele>17.80</ele>
<time>2016-10-16T07:24:24Z</time>
</trkpt>
<trkpt lat="39.7658267" lon="3.1481186">
<ele>18.07</ele>
<time>2016-10-16T07:24:28Z</time>
</trkpt>
<trkpt lat="39.7659888" lon="3.1479492">
<ele>16.84</ele>
<time>2016-10-16T07:24:32Z</time>
</trkpt>
<trkpt lat="39.7661493" lon="3.1478140">
<ele>15.53</ele>
<time>2016-10-16T07:24:36Z</time>
</trkpt>
<trkpt lat="39.7662971" lon="3.1476698">
<ele>13.53</ele>
<time>2016-10-16T07:24:40Z</time>
</trkpt>
<trkpt lat="39.7664849" lon="3.1474897">
<ele>12.74</ele>
<time>2016-10-16T07:24:45Z</time>
</trkpt>
<trkpt lat="39.7666379" lon="3.1473422">
<ele>13.17</ele>
<time>2016-10-16T07:24:49Z</time>
</trkpt>
<trkpt lat="39.7667810" lon="3.1471888">
<ele>13.23</ele>
<time>2016-10-16T07:24:53Z</time>
</trkpt>
<trkpt lat="39.7669562" lon="3.1470014">
<ele>12.78</ele>
<time>2016-10-16T07:24:57Z</time>
</trkpt>
<trkpt lat="39.7671294" lon="3.1468082">
<ele>12.99</ele>
<time>2016-10-16T07:25:01Z</time>
</trkpt>
<trkpt lat="39.7673114" lon="3.1466032">
<ele>13.30</ele>
<time>2016-10-16T07:25:05Z</time>
</trkpt>
<trkpt lat="39.7674868" lon="3.1464290">
<ele>13.69</ele>
<time>2016-10-16T07:25:09Z</time>
</trkpt>
<trkpt lat="39.7676298" lon="3.1462776">
<ele>14.84</ele>
<time>2016-10-16T07:25:12Z</time>
</trkpt>
<trkpt lat="39.7677826" lon="3.1461311">
<ele>15.17</ele>
<time>2016-10-16T07:25:15Z</time>
</trkpt>
<trkpt lat="39.7679118" lon="3.1459637">
<ele>14.93</ele>
<time>2016-10-16T07:25:18Z</time>
</trkpt>
<trkpt lat="39.7680523" lon="3.1457977">
<ele>14.57</ele>
<time>2016-10-16T07:25:21Z</time>
</trkpt>
<trkpt lat="39.7682101" lon="3.1456368">
<ele>14.31</ele>
<time>2016-10-16T07:25:24Z</time>
</trkpt>
<trkpt lat="39.7683672" lon="3.1454713">
<ele>13.66</ele>
<time>2016-10-16T07:25:27Z</time>
</trkpt>
<trkpt lat="39.7685407" lon="3.1452804">
<ele>13.13</ele>
<time>2016-10-16T07:25:30Z</time>
</trkpt>
<trkpt lat="39.7687179" lon="3.1451022">
<ele>11.87</ele>
<time>2016-10-16T07:25:33Z</time>
</trkpt>
<trkpt lat="39.7688758" lon="3.1449369">
<ele>10.52</ele>
<time>2016-10-16T07:25:36Z</time>
</trkpt>
<trkpt lat="39.7690405" lon="3.1447584">
<ele>9.59</ele>
<time>2016-10-16T07:25:39Z</time>
</trkpt>
<trkpt lat="39.7691985" lon="3.1445959">
<ele>9.64</ele>
<time>2016-10-16T07:25:42Z</time>
</trkpt>
<trkpt lat="39.7693727" lon="3.1444169">
<ele>9.99</ele>
<time>2016-10-16T07:25:45Z</time>
</trkpt>
<trkpt lat="39.7695438" lon="3.1442434">
<ele>10.06</ele>
<time>2016-10-16T07:25:48Z</time>
</trkpt>
<trkpt lat="39.7697141" lon="3.1440673">
<ele>9.24</ele>
<time>2016-10-16T07:25:51Z</time>
</trkpt>
<trkpt lat="39.7698812" lon="3.1438911">
<ele>8.29</ele>
<time>2016-10-16T07:25:54Z</time>
</trkpt>
<trkpt lat="39.7700490" lon="3.1437187">
<ele>7.45</ele>
<time>2016-10-16T07:25:57Z</time>
</trkpt>
<trkpt lat="39.7702279" lon="3.1435317">
<ele>6.67</ele>
<time>2016-10-16T07:26:00Z</time>
</trkpt>
<trkpt lat="39.7703941" lon="3.1433548">
<ele>6.74</ele>
<time>2016-10-16T07:26:03Z</time>
</trkpt>
<trkpt lat="39.7705726" lon="3.1431694">
<ele>7.88</ele>
<time>2016-10-16T07:26:07Z</time>
</trkpt>
<trkpt lat="39.7707395" lon="3.1429865">
<ele>8.25</ele>
<time>2016-10-16T07:26:10Z</time>
</trkpt>
<trkpt lat="39.7709004" lon="3.1428142">
<ele>7.94</ele>
<time>2016-10-16T07:26:13Z</time>
</trkpt>
<trkpt lat="39.7710378" lon="3.1426608">
<ele>8.78</ele>
<time>2016-10-16T07:26:16Z</time>
</trkpt>
<trkpt lat="39.7712147" lon="3.1424926">
<ele>8.92</ele>
<time>2016-10-16T07:26:20Z</time>
</trkpt>
<trkpt lat="39.7714157" lon="3.1424364">
<ele>7.65</ele>
<time>2016-10-16T07:26:24Z</time>
</trkpt>
<trkpt lat="39.7715788" lon="3.1423100">
<ele>5.23</ele>
<time>2016-10-16T07:26:28Z</time>
</trkpt>
<trkpt lat="39.7715247" lon="3.1420587">
<ele>2.54</ele>
<time>2016-10-16T07:26:33Z</time>
</trkpt>
<trkpt lat="39.7713193" lon="3.1418843">
<ele>2.24</ele>
<time>2016-10-16T07:26:37Z</time>
</trkpt>
<trkpt lat="39.7711954" lon="3.1417081">
<ele>3.33</ele>
<time>2016-10-16T07:26:40Z</time>
</trkpt>
<trkpt lat="39.7711145" lon="3.1414509">
<ele>3.57</ele>
<time>2016-10-16T07:26:44Z</time>
</trkpt>
<trkpt lat="39.7710232" lon="3.1411884">
<ele>4.56</ele>
<time>2016-10-16T07:26:48Z</time>
</trkpt>
<trkpt lat="39.7709686" lon="3.1409296">
<ele>6.01</ele>
<time>2016-10-16T07:26:52Z</time>
</trkpt>
<trkpt lat="39.7708899" lon="3.1406911">
<ele>6.67</ele>
<time>2016-10-16T07:26:56Z</time>
</trkpt>
<trkpt lat="39.7707752" lon="3.1404961">
<ele>7.69</ele>
<time>2016-10-16T07:27:00Z</time>
</trkpt>
<trkpt lat="39.7707034" lon="3.1402645">
<ele>8.68</ele>
<time>2016-10-16T07:27:04Z</time>
</trkpt>
<trkpt lat="39.7706464" lon="3.1400296">
<ele>9.29</ele>
<time>2016-10-16T07:27:08Z</time>
</trkpt>
<trkpt lat="39.7706000" lon="3.1397743">
<ele>8.84</ele>
<time>2016-10-16T07:27:12Z</time>
</trkpt>
<trkpt lat="39.7705733" lon="3.1395412">
<ele>9.70</ele>
<time>2016-10-16T07:27:16Z</time>
</trkpt>
<trkpt lat="39.7705327" lon="3.1392574">
<ele>8.43</ele>
<time>2016-10-16T07:27:21Z</time>
</trkpt>
<trkpt lat="39.7704581" lon="3.1390056">
<ele>9.19</ele>
<time>2016-10-16T07:27:25Z</time>
</trkpt>
<trkpt lat="39.7703765" lon="3.1387947">
<ele>10.29</ele>
<time>2016-10-16T07:27:29Z</time>
</trkpt>
<trkpt lat="39.7702730" lon="3.1385406">
<ele>10.89</ele>
<time>2016-10-16T07:27:33Z</time>
</trkpt>
<trkpt lat="39.7701621" lon="3.1383114">
<ele>11.26</ele>
<time>2016-10-16T07:27:37Z</time>
</trkpt>
<trkpt lat="39.7700363" lon="3.1380688">
<ele>14.18</ele>
<time>2016-10-16T07:27:42Z</time>
</trkpt>
<trkpt lat="39.7699485" lon="3.1378433">
<ele>14.59</ele>
<time>2016-10-16T07:27:46Z</time>
</trkpt>
<trkpt lat="39.7698354" lon="3.1376067">
<ele>14.51</ele>
<time>2016-10-16T07:27:50Z</time>
</trkpt>
<trkpt lat="39.7696731" lon="3.1373644">
<ele>14.10</ele>
<time>2016-10-16T07:27:54Z</time>
</trkpt>
<trkpt lat="39.7695117" lon="3.1371558">
<ele>13.36</ele>
<time>2016-10-16T07:27:57Z</time>
</trkpt>
<trkpt lat="39.7693434" lon="3.1369405">
<ele>12.29</ele>
<time>2016-10-16T07:28:00Z</time>
</trkpt>
<trkpt lat="39.7691696" lon="3.1367266">
<ele>12.36</ele>
<time>2016-10-16T07:28:03Z</time>
</trkpt>
<trkpt lat="39.7689850" lon="3.1365000">
<ele>12.68</ele>
<time>2016-10-16T07:28:06Z</time>
</trkpt>
<trkpt lat="39.7688334" lon="3.1363194">
<ele>12.21</ele>
<time>2016-10-16T07:28:09Z</time>
</trkpt>
<trkpt lat="39.7686584" lon="3.1360773">
<ele>12.25</ele>
<time>2016-10-16T07:28:12Z</time>
</trkpt>
<trkpt lat="39.7684875" lon="3.1358356">
<ele>11.69</ele>
<time>2016-10-16T07:28:15Z</time>
</trkpt>
<trkpt lat="39.7683262" lon="3.1356255">
<ele>11.32</ele>
<time>2016-10-16T07:28:18Z</time>
</trkpt>
<trkpt lat="39.7681590" lon="3.1354075">
<ele>10.87</ele>
<time>2016-10-16T07:28:21Z</time>
</trkpt>
<trkpt lat="39.7680041" lon="3.1352080">
<ele>10.36</ele>
<time>2016-10-16T07:28:24Z</time>
</trkpt>
<trkpt lat="39.7678414" lon="3.1349944">
<ele>10.63</ele>
<time>2016-10-16T07:28:27Z</time>
</trkpt>
<trkpt lat="39.7676843" lon="3.1347804">
<ele>10.43</ele>
<time>2016-10-16T07:28:30Z</time>
</trkpt>
<trkpt lat="39.7675389" lon="3.1345756">
<ele>9.31</ele>
<time>2016-10-16T07:28:33Z</time>
</trkpt>
<trkpt lat="39.7673876" lon="3.1343863">
<ele>8.50</ele>
<time>2016-10-16T07:28:36Z</time>
</trkpt>
<trkpt lat="39.7672426" lon="3.1341829">
<ele>8.28</ele>
<time>2016-10-16T07:28:39Z</time>
</trkpt>
<trkpt lat="39.7671146" lon="3.1340016">
<ele>8.46</ele>
<time>2016-10-16T07:28:42Z</time>
</trkpt>
<trkpt lat="39.7669722" lon="3.1338196">
<ele>9.00</ele>
<time>2016-10-16T07:28:45Z</time>
</trkpt>
<trkpt lat="39.7668076" lon="3.1336051">
<ele>9.46</ele>
<time>2016-10-16T07:28:49Z</time>
</trkpt>
<trkpt lat="39.7666616" lon="3.1334217">
<ele>9.90</ele>
<time>2016-10-16T07:28:53Z</time>
</trkpt>
<trkpt lat="39.7664955" lon="3.1332182">
<ele>11.09</ele>
<time>2016-10-16T07:28:57Z</time>
</trkpt>
<trkpt lat="39.7663344" lon="3.1330238">
<ele>12.07</ele>
<time>2016-10-16T07:29:01Z</time>
</trkpt>
<trkpt lat="39.7661971" lon="3.1328615">
<ele>13.31</ele>
<time>2016-10-16T07:29:04Z</time>
</trkpt>
<trkpt lat="39.7660661" lon="3.1327006">
<ele>13.71</ele>
<time>2016-10-16T07:29:07Z</time>
</trkpt>
<trkpt lat="39.7659356" lon="3.1325338">
<ele>13.24</ele>
<time>2016-10-16T07:29:10Z</time>
</trkpt>
<trkpt lat="39.7657649" lon="3.1323395">
<ele>11.82</ele>
<time>2016-10-16T07:29:14Z</time>
</trkpt>
<trkpt lat="39.7655892" lon="3.1321330">
<ele>11.03</ele>
<time>2016-10-16T07:29:18Z</time>
</trkpt>
<trkpt lat="39.7654539" lon="3.1319626">
<ele>11.21</ele>
<time>2016-10-16T07:29:21Z</time>
</trkpt>
<trkpt lat="39.7653147" lon="3.1318042">
<ele>11.15</ele>
<time>2016-10-16T07:29:24Z</time>
</trkpt>
<trkpt lat="39.7651391" lon="3.1316020">
<ele>11.96</ele>
<time>2016-10-16T07:29:28Z</time>
</trkpt>
<trkpt lat="39.7649670" lon="3.1314080">
<ele>14.29</ele>
<time>2016-10-16T07:29:32Z</time>
</trkpt>
<trkpt lat="39.7647870" lon="3.1311896">
<ele>14.86</ele>
<time>2016-10-16T07:29:36Z</time>
</trkpt>
<trkpt lat="39.7646402" lon="3.1310231">
<ele>14.31</ele>
<time>2016-10-16T07:29:39Z</time>
</trkpt>
<trkpt lat="39.7645056" lon="3.1308658">
<ele>14.59</ele>
<time>2016-10-16T07:29:42Z</time>
</trkpt>
<trkpt lat="39.7643664" lon="3.1306940">
<ele>15.11</ele>
<time>2016-10-16T07:29:45Z</time>
</trkpt>
<trkpt lat="39.7642074" lon="3.1305104">
<ele>15.25</ele>
<time>2016-10-16T07:29:48Z</time>
</trkpt>
<trkpt lat="39.7640623" lon="3.1303244">
<ele>15.52</ele>
<time>2016-10-16T07:29:51Z</time>
</trkpt>
<trkpt lat="39.7639194" lon="3.1301192">
<ele>16.04</ele>
<time>2016-10-16T07:29:54Z</time>
</trkpt>
<trkpt lat="39.7637947" lon="3.1298943">
<ele>15.93</ele>
<time>2016-10-16T07:29:57Z</time>
</trkpt>
<trkpt lat="39.7636823" lon="3.1296503">
<ele>14.94</ele>
<time>2016-10-16T07:30:00Z</time>
</trkpt>
<trkpt lat="39.7635692" lon="3.1294028">
<ele>13.66</ele>
<time>2016-10-16T07:30:03Z</time>
</trkpt>
<trkpt lat="39.7634643" lon="3.1291693">
<ele>12.72</ele>
<time>2016-10-16T07:30:06Z</time>
</trkpt>
<trkpt lat="39.7633481" lon="3.1289175">
<ele>12.39</ele>
<time>2016-10-16T07:30:09Z</time>
</trkpt>
<trkpt lat="39.7632275" lon="3.1286666">
<ele>12.00</ele>
<time>2016-10-16T07:30:12Z</time>
</trkpt>
<trkpt lat="39.7631134" lon="3.1284269">
<ele>11.87</ele>
<time>2016-10-16T07:30:15Z</time>
</trkpt>
<trkpt lat="39.7630002" lon="3.1281875">
<ele>11.74</ele>
<time>2016-10-16T07:30:18Z</time>
</trkpt>
<trkpt lat="39.7628882" lon="3.1279782">
<ele>11.73</ele>
<time>2016-10-16T07:30:21Z</time>
</trkpt>
<trkpt lat="39.7627606" lon="3.1278029">
<ele>12.65</ele>
<time>2016-10-16T07:30:24Z</time>
</trkpt>
<trkpt lat="39.7626245" lon="3.1276413">
<ele>13.39</ele>
<time>2016-10-16T07:30:27Z</time>
</trkpt>
<trkpt lat="39.7624720" lon="3.1274656">
<ele>13.45</ele>
<time>2016-10-16T07:30:30Z</time>
</trkpt>
<trkpt lat="39.7622869" lon="3.1272795">
<ele>12.65</ele>
<time>2016-10-16T07:30:34Z</time>
</trkpt>
<trkpt lat="39.7621379" lon="3.1271145">
<ele>13.17</ele>
<time>2016-10-16T07:30:37Z</time>
</trkpt>
<trkpt lat="39.7620026" lon="3.1269439">
<ele>13.53</ele>
<time>2016-10-16T07:30:40Z</time>
</trkpt>
<trkpt lat="39.7618718" lon="3.1267398">
<ele>13.39</ele>
<time>2016-10-16T07:30:43Z</time>
</trkpt>
<trkpt lat="39.7617827" lon="3.1265323">
<ele>12.73</ele>
<time>2016-10-16T07:30:46Z</time>
</trkpt>
<trkpt lat="39.7617419" lon="3.1262382">
<ele>12.12</ele>
<time>2016-10-16T07:30:50Z</time>
</trkpt>
<trkpt lat="39.7617133" lon="3.1259507">
<ele>11.93</ele>
<time>2016-10-16T07:30:54Z</time>
</trkpt>
<trkpt lat="39.7617055" lon="3.1256856">
<ele>15.03</ele>
<time>2016-10-16T07:30:58Z</time>
</trkpt>
<trkpt lat="39.7616932" lon="3.1254248">
<ele>16.99</ele>
<time>2016-10-16T07:31:02Z</time>
</trkpt>
<trkpt lat="39.7616399" lon="3.1251656">
<ele>16.52</ele>
<time>2016-10-16T07:31:06Z</time>
</trkpt>
<trkpt lat="39.7615591" lon="3.1249078">
<ele>16.88</ele>
<time>2016-10-16T07:31:10Z</time>
</trkpt>
<trkpt lat="39.7614798" lon="3.1246378">
<ele>17.95</ele>
<time>2016-10-16T07:31:14Z</time>
</trkpt>
<trkpt lat="39.7614074" lon="3.1244122">
<ele>17.45</ele>
<time>2016-10-16T07:31:17Z</time>
</trkpt>
<trkpt lat="39.7613199" lon="3.1241325">
<ele>16.77</ele>
<time>2016-10-16T07:31:21Z</time>
</trkpt>
<trkpt lat="39.7612285" lon="3.1238591">
<ele>15.98</ele>
<time>2016-10-16T07:31:25Z</time>
</trkpt>
<trkpt lat="39.7611543" lon="3.1236378">
<ele>14.33</ele>
<time>2016-10-16T07:31:29Z</time>
</trkpt>
<trkpt lat="39.7610728" lon="3.1233987">
<ele>16.38</ele>
<time>2016-10-16T07:31:34Z</time>
</trkpt>
<trkpt lat="39.7609967" lon="3.1231729">
<ele>18.10</ele>
<time>2016-10-16T07:31:38Z</time>
</trkpt>
<trkpt lat="39.7609259" lon="3.1229334">
<ele>17.82</ele>
<time>2016-10-16T07:31:42Z</time>
</trkpt>
<trkpt lat="39.7608529" lon="3.1226882">
<ele>17.69</ele>
<time>2016-10-16T07:31:47Z</time>
</trkpt>
<trkpt lat="39.7607669" lon="3.1224293">
<ele>18.56</ele>
<time>2016-10-16T07:31:52Z</time>
</trkpt>
<trkpt lat="39.7606884" lon="3.1221852">
<ele>18.74</ele>
<time>2016-10-16T07:31:57Z</time>
</trkpt>
<trkpt lat="39.7606384" lon="3.1219438">
<ele>20.34</ele>
<time>2016-10-16T07:32:02Z</time>
</trkpt>
<trkpt lat="39.7605986" lon="3.1216685">
<ele>22.24</ele>
<time>2016-10-16T07:32:07Z</time>
</trkpt>
<trkpt lat="39.7605584" lon="3.1214114">
<ele>21.96</ele>
<time>2016-10-16T07:32:11Z</time>
</trkpt>
<trkpt lat="39.7604977" lon="3.1211826">
<ele>21.90</ele>
<time>2016-10-16T07:32:14Z</time>
</trkpt>
<trkpt lat="39.7604000" lon="3.1209548">
<ele>21.75</ele>
<time>2016-10-16T07:32:17Z</time>
</trkpt>
<trkpt lat="39.7602745" lon="3.1207403">
<ele>21.77</ele>
<time>2016-10-16T07:32:20Z</time>
</trkpt>
<trkpt lat="39.7601492" lon="3.1205286">
<ele>22.35</ele>
<time>2016-10-16T07:32:23Z</time>
</trkpt>
<trkpt lat="39.7600575" lon="3.1202564">
<ele>22.66</ele>
<time>2016-10-16T07:32:26Z</time>
</trkpt>
<trkpt lat="39.7600229" lon="3.1199697">
<ele>21.23</ele>
<time>2016-10-16T07:32:29Z</time>
</trkpt>
<trkpt lat="39.7600171" lon="3.1196893">
<ele>19.85</ele>
<time>2016-10-16T07:32:32Z</time>
</trkpt>
<trkpt lat="39.7600246" lon="3.1193563">
<ele>19.14</ele>
<time>2016-10-16T07:32:35Z</time>
</trkpt>
<trkpt lat="39.7600348" lon="3.1190153">
<ele>18.28</ele>
<time>2016-10-16T07:32:38Z</time>
</trkpt>
<trkpt lat="39.7600441" lon="3.1187498">
<ele>17.99</ele>
<time>2016-10-16T07:32:40Z</time>
</trkpt>
<trkpt lat="39.7600521" lon="3.1185091">
<ele>17.20</ele>
<time>2016-10-16T07:32:42Z</time>
</trkpt>
<trkpt lat="39.7600601" lon="3.1182634">
<ele>16.11</ele>
<time>2016-10-16T07:32:44Z</time>
</trkpt>
<trkpt lat="39.7600707" lon="3.1180232">
<ele>15.10</ele>
<time>2016-10-16T07:32:46Z</time>
</trkpt>
<trkpt lat="39.7600784" lon="3.1176797">
<ele>14.42</ele>
<time>2016-10-16T07:32:49Z</time>
</trkpt>
<trkpt lat="39.7600741" lon="3.1173482">
<ele>14.15</ele>
<time>2016-10-16T07:32:52Z</time>
</trkpt>
<trkpt lat="39.7600717" lon="3.1170238">
<ele>13.49</ele>
<time>2016-10-16T07:32:55Z</time>
</trkpt>
<trkpt lat="39.7600748" lon="3.1167895">
<ele>13.34</ele>
<time>2016-10-16T07:32:57Z</time>
</trkpt>
<trkpt lat="39.7600762" lon="3.1165544">
<ele>13.19</ele>
<time>2016-10-16T07:32:59Z</time>
</trkpt>
<trkpt lat="39.7600791" lon="3.1161966">
<ele>13.89</ele>
<time>2016-10-16T07:33:02Z</time>
</trkpt>
<trkpt lat="39.7600810" lon="3.1159587">
<ele>14.27</ele>
<time>2016-10-16T07:33:04Z</time>
</trkpt>
<trkpt lat="39.7600867" lon="3.1156079">
<ele>14.72</ele>
<time>2016-10-16T07:33:07Z</time>
</trkpt>
<trkpt lat="39.7600949" lon="3.1153686">
<ele>13.89</ele>
<time>2016-10-16T07:33:09Z</time>
</trkpt>
<trkpt lat="39.7601001" lon="3.1151332">
<ele>12.70</ele>
<time>2016-10-16T07:33:11Z</time>
</trkpt>
<trkpt lat="39.7601015" lon="3.1148064">
<ele>11.26</ele>
<time>2016-10-16T07:33:14Z</time>
</trkpt>
<trkpt lat="39.7601083" lon="3.1145714">
<ele>10.87</ele>
<time>2016-10-16T07:33:16Z</time>
</trkpt>
<trkpt lat="39.7601150" lon="3.1143088">
<ele>10.06</ele>
<time>2016-10-16T07:33:18Z</time>
</trkpt>
<trkpt lat="39.7601205" lon="3.1140483">
<ele>9.59</ele>
<time>2016-10-16T07:33:20Z</time>
</trkpt>
<trkpt lat="39.7601207" lon="3.1138094">
<ele>9.37</ele>
<time>2016-10-16T07:33:22Z</time>
</trkpt>
<trkpt lat="39.7601209" lon="3.1135657">
<ele>8.33</ele>
<time>2016-10-16T07:33:24Z</time>
</trkpt>
<trkpt lat="39.7601209" lon="3.1133314">
<ele>7.40</ele>
<time>2016-10-16T07:33:26Z</time>
</trkpt>
<trkpt lat="39.7601204" lon="3.1130087">
<ele>7.85</ele>
<time>2016-10-16T07:33:29Z</time>
</trkpt>
<trkpt lat="39.7601254" lon="3.1126972">
<ele>7.92</ele>
<time>2016-10-16T07:33:32Z</time>
</trkpt>
<trkpt lat="39.7601507" lon="3.1123929">
<ele>7.14</ele>
<time>2016-10-16T07:33:35Z</time>
</trkpt>
<trkpt lat="39.7602261" lon="3.1120756">
<ele>7.01</ele>
<time>2016-10-16T07:33:38Z</time>
</trkpt>
<trkpt lat="39.7603459" lon="3.1118038">
<ele>6.84</ele>
<time>2016-10-16T07:33:41Z</time>
</trkpt>
<trkpt lat="39.7604835" lon="3.1115388">
<ele>6.38</ele>
<time>2016-10-16T07:33:44Z</time>
</trkpt>
<trkpt lat="39.7606203" lon="3.1112936">
<ele>5.86</ele>
<time>2016-10-16T07:33:47Z</time>
</trkpt>
<trkpt lat="39.7607674" lon="3.1110527">
<ele>5.76</ele>
<time>2016-10-16T07:33:50Z</time>
</trkpt>
<trkpt lat="39.7608974" lon="3.1108198">
<ele>5.66</ele>
<time>2016-10-16T07:33:53Z</time>
</trkpt>
<trkpt lat="39.7610180" lon="3.1105892">
<ele>6.22</ele>
<time>2016-10-16T07:33:56Z</time>
</trkpt>
<trkpt lat="39.7611448" lon="3.1103629">
<ele>5.64</ele>
<time>2016-10-16T07:33:59Z</time>
</trkpt>
<trkpt lat="39.7612646" lon="3.1101335">
<ele>5.46</ele>
<time>2016-10-16T07:34:02Z</time>
</trkpt>
<trkpt lat="39.7613929" lon="3.1098920">
<ele>7.23</ele>
<time>2016-10-16T07:34:05Z</time>
</trkpt>
<trkpt lat="39.7615228" lon="3.1096613">
<ele>7.66</ele>
<time>2016-10-16T07:34:08Z</time>
</trkpt>
<trkpt lat="39.7616495" lon="3.1094372">
<ele>7.80</ele>
<time>2016-10-16T07:34:11Z</time>
</trkpt>
<trkpt lat="39.7617661" lon="3.1092139">
<ele>8.48</ele>
<time>2016-10-16T07:34:14Z</time>
</trkpt>
<trkpt lat="39.7618883" lon="3.1089969">
<ele>8.03</ele>
<time>2016-10-16T07:34:17Z</time>
</trkpt>
<trkpt lat="39.7620082" lon="3.1087711">
<ele>7.08</ele>
<time>2016-10-16T07:34:20Z</time>
</trkpt>
<trkpt lat="39.7621195" lon="3.1085526">
<ele>6.65</ele>
<time>2016-10-16T07:34:22Z</time>
</trkpt>
<trkpt lat="39.7622412" lon="3.1083193">
<ele>7.29</ele>
<time>2016-10-16T07:34:25Z</time>
</trkpt>
<trkpt lat="39.7623587" lon="3.1080950">
<ele>8.09</ele>
<time>2016-10-16T07:34:28Z</time>
</trkpt>
<trkpt lat="39.7624715" lon="3.1078814">
<ele>9.35</ele>
<time>2016-10-16T07:34:31Z</time>
</trkpt>
<trkpt lat="39.7625733" lon="3.1076783">
<ele>10.10</ele>
<time>2016-10-16T07:34:34Z</time>
</trkpt>
<trkpt lat="39.7626767" lon="3.1074780">
<ele>9.84</ele>
<time>2016-10-16T07:34:37Z</time>
</trkpt>
<trkpt lat="39.7627803" lon="3.1072751">
<ele>9.56</ele>
<time>2016-10-16T07:34:40Z</time>
</trkpt>
<trkpt lat="39.7628851" lon="3.1070696">
<ele>10.50</ele>
<time>2016-10-16T07:34:43Z</time>
</trkpt>
<trkpt lat="39.7629958" lon="3.1068689">
<ele>11.33</ele>
<time>2016-10-16T07:34:46Z</time>
</trkpt>
<trkpt lat="39.7631075" lon="3.1066666">
<ele>11.60</ele>
<time>2016-10-16T07:34:49Z</time>
</trkpt>
<trkpt lat="39.7632204" lon="3.1064655">
<ele>10.23</ele>
<time>2016-10-16T07:34:52Z</time>
</trkpt>
<trkpt lat="39.7633415" lon="3.1062555">
<ele>8.95</ele>
<time>2016-10-16T07:34:55Z</time>
</trkpt>
<trkpt lat="39.7634525" lon="3.1060462">
<ele>8.74</ele>
<time>2016-10-16T07:34:58Z</time>
</trkpt>
<trkpt lat="39.7635682" lon="3.1058353">
<ele>9.18</ele>
<time>2016-10-16T07:35:01Z</time>
</trkpt>
<trkpt lat="39.7636854" lon="3.1056233">
<ele>9.68</ele>
<time>2016-10-16T07:35:04Z</time>
</trkpt>
<trkpt lat="39.7638020" lon="3.1054227">
<ele>9.53</ele>
<time>2016-10-16T07:35:07Z</time>
</trkpt>
<trkpt lat="39.7639098" lon="3.1052155">
<ele>8.92</ele>
<time>2016-10-16T07:35:10Z</time>
</trkpt>
<trkpt lat="39.7640150" lon="3.1050235">
<ele>8.05</ele>
<time>2016-10-16T07:35:13Z</time>
</trkpt>
<trkpt lat="39.7641284" lon="3.1048213">
<ele>8.10</ele>
<time>2016-10-16T07:35:16Z</time>
</trkpt>
<trkpt lat="39.7642488" lon="3.1046092">
<ele>7.26</ele>
<time>2016-10-16T07:35:19Z</time>
</trkpt>
<trkpt lat="39.7643647" lon="3.1044021">
<ele>6.37</ele>
<time>2016-10-16T07:35:22Z</time>
</trkpt>
<trkpt lat="39.7644596" lon="3.1041946">
<ele>5.77</ele>
<time>2016-10-16T07:35:25Z</time>
</trkpt>
<trkpt lat="39.7645451" lon="3.1038957">
<ele>5.35</ele>
<time>2016-10-16T07:35:29Z</time>
</trkpt>
<trkpt lat="39.7646013" lon="3.1036388">
<ele>5.15</ele>
<time>2016-10-16T07:35:32Z</time>
</trkpt>
<trkpt lat="39.7646561" lon="3.1033862">
<ele>5.35</ele>
<time>2016-10-16T07:35:35Z</time>
</trkpt>
<trkpt lat="39.7647134" lon="3.1031363">
<ele>6.41</ele>
<time>2016-10-16T07:35:38Z</time>
</trkpt>
<trkpt lat="39.7647711" lon="3.1028976">
<ele>6.37</ele>
<time>2016-10-16T07:35:41Z</time>
</trkpt>
<trkpt lat="39.7648267" lon="3.1026675">
<ele>5.43</ele>
<time>2016-10-16T07:35:44Z</time>
</trkpt>
<trkpt lat="39.7648879" lon="3.1024292">
<ele>4.37</ele>
<time>2016-10-16T07:35:47Z</time>
</trkpt>
<trkpt lat="39.7649470" lon="3.1021939">
<ele>4.50</ele>
<time>2016-10-16T07:35:50Z</time>
</trkpt>
<trkpt lat="39.7650000" lon="3.1019477">
<ele>5.67</ele>
<time>2016-10-16T07:35:53Z</time>
</trkpt>
<trkpt lat="39.7650647" lon="3.1016510">
<ele>5.46</ele>
<time>2016-10-16T07:35:57Z</time>
</trkpt>
<trkpt lat="39.7651382" lon="3.1013553">
<ele>6.38</ele>
<time>2016-10-16T07:36:01Z</time>
</trkpt>
<trkpt lat="39.7651986" lon="3.1011116">
<ele>6.93</ele>
<time>2016-10-16T07:36:04Z</time>
</trkpt>
<trkpt lat="39.7652611" lon="3.1008635">
<ele>7.02</ele>
<time>2016-10-16T07:36:07Z</time>
</trkpt>
<trkpt lat="39.7653257" lon="3.1006289">
<ele>6.82</ele>
<time>2016-10-16T07:36:10Z</time>
</trkpt>
<trkpt lat="39.7653984" lon="3.1004068">
<ele>6.94</ele>
<time>2016-10-16T07:36:13Z</time>
</trkpt>
<trkpt lat="39.7654703" lon="3.1001803">
<ele>7.40</ele>
<time>2016-10-16T07:36:16Z</time>
</trkpt>
<trkpt lat="39.7655313" lon="3.0999388">
<ele>8.24</ele>
<time>2016-10-16T07:36:19Z</time>
</trkpt>
<trkpt lat="39.7655803" lon="3.0997109">
<ele>7.71</ele>
<time>2016-10-16T07:36:22Z</time>
</trkpt>
<trkpt lat="39.7656149" lon="3.0994754">
<ele>6.17</ele>
<time>2016-10-16T07:36:25Z</time>
</trkpt>
<trkpt lat="39.7656412" lon="3.0990788">
<ele>4.68</ele>
<time>2016-10-16T07:36:30Z</time>
</trkpt>
<trkpt lat="39.7656572" lon="3.0988381">
<ele>4.69</ele>
<time>2016-10-16T07:36:33Z</time>
</trkpt>
<trkpt lat="39.7656685" lon="3.0986036">
<ele>4.52</ele>
<time>2016-10-16T07:36:36Z</time>
</trkpt>
<trkpt lat="39.7656639" lon="3.0983645">
<ele>5.28</ele>
<time>2016-10-16T07:36:39Z</time>
</trkpt>
<trkpt lat="39.7656439" lon="3.0981192">
<ele>6.39</ele>
<time>2016-10-16T07:36:42Z</time>
</trkpt>
<trkpt lat="39.7656083" lon="3.0978186">
<ele>7.57</ele>
<time>2016-10-16T07:36:46Z</time>
</trkpt>
<trkpt lat="39.7655793" lon="3.0975102">
<ele>8.17</ele>
<time>2016-10-16T07:36:50Z</time>
</trkpt>
<trkpt lat="39.7655572" lon="3.0972692">
<ele>7.83</ele>
<time>2016-10-16T07:36:53Z</time>
</trkpt>
<trkpt lat="39.7655298" lon="3.0970327">
<ele>8.07</ele>
<time>2016-10-16T07:36:56Z</time>
</trkpt>
<trkpt lat="39.7654435" lon="3.0967517">
<ele>8.54</ele>
<time>2016-10-16T07:37:00Z</time>
</trkpt>
<trkpt lat="39.7653658" lon="3.0965384">
<ele>8.37</ele>
<time>2016-10-16T07:37:03Z</time>
</trkpt>
<trkpt lat="39.7652841" lon="3.0963119">
<ele>8.69</ele>
<time>2016-10-16T07:37:06Z</time>
</trkpt>
<trkpt lat="39.7651870" lon="3.0960461">
<ele>9.25</ele>
<time>2016-10-16T07:37:10Z</time>
</trkpt>
<trkpt lat="39.7651017" lon="3.0957919">
<ele>9.15</ele>
<time>2016-10-16T07:37:14Z</time>
</trkpt>
<trkpt lat="39.7650222" lon="3.0955121">
<ele>8.97</ele>
<time>2016-10-16T07:37:18Z</time>
</trkpt>
<trkpt lat="39.7649504" lon="3.0952287">
<ele>10.24</ele>
<time>2016-10-16T07:37:22Z</time>
</trkpt>
<trkpt lat="39.7649053" lon="3.0949329">
<ele>8.09</ele>
<time>2016-10-16T07:37:26Z</time>
</trkpt>
<trkpt lat="39.7648687" lon="3.0946251">
<ele>7.88</ele>
<time>2016-10-16T07:37:30Z</time>
</trkpt>
<trkpt lat="39.7648381" lon="3.0943892">
<ele>7.58</ele>
<time>2016-10-16T07:37:33Z</time>
</trkpt>
<trkpt lat="39.7648079" lon="3.0941574">
<ele>6.50</ele>
<time>2016-10-16T07:37:36Z</time>
</trkpt>
<trkpt lat="39.7647773" lon="3.0939247">
<ele>5.51</ele>
<time>2016-10-16T07:37:39Z</time>
</trkpt>
<trkpt lat="39.7647366" lon="3.0936187">
<ele>4.42</ele>
<time>2016-10-16T07:37:43Z</time>
</trkpt>
<trkpt lat="39.7647040" lon="3.0933822">
<ele>4.67</ele>
<time>2016-10-16T07:37:46Z</time>
</trkpt>
<trkpt lat="39.7646720" lon="3.0931433">
<ele>4.04</ele>
<time>2016-10-16T07:37:49Z</time>
</trkpt>
<trkpt lat="39.7646260" lon="3.0928305">
<ele>3.49</ele>
<time>2016-10-16T07:37:53Z</time>
</trkpt>
<trkpt lat="39.7645937" lon="3.0925929">
<ele>3.26</ele>
<time>2016-10-16T07:37:56Z</time>
</trkpt>
<trkpt lat="39.7645585" lon="3.0923482">
<ele>3.87</ele>
<time>2016-10-16T07:37:59Z</time>
</trkpt>
<trkpt lat="39.7645124" lon="3.0920417">
<ele>4.15</ele>
<time>2016-10-16T07:38:03Z</time>
</trkpt>
<trkpt lat="39.7644716" lon="3.0917389">
<ele>4.29</ele>
<time>2016-10-16T07:38:07Z</time>
</trkpt>
<trkpt lat="39.7644375" lon="3.0915055">
<ele>5.14</ele>
<time>2016-10-16T07:38:10Z</time>
</trkpt>
<trkpt lat="39.7644046" lon="3.0912638">
<ele>6.24</ele>
<time>2016-10-16T07:38:13Z</time>
</trkpt>
<trkpt lat="39.7643672" lon="3.0910243">
<ele>7.83</ele>
<time>2016-10-16T07:38:16Z</time>
</trkpt>
<trkpt lat="39.7643206" lon="3.0907225">
<ele>7.53</ele>
<time>2016-10-16T07:38:20Z</time>
</trkpt>
<trkpt lat="39.7642750" lon="3.0904093">
<ele>7.45</ele>
<time>2016-10-16T07:38:24Z</time>
</trkpt>
<trkpt lat="39.7642416" lon="3.0901266">
<ele>7.11</ele>
<time>2016-10-16T07:38:28Z</time>
</trkpt>
<trkpt lat="39.7641951" lon="3.0898179">
<ele>6.84</ele>
<time>2016-10-16T07:38:32Z</time>
</trkpt>
<trkpt lat="39.7641654" lon="3.0895732">
<ele>7.64</ele>
<time>2016-10-16T07:38:35Z</time>
</trkpt>
<trkpt lat="39.7641299" lon="3.0893342">
<ele>8.45</ele>
<time>2016-10-16T07:38:38Z</time>
</trkpt>
<trkpt lat="39.7640941" lon="3.0890977">
<ele>8.34</ele>
<time>2016-10-16T07:38:41Z</time>
</trkpt>
<trkpt lat="39.7640639" lon="3.0888503">
<ele>7.59</ele>
<time>2016-10-16T07:38:44Z</time>
</trkpt>
<trkpt lat="39.7640355" lon="3.0886002">
<ele>7.01</ele>
<time>2016-10-16T07:38:47Z</time>
</trkpt>
<trkpt lat="39.7640207" lon="3.0883364">
<ele>6.79</ele>
<time>2016-10-16T07:38:50Z</time>
</trkpt>
<trkpt lat="39.7640189" lon="3.0880630">
<ele>5.74</ele>
<time>2016-10-16T07:38:53Z</time>
</trkpt>
<trkpt lat="39.7640274" lon="3.0877938">
<ele>4.34</ele>
<time>2016-10-16T07:38:56Z</time>
</trkpt>
<trkpt lat="39.7640455" lon="3.0875268">
<ele>4.07</ele>
<time>2016-10-16T07:38:59Z</time>
</trkpt>
<trkpt lat="39.7640736" lon="3.0872713">
<ele>4.17</ele>
<time>2016-10-16T07:39:02Z</time>
</trkpt>
<trkpt lat="39.7641099" lon="3.0870035">
<ele>4.16</ele>
<time>2016-10-16T07:39:05Z</time>
</trkpt>
<trkpt lat="39.7641528" lon="3.0867714">
<ele>4.63</ele>
<time>2016-10-16T07:39:08Z</time>
</trkpt>
<trkpt lat="39.7642074" lon="3.0865306">
<ele>4.21</ele>
<time>2016-10-16T07:39:11Z</time>
</trkpt>
<trkpt lat="39.7642633" lon="3.0862894">
<ele>3.71</ele>
<time>2016-10-16T07:39:14Z</time>
</trkpt>
<trkpt lat="39.7643295" lon="3.0860449">
<ele>5.64</ele>
<time>2016-10-16T07:39:17Z</time>
</trkpt>
<trkpt lat="39.7644013" lon="3.0858081">
<ele>6.99</ele>
<time>2016-10-16T07:39:20Z</time>
</trkpt>
<trkpt lat="39.7644842" lon="3.0855856">
<ele>7.57</ele>
<time>2016-10-16T07:39:23Z</time>
</trkpt>
<trkpt lat="39.7645875" lon="3.0853605">
<ele>6.38</ele>
<time>2016-10-16T07:39:26Z</time>
</trkpt>
<trkpt lat="39.7646923" lon="3.0851418">
<ele>5.29</ele>
<time>2016-10-16T07:39:29Z</time>
</trkpt>
<trkpt lat="39.7648060" lon="3.0849346">
<ele>5.10</ele>
<time>2016-10-16T07:39:32Z</time>
</trkpt>
<trkpt lat="39.7649214" lon="3.0847182">
<ele>5.57</ele>
<time>2016-10-16T07:39:35Z</time>
</trkpt>
<trkpt lat="39.7650291" lon="3.0845078">
<ele>5.98</ele>
<time>2016-10-16T07:39:38Z</time>
</trkpt>
<trkpt lat="39.7651381" lon="3.0842923">
<ele>6.11</ele>
<time>2016-10-16T07:39:41Z</time>
</trkpt>
<trkpt lat="39.7652664" lon="3.0840293">
<ele>6.90</ele>
<time>2016-10-16T07:39:45Z</time>
</trkpt>
<trkpt lat="39.7653749" lon="3.0838317">
<ele>6.14</ele>
<time>2016-10-16T07:39:48Z</time>
</trkpt>
<trkpt lat="39.7654995" lon="3.0835696">
<ele>6.51</ele>
<time>2016-10-16T07:39:52Z</time>
</trkpt>
<trkpt lat="39.7655854" lon="3.0833459">
<ele>6.21</ele>
<time>2016-10-16T07:39:55Z</time>
</trkpt>
<trkpt lat="39.7656430" lon="3.0831131">
<ele>6.61</ele>
<time>2016-10-16T07:39:58Z</time>
</trkpt>
<trkpt lat="39.7656942" lon="3.0828211">
<ele>6.78</ele>
<time>2016-10-16T07:40:02Z</time>
</trkpt>
<trkpt lat="39.7657425" lon="3.0825637">
<ele>7.54</ele>
<time>2016-10-16T07:40:06Z</time>
</trkpt>
<trkpt lat="39.7658623" lon="3.0823593">
<ele>7.76</ele>
<time>2016-10-16T07:40:10Z</time>
</trkpt>
<trkpt lat="39.7660674" lon="3.0823064">
<ele>7.98</ele>
<time>2016-10-16T07:40:14Z</time>
</trkpt>
<trkpt lat="39.7662586" lon="3.0821478">
<ele>8.50</ele>
<time>2016-10-16T07:40:18Z</time>
</trkpt>
<trkpt lat="39.7663744" lon="3.0819555">
<ele>8.94</ele>
<time>2016-10-16T07:40:21Z</time>
</trkpt>
<trkpt lat="39.7664764" lon="3.0817466">
<ele>8.61</ele>
<time>2016-10-16T07:40:24Z</time>
</trkpt>
<trkpt lat="39.7666056" lon="3.0814900">
<ele>10.66</ele>
<time>2016-10-16T07:40:28Z</time>
</trkpt>
<trkpt lat="39.7667329" lon="3.0812387">
<ele>11.60</ele>
<time>2016-10-16T07:40:32Z</time>
</trkpt>
<trkpt lat="39.7668414" lon="3.0810348">
<ele>12.03</ele>
<time>2016-10-16T07:40:35Z</time>
</trkpt>
<trkpt lat="39.7669413" lon="3.0808303">
<ele>11.12</ele>
<time>2016-10-16T07:40:38Z</time>
</trkpt>
<trkpt lat="39.7670490" lon="3.0806176">
<ele>10.38</ele>
<time>2016-10-16T07:40:41Z</time>
</trkpt>
<trkpt lat="39.7671577" lon="3.0804086">
<ele>9.41</ele>
<time>2016-10-16T07:40:44Z</time>
</trkpt>
<trkpt lat="39.7672661" lon="3.0802186">
<ele>8.76</ele>
<time>2016-10-16T07:40:47Z</time>
</trkpt>
<trkpt lat="39.7673729" lon="3.0800240">
<ele>8.23</ele>
<time>2016-10-16T07:40:50Z</time>
</trkpt>
<trkpt lat="39.7674720" lon="3.0798254">
<ele>8.75</ele>
<time>2016-10-16T07:40:53Z</time>
</trkpt>
<trkpt lat="39.7676016" lon="3.0795792">
<ele>9.64</ele>
<time>2016-10-16T07:40:57Z</time>
</trkpt>
<trkpt lat="39.7677311" lon="3.0793275">
<ele>9.75</ele>
<time>2016-10-16T07:41:01Z</time>
</trkpt>
<trkpt lat="39.7678377" lon="3.0791279">
<ele>9.09</ele>
<time>2016-10-16T07:41:04Z</time>
</trkpt>
<trkpt lat="39.7679474" lon="3.0789214">
<ele>8.33</ele>
<time>2016-10-16T07:41:07Z</time>
</trkpt>
<trkpt lat="39.7680529" lon="3.0787281">
<ele>6.62</ele>
<time>2016-10-16T07:41:10Z</time>
</trkpt>
<trkpt lat="39.7681636" lon="3.0785352">
<ele>5.86</ele>
<time>2016-10-16T07:41:13Z</time>
</trkpt>
<trkpt lat="39.7682974" lon="3.0782842">
<ele>4.76</ele>
<time>2016-10-16T07:41:17Z</time>
</trkpt>
<trkpt lat="39.7684153" lon="3.0780445">
<ele>4.21</ele>
<time>2016-10-16T07:41:21Z</time>
</trkpt>
<trkpt lat="39.7685281" lon="3.0777813">
<ele>3.32</ele>
<time>2016-10-16T07:41:25Z</time>
</trkpt>
<trkpt lat="39.7686186" lon="3.0775166">
<ele>3.18</ele>
<time>2016-10-16T07:41:29Z</time>
</trkpt>
<trkpt lat="39.7686982" lon="3.0772641">
<ele>4.40</ele>
<time>2016-10-16T07:41:33Z</time>
</trkpt>
<trkpt lat="39.7687832" lon="3.0769793">
<ele>5.07</ele>
<time>2016-10-16T07:41:37Z</time>
</trkpt>
<trkpt lat="39.7688787" lon="3.0767306">
<ele>5.90</ele>
<time>2016-10-16T07:41:41Z</time>
</trkpt>
<trkpt lat="39.7689875" lon="3.0764859">
<ele>5.69</ele>
<time>2016-10-16T07:41:45Z</time>
</trkpt>
<trkpt lat="39.7690916" lon="3.0762320">
<ele>6.45</ele>
<time>2016-10-16T07:41:49Z</time>
</trkpt>
<trkpt lat="39.7691666" lon="3.0759774">
<ele>5.56</ele>
<time>2016-10-16T07:41:53Z</time>
</trkpt>
<trkpt lat="39.7692261" lon="3.0757030">
<ele>4.76</ele>
<time>2016-10-16T07:41:57Z</time>
</trkpt>
<trkpt lat="39.7693080" lon="3.0754519">
<ele>7.50</ele>
<time>2016-10-16T07:42:01Z</time>
</trkpt>
<trkpt lat="39.7694249" lon="3.0752116">
<ele>9.85</ele>
<time>2016-10-16T07:42:05Z</time>
</trkpt>
<trkpt lat="39.7695494" lon="3.0749771">
<ele>9.92</ele>
<time>2016-10-16T07:42:09Z</time>
</trkpt>
<trkpt lat="39.7696829" lon="3.0747176">
<ele>9.20</ele>
<time>2016-10-16T07:42:13Z</time>
</trkpt>
<trkpt lat="39.7698070" lon="3.0744700">
<ele>8.48</ele>
<time>2016-10-16T07:42:17Z</time>
</trkpt>
<trkpt lat="39.7699171" lon="3.0742306">
<ele>8.22</ele>
<time>2016-10-16T07:42:21Z</time>
</trkpt>
<trkpt lat="39.7700300" lon="3.0739899">
<ele>9.29</ele>
<time>2016-10-16T07:42:25Z</time>
</trkpt>
<trkpt lat="39.7701521" lon="3.0737473">
<ele>8.96</ele>
<time>2016-10-16T07:42:30Z</time>
</trkpt>
<trkpt lat="39.7702839" lon="3.0734985">
<ele>8.85</ele>
<time>2016-10-16T07:42:34Z</time>
</trkpt>
<trkpt lat="39.7703841" lon="3.0732900">
<ele>9.08</ele>
<time>2016-10-16T07:42:37Z</time>
</trkpt>
<trkpt lat="39.7705114" lon="3.0730518">
<ele>9.22</ele>
<time>2016-10-16T07:42:41Z</time>
</trkpt>
<trkpt lat="39.7706393" lon="3.0727960">
<ele>8.36</ele>
<time>2016-10-16T07:42:45Z</time>
</trkpt>
<trkpt lat="39.7707464" lon="3.0725415">
<ele>9.96</ele>
<time>2016-10-16T07:42:49Z</time>
</trkpt>
<trkpt lat="39.7708646" lon="3.0723071">
<ele>11.74</ele>
<time>2016-10-16T07:42:53Z</time>
</trkpt>
<trkpt lat="39.7709676" lon="3.0721050">
<ele>11.89</ele>
<time>2016-10-16T07:42:56Z</time>
</trkpt>
<trkpt lat="39.7710718" lon="3.0718997">
<ele>10.59</ele>
<time>2016-10-16T07:42:59Z</time>
</trkpt>
<trkpt lat="39.7711866" lon="3.0716360">
<ele>9.33</ele>
<time>2016-10-16T07:43:03Z</time>
</trkpt>
<trkpt lat="39.7712926" lon="3.0713796">
<ele>9.17</ele>
<time>2016-10-16T07:43:07Z</time>
</trkpt>
<trkpt lat="39.7714087" lon="3.0711154">
<ele>8.55</ele>
<time>2016-10-16T07:43:11Z</time>
</trkpt>
<trkpt lat="39.7715148" lon="3.0708460">
<ele>8.65</ele>
<time>2016-10-16T07:43:15Z</time>
</trkpt>
<trkpt lat="39.7716222" lon="3.0705671">
<ele>11.08</ele>
<time>2016-10-16T07:43:19Z</time>
</trkpt>
<trkpt lat="39.7717076" lon="3.0703435">
<ele>14.44</ele>
<time>2016-10-16T07:43:22Z</time>
</trkpt>
<trkpt lat="39.7717949" lon="3.0701145">
<ele>15.52</ele>
<time>2016-10-16T07:43:25Z</time>
</trkpt>
<trkpt lat="39.7718858" lon="3.0698904">
<ele>14.46</ele>
<time>2016-10-16T07:43:28Z</time>
</trkpt>
<trkpt lat="39.7719750" lon="3.0696692">
<ele>12.95</ele>
<time>2016-10-16T07:43:31Z</time>
</trkpt>
<trkpt lat="39.7720606" lon="3.0694481">
<ele>11.44</ele>
<time>2016-10-16T07:43:34Z</time>
</trkpt>
<trkpt lat="39.7721422" lon="3.0692299">
<ele>9.81</ele>
<time>2016-10-16T07:43:37Z</time>
</trkpt>
<trkpt lat="39.7722209" lon="3.0690148">
<ele>8.76</ele>
<time>2016-10-16T07:43:40Z</time>
</trkpt>
<trkpt lat="39.7723327" lon="3.0687543">
<ele>7.54</ele>
<time>2016-10-16T07:43:44Z</time>
</trkpt>
<trkpt lat="39.7724340" lon="3.0685606">
<ele>7.09</ele>
<time>2016-10-16T07:43:47Z</time>
</trkpt>
<trkpt lat="39.7725691" lon="3.0683089">
<ele>6.88</ele>
<time>2016-10-16T07:43:51Z</time>
</trkpt>
<trkpt lat="39.7726937" lon="3.0680646">
<ele>8.64</ele>
<time>2016-10-16T07:43:55Z</time>
</trkpt>
<trkpt lat="39.7728033" lon="3.0678277">
<ele>8.84</ele>
<time>2016-10-16T07:43:59Z</time>
</trkpt>
<trkpt lat="39.7729030" lon="3.0676248">
<ele>8.39</ele>
<time>2016-10-16T07:44:02Z</time>
</trkpt>
<trkpt lat="39.7730395" lon="3.0673683">
<ele>7.67</ele>
<time>2016-10-16T07:44:06Z</time>
</trkpt>
<trkpt lat="39.7731447" lon="3.0671767">
<ele>6.83</ele>
<time>2016-10-16T07:44:09Z</time>
</trkpt>
<trkpt lat="39.7733008" lon="3.0669566">
<ele>7.71</ele>
<time>2016-10-16T07:44:13Z</time>
</trkpt>
<trkpt lat="39.7734393" lon="3.0667844">
<ele>8.84</ele>
<time>2016-10-16T07:44:16Z</time>
</trkpt>
<trkpt lat="39.7735784" lon="3.0666090">
<ele>9.68</ele>
<time>2016-10-16T07:44:19Z</time>
</trkpt>
<trkpt lat="39.7737543" lon="3.0663997">
<ele>10.06</ele>
<time>2016-10-16T07:44:23Z</time>
</trkpt>
<trkpt lat="39.7738889" lon="3.0662265">
<ele>10.65</ele>
<time>2016-10-16T07:44:26Z</time>
</trkpt>
<trkpt lat="39.7740167" lon="3.0660508">
<ele>10.21</ele>
<time>2016-10-16T07:44:29Z</time>
</trkpt>
<trkpt lat="39.7741515" lon="3.0658832">
<ele>9.93</ele>
<time>2016-10-16T07:44:32Z</time>
</trkpt>
<trkpt lat="39.7742834" lon="3.0657163">
<ele>9.53</ele>
<time>2016-10-16T07:44:35Z</time>
</trkpt>
<trkpt lat="39.7744072" lon="3.0655285">
<ele>8.63</ele>
<time>2016-10-16T07:44:38Z</time>
</trkpt>
<trkpt lat="39.7745253" lon="3.0653358">
<ele>8.32</ele>
<time>2016-10-16T07:44:41Z</time>
</trkpt>
<trkpt lat="39.7746402" lon="3.0651322">
<ele>8.27</ele>
<time>2016-10-16T07:44:44Z</time>
</trkpt>
<trkpt lat="39.7747598" lon="3.0649355">
<ele>7.79</ele>
<time>2016-10-16T07:44:47Z</time>
</trkpt>
<trkpt lat="39.7749029" lon="3.0647026">
<ele>9.34</ele>
<time>2016-10-16T07:44:51Z</time>
</trkpt>
<trkpt lat="39.7750368" lon="3.0644679">
<ele>10.25</ele>
<time>2016-10-16T07:44:55Z</time>
</trkpt>
<trkpt lat="39.7751578" lon="3.0642604">
<ele>10.06</ele>
<time>2016-10-16T07:44:59Z</time>
</trkpt>
<trkpt lat="39.7752637" lon="3.0640622">
<ele>9.66</ele>
<time>2016-10-16T07:45:03Z</time>
</trkpt>
<trkpt lat="39.7753666" lon="3.0638348">
<ele>8.90</ele>
<time>2016-10-16T07:45:07Z</time>
</trkpt>
<trkpt lat="39.7754657" lon="3.0635637">
<ele>8.59</ele>
<time>2016-10-16T07:45:11Z</time>
</trkpt>
<trkpt lat="39.7755414" lon="3.0633192">
<ele>7.99</ele>
<time>2016-10-16T07:45:14Z</time>
</trkpt>
<trkpt lat="39.7756116" lon="3.0630407">
<ele>7.26</ele>
<time>2016-10-16T07:45:17Z</time>
</trkpt>
<trkpt lat="39.7756789" lon="3.0627698">
<ele>7.40</ele>
<time>2016-10-16T07:45:20Z</time>
</trkpt>
<trkpt lat="39.7757356" lon="3.0625098">
<ele>8.56</ele>
<time>2016-10-16T07:45:23Z</time>
</trkpt>
<trkpt lat="39.7757988" lon="3.0622543">
<ele>9.33</ele>
<time>2016-10-16T07:45:26Z</time>
</trkpt>
<trkpt lat="39.7758665" lon="3.0620098">
<ele>9.63</ele>
<time>2016-10-16T07:45:29Z</time>
</trkpt>
<trkpt lat="39.7759318" lon="3.0617740">
<ele>9.14</ele>
<time>2016-10-16T07:45:32Z</time>
</trkpt>
<trkpt lat="39.7759980" lon="3.0615368">
<ele>8.61</ele>
<time>2016-10-16T07:45:35Z</time>
</trkpt>
<trkpt lat="39.7760682" lon="3.0612586">
<ele>7.98</ele>
<time>2016-10-16T07:45:39Z</time>
</trkpt>
<trkpt lat="39.7761405" lon="3.0609703">
<ele>7.94</ele>
<time>2016-10-16T07:45:43Z</time>
</trkpt>
<trkpt lat="39.7762099" lon="3.0606822">
<ele>8.22</ele>
<time>2016-10-16T07:45:47Z</time>
</trkpt>
<trkpt lat="39.7762884" lon="3.0603950">
<ele>7.81</ele>
<time>2016-10-16T07:45:51Z</time>
</trkpt>
<trkpt lat="39.7763669" lon="3.0601055">
<ele>7.05</ele>
<time>2016-10-16T07:45:55Z</time>
</trkpt>
<trkpt lat="39.7764440" lon="3.0598252">
<ele>7.69</ele>
<time>2016-10-16T07:45:59Z</time>
</trkpt>
<trkpt lat="39.7765074" lon="3.0595939">
<ele>8.23</ele>
<time>2016-10-16T07:46:02Z</time>
</trkpt>
<trkpt lat="39.7765756" lon="3.0593613">
<ele>8.20</ele>
<time>2016-10-16T07:46:05Z</time>
</trkpt>
<trkpt lat="39.7766478" lon="3.0591354">
<ele>7.74</ele>
<time>2016-10-16T07:46:08Z</time>
</trkpt>
<trkpt lat="39.7767113" lon="3.0589125">
<ele>7.41</ele>
<time>2016-10-16T07:46:11Z</time>
</trkpt>
<trkpt lat="39.7767711" lon="3.0586905">
<ele>7.57</ele>
<time>2016-10-16T07:46:14Z</time>
</trkpt>
<trkpt lat="39.7768365" lon="3.0584580">
<ele>7.91</ele>
<time>2016-10-16T07:46:17Z</time>
</trkpt>
<trkpt lat="39.7768987" lon="3.0582268">
<ele>7.48</ele>
<time>2016-10-16T07:46:20Z</time>
</trkpt>
<trkpt lat="39.7769589" lon="3.0580054">
<ele>7.03</ele>
<time>2016-10-16T07:46:23Z</time>
</trkpt>
<trkpt lat="39.7770443" lon="3.0577219">
<ele>7.51</ele>
<time>2016-10-16T07:46:27Z</time>
</trkpt>
<trkpt lat="39.7771160" lon="3.0574962">
<ele>8.05</ele>
<time>2016-10-16T07:46:30Z</time>
</trkpt>
<trkpt lat="39.7771856" lon="3.0572803">
<ele>8.30</ele>
<time>2016-10-16T07:46:33Z</time>
</trkpt>
<trkpt lat="39.7772656" lon="3.0570176">
<ele>7.57</ele>
<time>2016-10-16T07:46:37Z</time>
</trkpt>
<trkpt lat="39.7773406" lon="3.0568034">
<ele>7.25</ele>
<time>2016-10-16T07:46:40Z</time>
</trkpt>
<trkpt lat="39.7774117" lon="3.0565812">
<ele>7.26</ele>
<time>2016-10-16T07:46:43Z</time>
</trkpt>
<trkpt lat="39.7774834" lon="3.0563630">
<ele>6.96</ele>
<time>2016-10-16T07:46:46Z</time>
</trkpt>
<trkpt lat="39.7775568" lon="3.0561439">
<ele>6.63</ele>
<time>2016-10-16T07:46:49Z</time>
</trkpt>
<trkpt lat="39.7776478" lon="3.0558777">
<ele>6.46</ele>
<time>2016-10-16T07:46:53Z</time>
</trkpt>
<trkpt lat="39.7777481" lon="3.0556238">
<ele>6.42</ele>
<time>2016-10-16T07:46:57Z</time>
</trkpt>
<trkpt lat="39.7778556" lon="3.0553655">
<ele>6.16</ele>
<time>2016-10-16T07:47:01Z</time>
</trkpt>
<trkpt lat="39.7779786" lon="3.0551247">
<ele>6.24</ele>
<time>2016-10-16T07:47:05Z</time>
</trkpt>
<trkpt lat="39.7781090" lon="3.0548968">
<ele>6.76</ele>
<time>2016-10-16T07:47:09Z</time>
</trkpt>
<trkpt lat="39.7782436" lon="3.0546849">
<ele>6.84</ele>
<time>2016-10-16T07:47:13Z</time>
</trkpt>
<trkpt lat="39.7783573" lon="3.0544726">
<ele>7.41</ele>
<time>2016-10-16T07:47:17Z</time>
</trkpt>
<trkpt lat="39.7784685" lon="3.0542402">
<ele>7.79</ele>
<time>2016-10-16T07:47:21Z</time>
</trkpt>
<trkpt lat="39.7785668" lon="3.0539987">
<ele>8.95</ele>
<time>2016-10-16T07:47:25Z</time>
</trkpt>
<trkpt lat="39.7786549" lon="3.0537351">
<ele>9.56</ele>
<time>2016-10-16T07:47:29Z</time>
</trkpt>
<trkpt lat="39.7787148" lon="3.0534785">
<ele>9.15</ele>
<time>2016-10-16T07:47:33Z</time>
</trkpt>
<trkpt lat="39.7787592" lon="3.0532260">
<ele>8.51</ele>
<time>2016-10-16T07:47:37Z</time>
</trkpt>
<trkpt lat="39.7787353" lon="3.0529800">
<ele>7.77</ele>
<time>2016-10-16T07:47:41Z</time>
</trkpt>
<trkpt lat="39.7786203" lon="3.0527532">
<ele>7.71</ele>
<time>2016-10-16T07:47:45Z</time>
</trkpt>
<trkpt lat="39.7784686" lon="3.0525416">
<ele>6.90</ele>
<time>2016-10-16T07:47:49Z</time>
</trkpt>
<trkpt lat="39.7783181" lon="3.0523397">
<ele>6.61</ele>
<time>2016-10-16T07:47:53Z</time>
</trkpt>
<trkpt lat="39.7781707" lon="3.0521260">
<ele>6.66</ele>
<time>2016-10-16T07:47:57Z</time>
</trkpt>
<trkpt lat="39.7780295" lon="3.0519266">
<ele>7.57</ele>
<time>2016-10-16T07:48:01Z</time>
</trkpt>
<trkpt lat="39.7778795" lon="3.0517195">
<ele>8.22</ele>
<time>2016-10-16T07:48:05Z</time>
</trkpt>
<trkpt lat="39.7777281" lon="3.0515030">
<ele>7.62</ele>
<time>2016-10-16T07:48:09Z</time>
</trkpt>
<trkpt lat="39.7775909" lon="3.0513039">
<ele>7.69</ele>
<time>2016-10-16T07:48:13Z</time>
</trkpt>
<trkpt lat="39.7774387" lon="3.0510822">
<ele>7.82</ele>
<time>2016-10-16T07:48:17Z</time>
</trkpt>
<trkpt lat="39.7772898" lon="3.0508772">
<ele>7.67</ele>
<time>2016-10-16T07:48:21Z</time>
</trkpt>
<trkpt lat="39.7771435" lon="3.0506676">
<ele>6.63</ele>
<time>2016-10-16T07:48:25Z</time>
</trkpt>
<trkpt lat="39.7770175" lon="3.0504771">
<ele>6.87</ele>
<time>2016-10-16T07:48:29Z</time>
</trkpt>
<trkpt lat="39.7768698" lon="3.0502657">
<ele>7.90</ele>
<time>2016-10-16T07:48:33Z</time>
</trkpt>
<trkpt lat="39.7767287" lon="3.0500545">
<ele>7.83</ele>
<time>2016-10-16T07:48:37Z</time>
</trkpt>
<trkpt lat="39.7766005" lon="3.0498755">
<ele>7.73</ele>
<time>2016-10-16T07:48:41Z</time>
</trkpt>
<trkpt lat="39.7764522" lon="3.0497387">
<ele>8.36</ele>
<time>2016-10-16T07:48:45Z</time>
</trkpt>
<trkpt lat="39.7762633" lon="3.0495922">
<ele>8.30</ele>
<time>2016-10-16T07:48:50Z</time>
</trkpt>
<trkpt lat="39.7761298" lon="3.0494292">
<ele>8.56</ele>
<time>2016-10-16T07:48:54Z</time>
</trkpt>
<trkpt lat="39.7760069" lon="3.0492230">
<ele>8.90</ele>
<time>2016-10-16T07:48:58Z</time>
</trkpt>
<trkpt lat="39.7758892" lon="3.0490145">
<ele>8.63</ele>
<time>2016-10-16T07:49:02Z</time>
</trkpt>
<trkpt lat="39.7757758" lon="3.0488082">
<ele>8.84</ele>
<time>2016-10-16T07:49:06Z</time>
</trkpt>
<trkpt lat="39.7756481" lon="3.0485835">
<ele>9.17</ele>
<time>2016-10-16T07:49:10Z</time>
</trkpt>
<trkpt lat="39.7755334" lon="3.0483821">
<ele>9.70</ele>
<time>2016-10-16T07:49:14Z</time>
</trkpt>
<trkpt lat="39.7753969" lon="3.0481437">
<ele>10.03</ele>
<time>2016-10-16T07:49:19Z</time>
</trkpt>
<trkpt lat="39.7752819" lon="3.0479494">
<ele>9.54</ele>
<time>2016-10-16T07:49:23Z</time>
</trkpt>
<trkpt lat="39.7751657" lon="3.0477416">
<ele>10.07</ele>
<time>2016-10-16T07:49:27Z</time>
</trkpt>
<trkpt lat="39.7750544" lon="3.0475263">
<ele>10.48</ele>
<time>2016-10-16T07:49:31Z</time>
</trkpt>
<trkpt lat="39.7749394" lon="3.0473140">
<ele>11.31</ele>
<time>2016-10-16T07:49:35Z</time>
</trkpt>
<trkpt lat="39.7748108" lon="3.0470682">
<ele>11.70</ele>
<time>2016-10-16T07:49:39Z</time>
</trkpt>
<trkpt lat="39.7746745" lon="3.0468298">
<ele>11.75</ele>
<time>2016-10-16T07:49:43Z</time>
</trkpt>
<trkpt lat="39.7745441" lon="3.0465976">
<ele>11.74</ele>
<time>2016-10-16T07:49:47Z</time>
</trkpt>
<trkpt lat="39.7744141" lon="3.0463746">
<ele>11.96</ele>
<time>2016-10-16T07:49:51Z</time>
</trkpt>
<trkpt lat="39.7742821" lon="3.0461325">
<ele>11.93</ele>
<time>2016-10-16T07:49:55Z</time>
</trkpt>
<trkpt lat="39.7741459" lon="3.0458925">
<ele>11.81</ele>
<time>2016-10-16T07:49:59Z</time>
</trkpt>
<trkpt lat="39.7740136" lon="3.0456493">
<ele>10.74</ele>
<time>2016-10-16T07:50:03Z</time>
</trkpt>
<trkpt lat="39.7738869" lon="3.0454207">
<ele>10.53</ele>
<time>2016-10-16T07:50:07Z</time>
</trkpt>
<trkpt lat="39.7737643" lon="3.0451979">
<ele>11.14</ele>
<time>2016-10-16T07:50:11Z</time>
</trkpt>
<trkpt lat="39.7736439" lon="3.0449772">
<ele>11.63</ele>
<time>2016-10-16T07:50:15Z</time>
</trkpt>
<trkpt lat="39.7735224" lon="3.0447531">
<ele>12.09</ele>
<time>2016-10-16T07:50:19Z</time>
</trkpt>
<trkpt lat="39.7734028" lon="3.0445247">
<ele>11.36</ele>
<time>2016-10-16T07:50:23Z</time>
</trkpt>
<trkpt lat="39.7732875" lon="3.0443021">
<ele>11.12</ele>
<time>2016-10-16T07:50:27Z</time>
</trkpt>
<trkpt lat="39.7731618" lon="3.0440807">
<ele>12.50</ele>
<time>2016-10-16T07:50:31Z</time>
</trkpt>
<trkpt lat="39.7730455" lon="3.0438779">
<ele>13.44</ele>
<time>2016-10-16T07:50:35Z</time>
</trkpt>
<trkpt lat="39.7729299" lon="3.0436695">
<ele>13.99</ele>
<time>2016-10-16T07:50:38Z</time>
</trkpt>
<trkpt lat="39.7728113" lon="3.0434586">
<ele>14.14</ele>
<time>2016-10-16T07:50:42Z</time>
</trkpt>
<trkpt lat="39.7726924" lon="3.0432508">
<ele>14.22</ele>
<time>2016-10-16T07:50:46Z</time>
</trkpt>
<trkpt lat="39.7725749" lon="3.0430357">
<ele>14.57</ele>
<time>2016-10-16T07:50:50Z</time>
</trkpt>
<trkpt lat="39.7724490" lon="3.0428144">
<ele>14.61</ele>
<time>2016-10-16T07:50:54Z</time>
</trkpt>
<trkpt lat="39.7723252" lon="3.0426018">
<ele>15.61</ele>
<time>2016-10-16T07:50:58Z</time>
</trkpt>
<trkpt lat="39.7721946" lon="3.0423827">
<ele>16.24</ele>
<time>2016-10-16T07:51:02Z</time>
</trkpt>
<trkpt lat="39.7720675" lon="3.0421620">
<ele>15.99</ele>
<time>2016-10-16T07:51:06Z</time>
</trkpt>
<trkpt lat="39.7719469" lon="3.0419389">
<ele>15.07</ele>
<time>2016-10-16T07:51:10Z</time>
</trkpt>
<trkpt lat="39.7718257" lon="3.0417221">
<ele>15.05</ele>
<time>2016-10-16T07:51:14Z</time>
</trkpt>
<trkpt lat="39.7717066" lon="3.0415035">
<ele>15.30</ele>
<time>2016-10-16T07:51:18Z</time>
</trkpt>
<trkpt lat="39.7715869" lon="3.0412840">
<ele>15.00</ele>
<time>2016-10-16T07:51:22Z</time>
</trkpt>
<trkpt lat="39.7714684" lon="3.0410716">
<ele>15.94</ele>
<time>2016-10-16T07:51:26Z</time>
</trkpt>
<trkpt lat="39.7713516" lon="3.0408398">
<ele>15.78</ele>
<time>2016-10-16T07:51:30Z</time>
</trkpt>
<trkpt lat="39.7712370" lon="3.0406309">
<ele>15.70</ele>
<time>2016-10-16T07:51:34Z</time>
</trkpt>
<trkpt lat="39.7711195" lon="3.0404178">
<ele>15.67</ele>
<time>2016-10-16T07:51:38Z</time>
</trkpt>
<trkpt lat="39.7710286" lon="3.0401894">
<ele>15.96</ele>
<time>2016-10-16T07:51:42Z</time>
</trkpt>
<trkpt lat="39.7711305" lon="3.0399752">
<ele>15.32</ele>
<time>2016-10-16T07:51:46Z</time>
</trkpt>
<trkpt lat="39.7712817" lon="3.0398459">
<ele>14.32</ele>
<time>2016-10-16T07:51:50Z</time>
</trkpt>
<trkpt lat="39.7714581" lon="3.0397186">
<ele>14.45</ele>
<time>2016-10-16T07:51:54Z</time>
</trkpt>
<trkpt lat="39.7716477" lon="3.0395694">
<ele>14.88</ele>
<time>2016-10-16T07:51:58Z</time>
</trkpt>
<trkpt lat="39.7718323" lon="3.0394280">
<ele>14.29</ele>
<time>2016-10-16T07:52:02Z</time>
</trkpt>
<trkpt lat="39.7720317" lon="3.0392756">
<ele>13.87</ele>
<time>2016-10-16T07:52:06Z</time>
</trkpt>
<trkpt lat="39.7722391" lon="3.0391205">
<ele>13.43</ele>
<time>2016-10-16T07:52:10Z</time>
</trkpt>
<trkpt lat="39.7724017" lon="3.0390054">
<ele>14.02</ele>
<time>2016-10-16T07:52:13Z</time>
</trkpt>
<trkpt lat="39.7725631" lon="3.0388903">
<ele>13.92</ele>
<time>2016-10-16T07:52:16Z</time>
</trkpt>
<trkpt lat="39.7727387" lon="3.0387493">
<ele>14.14</ele>
<time>2016-10-16T07:52:20Z</time>
</trkpt>
<trkpt lat="39.7729338" lon="3.0385928">
<ele>14.91</ele>
<time>2016-10-16T07:52:24Z</time>
</trkpt>
<trkpt lat="39.7730897" lon="3.0383818">
<ele>15.05</ele>
<time>2016-10-16T07:52:28Z</time>
</trkpt>
<trkpt lat="39.7730885" lon="3.0380854">
<ele>15.23</ele>
<time>2016-10-16T07:52:32Z</time>
</trkpt>
<trkpt lat="39.7730294" lon="3.0378139">
<ele>15.62</ele>
<time>2016-10-16T07:52:36Z</time>
</trkpt>
<trkpt lat="39.7729584" lon="3.0375279">
<ele>14.88</ele>
<time>2016-10-16T07:52:40Z</time>
</trkpt>
<trkpt lat="39.7728968" lon="3.0372720">
<ele>13.84</ele>
<time>2016-10-16T07:52:44Z</time>
</trkpt>
<trkpt lat="39.7728364" lon="3.0370180">
<ele>13.56</ele>
<time>2016-10-16T07:52:48Z</time>
</trkpt>
<trkpt lat="39.7727641" lon="3.0367519">
<ele>13.56</ele>
<time>2016-10-16T07:52:52Z</time>
</trkpt>
<trkpt lat="39.7726745" lon="3.0365160">
<ele>14.51</ele>
<time>2016-10-16T07:52:56Z</time>
</trkpt>
<trkpt lat="39.7725732" lon="3.0362809">
<ele>16.25</ele>
<time>2016-10-16T07:53:00Z</time>
</trkpt>
<trkpt lat="39.7724662" lon="3.0360381">
<ele>16.59</ele>
<time>2016-10-16T07:53:04Z</time>
</trkpt>
<trkpt lat="39.7723631" lon="3.0358009">
<ele>16.33</ele>
<time>2016-10-16T07:53:08Z</time>
</trkpt>
<trkpt lat="39.7722630" lon="3.0355668">
<ele>16.33</ele>
<time>2016-10-16T07:53:12Z</time>
</trkpt>
<trkpt lat="39.7721620" lon="3.0353356">
<ele>16.21</ele>
<time>2016-10-16T07:53:16Z</time>
</trkpt>
<trkpt lat="39.7720600" lon="3.0351059">
<ele>15.82</ele>
<time>2016-10-16T07:53:20Z</time>
</trkpt>
<trkpt lat="39.7719663" lon="3.0348907">
<ele>16.04</ele>
<time>2016-10-16T07:53:24Z</time>
</trkpt>
<trkpt lat="39.7718680" lon="3.0346546">
<ele>15.56</ele>
<time>2016-10-16T07:53:28Z</time>
</trkpt>
<trkpt lat="39.7717706" lon="3.0344269">
<ele>14.60</ele>
<time>2016-10-16T07:53:32Z</time>
</trkpt>
<trkpt lat="39.7716840" lon="3.0342190">
<ele>14.03</ele>
<time>2016-10-16T07:53:36Z</time>
</trkpt>
<trkpt lat="39.7717169" lon="3.0339661">
<ele>15.61</ele>
<time>2016-10-16T07:53:41Z</time>
</trkpt>
<trkpt lat="39.7718766" lon="3.0338325">
<ele>17.49</ele>
<time>2016-10-16T07:53:46Z</time>
</trkpt>
<trkpt lat="39.7720595" lon="3.0336706">
<ele>19.83</ele>
<time>2016-10-16T07:53:51Z</time>
</trkpt>
<trkpt lat="39.7721105" lon="3.0334107">
<ele>21.16</ele>
<time>2016-10-16T07:53:56Z</time>
</trkpt>
<trkpt lat="39.7720791" lon="3.0331720">
<ele>20.32</ele>
<time>2016-10-16T07:54:00Z</time>
</trkpt>
<trkpt lat="39.7720540" lon="3.0329388">
<ele>20.17</ele>
<time>2016-10-16T07:54:04Z</time>
</trkpt>
<trkpt lat="39.7720149" lon="3.0326608">
<ele>20.25</ele>
<time>2016-10-16T07:54:08Z</time>
</trkpt>
<trkpt lat="39.7719904" lon="3.0324062">
<ele>20.35</ele>
<time>2016-10-16T07:54:12Z</time>
</trkpt>
<trkpt lat="39.7719650" lon="3.0321693">
<ele>19.71</ele>
<time>2016-10-16T07:54:16Z</time>
</trkpt>
<trkpt lat="39.7719452" lon="3.0319281">
<ele>19.07</ele>
<time>2016-10-16T07:54:20Z</time>
</trkpt>
<trkpt lat="39.7719257" lon="3.0316752">
<ele>18.95</ele>
<time>2016-10-16T07:54:24Z</time>
</trkpt>
<trkpt lat="39.7719072" lon="3.0314298">
<ele>17.78</ele>
<time>2016-10-16T07:54:28Z</time>
</trkpt>
<trkpt lat="39.7718888" lon="3.0311865">
<ele>17.22</ele>
<time>2016-10-16T07:54:32Z</time>
</trkpt>
<trkpt lat="39.7718773" lon="3.0309283">
<ele>17.16</ele>
<time>2016-10-16T07:54:37Z</time>
</trkpt>
<trkpt lat="39.7719175" lon="3.0306975">
<ele>17.61</ele>
<time>2016-10-16T07:54:44Z</time>
</trkpt>
<trkpt lat="39.7720392" lon="3.0305036">
<ele>19.77</ele>
<time>2016-10-16T07:54:50Z</time>
</trkpt>
<trkpt lat="39.7719864" lon="3.0302460">
<ele>21.01</ele>
<time>2016-10-16T07:54:55Z</time>
</trkpt>
<trkpt lat="39.7718665" lon="3.0300294">
<ele>20.53</ele>
<time>2016-10-16T07:54:59Z</time>
</trkpt>
<trkpt lat="39.7717363" lon="3.0298298">
<ele>19.51</ele>
<time>2016-10-16T07:55:03Z</time>
</trkpt>
<trkpt lat="39.7716259" lon="3.0296380">
<ele>18.91</ele>
<time>2016-10-16T07:55:07Z</time>
</trkpt>
<trkpt lat="39.7715114" lon="3.0294437">
<ele>20.24</ele>
<time>2016-10-16T07:55:11Z</time>
</trkpt>
<trkpt lat="39.7714005" lon="3.0292550">
<ele>22.28</ele>
<time>2016-10-16T07:55:15Z</time>
</trkpt>
<trkpt lat="39.7712893" lon="3.0290610">
<ele>23.54</ele>
<time>2016-10-16T07:55:19Z</time>
</trkpt>
<trkpt lat="39.7711898" lon="3.0288493">
<ele>23.39</ele>
<time>2016-10-16T07:55:23Z</time>
</trkpt>
<trkpt lat="39.7711003" lon="3.0286297">
<ele>22.51</ele>
<time>2016-10-16T07:55:27Z</time>
</trkpt>
<trkpt lat="39.7710163" lon="3.0283828">
<ele>24.90</ele>
<time>2016-10-16T07:55:32Z</time>
</trkpt>
<trkpt lat="39.7709352" lon="3.0281726">
<ele>25.44</ele>
<time>2016-10-16T07:55:36Z</time>
</trkpt>
<trkpt lat="39.7708446" lon="3.0279547">
<ele>25.06</ele>
<time>2016-10-16T07:55:40Z</time>
</trkpt>
<trkpt lat="39.7707360" lon="3.0277393">
<ele>24.13</ele>
<time>2016-10-16T07:55:44Z</time>
</trkpt>
<trkpt lat="39.7706146" lon="3.0275641">
<ele>22.50</ele>
<time>2016-10-16T07:55:51Z</time>
</trkpt>
<trkpt lat="39.7704279" lon="3.0275988">
<ele>22.84</ele>
<time>2016-10-16T07:56:00Z</time>
</trkpt>
<trkpt lat="39.7702891" lon="3.0274446">
<ele>25.48</ele>
<time>2016-10-16T07:56:05Z</time>
</trkpt>
<trkpt lat="39.7701250" lon="3.0272920">
<ele>25.69</ele>
<time>2016-10-16T07:56:10Z</time>
</trkpt>
<trkpt lat="39.7699700" lon="3.0271519">
<ele>25.93</ele>
<time>2016-10-16T07:56:15Z</time>
</trkpt>
<trkpt lat="39.7698150" lon="3.0269651">
<ele>25.42</ele>
<time>2016-10-16T07:56:20Z</time>
</trkpt>
<trkpt lat="39.7696990" lon="3.0267739">
<ele>25.58</ele>
<time>2016-10-16T07:56:26Z</time>
</trkpt>
<trkpt lat="39.7695229" lon="3.0266074">
<ele>26.41</ele>
<time>2016-10-16T07:56:32Z</time>
</trkpt>
<trkpt lat="39.7694088" lon="3.0263948">
<ele>27.86</ele>
<time>2016-10-16T07:56:37Z</time>
</trkpt>
<trkpt lat="39.7693126" lon="3.0261905">
<ele>27.06</ele>
<time>2016-10-16T07:56:41Z</time>
</trkpt>
<trkpt lat="39.7691786" lon="3.0259749">
<ele>26.46</ele>
<time>2016-10-16T07:56:46Z</time>
</trkpt>
<trkpt lat="39.7691016" lon="3.0257383">
<ele>26.49</ele>
<time>2016-10-16T07:56:50Z</time>
</trkpt>
<trkpt lat="39.7690261" lon="3.0255090">
<ele>26.79</ele>
<time>2016-10-16T07:56:54Z</time>
</trkpt>
<trkpt lat="39.7689413" lon="3.0252621">
<ele>29.08</ele>
<time>2016-10-16T07:56:59Z</time>
</trkpt>
<trkpt lat="39.7688483" lon="3.0250323">
<ele>29.43</ele>
<time>2016-10-16T07:57:04Z</time>
</trkpt>
<trkpt lat="39.7687639" lon="3.0248178">
<ele>30.22</ele>
<time>2016-10-16T07:57:09Z</time>
</trkpt>
<trkpt lat="39.7686788" lon="3.0245766">
<ele>32.56</ele>
<time>2016-10-16T07:57:14Z</time>
</trkpt>
<trkpt lat="39.7685713" lon="3.0243183">
<ele>34.03</ele>
<time>2016-10-16T07:57:19Z</time>
</trkpt>
<trkpt lat="39.7684528" lon="3.0240754">
<ele>33.93</ele>
<time>2016-10-16T07:57:24Z</time>
</trkpt>
<trkpt lat="39.7683407" lon="3.0238356">
<ele>34.95</ele>
<time>2016-10-16T07:57:29Z</time>
</trkpt>
<trkpt lat="39.7682512" lon="3.0235759">
<ele>35.89</ele>
<time>2016-10-16T07:57:34Z</time>
</trkpt>
<trkpt lat="39.7681644" lon="3.0233686">
<ele>34.92</ele>
<time>2016-10-16T07:57:38Z</time>
</trkpt>
<trkpt lat="39.7680506" lon="3.0231554">
<ele>34.56</ele>
<time>2016-10-16T07:57:44Z</time>
</trkpt>
<trkpt lat="39.7679394" lon="3.0229415">
<ele>32.75</ele>
<time>2016-10-16T07:57:49Z</time>
</trkpt>
<trkpt lat="39.7678281" lon="3.0227439">
<ele>30.23</ele>
<time>2016-10-16T07:57:54Z</time>
</trkpt>
<trkpt lat="39.7677061" lon="3.0225582">
<ele>30.24</ele>
<time>2016-10-16T07:57:59Z</time>
</trkpt>
<trkpt lat="39.7676089" lon="3.0223182">
<ele>30.97</ele>
<time>2016-10-16T07:58:06Z</time>
</trkpt>
<trkpt lat="39.7675261" lon="3.0220904">
<ele>33.68</ele>
<time>2016-10-16T07:58:11Z</time>
</trkpt>
<trkpt lat="39.7674385" lon="3.0218843">
<ele>35.06</ele>
<time>2016-10-16T07:58:16Z</time>
</trkpt>
<trkpt lat="39.7673247" lon="3.0216883">
<ele>35.22</ele>
<time>2016-10-16T07:58:22Z</time>
</trkpt>
<trkpt lat="39.7672245" lon="3.0214650">
<ele>35.63</ele>
<time>2016-10-16T07:58:27Z</time>
</trkpt>
<trkpt lat="39.7671294" lon="3.0212427">
<ele>35.19</ele>
<time>2016-10-16T07:58:31Z</time>
</trkpt>
<trkpt lat="39.7670089" lon="3.0210320">
<ele>34.93</ele>
<time>2016-10-16T07:58:36Z</time>
</trkpt>
<trkpt lat="39.7669037" lon="3.0208285">
<ele>34.66</ele>
<time>2016-10-16T07:58:49Z</time>
</trkpt>
<trkpt lat="39.7668051" lon="3.0205929">
<ele>34.39</ele>
<time>2016-10-16T07:58:56Z</time>
</trkpt>
<trkpt lat="39.7666966" lon="3.0203964">
<ele>34.53</ele>
<time>2016-10-16T07:59:00Z</time>
</trkpt>
<trkpt lat="39.7665940" lon="3.0201668">
<ele>35.07</ele>
<time>2016-10-16T07:59:05Z</time>
</trkpt>
<trkpt lat="39.7664776" lon="3.0199483">
<ele>34.50</ele>
<time>2016-10-16T07:59:09Z</time>
</trkpt>
<trkpt lat="39.7663869" lon="3.0197358">
<ele>35.19</ele>
<time>2016-10-16T07:59:14Z</time>
</trkpt>
<trkpt lat="39.7662684" lon="3.0195118">
<ele>35.39</ele>
<time>2016-10-16T07:59:21Z</time>
</trkpt>
<trkpt lat="39.7661472" lon="3.0192998">
<ele>36.82</ele>
<time>2016-10-16T07:59:27Z</time>
</trkpt>
<trkpt lat="39.7660277" lon="3.0190717">
<ele>37.05</ele>
<time>2016-10-16T07:59:32Z</time>
</trkpt>
<trkpt lat="39.7659038" lon="3.0188437">
<ele>35.21</ele>
<time>2016-10-16T07:59:37Z</time>
</trkpt>
<trkpt lat="39.7657924" lon="3.0186226">
<ele>34.95</ele>
<time>2016-10-16T07:59:42Z</time>
</trkpt>
<trkpt lat="39.7656764" lon="3.0184189">
<ele>34.13</ele>
<time>2016-10-16T07:59:47Z</time>
</trkpt>
<trkpt lat="39.7655702" lon="3.0182131">
<ele>33.13</ele>
<time>2016-10-16T07:59:52Z</time>
</trkpt>
<trkpt lat="39.7654422" lon="3.0180010">
<ele>32.07</ele>
<time>2016-10-16T07:59:57Z</time>
</trkpt>
<trkpt lat="39.7653085" lon="3.0177901">
<ele>32.59</ele>
<time>2016-10-16T08:00:02Z</time>
</trkpt>
<trkpt lat="39.7651948" lon="3.0175978">
<ele>32.88</ele>
<time>2016-10-16T08:00:07Z</time>
</trkpt>
<trkpt lat="39.7650719" lon="3.0173953">
<ele>33.04</ele>
<time>2016-10-16T08:00:12Z</time>
</trkpt>
<trkpt lat="39.7651822" lon="3.0171528">
<ele>34.79</ele>
<time>2016-10-16T08:00:19Z</time>
</trkpt>
<trkpt lat="39.7653737" lon="3.0170158">
<ele>34.95</ele>
<time>2016-10-16T08:00:24Z</time>
</trkpt>
<trkpt lat="39.7655113" lon="3.0168608">
<ele>35.03</ele>
<time>2016-10-16T08:00:30Z</time>
</trkpt>
<trkpt lat="39.7656883" lon="3.0167524">
<ele>34.56</ele>
<time>2016-10-16T08:00:35Z</time>
</trkpt>
<trkpt lat="39.7658826" lon="3.0166199">
<ele>33.51</ele>
<time>2016-10-16T08:00:40Z</time>
</trkpt>
<trkpt lat="39.7660491" lon="3.0165125">
<ele>32.91</ele>
<time>2016-10-16T08:00:44Z</time>
</trkpt>
<trkpt lat="39.7662456" lon="3.0163888">
<ele>33.01</ele>
<time>2016-10-16T08:00:49Z</time>
</trkpt>
<trkpt lat="39.7664059" lon="3.0162732">
<ele>32.37</ele>
<time>2016-10-16T08:00:54Z</time>
</trkpt>
<trkpt lat="39.7665702" lon="3.0161479">
<ele>33.32</ele>
<time>2016-10-16T08:00:59Z</time>
</trkpt>
<trkpt lat="39.7667668" lon="3.0160020">
<ele>33.80</ele>
<time>2016-10-16T08:01:04Z</time>
</trkpt>
<trkpt lat="39.7669566" lon="3.0158497">
<ele>33.92</ele>
<time>2016-10-16T08:01:09Z</time>
</trkpt>
<trkpt lat="39.7671309" lon="3.0157067">
<ele>35.18</ele>
<time>2016-10-16T08:01:14Z</time>
</trkpt>
<trkpt lat="39.7671999" lon="3.0154871">
<ele>35.30</ele>
<time>2016-10-16T08:01:20Z</time>
</trkpt>
<trkpt lat="39.7671127" lon="3.0152792">
<ele>34.26</ele>
<time>2016-10-16T08:01:25Z</time>
</trkpt>
<trkpt lat="39.7669876" lon="3.0150492">
<ele>32.59</ele>
<time>2016-10-16T08:01:30Z</time>
</trkpt>
<trkpt lat="39.7668843" lon="3.0148354">
<ele>32.31</ele>
<time>2016-10-16T08:01:34Z</time>
</trkpt>
<trkpt lat="39.7668602" lon="3.0145445">
<ele>32.33</ele>
<time>2016-10-16T08:01:39Z</time>
</trkpt>
<trkpt lat="39.7667133" lon="3.0143977">
<ele>31.21</ele>
<time>2016-10-16T08:01:43Z</time>
</trkpt>
<trkpt lat="39.7665410" lon="3.0142428">
<ele>30.66</ele>
<time>2016-10-16T08:01:47Z</time>
</trkpt>
<trkpt lat="39.7664045" lon="3.0140199">
<ele>30.59</ele>
<time>2016-10-16T08:01:51Z</time>
</trkpt>
<trkpt lat="39.7662627" lon="3.0137878">
<ele>31.50</ele>
<time>2016-10-16T08:01:55Z</time>
</trkpt>
<trkpt lat="39.7661100" lon="3.0135495">
<ele>32.63</ele>
<time>2016-10-16T08:01:59Z</time>
</trkpt>
<trkpt lat="39.7659566" lon="3.0133174">
<ele>32.21</ele>
<time>2016-10-16T08:02:03Z</time>
</trkpt>
<trkpt lat="39.7658354" lon="3.0131368">
<ele>31.85</ele>
<time>2016-10-16T08:02:06Z</time>
</trkpt>
<trkpt lat="39.7656752" lon="3.0129011">
<ele>31.89</ele>
<time>2016-10-16T08:02:10Z</time>
</trkpt>
<trkpt lat="39.7655341" lon="3.0126651">
<ele>31.84</ele>
<time>2016-10-16T08:02:14Z</time>
</trkpt>
<trkpt lat="39.7653938" lon="3.0124214">
<ele>31.80</ele>
<time>2016-10-16T08:02:18Z</time>
</trkpt>
<trkpt lat="39.7652488" lon="3.0121746">
<ele>31.98</ele>
<time>2016-10-16T08:02:22Z</time>
</trkpt>
<trkpt lat="39.7651392" lon="3.0119873">
<ele>32.69</ele>
<time>2016-10-16T08:02:25Z</time>
</trkpt>
<trkpt lat="39.7650287" lon="3.0117972">
<ele>32.88</ele>
<time>2016-10-16T08:02:28Z</time>
</trkpt>
<trkpt lat="39.7649183" lon="3.0116091">
<ele>33.04</ele>
<time>2016-10-16T08:02:31Z</time>
</trkpt>
<trkpt lat="39.7647770" lon="3.0113740">
<ele>33.20</ele>
<time>2016-10-16T08:02:35Z</time>
</trkpt>
<trkpt lat="39.7646364" lon="3.0111381">
<ele>33.64</ele>
<time>2016-10-16T08:02:39Z</time>
</trkpt>
<trkpt lat="39.7644902" lon="3.0109047">
<ele>34.34</ele>
<time>2016-10-16T08:02:43Z</time>
</trkpt>
<trkpt lat="39.7643658" lon="3.0107312">
<ele>34.28</ele>
<time>2016-10-16T08:02:46Z</time>
</trkpt>
<trkpt lat="39.7642069" lon="3.0105155">
<ele>34.28</ele>
<time>2016-10-16T08:02:50Z</time>
</trkpt>
<trkpt lat="39.7640524" lon="3.0102990">
<ele>35.02</ele>
<time>2016-10-16T08:02:54Z</time>
</trkpt>
<trkpt lat="39.7639020" lon="3.0100788">
<ele>34.75</ele>
<time>2016-10-16T08:02:58Z</time>
</trkpt>
<trkpt lat="39.7637562" lon="3.0098545">
<ele>34.84</ele>
<time>2016-10-16T08:03:02Z</time>
</trkpt>
<trkpt lat="39.7636219" lon="3.0096252">
<ele>34.92</ele>
<time>2016-10-16T08:03:06Z</time>
</trkpt>
<trkpt lat="39.7634889" lon="3.0093777">
<ele>34.99</ele>
<time>2016-10-16T08:03:10Z</time>
</trkpt>
<trkpt lat="39.7633606" lon="3.0091238">
<ele>34.72</ele>
<time>2016-10-16T08:03:14Z</time>
</trkpt>
<trkpt lat="39.7633186" lon="3.0088436">
<ele>35.00</ele>
<time>2016-10-16T08:03:18Z</time>
</trkpt>
<trkpt lat="39.7633533" lon="3.0085780">
<ele>36.51</ele>
<time>2016-10-16T08:03:22Z</time>
</trkpt>
<trkpt lat="39.7632719" lon="3.0083528">
<ele>36.20</ele>
<time>2016-10-16T08:03:26Z</time>
</trkpt>
<trkpt lat="39.7631731" lon="3.0081552">
<ele>35.63</ele>
<time>2016-10-16T08:03:29Z</time>
</trkpt>
<trkpt lat="39.7630400" lon="3.0079070">
<ele>34.53</ele>
<time>2016-10-16T08:03:33Z</time>
</trkpt>
<trkpt lat="39.7629078" lon="3.0076613">
<ele>33.94</ele>
<time>2016-10-16T08:03:37Z</time>
</trkpt>
<trkpt lat="39.7628021" lon="3.0074625">
<ele>34.08</ele>
<time>2016-10-16T08:03:40Z</time>
</trkpt>
<trkpt lat="39.7627002" lon="3.0072615">
<ele>33.39</ele>
<time>2016-10-16T08:03:43Z</time>
</trkpt>
<trkpt lat="39.7625998" lon="3.0070630">
<ele>33.02</ele>
<time>2016-10-16T08:03:46Z</time>
</trkpt>
<trkpt lat="39.7625088" lon="3.0068521">
<ele>33.50</ele>
<time>2016-10-16T08:03:49Z</time>
</trkpt>
<trkpt lat="39.7624207" lon="3.0066412">
<ele>33.74</ele>
<time>2016-10-16T08:03:52Z</time>
</trkpt>
<trkpt lat="39.7623161" lon="3.0064417">
<ele>32.76</ele>
<time>2016-10-16T08:03:55Z</time>
</trkpt>
<trkpt lat="39.7621640" lon="3.0062036">
<ele>32.15</ele>
<time>2016-10-16T08:03:59Z</time>
</trkpt>
<trkpt lat="39.7619980" lon="3.0059878">
<ele>32.47</ele>
<time>2016-10-16T08:04:03Z</time>
</trkpt>
<trkpt lat="39.7618232" lon="3.0057870">
<ele>32.89</ele>
<time>2016-10-16T08:04:07Z</time>
</trkpt>
<trkpt lat="39.7616465" lon="3.0055877">
<ele>33.38</ele>
<time>2016-10-16T08:04:11Z</time>
</trkpt>
<trkpt lat="39.7614639" lon="3.0054198">
<ele>33.08</ele>
<time>2016-10-16T08:04:15Z</time>
</trkpt>
<trkpt lat="39.7612849" lon="3.0053062">
<ele>35.15</ele>
<time>2016-10-16T08:04:19Z</time>
</trkpt>
<trkpt lat="39.7610886" lon="3.0051991">
<ele>33.86</ele>
<time>2016-10-16T08:04:23Z</time>
</trkpt>
<trkpt lat="39.7609099" lon="3.0050812">
<ele>32.84</ele>
<time>2016-10-16T08:04:26Z</time>
</trkpt>
<trkpt lat="39.7607490" lon="3.0049570">
<ele>33.67</ele>
<time>2016-10-16T08:04:29Z</time>
</trkpt>
<trkpt lat="39.7605699" lon="3.0047593">
<ele>35.44</ele>
<time>2016-10-16T08:04:33Z</time>
</trkpt>
<trkpt lat="39.7604245" lon="3.0045151">
<ele>37.44</ele>
<time>2016-10-16T08:04:37Z</time>
</trkpt>
<trkpt lat="39.7603221" lon="3.0043089">
<ele>37.86</ele>
<time>2016-10-16T08:04:40Z</time>
</trkpt>
<trkpt lat="39.7602140" lon="3.0041107">
<ele>37.25</ele>
<time>2016-10-16T08:04:43Z</time>
</trkpt>
<trkpt lat="39.7600679" lon="3.0038690">
<ele>36.43</ele>
<time>2016-10-16T08:04:47Z</time>
</trkpt>
<trkpt lat="39.7599161" lon="3.0036395">
<ele>36.47</ele>
<time>2016-10-16T08:04:51Z</time>
</trkpt>
<trkpt lat="39.7597638" lon="3.0034360">
<ele>36.82</ele>
<time>2016-10-16T08:04:55Z</time>
</trkpt>
<trkpt lat="39.7595892" lon="3.0032526">
<ele>37.45</ele>
<time>2016-10-16T08:04:59Z</time>
</trkpt>
<trkpt lat="39.7594106" lon="3.0030902">
<ele>37.13</ele>
<time>2016-10-16T08:05:03Z</time>
</trkpt>
<trkpt lat="39.7592131" lon="3.0029396">
<ele>37.83</ele>
<time>2016-10-16T08:05:07Z</time>
</trkpt>
<trkpt lat="39.7590199" lon="3.0028045">
<ele>37.43</ele>
<time>2016-10-16T08:05:11Z</time>
</trkpt>
<trkpt lat="39.7588339" lon="3.0026597">
<ele>37.56</ele>
<time>2016-10-16T08:05:15Z</time>
</trkpt>
<trkpt lat="39.7586568" lon="3.0025118">
<ele>37.88</ele>
<time>2016-10-16T08:05:19Z</time>
</trkpt>
<trkpt lat="39.7584750" lon="3.0023612">
<ele>38.50</ele>
<time>2016-10-16T08:05:23Z</time>
</trkpt>
<trkpt lat="39.7582902" lon="3.0022031">
<ele>38.83</ele>
<time>2016-10-16T08:05:27Z</time>
</trkpt>
<trkpt lat="39.7581136" lon="3.0020606">
<ele>38.53</ele>
<time>2016-10-16T08:05:31Z</time>
</trkpt>
<trkpt lat="39.7580669" lon="3.0017947">
<ele>39.65</ele>
<time>2016-10-16T08:05:35Z</time>
</trkpt>
<trkpt lat="39.7581487" lon="3.0015753">
<ele>41.51</ele>
<time>2016-10-16T08:05:39Z</time>
</trkpt>
<trkpt lat="39.7582692" lon="3.0013552">
<ele>43.19</ele>
<time>2016-10-16T08:05:44Z</time>
</trkpt>
<trkpt lat="39.7583863" lon="3.0011276">
<ele>43.79</ele>
<time>2016-10-16T08:05:48Z</time>
</trkpt>
<trkpt lat="39.7584920" lon="3.0009280">
<ele>44.51</ele>
<time>2016-10-16T08:05:52Z</time>
</trkpt>
<trkpt lat="39.7586153" lon="3.0007038">
<ele>44.33</ele>
<time>2016-10-16T08:05:56Z</time>
</trkpt>
<trkpt lat="39.7587177" lon="3.0005084">
<ele>44.67</ele>
<time>2016-10-16T08:05:59Z</time>
</trkpt>
<trkpt lat="39.7588263" lon="3.0002920">
<ele>45.03</ele>
<time>2016-10-16T08:06:02Z</time>
</trkpt>
<trkpt lat="39.7589287" lon="3.0000880">
<ele>44.08</ele>
<time>2016-10-16T08:06:05Z</time>
</trkpt>
<trkpt lat="39.7590336" lon="2.9998819">
<ele>42.82</ele>
<time>2016-10-16T08:06:08Z</time>
</trkpt>
<trkpt lat="39.7591384" lon="2.9996734">
<ele>42.56</ele>
<time>2016-10-16T08:06:11Z</time>
</trkpt>
<trkpt lat="39.7592458" lon="2.9994565">
<ele>43.73</ele>
<time>2016-10-16T08:06:14Z</time>
</trkpt>
<trkpt lat="39.7593653" lon="2.9992344">
<ele>44.20</ele>
<time>2016-10-16T08:06:17Z</time>
</trkpt>
<trkpt lat="39.7594721" lon="2.9990340">
<ele>45.22</ele>
<time>2016-10-16T08:06:20Z</time>
</trkpt>
<trkpt lat="39.7595895" lon="2.9988180">
<ele>46.12</ele>
<time>2016-10-16T08:06:23Z</time>
</trkpt>
<trkpt lat="39.7597390" lon="2.9985826">
<ele>49.08</ele>
<time>2016-10-16T08:06:27Z</time>
</trkpt>
<trkpt lat="39.7599129" lon="2.9984513">
<ele>50.74</ele>
<time>2016-10-16T08:06:30Z</time>
</trkpt>
<trkpt lat="39.7600949" lon="2.9983050">
<ele>50.53</ele>
<time>2016-10-16T08:06:33Z</time>
</trkpt>
<trkpt lat="39.7602332" lon="2.9981176">
<ele>49.14</ele>
<time>2016-10-16T08:06:36Z</time>
</trkpt>
<trkpt lat="39.7602340" lon="2.9978157">
<ele>48.20</ele>
<time>2016-10-16T08:06:40Z</time>
</trkpt>
<trkpt lat="39.7601742" lon="2.9975771">
<ele>47.20</ele>
<time>2016-10-16T08:06:43Z</time>
</trkpt>
<trkpt lat="39.7601107" lon="2.9973222">
<ele>45.42</ele>
<time>2016-10-16T08:06:46Z</time>
</trkpt>
<trkpt lat="39.7600248" lon="2.9970782">
<ele>43.25</ele>
<time>2016-10-16T08:06:49Z</time>
</trkpt>
<trkpt lat="39.7599154" lon="2.9967981">
<ele>40.73</ele>
<time>2016-10-16T08:06:52Z</time>
</trkpt>
<trkpt lat="39.7598139" lon="2.9965367">
<ele>39.30</ele>
<time>2016-10-16T08:06:56Z</time>
</trkpt>
<trkpt lat="39.7597149" lon="2.9962577">
<ele>38.74</ele>
<time>2016-10-16T08:07:00Z</time>
</trkpt>
<trkpt lat="39.7596045" lon="2.9959903">
<ele>37.96</ele>
<time>2016-10-16T08:07:04Z</time>
</trkpt>
<trkpt lat="39.7595098" lon="2.9957687">
<ele>39.01</ele>
<time>2016-10-16T08:07:08Z</time>
</trkpt>
<trkpt lat="39.7594061" lon="2.9955163">
<ele>39.52</ele>
<time>2016-10-16T08:07:12Z</time>
</trkpt>
<trkpt lat="39.7593074" lon="2.9952842">
<ele>39.91</ele>
<time>2016-10-16T08:07:16Z</time>
</trkpt>
<trkpt lat="39.7592051" lon="2.9950407">
<ele>39.63</ele>
<time>2016-10-16T08:07:20Z</time>
</trkpt>
<trkpt lat="39.7590840" lon="2.9947749">
<ele>41.90</ele>
<time>2016-10-16T08:07:24Z</time>
</trkpt>
<trkpt lat="39.7589798" lon="2.9945304">
<ele>43.85</ele>
<time>2016-10-16T08:07:28Z</time>
</trkpt>
<trkpt lat="39.7588812" lon="2.9943116">
<ele>43.24</ele>
<time>2016-10-16T08:07:32Z</time>
</trkpt>
<trkpt lat="39.7587652" lon="2.9940469">
<ele>42.38</ele>
<time>2016-10-16T08:07:36Z</time>
</trkpt>
<trkpt lat="39.7586787" lon="2.9938416">
<ele>42.23</ele>
<time>2016-10-16T08:07:39Z</time>
</trkpt>
<trkpt lat="39.7585782" lon="2.9935838">
<ele>42.99</ele>
<time>2016-10-16T08:07:43Z</time>
</trkpt>
<trkpt lat="39.7585102" lon="2.9933112">
<ele>45.31</ele>
<time>2016-10-16T08:07:47Z</time>
</trkpt>
<trkpt lat="39.7584696" lon="2.9930390">
<ele>47.37</ele>
<time>2016-10-16T08:07:51Z</time>
</trkpt>
<trkpt lat="39.7584517" lon="2.9927484">
<ele>48.57</ele>
<time>2016-10-16T08:07:55Z</time>
</trkpt>
<trkpt lat="39.7584380" lon="2.9924707">
<ele>48.94</ele>
<time>2016-10-16T08:07:59Z</time>
</trkpt>
<trkpt lat="39.7584274" lon="2.9921793">
<ele>47.26</ele>
<time>2016-10-16T08:08:03Z</time>
</trkpt>
<trkpt lat="39.7584126" lon="2.9918820">
<ele>47.79</ele>
<time>2016-10-16T08:08:07Z</time>
</trkpt>
<trkpt lat="39.7583985" lon="2.9915793">
<ele>48.84</ele>
<time>2016-10-16T08:08:11Z</time>
</trkpt>
<trkpt lat="39.7583805" lon="2.9912877">
<ele>48.28</ele>
<time>2016-10-16T08:08:15Z</time>
</trkpt>
<trkpt lat="39.7583611" lon="2.9910130">
<ele>48.34</ele>
<time>2016-10-16T08:08:19Z</time>
</trkpt>
<trkpt lat="39.7583504" lon="2.9907689">
<ele>47.50</ele>
<time>2016-10-16T08:08:23Z</time>
</trkpt>
<trkpt lat="39.7583385" lon="2.9905345">
<ele>47.34</ele>
<time>2016-10-16T08:08:27Z</time>
</trkpt>
<trkpt lat="39.7583255" lon="2.9902744">
<ele>48.77</ele>
<time>2016-10-16T08:08:32Z</time>
</trkpt>
<trkpt lat="39.7583132" lon="2.9900215">
<ele>52.00</ele>
<time>2016-10-16T08:08:37Z</time>
</trkpt>
<trkpt lat="39.7582780" lon="2.9897594">
<ele>53.27</ele>
<time>2016-10-16T08:08:43Z</time>
</trkpt>
<trkpt lat="39.7581884" lon="2.9895121">
<ele>53.53</ele>
<time>2016-10-16T08:08:49Z</time>
</trkpt>
<trkpt lat="39.7581146" lon="2.9892944">
<ele>53.58</ele>
<time>2016-10-16T08:08:54Z</time>
</trkpt>
<trkpt lat="39.7580343" lon="2.9890583">
<ele>53.88</ele>
<time>2016-10-16T08:09:01Z</time>
</trkpt>
<trkpt lat="39.7579479" lon="2.9888365">
<ele>54.17</ele>
<time>2016-10-16T08:09:07Z</time>
</trkpt>
<trkpt lat="39.7578500" lon="2.9886127">
<ele>54.59</ele>
<time>2016-10-16T08:09:14Z</time>
</trkpt>
<trkpt lat="39.7577662" lon="2.9883966">
<ele>55.27</ele>
<time>2016-10-16T08:09:21Z</time>
</trkpt>
<trkpt lat="39.7576684" lon="2.9881748">
<ele>56.68</ele>
<time>2016-10-16T08:09:29Z</time>
</trkpt>
<trkpt lat="39.7576054" lon="2.9879402">
<ele>57.86</ele>
<time>2016-10-16T08:09:36Z</time>
</trkpt>
<trkpt lat="39.7575538" lon="2.9877016">
<ele>58.79</ele>
<time>2016-10-16T08:09:42Z</time>
</trkpt>
<trkpt lat="39.7575388" lon="2.9874445">
<ele>59.73</ele>
<time>2016-10-16T08:09:49Z</time>
</trkpt>
<trkpt lat="39.7575030" lon="2.9872033">
<ele>60.17</ele>
<time>2016-10-16T08:09:55Z</time>
</trkpt>
<trkpt lat="39.7574769" lon="2.9869477">
<ele>61.23</ele>
<time>2016-10-16T08:10:02Z</time>
</trkpt>
<trkpt lat="39.7574848" lon="2.9866872">
<ele>62.66</ele>
<time>2016-10-16T08:10:09Z</time>
</trkpt>
<trkpt lat="39.7575223" lon="2.9864277">
<ele>64.56</ele>
<time>2016-10-16T08:10:16Z</time>
</trkpt>
<trkpt lat="39.7575669" lon="2.9861683">
<ele>66.06</ele>
<time>2016-10-16T08:10:22Z</time>
</trkpt>
<trkpt lat="39.7575764" lon="2.9859135">
<ele>67.23</ele>
<time>2016-10-16T08:10:28Z</time>
</trkpt>
<trkpt lat="39.7575216" lon="2.9856785">
<ele>68.21</ele>
<time>2016-10-16T08:10:34Z</time>
</trkpt>
<trkpt lat="39.7574508" lon="2.9854480">
<ele>69.32</ele>
<time>2016-10-16T08:10:41Z</time>
</trkpt>
<trkpt lat="39.7573788" lon="2.9852263">
<ele>70.40</ele>
<time>2016-10-16T08:10:48Z</time>
</trkpt>
<trkpt lat="39.7573105" lon="2.9849767">
<ele>72.07</ele>
<time>2016-10-16T08:10:57Z</time>
</trkpt>
<trkpt lat="39.7572314" lon="2.9847392">
<ele>73.56</ele>
<time>2016-10-16T08:11:04Z</time>
</trkpt>
<trkpt lat="39.7572357" lon="2.9845027">
<ele>74.69</ele>
<time>2016-10-16T08:11:10Z</time>
</trkpt>
<trkpt lat="39.7572938" lon="2.9842618">
<ele>75.74</ele>
<time>2016-10-16T08:11:17Z</time>
</trkpt>
<trkpt lat="39.7572814" lon="2.9840043">
<ele>77.41</ele>
<time>2016-10-16T08:11:24Z</time>
</trkpt>
<trkpt lat="39.7572981" lon="2.9837362">
<ele>81.30</ele>
<time>2016-10-16T08:11:30Z</time>
</trkpt>
<trkpt lat="39.7574497" lon="2.9836058">
<ele>83.22</ele>
<time>2016-10-16T08:11:35Z</time>
</trkpt>
<trkpt lat="39.7576037" lon="2.9834693">
<ele>85.03</ele>
<time>2016-10-16T08:11:42Z</time>
</trkpt>
<trkpt lat="39.7577604" lon="2.9833371">
<ele>86.84</ele>
<time>2016-10-16T08:11:49Z</time>
</trkpt>
<trkpt lat="39.7579322" lon="2.9832288">
<ele>88.24</ele>
<time>2016-10-16T08:11:57Z</time>
</trkpt>
<trkpt lat="39.7581198" lon="2.9832307">
<ele>90.15</ele>
<time>2016-10-16T08:12:05Z</time>
</trkpt>
<trkpt lat="39.7582832" lon="2.9833391">
<ele>94.31</ele>
<time>2016-10-16T08:12:34Z</time>
</trkpt>
<trkpt lat="39.7584841" lon="2.9832720">
<ele>98.68</ele>
<time>2016-10-16T08:12:44Z</time>
</trkpt>
<trkpt lat="39.7586556" lon="2.9831041">
<ele>102.50</ele>
<time>2016-10-16T08:12:48Z</time>
</trkpt>
<trkpt lat="39.7588304" lon="2.9828954">
<ele>102.31</ele>
<time>2016-10-16T08:12:52Z</time>
</trkpt>
<trkpt lat="39.7589829" lon="2.9827616">
<ele>100.35</ele>
<time>2016-10-16T08:12:55Z</time>
</trkpt>
<trkpt lat="39.7591780" lon="2.9826716">
<ele>98.55</ele>
<time>2016-10-16T08:12:58Z</time>
</trkpt>
<trkpt lat="39.7594036" lon="2.9825891">
<ele>95.89</ele>
<time>2016-10-16T08:13:01Z</time>
</trkpt>
<trkpt lat="39.7596329" lon="2.9824765">
<ele>92.40</ele>
<time>2016-10-16T08:13:04Z</time>
</trkpt>
<trkpt lat="39.7598513" lon="2.9823374">
<ele>89.81</ele>
<time>2016-10-16T08:13:07Z</time>
</trkpt>
<trkpt lat="39.7599999" lon="2.9822033">
<ele>87.75</ele>
<time>2016-10-16T08:13:09Z</time>
</trkpt>
<trkpt lat="39.7601211" lon="2.9820169">
<ele>85.93</ele>
<time>2016-10-16T08:13:11Z</time>
</trkpt>
<trkpt lat="39.7602537" lon="2.9818195">
<ele>84.36</ele>
<time>2016-10-16T08:13:13Z</time>
</trkpt>
<trkpt lat="39.7603866" lon="2.9816065">
<ele>82.19</ele>
<time>2016-10-16T08:13:15Z</time>
</trkpt>
<trkpt lat="39.7605306" lon="2.9813692">
<ele>80.50</ele>
<time>2016-10-16T08:13:17Z</time>
</trkpt>
<trkpt lat="39.7606871" lon="2.9811241">
<ele>78.67</ele>
<time>2016-10-16T08:13:19Z</time>
</trkpt>
<trkpt lat="39.7608513" lon="2.9809054">
<ele>76.59</ele>
<time>2016-10-16T08:13:21Z</time>
</trkpt>
<trkpt lat="39.7610397" lon="2.9807122">
<ele>74.43</ele>
<time>2016-10-16T08:13:23Z</time>
</trkpt>
<trkpt lat="39.7612289" lon="2.9805322">
<ele>72.34</ele>
<time>2016-10-16T08:13:25Z</time>
</trkpt>
<trkpt lat="39.7614045" lon="2.9803739">
<ele>70.51</ele>
<time>2016-10-16T08:13:27Z</time>
</trkpt>
<trkpt lat="39.7615730" lon="2.9802271">
<ele>69.49</ele>
<time>2016-10-16T08:13:29Z</time>
</trkpt>
<trkpt lat="39.7617377" lon="2.9800885">
<ele>68.99</ele>
<time>2016-10-16T08:13:31Z</time>
</trkpt>
<trkpt lat="39.7618871" lon="2.9799544">
<ele>69.27</ele>
<time>2016-10-16T08:13:33Z</time>
</trkpt>
<trkpt lat="39.7620420" lon="2.9798141">
<ele>70.46</ele>
<time>2016-10-16T08:13:35Z</time>
</trkpt>
<trkpt lat="39.7622565" lon="2.9796076">
<ele>70.63</ele>
<time>2016-10-16T08:13:38Z</time>
</trkpt>
<trkpt lat="39.7624467" lon="2.9794176">
<ele>70.15</ele>
<time>2016-10-16T08:13:41Z</time>
</trkpt>
<trkpt lat="39.7626185" lon="2.9792368">
<ele>70.80</ele>
<time>2016-10-16T08:13:44Z</time>
</trkpt>
<trkpt lat="39.7627669" lon="2.9790513">
<ele>72.44</ele>
<time>2016-10-16T08:13:47Z</time>
</trkpt>
<trkpt lat="39.7629029" lon="2.9788816">
<ele>73.29</ele>
<time>2016-10-16T08:13:50Z</time>
</trkpt>
<trkpt lat="39.7630562" lon="2.9786533">
<ele>73.52</ele>
<time>2016-10-16T08:13:54Z</time>
</trkpt>
<trkpt lat="39.7632204" lon="2.9784541">
<ele>74.47</ele>
<time>2016-10-16T08:13:58Z</time>
</trkpt>
<trkpt lat="39.7633685" lon="2.9782645">
<ele>76.03</ele>
<time>2016-10-16T08:14:02Z</time>
</trkpt>
<trkpt lat="39.7635159" lon="2.9780739">
<ele>77.03</ele>
<time>2016-10-16T08:14:06Z</time>
</trkpt>
<trkpt lat="39.7636614" lon="2.9778461">
<ele>79.04</ele>
<time>2016-10-16T08:14:11Z</time>
</trkpt>
<trkpt lat="39.7637917" lon="2.9776359">
<ele>81.07</ele>
<time>2016-10-16T08:14:16Z</time>
</trkpt>
<trkpt lat="39.7639097" lon="2.9774301">
<ele>79.49</ele>
<time>2016-10-16T08:14:21Z</time>
</trkpt>
<trkpt lat="39.7640269" lon="2.9772430">
<ele>80.41</ele>
<time>2016-10-16T08:14:26Z</time>
</trkpt>
<trkpt lat="39.7641418" lon="2.9770363">
<ele>81.56</ele>
<time>2016-10-16T08:14:31Z</time>
</trkpt>
<trkpt lat="39.7642684" lon="2.9768006">
<ele>82.99</ele>
<time>2016-10-16T08:14:36Z</time>
</trkpt>
<trkpt lat="39.7644029" lon="2.9766129">
<ele>82.47</ele>
<time>2016-10-16T08:14:40Z</time>
</trkpt>
<trkpt lat="39.7645695" lon="2.9764152">
<ele>80.59</ele>
<time>2016-10-16T08:14:44Z</time>
</trkpt>
<trkpt lat="39.7647167" lon="2.9762598">
<ele>80.11</ele>
<time>2016-10-16T08:14:47Z</time>
</trkpt>
<trkpt lat="39.7648492" lon="2.9761014">
<ele>79.63</ele>
<time>2016-10-16T08:14:50Z</time>
</trkpt>
<trkpt lat="39.7649915" lon="2.9759285">
<ele>80.04</ele>
<time>2016-10-16T08:14:53Z</time>
</trkpt>
<trkpt lat="39.7651281" lon="2.9757339">
<ele>79.76</ele>
<time>2016-10-16T08:14:57Z</time>
</trkpt>
<trkpt lat="39.7652463" lon="2.9755150">
<ele>78.35</ele>
<time>2016-10-16T08:15:00Z</time>
</trkpt>
<trkpt lat="39.7653453" lon="2.9752976">
<ele>77.22</ele>
<time>2016-10-16T08:15:03Z</time>
</trkpt>
<trkpt lat="39.7654451" lon="2.9750892">
<ele>77.07</ele>
<time>2016-10-16T08:15:06Z</time>
</trkpt>
<trkpt lat="39.7655727" lon="2.9748354">
<ele>77.25</ele>
<time>2016-10-16T08:15:10Z</time>
</trkpt>
<trkpt lat="39.7657014" lon="2.9745820">
<ele>77.46</ele>
<time>2016-10-16T08:15:14Z</time>
</trkpt>
<trkpt lat="39.7658252" lon="2.9743630">
<ele>78.54</ele>
<time>2016-10-16T08:15:18Z</time>
</trkpt>
<trkpt lat="39.7659364" lon="2.9741490">
<ele>78.17</ele>
<time>2016-10-16T08:15:22Z</time>
</trkpt>
<trkpt lat="39.7660376" lon="2.9739366">
<ele>77.78</ele>
<time>2016-10-16T08:15:26Z</time>
</trkpt>
<trkpt lat="39.7661487" lon="2.9737437">
<ele>78.27</ele>
<time>2016-10-16T08:15:30Z</time>
</trkpt>
<trkpt lat="39.7663589" lon="2.9736557">
<ele>78.90</ele>
<time>2016-10-16T08:15:35Z</time>
</trkpt>
<trkpt lat="39.7665200" lon="2.9734980">
<ele>77.40</ele>
<time>2016-10-16T08:15:39Z</time>
</trkpt>
<trkpt lat="39.7665903" lon="2.9732315">
<ele>73.52</ele>
<time>2016-10-16T08:15:43Z</time>
</trkpt>
<trkpt lat="39.7666463" lon="2.9730048">
<ele>70.94</ele>
<time>2016-10-16T08:15:46Z</time>
</trkpt>
<trkpt lat="39.7667667" lon="2.9728131">
<ele>72.06</ele>
<time>2016-10-16T08:15:49Z</time>
</trkpt>
<trkpt lat="39.7669038" lon="2.9725925">
<ele>73.49</ele>
<time>2016-10-16T08:15:53Z</time>
</trkpt>
<trkpt lat="39.7670253" lon="2.9723834">
<ele>75.25</ele>
<time>2016-10-16T08:15:58Z</time>
</trkpt>
<trkpt lat="39.7671612" lon="2.9722014">
<ele>75.67</ele>
<time>2016-10-16T08:16:03Z</time>
</trkpt>
<trkpt lat="39.7673067" lon="2.9720593">
<ele>76.37</ele>
<time>2016-10-16T08:16:08Z</time>
</trkpt>
<trkpt lat="39.7675131" lon="2.9720271">
<ele>79.27</ele>
<time>2016-10-16T08:16:13Z</time>
</trkpt>
<trkpt lat="39.7676897" lon="2.9719449">
<ele>82.94</ele>
<time>2016-10-16T08:16:17Z</time>
</trkpt>
<trkpt lat="39.7677823" lon="2.9717439">
<ele>82.22</ele>
<time>2016-10-16T08:16:21Z</time>
</trkpt>
<trkpt lat="39.7677384" lon="2.9714836">
<ele>79.17</ele>
<time>2016-10-16T08:16:26Z</time>
</trkpt>
<trkpt lat="39.7677597" lon="2.9712015">
<ele>77.84</ele>
<time>2016-10-16T08:16:30Z</time>
</trkpt>
<trkpt lat="39.7678438" lon="2.9709611">
<ele>78.20</ele>
<time>2016-10-16T08:16:34Z</time>
</trkpt>
<trkpt lat="39.7679599" lon="2.9707632">
<ele>79.66</ele>
<time>2016-10-16T08:16:38Z</time>
</trkpt>
<trkpt lat="39.7680711" lon="2.9705723">
<ele>80.30</ele>
<time>2016-10-16T08:16:42Z</time>
</trkpt>
<trkpt lat="39.7681849" lon="2.9703672">
<ele>81.80</ele>
<time>2016-10-16T08:16:46Z</time>
</trkpt>
<trkpt lat="39.7682932" lon="2.9701741">
<ele>82.87</ele>
<time>2016-10-16T08:16:50Z</time>
</trkpt>
<trkpt lat="39.7683945" lon="2.9699782">
<ele>82.32</ele>
<time>2016-10-16T08:16:54Z</time>
</trkpt>
<trkpt lat="39.7685150" lon="2.9697831">
<ele>82.89</ele>
<time>2016-10-16T08:16:58Z</time>
</trkpt>
<trkpt lat="39.7686311" lon="2.9695966">
<ele>81.54</ele>
<time>2016-10-16T08:17:02Z</time>
</trkpt>
<trkpt lat="39.7687644" lon="2.9693772">
<ele>81.22</ele>
<time>2016-10-16T08:17:07Z</time>
</trkpt>
<trkpt lat="39.7689088" lon="2.9691574">
<ele>82.94</ele>
<time>2016-10-16T08:17:12Z</time>
</trkpt>
<trkpt lat="39.7690581" lon="2.9689551">
<ele>85.05</ele>
<time>2016-10-16T08:17:17Z</time>
</trkpt>
<trkpt lat="39.7692113" lon="2.9687791">
<ele>86.22</ele>
<time>2016-10-16T08:17:22Z</time>
</trkpt>
<trkpt lat="39.7693642" lon="2.9686187">
<ele>86.96</ele>
<time>2016-10-16T08:17:27Z</time>
</trkpt>
<trkpt lat="39.7695417" lon="2.9685695">
<ele>87.09</ele>
<time>2016-10-16T08:17:32Z</time>
</trkpt>
<trkpt lat="39.7696873" lon="2.9687110">
<ele>87.86</ele>
<time>2016-10-16T08:17:37Z</time>
</trkpt>
<trkpt lat="39.7697946" lon="2.9689268">
<ele>88.80</ele>
<time>2016-10-16T08:17:42Z</time>
</trkpt>
<trkpt lat="39.7698866" lon="2.9691332">
<ele>89.05</ele>
<time>2016-10-16T08:17:47Z</time>
</trkpt>
<trkpt lat="39.7699836" lon="2.9693560">
<ele>90.12</ele>
<time>2016-10-16T08:17:52Z</time>
</trkpt>
<trkpt lat="39.7700866" lon="2.9695516">
<ele>90.71</ele>
<time>2016-10-16T08:17:57Z</time>
</trkpt>
<trkpt lat="39.7702336" lon="2.9697225">
<ele>92.41</ele>
<time>2016-10-16T08:18:03Z</time>
</trkpt>
<trkpt lat="39.7704187" lon="2.9697838">
<ele>93.24</ele>
<time>2016-10-16T08:18:09Z</time>
</trkpt>
<trkpt lat="39.7705976" lon="2.9697564">
<ele>93.64</ele>
<time>2016-10-16T08:18:14Z</time>
</trkpt>
<trkpt lat="39.7707748" lon="2.9697046">
<ele>94.04</ele>
<time>2016-10-16T08:18:19Z</time>
</trkpt>
<trkpt lat="39.7709627" lon="2.9696634">
<ele>94.97</ele>
<time>2016-10-16T08:18:25Z</time>
</trkpt>
<trkpt lat="39.7711386" lon="2.9696133">
<ele>95.99</ele>
<time>2016-10-16T08:18:32Z</time>
</trkpt>
<trkpt lat="39.7713172" lon="2.9695708">
<ele>97.22</ele>
<time>2016-10-16T08:18:38Z</time>
</trkpt>
<trkpt lat="39.7714951" lon="2.9694503">
<ele>98.99</ele>
<time>2016-10-16T08:18:45Z</time>
</trkpt>
<trkpt lat="39.7716662" lon="2.9693714">
<ele>100.88</ele>
<time>2016-10-16T08:18:51Z</time>
</trkpt>
<trkpt lat="39.7718455" lon="2.9692890">
<ele>102.52</ele>
<time>2016-10-16T08:18:58Z</time>
</trkpt>
<trkpt lat="39.7720225" lon="2.9691411">
<ele>103.86</ele>
<time>2016-10-16T08:19:06Z</time>
</trkpt>
<trkpt lat="39.7721849" lon="2.9689854">
<ele>105.39</ele>
<time>2016-10-16T08:19:15Z</time>
</trkpt>
<trkpt lat="39.7722922" lon="2.9687637">
<ele>107.49</ele>
<time>2016-10-16T08:19:24Z</time>
</trkpt>
<trkpt lat="39.7723718" lon="2.9685284">
<ele>109.16</ele>
<time>2016-10-16T08:19:31Z</time>
</trkpt>
<trkpt lat="39.7724890" lon="2.9683423">
<ele>109.63</ele>
<time>2016-10-16T08:19:38Z</time>
</trkpt>
<trkpt lat="39.7726310" lon="2.9681606">
<ele>110.65</ele>
<time>2016-10-16T08:19:46Z</time>
</trkpt>
<trkpt lat="39.7727876" lon="2.9679904">
<ele>112.58</ele>
<time>2016-10-16T08:19:54Z</time>
</trkpt>
<trkpt lat="39.7729381" lon="2.9678480">
<ele>114.47</ele>
<time>2016-10-16T08:20:01Z</time>
</trkpt>
<trkpt lat="39.7731010" lon="2.9677208">
<ele>115.95</ele>
<time>2016-10-16T08:20:08Z</time>
</trkpt>
<trkpt lat="39.7732534" lon="2.9675944">
<ele>117.43</ele>
<time>2016-10-16T08:20:15Z</time>
</trkpt>
<trkpt lat="39.7734382" lon="2.9675038">
<ele>119.22</ele>
<time>2016-10-16T08:20:23Z</time>
</trkpt>
<trkpt lat="39.7736049" lon="2.9673698">
<ele>120.65</ele>
<time>2016-10-16T08:20:30Z</time>
</trkpt>
<trkpt lat="39.7737429" lon="2.9672168">
<ele>122.01</ele>
<time>2016-10-16T08:20:37Z</time>
</trkpt>
<trkpt lat="39.7738843" lon="2.9670255">
<ele>123.13</ele>
<time>2016-10-16T08:20:46Z</time>
</trkpt>
<trkpt lat="39.7740199" lon="2.9668409">
<ele>124.14</ele>
<time>2016-10-16T08:20:54Z</time>
</trkpt>
<trkpt lat="39.7741688" lon="2.9666980">
<ele>125.54</ele>
<time>2016-10-16T08:21:01Z</time>
</trkpt>
<trkpt lat="39.7742922" lon="2.9665208">
<ele>127.15</ele>
<time>2016-10-16T08:21:08Z</time>
</trkpt>
<trkpt lat="39.7744175" lon="2.9663222">
<ele>128.76</ele>
<time>2016-10-16T08:21:15Z</time>
</trkpt>
<trkpt lat="39.7746119" lon="2.9662100">
<ele>134.04</ele>
<time>2016-10-16T08:21:21Z</time>
</trkpt>
<trkpt lat="39.7747677" lon="2.9660656">
<ele>134.74</ele>
<time>2016-10-16T08:21:26Z</time>
</trkpt>
<trkpt lat="39.7748867" lon="2.9658782">
<ele>134.58</ele>
<time>2016-10-16T08:21:36Z</time>
</trkpt>
<trkpt lat="39.7749870" lon="2.9656623">
<ele>135.95</ele>
<time>2016-10-16T08:21:45Z</time>
</trkpt>
<trkpt lat="39.7750978" lon="2.9654720">
<ele>138.71</ele>
<time>2016-10-16T08:21:50Z</time>
</trkpt>
<trkpt lat="39.7752760" lon="2.9653372">
<ele>140.48</ele>
<time>2016-10-16T08:21:55Z</time>
</trkpt>
<trkpt lat="39.7754329" lon="2.9651956">
<ele>140.72</ele>
<time>2016-10-16T08:22:01Z</time>
</trkpt>
<trkpt lat="39.7755644" lon="2.9650205">
<ele>140.87</ele>
<time>2016-10-16T08:22:07Z</time>
</trkpt>
<trkpt lat="39.7756945" lon="2.9648496">
<ele>140.11</ele>
<time>2016-10-16T08:22:14Z</time>
</trkpt>
<trkpt lat="39.7758732" lon="2.9647258">
<ele>135.94</ele>
<time>2016-10-16T08:23:02Z</time>
</trkpt>
<trkpt lat="39.7760275" lon="2.9645921">
<ele>133.76</ele>
<time>2016-10-16T08:23:09Z</time>
</trkpt>
<trkpt lat="39.7761349" lon="2.9644018">
<ele>133.27</ele>
<time>2016-10-16T08:23:17Z</time>
</trkpt>
<trkpt lat="39.7762513" lon="2.9642221">
<ele>133.17</ele>
<time>2016-10-16T08:23:23Z</time>
</trkpt>
<trkpt lat="39.7763700" lon="2.9639891">
<ele>132.56</ele>
<time>2016-10-16T08:23:28Z</time>
</trkpt>
<trkpt lat="39.7764814" lon="2.9637516">
<ele>133.63</ele>
<time>2016-10-16T08:23:32Z</time>
</trkpt>
<trkpt lat="39.7765779" lon="2.9635383">
<ele>133.25</ele>
<time>2016-10-16T08:23:36Z</time>
</trkpt>
<trkpt lat="39.7767050" lon="2.9633348">
<ele>131.66</ele>
<time>2016-10-16T08:23:41Z</time>
</trkpt>
<trkpt lat="39.7768688" lon="2.9631923">
<ele>132.57</ele>
<time>2016-10-16T08:24:00Z</time>
</trkpt>
<trkpt lat="39.7770365" lon="2.9630735">
<ele>133.37</ele>
<time>2016-10-16T08:24:07Z</time>
</trkpt>
<trkpt lat="39.7771869" lon="2.9629393">
<ele>135.11</ele>
<time>2016-10-16T08:24:15Z</time>
</trkpt>
<trkpt lat="39.7770550" lon="2.9631200">
<ele>138.04</ele>
<time>2016-10-16T08:25:47Z</time>
</trkpt>
<trkpt lat="39.7768999" lon="2.9632730">
<ele>135.06</ele>
<time>2016-10-16T08:25:51Z</time>
</trkpt>
<trkpt lat="39.7767319" lon="2.9631447">
<ele>134.00</ele>
<time>2016-10-16T08:26:00Z</time>
</trkpt>
<trkpt lat="39.7767112" lon="2.9628699">
<ele>133.39</ele>
<time>2016-10-16T08:26:06Z</time>
</trkpt>
<trkpt lat="39.7766999" lon="2.9626247">
<ele>132.76</ele>
<time>2016-10-16T08:26:12Z</time>
</trkpt>
<trkpt lat="39.7766932" lon="2.9623851">
<ele>131.86</ele>
<time>2016-10-16T08:26:19Z</time>
</trkpt>
<trkpt lat="39.7768038" lon="2.9621933">
<ele>131.99</ele>
<time>2016-10-16T08:26:44Z</time>
</trkpt>
<trkpt lat="39.7769619" lon="2.9620758">
<ele>132.90</ele>
<time>2016-10-16T08:26:51Z</time>
</trkpt>
<trkpt lat="39.7771003" lon="2.9619037">
<ele>133.64</ele>
<time>2016-10-16T08:26:57Z</time>
</trkpt>
<trkpt lat="39.7772481" lon="2.9617470">
<ele>136.65</ele>
<time>2016-10-16T08:27:02Z</time>
</trkpt>
<trkpt lat="39.7774234" lon="2.9615825">
<ele>143.79</ele>
<time>2016-10-16T08:27:07Z</time>
</trkpt>
<trkpt lat="39.7776170" lon="2.9613956">
<ele>143.98</ele>
<time>2016-10-16T08:27:11Z</time>
</trkpt>
<trkpt lat="39.7777623" lon="2.9612352">
<ele>142.51</ele>
<time>2016-10-16T08:27:14Z</time>
</trkpt>
<trkpt lat="39.7779100" lon="2.9610784">
<ele>141.47</ele>
<time>2016-10-16T08:27:17Z</time>
</trkpt>
<trkpt lat="39.7780499" lon="2.9609289">
<ele>140.87</ele>
<time>2016-10-16T08:27:20Z</time>
</trkpt>
<trkpt lat="39.7782130" lon="2.9607618">
<ele>140.78</ele>
<time>2016-10-16T08:27:24Z</time>
</trkpt>
<trkpt lat="39.7783623" lon="2.9606009">
<ele>140.48</ele>
<time>2016-10-16T08:27:30Z</time>
</trkpt>
<trkpt lat="39.7785107" lon="2.9604032">
<ele>140.29</ele>
<time>2016-10-16T08:27:36Z</time>
</trkpt>
<trkpt lat="39.7786663" lon="2.9602272">
<ele>141.31</ele>
<time>2016-10-16T08:27:42Z</time>
</trkpt>
<trkpt lat="39.7788152" lon="2.9600686">
<ele>141.80</ele>
<time>2016-10-16T08:27:49Z</time>
</trkpt>
<trkpt lat="39.7789496" lon="2.9598724">
<ele>142.57</ele>
<time>2016-10-16T08:27:57Z</time>
</trkpt>
<trkpt lat="39.7790897" lon="2.9596795">
<ele>142.60</ele>
<time>2016-10-16T08:28:02Z</time>
</trkpt>
<trkpt lat="39.7791965" lon="2.9594900">
<ele>142.77</ele>
<time>2016-10-16T08:28:08Z</time>
</trkpt>
<trkpt lat="39.7790284" lon="2.9593008">
<ele>139.84</ele>
<time>2016-10-16T08:28:16Z</time>
</trkpt>
<trkpt lat="39.7788643" lon="2.9591485">
<ele>138.63</ele>
<time>2016-10-16T08:28:20Z</time>
</trkpt>
<trkpt lat="39.7786993" lon="2.9590459">
<ele>138.59</ele>
<time>2016-10-16T08:28:26Z</time>
</trkpt>
<trkpt lat="39.7785263" lon="2.9588917">
<ele>137.26</ele>
<time>2016-10-16T08:28:31Z</time>
</trkpt>
<trkpt lat="39.7783351" lon="2.9587281">
<ele>135.69</ele>
<time>2016-10-16T08:28:35Z</time>
</trkpt>
<trkpt lat="39.7781543" lon="2.9585938">
<ele>133.43</ele>
<time>2016-10-16T08:28:38Z</time>
</trkpt>
<trkpt lat="39.7779895" lon="2.9584507">
<ele>130.24</ele>
<time>2016-10-16T08:28:41Z</time>
</trkpt>
<trkpt lat="39.7778125" lon="2.9583308">
<ele>128.06</ele>
<time>2016-10-16T08:28:45Z</time>
</trkpt>
<trkpt lat="39.7776467" lon="2.9581744">
<ele>126.75</ele>
<time>2016-10-16T08:28:50Z</time>
</trkpt>
<trkpt lat="39.7774688" lon="2.9580668">
<ele>127.01</ele>
<time>2016-10-16T08:28:54Z</time>
</trkpt>
<trkpt lat="39.7773329" lon="2.9578805">
<ele>126.10</ele>
<time>2016-10-16T08:28:59Z</time>
</trkpt>
<trkpt lat="39.7773401" lon="2.9576146">
<ele>122.81</ele>
<time>2016-10-16T08:29:03Z</time>
</trkpt>
<trkpt lat="39.7774394" lon="2.9573578">
<ele>120.93</ele>
<time>2016-10-16T08:29:07Z</time>
</trkpt>
<trkpt lat="39.7775486" lon="2.9571203">
<ele>121.22</ele>
<time>2016-10-16T08:29:11Z</time>
</trkpt>
<trkpt lat="39.7776444" lon="2.9569142">
<ele>119.67</ele>
<time>2016-10-16T08:29:14Z</time>
</trkpt>
<trkpt lat="39.7777645" lon="2.9566623">
<ele>119.76</ele>
<time>2016-10-16T08:29:18Z</time>
</trkpt>
<trkpt lat="39.7778720" lon="2.9564422">
<ele>120.49</ele>
<time>2016-10-16T08:29:22Z</time>
</trkpt>
<trkpt lat="39.7780005" lon="2.9562081">
<ele>120.03</ele>
<time>2016-10-16T08:29:26Z</time>
</trkpt>
<trkpt lat="39.7781053" lon="2.9560097">
<ele>120.25</ele>
<time>2016-10-16T08:29:29Z</time>
</trkpt>
<trkpt lat="39.7781910" lon="2.9557919">
<ele>119.57</ele>
<time>2016-10-16T08:29:32Z</time>
</trkpt>
<trkpt lat="39.7781443" lon="2.9554962">
<ele>116.76</ele>
<time>2016-10-16T08:29:36Z</time>
</trkpt>
<trkpt lat="39.7780025" lon="2.9553508">
<ele>114.95</ele>
<time>2016-10-16T08:29:39Z</time>
</trkpt>
<trkpt lat="39.7778321" lon="2.9552275">
<ele>113.90</ele>
<time>2016-10-16T08:29:42Z</time>
</trkpt>
<trkpt lat="39.7776950" lon="2.9550707">
<ele>113.86</ele>
<time>2016-10-16T08:29:45Z</time>
</trkpt>
<trkpt lat="39.7777087" lon="2.9548363">
<ele>114.17</ele>
<time>2016-10-16T08:29:48Z</time>
</trkpt>
<trkpt lat="39.7777621" lon="2.9545383">
<ele>115.60</ele>
<time>2016-10-16T08:29:52Z</time>
</trkpt>
<trkpt lat="39.7778154" lon="2.9543024">
<ele>116.27</ele>
<time>2016-10-16T08:29:56Z</time>
</trkpt>
<trkpt lat="39.7778626" lon="2.9540314">
<ele>116.41</ele>
<time>2016-10-16T08:30:02Z</time>
</trkpt>
<trkpt lat="39.7779225" lon="2.9537795">
<ele>117.09</ele>
<time>2016-10-16T08:30:08Z</time>
</trkpt>
<trkpt lat="39.7779752" lon="2.9535333">
<ele>117.52</ele>
<time>2016-10-16T08:30:14Z</time>
</trkpt>
<trkpt lat="39.7779717" lon="2.9532524">
<ele>117.94</ele>
<time>2016-10-16T08:30:20Z</time>
</trkpt>
<trkpt lat="39.7779325" lon="2.9530075">
<ele>118.44</ele>
<time>2016-10-16T08:30:26Z</time>
</trkpt>
<trkpt lat="39.7778928" lon="2.9527443">
<ele>119.51</ele>
<time>2016-10-16T08:30:32Z</time>
</trkpt>
<trkpt lat="39.7778552" lon="2.9524657">
<ele>122.20</ele>
<time>2016-10-16T08:30:38Z</time>
</trkpt>
<trkpt lat="39.7778169" lon="2.9522194">
<ele>123.43</ele>
<time>2016-10-16T08:30:42Z</time>
</trkpt>
<trkpt lat="39.7777751" lon="2.9519607">
<ele>122.51</ele>
<time>2016-10-16T08:30:46Z</time>
</trkpt>
<trkpt lat="39.7777444" lon="2.9516961">
<ele>122.24</ele>
<time>2016-10-16T08:30:50Z</time>
</trkpt>
<trkpt lat="39.7777179" lon="2.9514338">
<ele>121.08</ele>
<time>2016-10-16T08:30:54Z</time>
</trkpt>
<trkpt lat="39.7777002" lon="2.9511297">
<ele>119.97</ele>
<time>2016-10-16T08:30:58Z</time>
</trkpt>
<trkpt lat="39.7776905" lon="2.9508922">
<ele>121.36</ele>
<time>2016-10-16T08:31:01Z</time>
</trkpt>
<trkpt lat="39.7776712" lon="2.9506105">
<ele>123.90</ele>
<time>2016-10-16T08:31:04Z</time>
</trkpt>
<trkpt lat="39.7776562" lon="2.9503639">
<ele>126.77</ele>
<time>2016-10-16T08:31:07Z</time>
</trkpt>
<trkpt lat="39.7776335" lon="2.9500779">
<ele>126.59</ele>
<time>2016-10-16T08:31:11Z</time>
</trkpt>
<trkpt lat="39.7776074" lon="2.9498089">
<ele>124.13</ele>
<time>2016-10-16T08:31:16Z</time>
</trkpt>
<trkpt lat="39.7775774" lon="2.9495409">
<ele>125.41</ele>
<time>2016-10-16T08:31:21Z</time>
</trkpt>
<trkpt lat="39.7775546" lon="2.9492554">
<ele>127.66</ele>
<time>2016-10-16T08:31:25Z</time>
</trkpt>
<trkpt lat="39.7775303" lon="2.9490107">
<ele>128.64</ele>
<time>2016-10-16T08:31:28Z</time>
</trkpt>
<trkpt lat="39.7775060" lon="2.9487778">
<ele>129.11</ele>
<time>2016-10-16T08:31:31Z</time>
</trkpt>
<trkpt lat="39.7774454" lon="2.9485045">
<ele>129.37</ele>
<time>2016-10-16T08:31:34Z</time>
</trkpt>
<trkpt lat="39.7773701" lon="2.9482656">
<ele>127.42</ele>
<time>2016-10-16T08:31:37Z</time>
</trkpt>
<trkpt lat="39.7772966" lon="2.9480326">
<ele>126.24</ele>
<time>2016-10-16T08:31:40Z</time>
</trkpt>
<trkpt lat="39.7772204" lon="2.9478055">
<ele>125.32</ele>
<time>2016-10-16T08:31:43Z</time>
</trkpt>
<trkpt lat="39.7771282" lon="2.9475825">
<ele>122.77</ele>
<time>2016-10-16T08:31:46Z</time>
</trkpt>
<trkpt lat="39.7770366" lon="2.9473805">
<ele>121.89</ele>
<time>2016-10-16T08:31:49Z</time>
</trkpt>
<trkpt lat="39.7769445" lon="2.9471779">
<ele>122.77</ele>
<time>2016-10-16T08:31:53Z</time>
</trkpt>
<trkpt lat="39.7768493" lon="2.9469449">
<ele>127.24</ele>
<time>2016-10-16T08:31:58Z</time>
</trkpt>
<trkpt lat="39.7767675" lon="2.9466714">
<ele>129.31</ele>
<time>2016-10-16T08:32:03Z</time>
</trkpt>
<trkpt lat="39.7767045" lon="2.9464021">
<ele>131.16</ele>
<time>2016-10-16T08:32:08Z</time>
</trkpt>
<trkpt lat="39.7766468" lon="2.9461724">
<ele>129.14</ele>
<time>2016-10-16T08:32:12Z</time>
</trkpt>
<trkpt lat="39.7766232" lon="2.9459190">
<ele>124.61</ele>
<time>2016-10-16T08:32:16Z</time>
</trkpt>
<trkpt lat="39.7767704" lon="2.9457276">
<ele>123.19</ele>
<time>2016-10-16T08:32:20Z</time>
</trkpt>
<trkpt lat="39.7769561" lon="2.9455656">
<ele>127.18</ele>
<time>2016-10-16T08:32:24Z</time>
</trkpt>
<trkpt lat="39.7771272" lon="2.9453899">
<ele>130.30</ele>
<time>2016-10-16T08:32:28Z</time>
</trkpt>
<trkpt lat="39.7772076" lon="2.9451076">
<ele>128.67</ele>
<time>2016-10-16T08:32:32Z</time>
</trkpt>
<trkpt lat="39.7772829" lon="2.9448337">
<ele>125.99</ele>
<time>2016-10-16T08:32:35Z</time>
</trkpt>
<trkpt lat="39.7773542" lon="2.9445691">
<ele>123.02</ele>
<time>2016-10-16T08:32:38Z</time>
</trkpt>
<trkpt lat="39.7774223" lon="2.9443003">
<ele>121.08</ele>
<time>2016-10-16T08:32:41Z</time>
</trkpt>
<trkpt lat="39.7775000" lon="2.9440086">
<ele>120.17</ele>
<time>2016-10-16T08:32:44Z</time>
</trkpt>
<trkpt lat="39.7775706" lon="2.9437297">
<ele>118.52</ele>
<time>2016-10-16T08:32:47Z</time>
</trkpt>
<trkpt lat="39.7776507" lon="2.9434637">
<ele>116.26</ele>
<time>2016-10-16T08:32:50Z</time>
</trkpt>
<trkpt lat="39.7777424" lon="2.9432209">
<ele>115.43</ele>
<time>2016-10-16T08:32:53Z</time>
</trkpt>
<trkpt lat="39.7778351" lon="2.9429890">
<ele>114.65</ele>
<time>2016-10-16T08:32:56Z</time>
</trkpt>
<trkpt lat="39.7778806" lon="2.9427393">
<ele>114.95</ele>
<time>2016-10-16T08:32:59Z</time>
</trkpt>
<trkpt lat="39.7779241" lon="2.9424536">
<ele>115.28</ele>
<time>2016-10-16T08:33:02Z</time>
</trkpt>
<trkpt lat="39.7779398" lon="2.9421880">
<ele>115.36</ele>
<time>2016-10-16T08:33:05Z</time>
</trkpt>
<trkpt lat="39.7779324" lon="2.9418845">
<ele>115.32</ele>
<time>2016-10-16T08:33:08Z</time>
</trkpt>
<trkpt lat="39.7779216" lon="2.9415802">
<ele>114.49</ele>
<time>2016-10-16T08:33:11Z</time>
</trkpt>
<trkpt lat="39.7778978" lon="2.9412533">
<ele>111.92</ele>
<time>2016-10-16T08:33:14Z</time>
</trkpt>
<trkpt lat="39.7778789" lon="2.9409371">
<ele>109.83</ele>
<time>2016-10-16T08:33:17Z</time>
</trkpt>
<trkpt lat="39.7778573" lon="2.9405961">
<ele>108.64</ele>
<time>2016-10-16T08:33:20Z</time>
</trkpt>
<trkpt lat="39.7778478" lon="2.9402561">
<ele>109.03</ele>
<time>2016-10-16T08:33:23Z</time>
</trkpt>
<trkpt lat="39.7778339" lon="2.9399275">
<ele>109.18</ele>
<time>2016-10-16T08:33:26Z</time>
</trkpt>
<trkpt lat="39.7778270" lon="2.9396375">
<ele>109.64</ele>
<time>2016-10-16T08:33:29Z</time>
</trkpt>
<trkpt lat="39.7778210" lon="2.9393333">
<ele>110.05</ele>
<time>2016-10-16T08:33:32Z</time>
</trkpt>
<trkpt lat="39.7778118" lon="2.9390521">
<ele>110.09</ele>
<time>2016-10-16T08:33:35Z</time>
</trkpt>
<trkpt lat="39.7778029" lon="2.9387732">
<ele>110.00</ele>
<time>2016-10-16T08:33:38Z</time>
</trkpt>
<trkpt lat="39.7777985" lon="2.9385188">
<ele>108.62</ele>
<time>2016-10-16T08:33:41Z</time>
</trkpt>
<trkpt lat="39.7777973" lon="2.9382803">
<ele>107.17</ele>
<time>2016-10-16T08:33:44Z</time>
</trkpt>
<trkpt lat="39.7777933" lon="2.9379659">
<ele>107.27</ele>
<time>2016-10-16T08:33:48Z</time>
</trkpt>
<trkpt lat="39.7777934" lon="2.9377194">
<ele>107.80</ele>
<time>2016-10-16T08:33:51Z</time>
</trkpt>
<trkpt lat="39.7777918" lon="2.9374789">
<ele>107.13</ele>
<time>2016-10-16T08:33:54Z</time>
</trkpt>
<trkpt lat="39.7777875" lon="2.9372317">
<ele>107.71</ele>
<time>2016-10-16T08:33:57Z</time>
</trkpt>
<trkpt lat="39.7777789" lon="2.9369970">
<ele>106.82</ele>
<time>2016-10-16T08:34:00Z</time>
</trkpt>
<trkpt lat="39.7777726" lon="2.9367455">
<ele>106.13</ele>
<time>2016-10-16T08:34:03Z</time>
</trkpt>
<trkpt lat="39.7777566" lon="2.9364411">
<ele>105.07</ele>
<time>2016-10-16T08:34:07Z</time>
</trkpt>
<trkpt lat="39.7777518" lon="2.9361532">
<ele>104.96</ele>
<time>2016-10-16T08:34:11Z</time>
</trkpt>
<trkpt lat="39.7777421" lon="2.9358941">
<ele>107.34</ele>
<time>2016-10-16T08:34:15Z</time>
</trkpt>
<trkpt lat="39.7777396" lon="2.9356071">
<ele>109.58</ele>
<time>2016-10-16T08:34:20Z</time>
</trkpt>
<trkpt lat="39.7777216" lon="2.9353303">
<ele>110.89</ele>
<time>2016-10-16T08:34:25Z</time>
</trkpt>
<trkpt lat="39.7777083" lon="2.9350513">
<ele>112.00</ele>
<time>2016-10-16T08:34:30Z</time>
</trkpt>
<trkpt lat="39.7776790" lon="2.9348083">
<ele>113.33</ele>
<time>2016-10-16T08:34:34Z</time>
</trkpt>
<trkpt lat="39.7776449" lon="2.9345761">
<ele>114.12</ele>
<time>2016-10-16T08:34:38Z</time>
</trkpt>
<trkpt lat="39.7775816" lon="2.9343192">
<ele>112.86</ele>
<time>2016-10-16T08:34:42Z</time>
</trkpt>
<trkpt lat="39.7775103" lon="2.9340526">
<ele>112.06</ele>
<time>2016-10-16T08:34:46Z</time>
</trkpt>
<trkpt lat="39.7774336" lon="2.9337709">
<ele>110.27</ele>
<time>2016-10-16T08:34:50Z</time>
</trkpt>
<trkpt lat="39.7773674" lon="2.9334808">
<ele>109.47</ele>
<time>2016-10-16T08:34:54Z</time>
</trkpt>
<trkpt lat="39.7773045" lon="2.9332049">
<ele>106.29</ele>
<time>2016-10-16T08:34:58Z</time>
</trkpt>
<trkpt lat="39.7772520" lon="2.9329442">
<ele>103.59</ele>
<time>2016-10-16T08:35:02Z</time>
</trkpt>
<trkpt lat="39.7772188" lon="2.9326952">
<ele>106.64</ele>
<time>2016-10-16T08:35:06Z</time>
</trkpt>
<trkpt lat="39.7771764" lon="2.9324247">
<ele>110.04</ele>
<time>2016-10-16T08:35:10Z</time>
</trkpt>
<trkpt lat="39.7771229" lon="2.9321416">
<ele>110.68</ele>
<time>2016-10-16T08:35:14Z</time>
</trkpt>
<trkpt lat="39.7770990" lon="2.9318546">
<ele>112.25</ele>
<time>2016-10-16T08:35:18Z</time>
</trkpt>
<trkpt lat="39.7771505" lon="2.9315660">
<ele>112.87</ele>
<time>2016-10-16T08:35:22Z</time>
</trkpt>
<trkpt lat="39.7772034" lon="2.9313085">
<ele>116.23</ele>
<time>2016-10-16T08:35:26Z</time>
</trkpt>
<trkpt lat="39.7772597" lon="2.9310585">
<ele>118.86</ele>
<time>2016-10-16T08:35:30Z</time>
</trkpt>
<trkpt lat="39.7773176" lon="2.9308134">
<ele>120.87</ele>
<time>2016-10-16T08:35:34Z</time>
</trkpt>
<trkpt lat="39.7773914" lon="2.9305536">
<ele>121.53</ele>
<time>2016-10-16T08:35:39Z</time>
</trkpt>
<trkpt lat="39.7774549" lon="2.9303261">
<ele>121.48</ele>
<time>2016-10-16T08:35:43Z</time>
</trkpt>
<trkpt lat="39.7775171" lon="2.9300938">
<ele>121.91</ele>
<time>2016-10-16T08:35:47Z</time>
</trkpt>
<trkpt lat="39.7775888" lon="2.9298710">
<ele>122.39</ele>
<time>2016-10-16T08:35:51Z</time>
</trkpt>
<trkpt lat="39.7776779" lon="2.9296068">
<ele>120.51</ele>
<time>2016-10-16T08:35:56Z</time>
</trkpt>
<trkpt lat="39.7776583" lon="2.9293605">
<ele>119.28</ele>
<time>2016-10-16T08:36:00Z</time>
</trkpt>
<trkpt lat="39.7775997" lon="2.9291075">
<ele>117.45</ele>
<time>2016-10-16T08:36:04Z</time>
</trkpt>
<trkpt lat="39.7775320" lon="2.9288577">
<ele>115.24</ele>
<time>2016-10-16T08:36:08Z</time>
</trkpt>
<trkpt lat="39.7774722" lon="2.9286355">
<ele>114.95</ele>
<time>2016-10-16T08:36:12Z</time>
</trkpt>
<trkpt lat="39.7774154" lon="2.9284079">
<ele>115.52</ele>
<time>2016-10-16T08:36:16Z</time>
</trkpt>
<trkpt lat="39.7773305" lon="2.9281335">
<ele>113.53</ele>
<time>2016-10-16T08:36:21Z</time>
</trkpt>
<trkpt lat="39.7772490" lon="2.9278987">
<ele>117.64</ele>
<time>2016-10-16T08:36:26Z</time>
</trkpt>
<trkpt lat="39.7771551" lon="2.9276317">
<ele>119.26</ele>
<time>2016-10-16T08:36:31Z</time>
</trkpt>
<trkpt lat="39.7770766" lon="2.9273959">
<ele>118.65</ele>
<time>2016-10-16T08:36:35Z</time>
</trkpt>
<trkpt lat="39.7769939" lon="2.9271439">
<ele>117.83</ele>
<time>2016-10-16T08:36:40Z</time>
</trkpt>
<trkpt lat="39.7769104" lon="2.9269099">
<ele>118.34</ele>
<time>2016-10-16T08:36:45Z</time>
</trkpt>
<trkpt lat="39.7768242" lon="2.9266899">
<ele>118.31</ele>
<time>2016-10-16T08:36:49Z</time>
</trkpt>
<trkpt lat="39.7767341" lon="2.9264763">
<ele>118.31</ele>
<time>2016-10-16T08:36:53Z</time>
</trkpt>
<trkpt lat="39.7765992" lon="2.9263029">
<ele>117.44</ele>
<time>2016-10-16T08:36:57Z</time>
</trkpt>
<trkpt lat="39.7764648" lon="2.9261372">
<ele>117.25</ele>
<time>2016-10-16T08:37:01Z</time>
</trkpt>
<trkpt lat="39.7763494" lon="2.9259422">
<ele>117.28</ele>
<time>2016-10-16T08:37:05Z</time>
</trkpt>
<trkpt lat="39.7762391" lon="2.9257181">
<ele>116.87</ele>
<time>2016-10-16T08:37:09Z</time>
</trkpt>
<trkpt lat="39.7761382" lon="2.9254825">
<ele>116.37</ele>
<time>2016-10-16T08:37:13Z</time>
</trkpt>
<trkpt lat="39.7760550" lon="2.9252487">
<ele>116.79</ele>
<time>2016-10-16T08:37:17Z</time>
</trkpt>
<trkpt lat="39.7759874" lon="2.9250072">
<ele>116.93</ele>
<time>2016-10-16T08:37:21Z</time>
</trkpt>
<trkpt lat="39.7759203" lon="2.9247715">
<ele>116.78</ele>
<time>2016-10-16T08:37:25Z</time>
</trkpt>
<trkpt lat="39.7758477" lon="2.9245437">
<ele>115.94</ele>
<time>2016-10-16T08:37:29Z</time>
</trkpt>
<trkpt lat="39.7757784" lon="2.9243073">
<ele>115.50</ele>
<time>2016-10-16T08:37:33Z</time>
</trkpt>
<trkpt lat="39.7757169" lon="2.9240618">
<ele>115.49</ele>
<time>2016-10-16T08:37:37Z</time>
</trkpt>
<trkpt lat="39.7756506" lon="2.9238120">
<ele>115.07</ele>
<time>2016-10-16T08:37:41Z</time>
</trkpt>
<trkpt lat="39.7755565" lon="2.9235608">
<ele>114.21</ele>
<time>2016-10-16T08:37:46Z</time>
</trkpt>
<trkpt lat="39.7754688" lon="2.9233554">
<ele>114.22</ele>
<time>2016-10-16T08:37:50Z</time>
</trkpt>
<trkpt lat="39.7753590" lon="2.9231102">
<ele>117.06</ele>
<time>2016-10-16T08:37:55Z</time>
</trkpt>
<trkpt lat="39.7752141" lon="2.9229156">
<ele>118.23</ele>
<time>2016-10-16T08:38:00Z</time>
</trkpt>
<trkpt lat="39.7750182" lon="2.9228066">
<ele>120.13</ele>
<time>2016-10-16T08:38:05Z</time>
</trkpt>
<trkpt lat="39.7748024" lon="2.9227169">
<ele>120.86</ele>
<time>2016-10-16T08:38:10Z</time>
</trkpt>
<trkpt lat="39.7746351" lon="2.9226250">
<ele>121.35</ele>
<time>2016-10-16T08:38:13Z</time>
</trkpt>
<trkpt lat="39.7744687" lon="2.9224568">
<ele>123.16</ele>
<time>2016-10-16T08:38:17Z</time>
</trkpt>
<trkpt lat="39.7744164" lon="2.9221661">
<ele>122.90</ele>
<time>2016-10-16T08:38:21Z</time>
</trkpt>
<trkpt lat="39.7743961" lon="2.9218929">
<ele>123.49</ele>
<time>2016-10-16T08:38:24Z</time>
</trkpt>
<trkpt lat="39.7743780" lon="2.9216531">
<ele>123.22</ele>
<time>2016-10-16T08:38:27Z</time>
</trkpt>
<trkpt lat="39.7743520" lon="2.9213711">
<ele>123.61</ele>
<time>2016-10-16T08:38:31Z</time>
</trkpt>
<trkpt lat="39.7743193" lon="2.9210977">
<ele>125.15</ele>
<time>2016-10-16T08:38:35Z</time>
</trkpt>
<trkpt lat="39.7742702" lon="2.9208624">
<ele>124.73</ele>
<time>2016-10-16T08:38:39Z</time>
</trkpt>
<trkpt lat="39.7741766" lon="2.9206068">
<ele>121.37</ele>
<time>2016-10-16T08:38:43Z</time>
</trkpt>
<trkpt lat="39.7740564" lon="2.9203709">
<ele>119.04</ele>
<time>2016-10-16T08:38:47Z</time>
</trkpt>
<trkpt lat="39.7739343" lon="2.9201562">
<ele>118.74</ele>
<time>2016-10-16T08:38:51Z</time>
</trkpt>
<trkpt lat="39.7738011" lon="2.9199529">
<ele>114.85</ele>
<time>2016-10-16T08:38:55Z</time>
</trkpt>
<trkpt lat="39.7736985" lon="2.9197270">
<ele>111.67</ele>
<time>2016-10-16T08:38:59Z</time>
</trkpt>
<trkpt lat="39.7736425" lon="2.9194789">
<ele>111.47</ele>
<time>2016-10-16T08:39:03Z</time>
</trkpt>
<trkpt lat="39.7735963" lon="2.9192468">
<ele>110.99</ele>
<time>2016-10-16T08:39:07Z</time>
</trkpt>
<trkpt lat="39.7735122" lon="2.9189718">
<ele>110.51</ele>
<time>2016-10-16T08:39:12Z</time>
</trkpt>
<trkpt lat="39.7734216" lon="2.9186995">
<ele>112.84</ele>
<time>2016-10-16T08:39:17Z</time>
</trkpt>
<trkpt lat="39.7733411" lon="2.9184539">
<ele>115.61</ele>
<time>2016-10-16T08:39:22Z</time>
</trkpt>
<trkpt lat="39.7732592" lon="2.9181938">
<ele>116.17</ele>
<time>2016-10-16T08:39:26Z</time>
</trkpt>
<trkpt lat="39.7731831" lon="2.9179562">
<ele>119.42</ele>
<time>2016-10-16T08:39:30Z</time>
</trkpt>
<trkpt lat="39.7730539" lon="2.9177670">
<ele>121.00</ele>
<time>2016-10-16T08:39:34Z</time>
</trkpt>
<trkpt lat="39.7729200" lon="2.9176005">
<ele>124.16</ele>
<time>2016-10-16T08:39:38Z</time>
</trkpt>
<trkpt lat="39.7727884" lon="2.9174307">
<ele>128.65</ele>
<time>2016-10-16T08:39:42Z</time>
</trkpt>
<trkpt lat="39.7726359" lon="2.9172361">
<ele>129.91</ele>
<time>2016-10-16T08:39:46Z</time>
</trkpt>
<trkpt lat="39.7724852" lon="2.9170390">
<ele>128.80</ele>
<time>2016-10-16T08:39:50Z</time>
</trkpt>
<trkpt lat="39.7723518" lon="2.9168664">
<ele>127.86</ele>
<time>2016-10-16T08:39:54Z</time>
</trkpt>
<trkpt lat="39.7722140" lon="2.9166854">
<ele>127.09</ele>
<time>2016-10-16T08:39:58Z</time>
</trkpt>
<trkpt lat="39.7720751" lon="2.9165315">
<ele>126.56</ele>
<time>2016-10-16T08:40:03Z</time>
</trkpt>
<trkpt lat="39.7719169" lon="2.9163816">
<ele>125.56</ele>
<time>2016-10-16T08:40:08Z</time>
</trkpt>
<trkpt lat="39.7717600" lon="2.9162396">
<ele>125.69</ele>
<time>2016-10-16T08:40:13Z</time>
</trkpt>
<trkpt lat="39.7715904" lon="2.9160877">
<ele>126.62</ele>
<time>2016-10-16T08:40:18Z</time>
</trkpt>
<trkpt lat="39.7714212" lon="2.9159225">
<ele>127.77</ele>
<time>2016-10-16T08:40:23Z</time>
</trkpt>
<trkpt lat="39.7712667" lon="2.9157780">
<ele>128.30</ele>
<time>2016-10-16T08:40:27Z</time>
</trkpt>
<trkpt lat="39.7710817" lon="2.9156084">
<ele>131.87</ele>
<time>2016-10-16T08:40:32Z</time>
</trkpt>
<trkpt lat="39.7709154" lon="2.9154477">
<ele>134.34</ele>
<time>2016-10-16T08:40:36Z</time>
</trkpt>
<trkpt lat="39.7707354" lon="2.9152735">
<ele>137.73</ele>
<time>2016-10-16T08:40:41Z</time>
</trkpt>
<trkpt lat="39.7705743" lon="2.9151144">
<ele>141.27</ele>
<time>2016-10-16T08:40:45Z</time>
</trkpt>
<trkpt lat="39.7704044" lon="2.9149576">
<ele>139.19</ele>
<time>2016-10-16T08:40:49Z</time>
</trkpt>
<trkpt lat="39.7702456" lon="2.9147683">
<ele>135.22</ele>
<time>2016-10-16T08:40:53Z</time>
</trkpt>
<trkpt lat="39.7701104" lon="2.9145643">
<ele>133.51</ele>
<time>2016-10-16T08:40:57Z</time>
</trkpt>
<trkpt lat="39.7699821" lon="2.9143566">
<ele>132.74</ele>
<time>2016-10-16T08:41:01Z</time>
</trkpt>
<trkpt lat="39.7698456" lon="2.9141259">
<ele>132.26</ele>
<time>2016-10-16T08:41:05Z</time>
</trkpt>
<trkpt lat="39.7696645" lon="2.9139941">
<ele>133.46</ele>
<time>2016-10-16T08:41:10Z</time>
</trkpt>
<trkpt lat="39.7694866" lon="2.9139139">
<ele>135.06</ele>
<time>2016-10-16T08:41:14Z</time>
</trkpt>
<trkpt lat="39.7693001" lon="2.9138222">
<ele>140.15</ele>
<time>2016-10-16T08:41:18Z</time>
</trkpt>
<trkpt lat="39.7691266" lon="2.9137311">
<ele>144.66</ele>
<time>2016-10-16T08:41:22Z</time>
</trkpt>
<trkpt lat="39.7689574" lon="2.9136475">
<ele>145.15</ele>
<time>2016-10-16T08:41:26Z</time>
</trkpt>
<trkpt lat="39.7687729" lon="2.9135511">
<ele>144.56</ele>
<time>2016-10-16T08:41:30Z</time>
</trkpt>
<trkpt lat="39.7685918" lon="2.9134451">
<ele>143.69</ele>
<time>2016-10-16T08:41:34Z</time>
</trkpt>
<trkpt lat="39.7683871" lon="2.9133215">
<ele>141.79</ele>
<time>2016-10-16T08:41:38Z</time>
</trkpt>
<trkpt lat="39.7681701" lon="2.9132415">
<ele>143.54</ele>
<time>2016-10-16T08:41:42Z</time>
</trkpt>
<trkpt lat="39.7679850" lon="2.9131734">
<ele>146.57</ele>
<time>2016-10-16T08:41:46Z</time>
</trkpt>
<trkpt lat="39.7677952" lon="2.9130878">
<ele>146.40</ele>
<time>2016-10-16T08:41:51Z</time>
</trkpt>
<trkpt lat="39.7676112" lon="2.9130038">
<ele>148.46</ele>
<time>2016-10-16T08:41:56Z</time>
</trkpt>
<trkpt lat="39.7674242" lon="2.9129133">
<ele>147.40</ele>
<time>2016-10-16T08:42:00Z</time>
</trkpt>
<trkpt lat="39.7672193" lon="2.9127870">
<ele>144.53</ele>
<time>2016-10-16T08:42:04Z</time>
</trkpt>
<trkpt lat="39.7670302" lon="2.9126275">
<ele>141.91</ele>
<time>2016-10-16T08:42:08Z</time>
</trkpt>
<trkpt lat="39.7668659" lon="2.9124811">
<ele>140.97</ele>
<time>2016-10-16T08:42:12Z</time>
</trkpt>
<trkpt lat="39.7667204" lon="2.9123304">
<ele>141.68</ele>
<time>2016-10-16T08:42:16Z</time>
</trkpt>
<trkpt lat="39.7665603" lon="2.9121312">
<ele>143.45</ele>
<time>2016-10-16T08:42:20Z</time>
</trkpt>
<trkpt lat="39.7664317" lon="2.9119494">
<ele>142.71</ele>
<time>2016-10-16T08:42:23Z</time>
</trkpt>
<trkpt lat="39.7662596" lon="2.9117456">
<ele>140.09</ele>
<time>2016-10-16T08:42:27Z</time>
</trkpt>
<trkpt lat="39.7660484" lon="2.9116331">
<ele>139.35</ele>
<time>2016-10-16T08:42:31Z</time>
</trkpt>
<trkpt lat="39.7658234" lon="2.9116252">
<ele>139.43</ele>
<time>2016-10-16T08:42:35Z</time>
</trkpt>
<trkpt lat="39.7655871" lon="2.9116693">
<ele>140.34</ele>
<time>2016-10-16T08:42:39Z</time>
</trkpt>
<trkpt lat="39.7653767" lon="2.9117153">
<ele>142.62</ele>
<time>2016-10-16T08:42:43Z</time>
</trkpt>
<trkpt lat="39.7651952" lon="2.9117459">
<ele>143.53</ele>
<time>2016-10-16T08:42:46Z</time>
</trkpt>
<trkpt lat="39.7650156" lon="2.9117076">
<ele>144.17</ele>
<time>2016-10-16T08:42:49Z</time>
</trkpt>
<trkpt lat="39.7647805" lon="2.9116572">
<ele>144.72</ele>
<time>2016-10-16T08:42:53Z</time>
</trkpt>
<trkpt lat="39.7645496" lon="2.9116309">
<ele>142.73</ele>
<time>2016-10-16T08:42:57Z</time>
</trkpt>
<trkpt lat="39.7643444" lon="2.9116052">
<ele>141.85</ele>
<time>2016-10-16T08:43:01Z</time>
</trkpt>
<trkpt lat="39.7640832" lon="2.9115509">
<ele>140.34</ele>
<time>2016-10-16T08:43:22Z</time>
</trkpt>
<trkpt lat="39.7638973" lon="2.9115452">
<ele>139.31</ele>
<time>2016-10-16T08:43:29Z</time>
</trkpt>
<trkpt lat="39.7636878" lon="2.9115261">
<ele>138.78</ele>
<time>2016-10-16T08:43:35Z</time>
</trkpt>
<trkpt lat="39.7634696" lon="2.9115154">
<ele>138.44</ele>
<time>2016-10-16T08:43:41Z</time>
</trkpt>
<trkpt lat="39.7632525" lon="2.9115384">
<ele>139.97</ele>
<time>2016-10-16T08:43:46Z</time>
</trkpt>
<trkpt lat="39.7630593" lon="2.9116108">
<ele>139.58</ele>
<time>2016-10-16T08:43:50Z</time>
</trkpt>
<trkpt lat="39.7628620" lon="2.9116940">
<ele>138.32</ele>
<time>2016-10-16T08:43:54Z</time>
</trkpt>
<trkpt lat="39.7626655" lon="2.9117923">
<ele>138.88</ele>
<time>2016-10-16T08:43:58Z</time>
</trkpt>
<trkpt lat="39.7624791" lon="2.9118255">
<ele>140.49</ele>
<time>2016-10-16T08:44:03Z</time>
</trkpt>
<trkpt lat="39.7622666" lon="2.9118055">
<ele>141.28</ele>
<time>2016-10-16T08:44:07Z</time>
</trkpt>
<trkpt lat="39.7620280" lon="2.9117799">
<ele>141.59</ele>
<time>2016-10-16T08:44:11Z</time>
</trkpt>
<trkpt lat="39.7618326" lon="2.9117696">
<ele>143.16</ele>
<time>2016-10-16T08:44:14Z</time>
</trkpt>
<trkpt lat="39.7616149" lon="2.9117652">
<ele>142.76</ele>
<time>2016-10-16T08:44:17Z</time>
</trkpt>
<trkpt lat="39.7613702" lon="2.9117596">
<ele>142.30</ele>
<time>2016-10-16T08:44:20Z</time>
</trkpt>
<trkpt lat="39.7611203" lon="2.9117506">
<ele>142.97</ele>
<time>2016-10-16T08:44:23Z</time>
</trkpt>
<trkpt lat="39.7608837" lon="2.9117254">
<ele>142.36</ele>
<time>2016-10-16T08:44:26Z</time>
</trkpt>
<trkpt lat="39.7606767" lon="2.9116165">
<ele>141.76</ele>
<time>2016-10-16T08:44:29Z</time>
</trkpt>
<trkpt lat="39.7604774" lon="2.9114721">
<ele>140.14</ele>
<time>2016-10-16T08:44:32Z</time>
</trkpt>
<trkpt lat="39.7602944" lon="2.9113181">
<ele>137.82</ele>
<time>2016-10-16T08:44:35Z</time>
</trkpt>
<trkpt lat="39.7601379" lon="2.9111443">
<ele>134.99</ele>
<time>2016-10-16T08:44:38Z</time>
</trkpt>
<trkpt lat="39.7600149" lon="2.9109700">
<ele>132.80</ele>
<time>2016-10-16T08:44:41Z</time>
</trkpt>
<trkpt lat="39.7598943" lon="2.9107198">
<ele>132.22</ele>
<time>2016-10-16T08:44:45Z</time>
</trkpt>
<trkpt lat="39.7598032" lon="2.9105131">
<ele>132.77</ele>
<time>2016-10-16T08:44:48Z</time>
</trkpt>
<trkpt lat="39.7597093" lon="2.9102872">
<ele>134.25</ele>
<time>2016-10-16T08:44:52Z</time>
</trkpt>
<trkpt lat="39.7595936" lon="2.9100601">
<ele>133.46</ele>
<time>2016-10-16T08:44:56Z</time>
</trkpt>
<trkpt lat="39.7594876" lon="2.9098591">
<ele>130.55</ele>
<time>2016-10-16T08:45:00Z</time>
</trkpt>
<trkpt lat="39.7593615" lon="2.9096403">
<ele>130.31</ele>
<time>2016-10-16T08:45:06Z</time>
</trkpt>
<trkpt lat="39.7592611" lon="2.9094368">
<ele>130.35</ele>
<time>2016-10-16T08:45:11Z</time>
</trkpt>
<trkpt lat="39.7591552" lon="2.9092323">
<ele>130.40</ele>
<time>2016-10-16T08:45:17Z</time>
</trkpt>
<trkpt lat="39.7590497" lon="2.9090332">
<ele>130.67</ele>
<time>2016-10-16T08:45:23Z</time>
</trkpt>
<trkpt lat="39.7589352" lon="2.9088460">
<ele>130.97</ele>
<time>2016-10-16T08:45:28Z</time>
</trkpt>
<trkpt lat="39.7588064" lon="2.9086590">
<ele>131.44</ele>
<time>2016-10-16T08:45:35Z</time>
</trkpt>
<trkpt lat="39.7586700" lon="2.9084650">
<ele>132.51</ele>
<time>2016-10-16T08:45:42Z</time>
</trkpt>
<trkpt lat="39.7585183" lon="2.9082732">
<ele>133.84</ele>
<time>2016-10-16T08:45:49Z</time>
</trkpt>
<trkpt lat="39.7583909" lon="2.9080642">
<ele>134.94</ele>
<time>2016-10-16T08:45:55Z</time>
</trkpt>
<trkpt lat="39.7582945" lon="2.9078345">
<ele>142.31</ele>
<time>2016-10-16T08:46:00Z</time>
</trkpt>
<trkpt lat="39.7581848" lon="2.9075851">
<ele>145.87</ele>
<time>2016-10-16T08:46:05Z</time>
</trkpt>
<trkpt lat="39.7580913" lon="2.9073702">
<ele>147.32</ele>
<time>2016-10-16T08:46:09Z</time>
</trkpt>
<trkpt lat="39.7579831" lon="2.9071272">
<ele>146.56</ele>
<time>2016-10-16T08:46:14Z</time>
</trkpt>
<trkpt lat="39.7578604" lon="2.9068914">
<ele>141.04</ele>
<time>2016-10-16T08:46:19Z</time>
</trkpt>
<trkpt lat="39.7577542" lon="2.9066474">
<ele>141.01</ele>
<time>2016-10-16T08:46:25Z</time>
</trkpt>
<trkpt lat="39.7576576" lon="2.9064117">
<ele>141.97</ele>
<time>2016-10-16T08:46:32Z</time>
</trkpt>
<trkpt lat="39.7575527" lon="2.9061889">
<ele>143.00</ele>
<time>2016-10-16T08:46:39Z</time>
</trkpt>
<trkpt lat="39.7574604" lon="2.9059774">
<ele>143.93</ele>
<time>2016-10-16T08:46:47Z</time>
</trkpt>
<trkpt lat="39.7573565" lon="2.9057751">
<ele>144.66</ele>
<time>2016-10-16T08:46:55Z</time>
</trkpt>
<trkpt lat="39.7572276" lon="2.9055766">
<ele>145.40</ele>
<time>2016-10-16T08:47:03Z</time>
</trkpt>
<trkpt lat="39.7570789" lon="2.9054173">
<ele>145.84</ele>
<time>2016-10-16T08:47:11Z</time>
</trkpt>
<trkpt lat="39.7569480" lon="2.9052234">
<ele>147.30</ele>
<time>2016-10-16T08:47:19Z</time>
</trkpt>
<trkpt lat="39.7568143" lon="2.9050154">
<ele>149.20</ele>
<time>2016-10-16T08:47:26Z</time>
</trkpt>
<trkpt lat="39.7566851" lon="2.9048155">
<ele>150.69</ele>
<time>2016-10-16T08:47:33Z</time>
</trkpt>
<trkpt lat="39.7565422" lon="2.9046520">
<ele>152.05</ele>
<time>2016-10-16T08:47:39Z</time>
</trkpt>
<trkpt lat="39.7563716" lon="2.9044855">
<ele>154.27</ele>
<time>2016-10-16T08:47:45Z</time>
</trkpt>
<trkpt lat="39.7562213" lon="2.9043456">
<ele>154.89</ele>
<time>2016-10-16T08:47:52Z</time>
</trkpt>
<trkpt lat="39.7560883" lon="2.9041790">
<ele>155.59</ele>
<time>2016-10-16T08:48:06Z</time>
</trkpt>
<trkpt lat="39.7561637" lon="2.9039587">
<ele>155.73</ele>
<time>2016-10-16T08:48:12Z</time>
</trkpt>
<trkpt lat="39.7563066" lon="2.9037586">
<ele>155.86</ele>
<time>2016-10-16T08:48:19Z</time>
</trkpt>
<trkpt lat="39.7564464" lon="2.9035802">
<ele>157.88</ele>
<time>2016-10-16T08:48:27Z</time>
</trkpt>
<trkpt lat="39.7566096" lon="2.9034404">
<ele>160.29</ele>
<time>2016-10-16T08:48:34Z</time>
</trkpt>
<trkpt lat="39.7567646" lon="2.9033157">
<ele>161.79</ele>
<time>2016-10-16T08:48:40Z</time>
</trkpt>
<trkpt lat="39.7569206" lon="2.9031793">
<ele>162.96</ele>
<time>2016-10-16T08:48:46Z</time>
</trkpt>
<trkpt lat="39.7570666" lon="2.9029917">
<ele>164.54</ele>
<time>2016-10-16T08:48:53Z</time>
</trkpt>
<trkpt lat="39.7572113" lon="2.9028111">
<ele>166.11</ele>
<time>2016-10-16T08:48:59Z</time>
</trkpt>
<trkpt lat="39.7573453" lon="2.9026344">
<ele>167.57</ele>
<time>2016-10-16T08:49:05Z</time>
</trkpt>
<trkpt lat="39.7575101" lon="2.9025042">
<ele>169.30</ele>
<time>2016-10-16T08:49:12Z</time>
</trkpt>
<trkpt lat="39.7576678" lon="2.9023607">
<ele>171.38</ele>
<time>2016-10-16T08:49:21Z</time>
</trkpt>
<trkpt lat="39.7575489" lon="2.9025370">
<ele>171.39</ele>
<time>2016-10-16T08:50:20Z</time>
</trkpt>
<trkpt lat="39.7574229" lon="2.9027204">
<ele>172.33</ele>
<time>2016-10-16T08:50:27Z</time>
</trkpt>
<trkpt lat="39.7572577" lon="2.9028931">
<ele>172.75</ele>
<time>2016-10-16T08:50:33Z</time>
</trkpt>
<trkpt lat="39.7570986" lon="2.9030587">
<ele>173.34</ele>
<time>2016-10-16T08:50:39Z</time>
</trkpt>
<trkpt lat="39.7569596" lon="2.9032365">
<ele>175.48</ele>
<time>2016-10-16T08:50:44Z</time>
</trkpt>
<trkpt lat="39.7568029" lon="2.9034270">
<ele>175.97</ele>
<time>2016-10-16T08:50:48Z</time>
</trkpt>
<trkpt lat="39.7566329" lon="2.9035621">
<ele>175.65</ele>
<time>2016-10-16T08:50:52Z</time>
</trkpt>
<trkpt lat="39.7564497" lon="2.9036988">
<ele>171.98</ele>
<time>2016-10-16T08:50:57Z</time>
</trkpt>
<trkpt lat="39.7563049" lon="2.9038983">
<ele>168.26</ele>
<time>2016-10-16T08:51:01Z</time>
</trkpt>
<trkpt lat="39.7562031" lon="2.9041543">
<ele>164.96</ele>
<time>2016-10-16T08:51:05Z</time>
</trkpt>
<trkpt lat="39.7560875" lon="2.9043729">
<ele>162.67</ele>
<time>2016-10-16T08:51:10Z</time>
</trkpt>
<trkpt lat="39.7561352" lon="2.9041217">
<ele>161.53</ele>
<time>2016-10-16T09:13:35Z</time>
</trkpt>
<trkpt lat="39.7562574" lon="2.9039086">
<ele>161.94</ele>
<time>2016-10-16T09:13:42Z</time>
</trkpt>
<trkpt lat="39.7563717" lon="2.9037068">
<ele>162.45</ele>
<time>2016-10-16T09:13:50Z</time>
</trkpt>
<trkpt lat="39.7565338" lon="2.9035738">
<ele>163.06</ele>
<time>2016-10-16T09:13:58Z</time>
</trkpt>
<trkpt lat="39.7566784" lon="2.9034084">
<ele>163.21</ele>
<time>2016-10-16T09:14:07Z</time>
</trkpt>
<trkpt lat="39.7568448" lon="2.9032551">
<ele>164.49</ele>
<time>2016-10-16T09:14:15Z</time>
</trkpt>
<trkpt lat="39.7570056" lon="2.9030981">
<ele>165.45</ele>
<time>2016-10-16T09:14:23Z</time>
</trkpt>
<trkpt lat="39.7571418" lon="2.9029269">
<ele>166.76</ele>
<time>2016-10-16T09:14:31Z</time>
</trkpt>
<trkpt lat="39.7572867" lon="2.9027635">
<ele>168.17</ele>
<time>2016-10-16T09:14:38Z</time>
</trkpt>
<trkpt lat="39.7574469" lon="2.9026146">
<ele>169.26</ele>
<time>2016-10-16T09:14:45Z</time>
</trkpt>
<trkpt lat="39.7576059" lon="2.9024344">
<ele>170.44</ele>
<time>2016-10-16T09:14:52Z</time>
</trkpt>
<trkpt lat="39.7577654" lon="2.9023214">
<ele>171.91</ele>
<time>2016-10-16T09:14:58Z</time>
</trkpt>
<trkpt lat="39.7579163" lon="2.9021903">
<ele>173.49</ele>
<time>2016-10-16T09:15:04Z</time>
</trkpt>
<trkpt lat="39.7580745" lon="2.9020473">
<ele>175.04</ele>
<time>2016-10-16T09:15:11Z</time>
</trkpt>
<trkpt lat="39.7582392" lon="2.9019104">
<ele>176.42</ele>
<time>2016-10-16T09:15:19Z</time>
</trkpt>
<trkpt lat="39.7584163" lon="2.9017398">
<ele>176.95</ele>
<time>2016-10-16T09:15:25Z</time>
</trkpt>
<trkpt lat="39.7585909" lon="2.9015874">
<ele>178.00</ele>
<time>2016-10-16T09:15:31Z</time>
</trkpt>
<trkpt lat="39.7587852" lon="2.9014941">
<ele>179.53</ele>
<time>2016-10-16T09:15:38Z</time>
</trkpt>
<trkpt lat="39.7589887" lon="2.9014140">
<ele>183.36</ele>
<time>2016-10-16T09:15:43Z</time>
</trkpt>
<trkpt lat="39.7591738" lon="2.9013592">
<ele>186.56</ele>
<time>2016-10-16T09:15:48Z</time>
</trkpt>
<trkpt lat="39.7593819" lon="2.9012884">
<ele>186.72</ele>
<time>2016-10-16T09:15:54Z</time>
</trkpt>
<trkpt lat="39.7595674" lon="2.9011969">
<ele>186.87</ele>
<time>2016-10-16T09:16:00Z</time>
</trkpt>
<trkpt lat="39.7597545" lon="2.9010913">
<ele>185.95</ele>
<time>2016-10-16T09:16:05Z</time>
</trkpt>
<trkpt lat="39.7599687" lon="2.9010855">
<ele>184.58</ele>
<time>2016-10-16T09:16:09Z</time>
</trkpt>
<trkpt lat="39.7601260" lon="2.9012629">
<ele>183.51</ele>
<time>2016-10-16T09:16:12Z</time>
</trkpt>
<trkpt lat="39.7602665" lon="2.9015252">
<ele>183.47</ele>
<time>2016-10-16T09:16:15Z</time>
</trkpt>
<trkpt lat="39.7603025" lon="2.9017583">
<ele>181.91</ele>
<time>2016-10-16T09:16:17Z</time>
</trkpt>
<trkpt lat="39.7602915" lon="2.9021019">
<ele>178.98</ele>
<time>2016-10-16T09:16:20Z</time>
</trkpt>
<trkpt lat="39.7602596" lon="2.9024365">
<ele>177.48</ele>
<time>2016-10-16T09:16:23Z</time>
</trkpt>
<trkpt lat="39.7602505" lon="2.9027696">
<ele>175.78</ele>
<time>2016-10-16T09:16:26Z</time>
</trkpt>
<trkpt lat="39.7602457" lon="2.9030840">
<ele>173.82</ele>
<time>2016-10-16T09:16:29Z</time>
</trkpt>
<trkpt lat="39.7601970" lon="2.9033731">
<ele>171.73</ele>
<time>2016-10-16T09:16:32Z</time>
</trkpt>
<trkpt lat="39.7602341" lon="2.9036278">
<ele>169.29</ele>
<time>2016-10-16T09:16:35Z</time>
</trkpt>
<trkpt lat="39.7604298" lon="2.9037881">
<ele>166.54</ele>
<time>2016-10-16T09:16:39Z</time>
</trkpt>
<trkpt lat="39.7606078" lon="2.9036361">
<ele>166.10</ele>
<time>2016-10-16T09:16:42Z</time>
</trkpt>
<trkpt lat="39.7607654" lon="2.9033705">
<ele>166.48</ele>
<time>2016-10-16T09:16:45Z</time>
</trkpt>
<trkpt lat="39.7608350" lon="2.9031473">
<ele>164.95</ele>
<time>2016-10-16T09:16:47Z</time>
</trkpt>
<trkpt lat="39.7608867" lon="2.9029190">
<ele>163.23</ele>
<time>2016-10-16T09:16:49Z</time>
</trkpt>
<trkpt lat="39.7609403" lon="2.9026708">
<ele>161.08</ele>
<time>2016-10-16T09:16:51Z</time>
</trkpt>
<trkpt lat="39.7610101" lon="2.9024288">
<ele>158.32</ele>
<time>2016-10-16T09:16:53Z</time>
</trkpt>
<trkpt lat="39.7611348" lon="2.9022376">
<ele>155.56</ele>
<time>2016-10-16T09:16:55Z</time>
</trkpt>
<trkpt lat="39.7612990" lon="2.9021111">
<ele>152.78</ele>
<time>2016-10-16T09:16:57Z</time>
</trkpt>
<trkpt lat="39.7614813" lon="2.9020616">
<ele>151.00</ele>
<time>2016-10-16T09:16:59Z</time>
</trkpt>
<trkpt lat="39.7616693" lon="2.9020454">
<ele>150.33</ele>
<time>2016-10-16T09:17:01Z</time>
</trkpt>
<trkpt lat="39.7619376" lon="2.9020779">
<ele>152.79</ele>
<time>2016-10-16T09:17:04Z</time>
</trkpt>
<trkpt lat="39.7621187" lon="2.9020912">
<ele>154.62</ele>
<time>2016-10-16T09:17:06Z</time>
</trkpt>
<trkpt lat="39.7623036" lon="2.9021019">
<ele>155.90</ele>
<time>2016-10-16T09:17:08Z</time>
</trkpt>
<trkpt lat="39.7624976" lon="2.9021102">
<ele>156.58</ele>
<time>2016-10-16T09:17:10Z</time>
</trkpt>
<trkpt lat="39.7627512" lon="2.9021242">
<ele>156.79</ele>
<time>2016-10-16T09:17:13Z</time>
</trkpt>
<trkpt lat="39.7630268" lon="2.9021426">
<ele>156.46</ele>
<time>2016-10-16T09:17:16Z</time>
</trkpt>
<trkpt lat="39.7632082" lon="2.9021480">
<ele>156.23</ele>
<time>2016-10-16T09:17:18Z</time>
</trkpt>
<trkpt lat="39.7634719" lon="2.9021598">
<ele>155.46</ele>
<time>2016-10-16T09:17:21Z</time>
</trkpt>
<trkpt lat="39.7637365" lon="2.9021698">
<ele>154.46</ele>
<time>2016-10-16T09:17:24Z</time>
</trkpt>
<trkpt lat="39.7639829" lon="2.9021816">
<ele>154.04</ele>
<time>2016-10-16T09:17:27Z</time>
</trkpt>
<trkpt lat="39.7642262" lon="2.9021925">
<ele>154.62</ele>
<time>2016-10-16T09:17:30Z</time>
</trkpt>
<trkpt lat="39.7644486" lon="2.9021979">
<ele>155.80</ele>
<time>2016-10-16T09:17:33Z</time>
</trkpt>
<trkpt lat="39.7646519" lon="2.9022113">
<ele>156.18</ele>
<time>2016-10-16T09:17:36Z</time>
</trkpt>
<trkpt lat="39.7648426" lon="2.9022290">
<ele>155.96</ele>
<time>2016-10-16T09:17:39Z</time>
</trkpt>
<trkpt lat="39.7650252" lon="2.9022370">
<ele>156.14</ele>
<time>2016-10-16T09:17:42Z</time>
</trkpt>
<trkpt lat="39.7652110" lon="2.9022379">
<ele>156.21</ele>
<time>2016-10-16T09:17:45Z</time>
</trkpt>
<trkpt lat="39.7654489" lon="2.9022456">
<ele>156.75</ele>
<time>2016-10-16T09:17:49Z</time>
</trkpt>
<trkpt lat="39.7656713" lon="2.9022453">
<ele>156.88</ele>
<time>2016-10-16T09:17:53Z</time>
</trkpt>
<trkpt lat="39.7659001" lon="2.9022608">
<ele>157.38</ele>
<time>2016-10-16T09:17:57Z</time>
</trkpt>
<trkpt lat="39.7661229" lon="2.9022714">
<ele>158.15</ele>
<time>2016-10-16T09:18:01Z</time>
</trkpt>
<trkpt lat="39.7663496" lon="2.9022862">
<ele>158.69</ele>
<time>2016-10-16T09:18:05Z</time>
</trkpt>
<trkpt lat="39.7665798" lon="2.9022920">
<ele>158.22</ele>
<time>2016-10-16T09:18:09Z</time>
</trkpt>
<trkpt lat="39.7668007" lon="2.9023062">
<ele>158.47</ele>
<time>2016-10-16T09:18:13Z</time>
</trkpt>
<trkpt lat="39.7670157" lon="2.9023183">
<ele>158.71</ele>
<time>2016-10-16T09:18:17Z</time>
</trkpt>
<trkpt lat="39.7672381" lon="2.9023260">
<ele>157.92</ele>
<time>2016-10-16T09:18:21Z</time>
</trkpt>
<trkpt lat="39.7674415" lon="2.9023311">
<ele>158.29</ele>
<time>2016-10-16T09:18:25Z</time>
</trkpt>
<trkpt lat="39.7676288" lon="2.9023357">
<ele>158.67</ele>
<time>2016-10-16T09:18:29Z</time>
</trkpt>
<trkpt lat="39.7678283" lon="2.9023257">
<ele>159.58</ele>
<time>2016-10-16T09:18:33Z</time>
</trkpt>
<trkpt lat="39.7680350" lon="2.9023338">
<ele>161.50</ele>
<time>2016-10-16T09:18:37Z</time>
</trkpt>
<trkpt lat="39.7682336" lon="2.9023428">
<ele>161.96</ele>
<time>2016-10-16T09:18:41Z</time>
</trkpt>
<trkpt lat="39.7684301" lon="2.9023317">
<ele>161.87</ele>
<time>2016-10-16T09:18:45Z</time>
</trkpt>
<trkpt lat="39.7686155" lon="2.9023287">
<ele>162.81</ele>
<time>2016-10-16T09:18:49Z</time>
</trkpt>
<trkpt lat="39.7688180" lon="2.9023192">
<ele>163.23</ele>
<time>2016-10-16T09:18:54Z</time>
</trkpt>
<trkpt lat="39.7689958" lon="2.9022829">
<ele>164.48</ele>
<time>2016-10-16T09:18:58Z</time>
</trkpt>
<trkpt lat="39.7691776" lon="2.9022509">
<ele>164.94</ele>
<time>2016-10-16T09:19:02Z</time>
</trkpt>
<trkpt lat="39.7693775" lon="2.9022231">
<ele>164.26</ele>
<time>2016-10-16T09:19:07Z</time>
</trkpt>
<trkpt lat="39.7695759" lon="2.9021703">
<ele>163.93</ele>
<time>2016-10-16T09:19:13Z</time>
</trkpt>
<trkpt lat="39.7697820" lon="2.9021467">
<ele>164.21</ele>
<time>2016-10-16T09:19:19Z</time>
</trkpt>
<trkpt lat="39.7699836" lon="2.9022162">
<ele>164.36</ele>
<time>2016-10-16T09:19:25Z</time>
</trkpt>
<trkpt lat="39.7701882" lon="2.9022489">
<ele>164.83</ele>
<time>2016-10-16T09:19:32Z</time>
</trkpt>
<trkpt lat="39.7703611" lon="2.9021665">
<ele>165.23</ele>
<time>2016-10-16T09:19:37Z</time>
</trkpt>
<trkpt lat="39.7705496" lon="2.9020561">
<ele>167.36</ele>
<time>2016-10-16T09:19:42Z</time>
</trkpt>
<trkpt lat="39.7707161" lon="2.9019580">
<ele>167.65</ele>
<time>2016-10-16T09:19:47Z</time>
</trkpt>
<trkpt lat="39.7708940" lon="2.9018539">
<ele>167.85</ele>
<time>2016-10-16T09:19:53Z</time>
</trkpt>
<trkpt lat="39.7710779" lon="2.9017171">
<ele>169.12</ele>
<time>2016-10-16T09:20:00Z</time>
</trkpt>
<trkpt lat="39.7712317" lon="2.9015792">
<ele>169.56</ele>
<time>2016-10-16T09:20:05Z</time>
</trkpt>
<trkpt lat="39.7713983" lon="2.9014412">
<ele>170.20</ele>
<time>2016-10-16T09:20:11Z</time>
</trkpt>
<trkpt lat="39.7715377" lon="2.9012461">
<ele>170.86</ele>
<time>2016-10-16T09:20:17Z</time>
</trkpt>
<trkpt lat="39.7716557" lon="2.9010627">
<ele>171.64</ele>
<time>2016-10-16T09:20:23Z</time>
</trkpt>
<trkpt lat="39.7717700" lon="2.9008732">
<ele>172.92</ele>
<time>2016-10-16T09:20:29Z</time>
</trkpt>
<trkpt lat="39.7718678" lon="2.9006704">
<ele>174.29</ele>
<time>2016-10-16T09:20:35Z</time>
</trkpt>
<trkpt lat="39.7719577" lon="2.9004646">
<ele>175.62</ele>
<time>2016-10-16T09:20:41Z</time>
</trkpt>
<trkpt lat="39.7720321" lon="2.9002371">
<ele>176.83</ele>
<time>2016-10-16T09:20:47Z</time>
</trkpt>
<trkpt lat="39.7721184" lon="2.9000019">
<ele>178.28</ele>
<time>2016-10-16T09:20:54Z</time>
</trkpt>
<trkpt lat="39.7721900" lon="2.8997744">
<ele>179.89</ele>
<time>2016-10-16T09:21:01Z</time>
</trkpt>
<trkpt lat="39.7722618" lon="2.8995591">
<ele>181.24</ele>
<time>2016-10-16T09:21:08Z</time>
</trkpt>
<trkpt lat="39.7723530" lon="2.8993171">
<ele>182.85</ele>
<time>2016-10-16T09:21:16Z</time>
</trkpt>
<trkpt lat="39.7724286" lon="2.8990677">
<ele>184.25</ele>
<time>2016-10-16T09:21:23Z</time>
</trkpt>
<trkpt lat="39.7725564" lon="2.8988840">
<ele>186.16</ele>
<time>2016-10-16T09:21:30Z</time>
</trkpt>
<trkpt lat="39.7727050" lon="2.8987190">
<ele>187.71</ele>
<time>2016-10-16T09:21:37Z</time>
</trkpt>
<trkpt lat="39.7728512" lon="2.8985636">
<ele>188.89</ele>
<time>2016-10-16T09:21:44Z</time>
</trkpt>
<trkpt lat="39.7730210" lon="2.8984225">
<ele>189.94</ele>
<time>2016-10-16T09:21:51Z</time>
</trkpt>
<trkpt lat="39.7731894" lon="2.8982938">
<ele>191.90</ele>
<time>2016-10-16T09:21:59Z</time>
</trkpt>
<trkpt lat="39.7733306" lon="2.8981412">
<ele>193.21</ele>
<time>2016-10-16T09:22:05Z</time>
</trkpt>
<trkpt lat="39.7734931" lon="2.8979927">
<ele>194.94</ele>
<time>2016-10-16T09:22:12Z</time>
</trkpt>
<trkpt lat="39.7736798" lon="2.8979470">
<ele>196.44</ele>
<time>2016-10-16T09:22:18Z</time>
</trkpt>
<trkpt lat="39.7738848" lon="2.8979005">
<ele>197.85</ele>
<time>2016-10-16T09:22:25Z</time>
</trkpt>
<trkpt lat="39.7740629" lon="2.8978334">
<ele>198.42</ele>
<time>2016-10-16T09:22:32Z</time>
</trkpt>
<trkpt lat="39.7742603" lon="2.8978316">
<ele>199.78</ele>
<time>2016-10-16T09:22:39Z</time>
</trkpt>
<trkpt lat="39.7744490" lon="2.8977966">
<ele>201.67</ele>
<time>2016-10-16T09:22:46Z</time>
</trkpt>
<trkpt lat="39.7746390" lon="2.8977872">
<ele>201.96</ele>
<time>2016-10-16T09:22:54Z</time>
</trkpt>
<trkpt lat="39.7748246" lon="2.8978178">
<ele>201.38</ele>
<time>2016-10-16T09:23:00Z</time>
</trkpt>
<trkpt lat="39.7750277" lon="2.8978709">
<ele>202.08</ele>
<time>2016-10-16T09:23:05Z</time>
</trkpt>
<trkpt lat="39.7752279" lon="2.8979197">
<ele>203.64</ele>
<time>2016-10-16T09:23:12Z</time>
</trkpt>
<trkpt lat="39.7754104" lon="2.8978708">
<ele>204.96</ele>
<time>2016-10-16T09:23:20Z</time>
</trkpt>
<trkpt lat="39.7755772" lon="2.8977248">
<ele>206.76</ele>
<time>2016-10-16T09:23:28Z</time>
</trkpt>
<trkpt lat="39.7757778" lon="2.8976436">
<ele>209.59</ele>
<time>2016-10-16T09:23:36Z</time>
</trkpt>
<trkpt lat="39.7759552" lon="2.8977909">
<ele>213.36</ele>
<time>2016-10-16T09:23:40Z</time>
</trkpt>
<trkpt lat="39.7759104" lon="2.8980341">
<ele>216.00</ele>
<time>2016-10-16T09:23:49Z</time>
</trkpt>
<trkpt lat="39.7757872" lon="2.8982055">
<ele>218.02</ele>
<time>2016-10-16T09:23:57Z</time>
</trkpt>
<trkpt lat="39.7756151" lon="2.8982933">
<ele>220.55</ele>
<time>2016-10-16T09:24:04Z</time>
</trkpt>
<trkpt lat="39.7754472" lon="2.8983937">
<ele>221.15</ele>
<time>2016-10-16T09:24:11Z</time>
</trkpt>
<trkpt lat="39.7752552" lon="2.8984829">
<ele>221.43</ele>
<time>2016-10-16T09:24:18Z</time>
</trkpt>
<trkpt lat="39.7754366" lon="2.8983957">
<ele>223.04</ele>
<time>2016-10-16T09:24:40Z</time>
</trkpt>
<trkpt lat="39.7755923" lon="2.8982706">
<ele>223.31</ele>
<time>2016-10-16T09:24:48Z</time>
</trkpt>
<trkpt lat="39.7757516" lon="2.8981440">
<ele>224.06</ele>
<time>2016-10-16T09:24:55Z</time>
</trkpt>
<trkpt lat="39.7759284" lon="2.8980355">
<ele>225.33</ele>
<time>2016-10-16T09:25:02Z</time>
</trkpt>
<trkpt lat="39.7760883" lon="2.8979278">
<ele>227.35</ele>
<time>2016-10-16T09:25:09Z</time>
</trkpt>
<trkpt lat="39.7762785" lon="2.8978718">
<ele>229.18</ele>
<time>2016-10-16T09:25:15Z</time>
</trkpt>
<trkpt lat="39.7764622" lon="2.8978749">
<ele>231.41</ele>
<time>2016-10-16T09:25:22Z</time>
</trkpt>
<trkpt lat="39.7766708" lon="2.8978677">
<ele>233.16</ele>
<time>2016-10-16T09:25:27Z</time>
</trkpt>
<trkpt lat="39.7768664" lon="2.8979233">
<ele>234.63</ele>
<time>2016-10-16T09:25:32Z</time>
</trkpt>
<trkpt lat="39.7770442" lon="2.8979793">
<ele>236.38</ele>
<time>2016-10-16T09:25:38Z</time>
</trkpt>
<trkpt lat="39.7772425" lon="2.8980187">
<ele>241.88</ele>
<time>2016-10-16T09:25:43Z</time>
</trkpt>
<trkpt lat="39.7774266" lon="2.8980719">
<ele>244.45</ele>
<time>2016-10-16T09:25:49Z</time>
</trkpt>
<trkpt lat="39.7776262" lon="2.8980664">
<ele>251.92</ele>
<time>2016-10-16T09:26:00Z</time>
</trkpt>
<trkpt lat="39.7778057" lon="2.8980320">
<ele>254.51</ele>
<time>2016-10-16T09:26:05Z</time>
</trkpt>
<trkpt lat="39.7779944" lon="2.8980111">
<ele>257.70</ele>
<time>2016-10-16T09:26:11Z</time>
</trkpt>
<trkpt lat="39.7781940" lon="2.8980110">
<ele>259.91</ele>
<time>2016-10-16T09:26:17Z</time>
</trkpt>
<trkpt lat="39.7784016" lon="2.8980742">
<ele>260.04</ele>
<time>2016-10-16T09:26:23Z</time>
</trkpt>
<trkpt lat="39.7783195" lon="2.8982995">
<ele>260.49</ele>
<time>2016-10-16T09:26:32Z</time>
</trkpt>
<trkpt lat="39.7781842" lon="2.8984648">
<ele>260.37</ele>
<time>2016-10-16T09:26:40Z</time>
</trkpt>
<trkpt lat="39.7780424" lon="2.8986413">
<ele>260.50</ele>
<time>2016-10-16T09:26:50Z</time>
</trkpt>
<trkpt lat="39.7778582" lon="2.8987525">
<ele>260.62</ele>
<time>2016-10-16T09:26:57Z</time>
</trkpt>
<trkpt lat="39.7776542" lon="2.8988172">
<ele>260.59</ele>
<time>2016-10-16T09:27:03Z</time>
</trkpt>
<trkpt lat="39.7774518" lon="2.8987306">
<ele>260.91</ele>
<time>2016-10-16T09:27:09Z</time>
</trkpt>
<trkpt lat="39.7772774" lon="2.8986664">
<ele>261.59</ele>
<time>2016-10-16T09:27:13Z</time>
</trkpt>
<trkpt lat="39.7770878" lon="2.8985579">
<ele>263.44</ele>
<time>2016-10-16T09:27:20Z</time>
</trkpt>
<trkpt lat="39.7772777" lon="2.8986182">
<ele>267.33</ele>
<time>2016-10-16T09:27:48Z</time>
</trkpt>
<trkpt lat="39.7774684" lon="2.8986249">
<ele>271.16</ele>
<time>2016-10-16T09:27:58Z</time>
</trkpt>
<trkpt lat="39.7776502" lon="2.8986109">
<ele>274.56</ele>
<time>2016-10-16T09:28:05Z</time>
</trkpt>
<trkpt lat="39.7778600" lon="2.8985381">
<ele>278.89</ele>
<time>2016-10-16T09:28:13Z</time>
</trkpt>
<trkpt lat="39.7780475" lon="2.8984642">
<ele>282.79</ele>
<time>2016-10-16T09:28:19Z</time>
</trkpt>
<trkpt lat="39.7782302" lon="2.8984591">
<ele>286.20</ele>
<time>2016-10-16T09:28:25Z</time>
</trkpt>
<trkpt lat="39.7784149" lon="2.8984705">
<ele>287.83</ele>
<time>2016-10-16T09:28:32Z</time>
</trkpt>
<trkpt lat="39.7785966" lon="2.8984331">
<ele>288.52</ele>
<time>2016-10-16T09:28:38Z</time>
</trkpt>
<trkpt lat="39.7787964" lon="2.8983599">
<ele>288.41</ele>
<time>2016-10-16T09:28:43Z</time>
</trkpt>
<trkpt lat="39.7789837" lon="2.8982755">
<ele>287.76</ele>
<time>2016-10-16T09:28:48Z</time>
</trkpt>
<trkpt lat="39.7791811" lon="2.8982296">
<ele>287.11</ele>
<time>2016-10-16T09:28:55Z</time>
</trkpt>
<trkpt lat="39.7793643" lon="2.8982122">
<ele>286.95</ele>
<time>2016-10-16T09:29:01Z</time>
</trkpt>
<trkpt lat="39.7795183" lon="2.8980718">
<ele>286.40</ele>
<time>2016-10-16T09:29:07Z</time>
</trkpt>
<trkpt lat="39.7796800" lon="2.8979347">
<ele>286.32</ele>
<time>2016-10-16T09:29:15Z</time>
</trkpt>
<trkpt lat="39.7798724" lon="2.8978900">
<ele>286.97</ele>
<time>2016-10-16T09:29:22Z</time>
</trkpt>
<trkpt lat="39.7800300" lon="2.8977718">
<ele>287.96</ele>
<time>2016-10-16T09:29:28Z</time>
</trkpt>
<trkpt lat="39.7801974" lon="2.8976714">
<ele>289.55</ele>
<time>2016-10-16T09:29:35Z</time>
</trkpt>
<trkpt lat="39.7803694" lon="2.8975867">
<ele>291.78</ele>
<time>2016-10-16T09:29:42Z</time>
</trkpt>
<trkpt lat="39.7804985" lon="2.8974064">
<ele>294.34</ele>
<time>2016-10-16T09:29:51Z</time>
</trkpt>
<trkpt lat="39.7806544" lon="2.8972434">
<ele>295.34</ele>
<time>2016-10-16T09:29:56Z</time>
</trkpt>
<trkpt lat="39.7807882" lon="2.8970722">
<ele>295.24</ele>
<time>2016-10-16T09:30:01Z</time>
</trkpt>
<trkpt lat="39.7809577" lon="2.8969437">
<ele>294.84</ele>
<time>2016-10-16T09:30:08Z</time>
</trkpt>
<trkpt lat="39.7811352" lon="2.8967944">
<ele>294.44</ele>
<time>2016-10-16T09:30:14Z</time>
</trkpt>
<trkpt lat="39.7813227" lon="2.8967306">
<ele>293.98</ele>
<time>2016-10-16T09:30:20Z</time>
</trkpt>
<trkpt lat="39.7815171" lon="2.8966188">
<ele>293.72</ele>
<time>2016-10-16T09:30:27Z</time>
</trkpt>
<trkpt lat="39.7816988" lon="2.8965422">
<ele>293.77</ele>
<time>2016-10-16T09:30:35Z</time>
</trkpt>
<trkpt lat="39.7818970" lon="2.8964611">
<ele>296.15</ele>
<time>2016-10-16T09:30:45Z</time>
</trkpt>
<trkpt lat="39.7820930" lon="2.8963420">
<ele>298.07</ele>
<time>2016-10-16T09:30:52Z</time>
</trkpt>
<trkpt lat="39.7822589" lon="2.8962165">
<ele>299.75</ele>
<time>2016-10-16T09:30:59Z</time>
</trkpt>
<trkpt lat="39.7824092" lon="2.8960270">
<ele>301.25</ele>
<time>2016-10-16T09:31:06Z</time>
</trkpt>
<trkpt lat="39.7825733" lon="2.8959238">
<ele>302.22</ele>
<time>2016-10-16T09:31:13Z</time>
</trkpt>
<trkpt lat="39.7827740" lon="2.8958890">
<ele>303.71</ele>
<time>2016-10-16T09:31:19Z</time>
</trkpt>
<trkpt lat="39.7830038" lon="2.8959227">
<ele>305.09</ele>
<time>2016-10-16T09:31:25Z</time>
</trkpt>
<trkpt lat="39.7832009" lon="2.8959527">
<ele>307.63</ele>
<time>2016-10-16T09:31:32Z</time>
</trkpt>
<trkpt lat="39.7833856" lon="2.8959212">
<ele>313.28</ele>
<time>2016-10-16T09:31:43Z</time>
</trkpt>
<trkpt lat="39.7835805" lon="2.8959190">
<ele>316.45</ele>
<time>2016-10-16T09:31:52Z</time>
</trkpt>
<trkpt lat="39.7837561" lon="2.8958535">
<ele>317.26</ele>
<time>2016-10-16T09:31:58Z</time>
</trkpt>
<trkpt lat="39.7839556" lon="2.8958447">
<ele>317.89</ele>
<time>2016-10-16T09:32:03Z</time>
</trkpt>
<trkpt lat="39.7841864" lon="2.8958578">
<ele>318.73</ele>
<time>2016-10-16T09:32:11Z</time>
</trkpt>
<trkpt lat="39.7843892" lon="2.8957450">
<ele>321.03</ele>
<time>2016-10-16T09:32:20Z</time>
</trkpt>
<trkpt lat="39.7845697" lon="2.8956998">
<ele>324.10</ele>
<time>2016-10-16T09:32:28Z</time>
</trkpt>
<trkpt lat="39.7847488" lon="2.8956626">
<ele>326.14</ele>
<time>2016-10-16T09:32:36Z</time>
</trkpt>
<trkpt lat="39.7849238" lon="2.8956003">
<ele>327.57</ele>
<time>2016-10-16T09:32:42Z</time>
</trkpt>
<trkpt lat="39.7850600" lon="2.8954311">
<ele>327.45</ele>
<time>2016-10-16T09:32:48Z</time>
</trkpt>
<trkpt lat="39.7852098" lon="2.8952509">
<ele>327.49</ele>
<time>2016-10-16T09:32:55Z</time>
</trkpt>
<trkpt lat="39.7853726" lon="2.8951048">
<ele>327.17</ele>
<time>2016-10-16T09:33:03Z</time>
</trkpt>
<trkpt lat="39.7855222" lon="2.8949484">
<ele>327.50</ele>
<time>2016-10-16T09:33:10Z</time>
</trkpt>
<trkpt lat="39.7856665" lon="2.8947970">
<ele>328.03</ele>
<time>2016-10-16T09:33:17Z</time>
</trkpt>
<trkpt lat="39.7858224" lon="2.8946325">
<ele>328.98</ele>
<time>2016-10-16T09:33:24Z</time>
</trkpt>
<trkpt lat="39.7859481" lon="2.8944542">
<ele>330.08</ele>
<time>2016-10-16T09:33:31Z</time>
</trkpt>
<trkpt lat="39.7860446" lon="2.8942482">
<ele>331.15</ele>
<time>2016-10-16T09:33:38Z</time>
</trkpt>
<trkpt lat="39.7861495" lon="2.8940373">
<ele>332.56</ele>
<time>2016-10-16T09:33:45Z</time>
</trkpt>
<trkpt lat="39.7862421" lon="2.8938092">
<ele>333.92</ele>
<time>2016-10-16T09:33:52Z</time>
</trkpt>
<trkpt lat="39.7863472" lon="2.8935968">
<ele>335.66</ele>
<time>2016-10-16T09:33:59Z</time>
</trkpt>
<trkpt lat="39.7864821" lon="2.8934180">
<ele>337.23</ele>
<time>2016-10-16T09:34:06Z</time>
</trkpt>
<trkpt lat="39.7866416" lon="2.8932592">
<ele>338.30</ele>
<time>2016-10-16T09:34:11Z</time>
</trkpt>
<trkpt lat="39.7868019" lon="2.8931437">
<ele>339.68</ele>
<time>2016-10-16T09:34:18Z</time>
</trkpt>
<trkpt lat="39.7869064" lon="2.8929298">
<ele>339.87</ele>
<time>2016-10-16T09:34:30Z</time>
</trkpt>
<trkpt lat="39.7868940" lon="2.8926707">
<ele>340.12</ele>
<time>2016-10-16T09:34:41Z</time>
</trkpt>
<trkpt lat="39.7868267" lon="2.8924341">
<ele>340.07</ele>
<time>2016-10-16T09:34:48Z</time>
</trkpt>
<trkpt lat="39.7868760" lon="2.8921881">
<ele>340.99</ele>
<time>2016-10-16T09:34:56Z</time>
</trkpt>
<trkpt lat="39.7869550" lon="2.8919731">
<ele>342.84</ele>
<time>2016-10-16T09:35:03Z</time>
</trkpt>
<trkpt lat="39.7870439" lon="2.8917687">
<ele>343.26</ele>
<time>2016-10-16T09:35:11Z</time>
</trkpt>
<trkpt lat="39.7871891" lon="2.8915753">
<ele>342.48</ele>
<time>2016-10-16T09:35:15Z</time>
</trkpt>
<trkpt lat="39.7873511" lon="2.8914560">
<ele>343.25</ele>
<time>2016-10-16T09:35:20Z</time>
</trkpt>
<trkpt lat="39.7875403" lon="2.8914222">
<ele>347.12</ele>
<time>2016-10-16T09:35:27Z</time>
</trkpt>
<trkpt lat="39.7877174" lon="2.8914848">
<ele>354.10</ele>
<time>2016-10-16T09:35:37Z</time>
</trkpt>
<trkpt lat="39.7878523" lon="2.8916404">
<ele>356.49</ele>
<time>2016-10-16T09:35:44Z</time>
</trkpt>
<trkpt lat="39.7880406" lon="2.8916980">
<ele>357.34</ele>
<time>2016-10-16T09:35:52Z</time>
</trkpt>
<trkpt lat="39.7882334" lon="2.8917528">
<ele>359.25</ele>
<time>2016-10-16T09:36:00Z</time>
</trkpt>
<trkpt lat="39.7884118" lon="2.8918050">
<ele>359.77</ele>
<time>2016-10-16T09:36:09Z</time>
</trkpt>
<trkpt lat="39.7885950" lon="2.8917154">
<ele>359.62</ele>
<time>2016-10-16T09:36:17Z</time>
</trkpt>
<trkpt lat="39.7887469" lon="2.8915352">
<ele>360.25</ele>
<time>2016-10-16T09:36:24Z</time>
</trkpt>
<trkpt lat="39.7888868" lon="2.8913550">
<ele>361.73</ele>
<time>2016-10-16T09:36:30Z</time>
</trkpt>
<trkpt lat="39.7890227" lon="2.8911576">
<ele>363.78</ele>
<time>2016-10-16T09:36:37Z</time>
</trkpt>
<trkpt lat="39.7891538" lon="2.8909880">
<ele>365.56</ele>
<time>2016-10-16T09:36:43Z</time>
</trkpt>
<trkpt lat="39.7893350" lon="2.8908851">
<ele>366.24</ele>
<time>2016-10-16T09:36:47Z</time>
</trkpt>
<trkpt lat="39.7895076" lon="2.8907731">
<ele>366.47</ele>
<time>2016-10-16T09:36:52Z</time>
</trkpt>
<trkpt lat="39.7896977" lon="2.8906671">
<ele>366.51</ele>
<time>2016-10-16T09:36:59Z</time>
</trkpt>
<trkpt lat="39.7898475" lon="2.8905163">
<ele>367.92</ele>
<time>2016-10-16T09:37:11Z</time>
</trkpt>
<trkpt lat="39.7900250" lon="2.8903335">
<ele>369.44</ele>
<time>2016-10-16T09:37:21Z</time>
</trkpt>
<trkpt lat="39.7902207" lon="2.8904168">
<ele>370.81</ele>
<time>2016-10-16T09:37:30Z</time>
</trkpt>
<trkpt lat="39.7903962" lon="2.8905368">
<ele>372.10</ele>
<time>2016-10-16T09:37:38Z</time>
</trkpt>
<trkpt lat="39.7905933" lon="2.8906302">
<ele>372.99</ele>
<time>2016-10-16T09:37:46Z</time>
</trkpt>
<trkpt lat="39.7907850" lon="2.8906504">
<ele>373.83</ele>
<time>2016-10-16T09:37:54Z</time>
</trkpt>
<trkpt lat="39.7909833" lon="2.8907893">
<ele>376.28</ele>
<time>2016-10-16T09:38:00Z</time>
</trkpt>
<trkpt lat="39.7909768" lon="2.8910463">
<ele>380.65</ele>
<time>2016-10-16T09:38:07Z</time>
</trkpt>
<trkpt lat="39.7908700" lon="2.8912401">
<ele>383.96</ele>
<time>2016-10-16T09:38:14Z</time>
</trkpt>
<trkpt lat="39.7906992" lon="2.8914009">
<ele>385.10</ele>
<time>2016-10-16T09:38:21Z</time>
</trkpt>
<trkpt lat="39.7905447" lon="2.8915230">
<ele>384.83</ele>
<time>2016-10-16T09:38:28Z</time>
</trkpt>
<trkpt lat="39.7903649" lon="2.8916486">
<ele>383.92</ele>
<time>2016-10-16T09:38:36Z</time>
</trkpt>
<trkpt lat="39.7902043" lon="2.8917949">
<ele>384.39</ele>
<time>2016-10-16T09:38:44Z</time>
</trkpt>
<trkpt lat="39.7901226" lon="2.8920174">
<ele>384.56</ele>
<time>2016-10-16T09:38:52Z</time>
</trkpt>
<trkpt lat="39.7899869" lon="2.8921944">
<ele>384.95</ele>
<time>2016-10-16T09:38:59Z</time>
</trkpt>
<trkpt lat="39.7899363" lon="2.8924319">
<ele>386.10</ele>
<time>2016-10-16T09:39:08Z</time>
</trkpt>
<trkpt lat="39.7898552" lon="2.8926626">
<ele>387.96</ele>
<time>2016-10-16T09:39:14Z</time>
</trkpt>
<trkpt lat="39.7897455" lon="2.8928638">
<ele>388.79</ele>
<time>2016-10-16T09:39:19Z</time>
</trkpt>
<trkpt lat="39.7896180" lon="2.8930428">
<ele>389.10</ele>
<time>2016-10-16T09:39:25Z</time>
</trkpt>
<trkpt lat="39.7894613" lon="2.8931996">
<ele>389.76</ele>
<time>2016-10-16T09:39:32Z</time>
</trkpt>
<trkpt lat="39.7892954" lon="2.8933474">
<ele>390.32</ele>
<time>2016-10-16T09:39:39Z</time>
</trkpt>
<trkpt lat="39.7891121" lon="2.8934938">
<ele>391.12</ele>
<time>2016-10-16T09:39:46Z</time>
</trkpt>
<trkpt lat="39.7889384" lon="2.8935807">
<ele>391.79</ele>
<time>2016-10-16T09:39:52Z</time>
</trkpt>
<trkpt lat="39.7891423" lon="2.8936016">
<ele>394.17</ele>
<time>2016-10-16T09:40:15Z</time>
</trkpt>
<trkpt lat="39.7893316" lon="2.8935458">
<ele>395.19</ele>
<time>2016-10-16T09:40:23Z</time>
</trkpt>
<trkpt lat="39.7895156" lon="2.8935132">
<ele>397.83</ele>
<time>2016-10-16T09:40:32Z</time>
</trkpt>
<trkpt lat="39.7896884" lon="2.8936290">
<ele>399.94</ele>
<time>2016-10-16T09:40:39Z</time>
</trkpt>
<trkpt lat="39.7895763" lon="2.8938264">
<ele>401.62</ele>
<time>2016-10-16T09:40:47Z</time>
</trkpt>
<trkpt lat="39.7894245" lon="2.8939757">
<ele>402.49</ele>
<time>2016-10-16T09:40:55Z</time>
</trkpt>
<trkpt lat="39.7892530" lon="2.8940855">
<ele>403.93</ele>
<time>2016-10-16T09:41:03Z</time>
</trkpt>
<trkpt lat="39.7894208" lon="2.8941982">
<ele>406.41</ele>
<time>2016-10-16T09:41:26Z</time>
</trkpt>
<trkpt lat="39.7896060" lon="2.8941137">
<ele>407.34</ele>
<time>2016-10-16T09:41:34Z</time>
</trkpt>
<trkpt lat="39.7897719" lon="2.8940063">
<ele>409.17</ele>
<time>2016-10-16T09:41:44Z</time>
</trkpt>
<trkpt lat="39.7899513" lon="2.8939152">
<ele>411.00</ele>
<time>2016-10-16T09:41:50Z</time>
</trkpt>
<trkpt lat="39.7901280" lon="2.8939966">
<ele>413.14</ele>
<time>2016-10-16T09:41:56Z</time>
</trkpt>
<trkpt lat="39.7903017" lon="2.8940702">
<ele>415.44</ele>
<time>2016-10-16T09:42:03Z</time>
</trkpt>
<trkpt lat="39.7904793" lon="2.8941658">
<ele>418.01</ele>
<time>2016-10-16T09:42:11Z</time>
</trkpt>
<trkpt lat="39.7906580" lon="2.8942498">
<ele>421.36</ele>
<time>2016-10-16T09:42:19Z</time>
</trkpt>
<trkpt lat="39.7908401" lon="2.8943265">
<ele>424.05</ele>
<time>2016-10-16T09:42:25Z</time>
</trkpt>
<trkpt lat="39.7909987" lon="2.8944562">
<ele>425.19</ele>
<time>2016-10-16T09:42:30Z</time>
</trkpt>
<trkpt lat="39.7911775" lon="2.8945258">
<ele>425.68</ele>
<time>2016-10-16T09:42:36Z</time>
</trkpt>
<trkpt lat="39.7913549" lon="2.8944470">
<ele>425.86</ele>
<time>2016-10-16T09:42:42Z</time>
</trkpt>
<trkpt lat="39.7915677" lon="2.8943828">
<ele>426.38</ele>
<time>2016-10-16T09:42:49Z</time>
</trkpt>
<trkpt lat="39.7917774" lon="2.8943142">
<ele>428.25</ele>
<time>2016-10-16T09:42:54Z</time>
</trkpt>
<trkpt lat="39.7919771" lon="2.8942807">
<ele>429.39</ele>
<time>2016-10-16T09:42:58Z</time>
</trkpt>
<trkpt lat="39.7921727" lon="2.8942778">
<ele>427.88</ele>
<time>2016-10-16T09:43:02Z</time>
</trkpt>
<trkpt lat="39.7923909" lon="2.8943071">
<ele>423.09</ele>
<time>2016-10-16T09:43:07Z</time>
</trkpt>
<trkpt lat="39.7925937" lon="2.8943448">
<ele>422.94</ele>
<time>2016-10-16T09:43:12Z</time>
</trkpt>
<trkpt lat="39.7927976" lon="2.8944038">
<ele>423.39</ele>
<time>2016-10-16T09:43:19Z</time>
</trkpt>
<trkpt lat="39.7929939" lon="2.8944598">
<ele>424.07</ele>
<time>2016-10-16T09:43:24Z</time>
</trkpt>
<trkpt lat="39.7931717" lon="2.8944996">
<ele>424.39</ele>
<time>2016-10-16T09:43:29Z</time>
</trkpt>
<trkpt lat="39.7933566" lon="2.8945724">
<ele>424.73</ele>
<time>2016-10-16T09:43:34Z</time>
</trkpt>
<trkpt lat="39.7935409" lon="2.8946329">
<ele>424.98</ele>
<time>2016-10-16T09:43:40Z</time>
</trkpt>
<trkpt lat="39.7937466" lon="2.8946367">
<ele>425.22</ele>
<time>2016-10-16T09:43:47Z</time>
</trkpt>
<trkpt lat="39.7939255" lon="2.8946692">
<ele>425.65</ele>
<time>2016-10-16T09:43:52Z</time>
</trkpt>
<trkpt lat="39.7941050" lon="2.8947406">
<ele>426.31</ele>
<time>2016-10-16T09:43:56Z</time>
</trkpt>
<trkpt lat="39.7942736" lon="2.8948490">
<ele>427.23</ele>
<time>2016-10-16T09:44:03Z</time>
</trkpt>
<trkpt lat="39.7944188" lon="2.8950506">
<ele>428.25</ele>
<time>2016-10-16T09:44:08Z</time>
</trkpt>
<trkpt lat="39.7945572" lon="2.8952098">
<ele>429.82</ele>
<time>2016-10-16T09:44:14Z</time>
</trkpt>
<trkpt lat="39.7946996" lon="2.8953671">
<ele>431.04</ele>
<time>2016-10-16T09:44:21Z</time>
</trkpt>
<trkpt lat="39.7948544" lon="2.8955208">
<ele>432.30</ele>
<time>2016-10-16T09:44:27Z</time>
</trkpt>
<trkpt lat="39.7949613" lon="2.8957095">
<ele>434.34</ele>
<time>2016-10-16T09:44:33Z</time>
</trkpt>
<trkpt lat="39.7951142" lon="2.8958770">
<ele>436.62</ele>
<time>2016-10-16T09:44:38Z</time>
</trkpt>
<trkpt lat="39.7952772" lon="2.8959948">
<ele>438.49</ele>
<time>2016-10-16T09:44:45Z</time>
</trkpt>
<trkpt lat="39.7954540" lon="2.8960789">
<ele>439.43</ele>
<time>2016-10-16T09:44:51Z</time>
</trkpt>
<trkpt lat="39.7956581" lon="2.8961485">
<ele>440.08</ele>
<time>2016-10-16T09:44:57Z</time>
</trkpt>
<trkpt lat="39.7958300" lon="2.8962522">
<ele>440.30</ele>
<time>2016-10-16T09:45:03Z</time>
</trkpt>
<trkpt lat="39.7960236" lon="2.8963074">
<ele>440.90</ele>
<time>2016-10-16T09:45:10Z</time>
</trkpt>
<trkpt lat="39.7962311" lon="2.8963982">
<ele>441.76</ele>
<time>2016-10-16T09:45:16Z</time>
</trkpt>
<trkpt lat="39.7964130" lon="2.8964649">
<ele>442.42</ele>
<time>2016-10-16T09:45:22Z</time>
</trkpt>
<trkpt lat="39.7965939" lon="2.8965042">
<ele>443.27</ele>
<time>2016-10-16T09:45:27Z</time>
</trkpt>
<trkpt lat="39.7967755" lon="2.8964519">
<ele>443.96</ele>
<time>2016-10-16T09:45:33Z</time>
</trkpt>
<trkpt lat="39.7969758" lon="2.8964118">
<ele>444.56</ele>
<time>2016-10-16T09:45:40Z</time>
</trkpt>
<trkpt lat="39.7971622" lon="2.8964549">
<ele>445.25</ele>
<time>2016-10-16T09:45:47Z</time>
</trkpt>
<trkpt lat="39.7973302" lon="2.8965488">
<ele>446.91</ele>
<time>2016-10-16T09:45:53Z</time>
</trkpt>
<trkpt lat="39.7974629" lon="2.8967166">
<ele>448.99</ele>
<time>2016-10-16T09:45:59Z</time>
</trkpt>
<trkpt lat="39.7976008" lon="2.8968883">
<ele>450.53</ele>
<time>2016-10-16T09:46:04Z</time>
</trkpt>
<trkpt lat="39.7977627" lon="2.8971077">
<ele>452.19</ele>
<time>2016-10-16T09:46:10Z</time>
</trkpt>
<trkpt lat="39.7978817" lon="2.8973277">
<ele>454.51</ele>
<time>2016-10-16T09:46:17Z</time>
</trkpt>
<trkpt lat="39.7980112" lon="2.8975114">
<ele>456.21</ele>
<time>2016-10-16T09:46:22Z</time>
</trkpt>
<trkpt lat="39.7981712" lon="2.8976977">
<ele>458.00</ele>
<time>2016-10-16T09:46:28Z</time>
</trkpt>
<trkpt lat="39.7983591" lon="2.8978468">
<ele>459.31</ele>
<time>2016-10-16T09:46:34Z</time>
</trkpt>
<trkpt lat="39.7985393" lon="2.8979155">
<ele>460.94</ele>
<time>2016-10-16T09:46:39Z</time>
</trkpt>
<trkpt lat="39.7987349" lon="2.8979516">
<ele>460.76</ele>
<time>2016-10-16T09:46:44Z</time>
</trkpt>
<trkpt lat="39.7989427" lon="2.8978959">
<ele>460.59</ele>
<time>2016-10-16T09:46:51Z</time>
</trkpt>
<trkpt lat="39.7991355" lon="2.8978319">
<ele>460.95</ele>
<time>2016-10-16T09:46:56Z</time>
</trkpt>
<trkpt lat="39.7993339" lon="2.8977143">
<ele>461.53</ele>
<time>2016-10-16T09:47:02Z</time>
</trkpt>
<trkpt lat="39.7995192" lon="2.8976156">
<ele>461.89</ele>
<time>2016-10-16T09:47:07Z</time>
</trkpt>
<trkpt lat="39.7997014" lon="2.8975094">
<ele>463.95</ele>
<time>2016-10-16T09:47:12Z</time>
</trkpt>
<trkpt lat="39.7998767" lon="2.8974132">
<ele>465.25</ele>
<time>2016-10-16T09:47:17Z</time>
</trkpt>
<trkpt lat="39.8000626" lon="2.8973098">
<ele>467.51</ele>
<time>2016-10-16T09:47:22Z</time>
</trkpt>
<trkpt lat="39.8002576" lon="2.8972650">
<ele>468.08</ele>
<time>2016-10-16T09:47:27Z</time>
</trkpt>
<trkpt lat="39.8004526" lon="2.8971718">
<ele>468.37</ele>
<time>2016-10-16T09:47:31Z</time>
</trkpt>
<trkpt lat="39.8006381" lon="2.8971608">
<ele>468.66</ele>
<time>2016-10-16T09:47:36Z</time>
</trkpt>
<trkpt lat="39.8008353" lon="2.8971944">
<ele>470.59</ele>
<time>2016-10-16T09:47:40Z</time>
</trkpt>
<trkpt lat="39.8010167" lon="2.8972172">
<ele>472.56</ele>
<time>2016-10-16T09:47:44Z</time>
</trkpt>
<trkpt lat="39.8012342" lon="2.8972751">
<ele>475.60</ele>
<time>2016-10-16T09:47:48Z</time>
</trkpt>
<trkpt lat="39.8014174" lon="2.8973406">
<ele>478.35</ele>
<time>2016-10-16T09:47:52Z</time>
</trkpt>
<trkpt lat="39.8015846" lon="2.8974679">
<ele>482.36</ele>
<time>2016-10-16T09:47:56Z</time>
</trkpt>
<trkpt lat="39.8017706" lon="2.8976396">
<ele>482.61</ele>
<time>2016-10-16T09:48:00Z</time>
</trkpt>
<trkpt lat="39.8019131" lon="2.8978098">
<ele>483.46</ele>
<time>2016-10-16T09:48:03Z</time>
</trkpt>
<trkpt lat="39.8020441" lon="2.8980533">
<ele>484.02</ele>
<time>2016-10-16T09:48:07Z</time>
</trkpt>
<trkpt lat="39.8021380" lon="2.8982538">
<ele>483.65</ele>
<time>2016-10-16T09:48:10Z</time>
</trkpt>
<trkpt lat="39.8022385" lon="2.8985135">
<ele>483.99</ele>
<time>2016-10-16T09:48:14Z</time>
</trkpt>
<trkpt lat="39.8023521" lon="2.8987392">
<ele>484.00</ele>
<time>2016-10-16T09:48:17Z</time>
</trkpt>
<trkpt lat="39.8024464" lon="2.8989630">
<ele>482.76</ele>
<time>2016-10-16T09:48:20Z</time>
</trkpt>
<trkpt lat="39.8025472" lon="2.8991758">
<ele>480.65</ele>
<time>2016-10-16T09:48:23Z</time>
</trkpt>
<trkpt lat="39.8026660" lon="2.8994230">
<ele>477.56</ele>
<time>2016-10-16T09:48:27Z</time>
</trkpt>
<trkpt lat="39.8027688" lon="2.8996289">
<ele>477.72</ele>
<time>2016-10-16T09:48:30Z</time>
</trkpt>
<trkpt lat="39.8028760" lon="2.8998936">
<ele>478.26</ele>
<time>2016-10-16T09:48:34Z</time>
</trkpt>
<trkpt lat="39.8030597" lon="2.8999588">
<ele>479.55</ele>
<time>2016-10-16T09:48:39Z</time>
</trkpt>
<trkpt lat="39.8032392" lon="2.8998917">
<ele>478.34</ele>
<time>2016-10-16T09:48:43Z</time>
</trkpt>
<trkpt lat="39.8034318" lon="2.8998232">
<ele>472.68</ele>
<time>2016-10-16T09:48:47Z</time>
</trkpt>
<trkpt lat="39.8035983" lon="2.8997331">
<ele>471.03</ele>
<time>2016-10-16T09:48:50Z</time>
</trkpt>
<trkpt lat="39.8037959" lon="2.8996572">
<ele>471.67</ele>
<time>2016-10-16T09:48:54Z</time>
</trkpt>
<trkpt lat="39.8039399" lon="2.8994443">
<ele>471.98</ele>
<time>2016-10-16T09:48:58Z</time>
</trkpt>
<trkpt lat="39.8041009" lon="2.8992271">
<ele>471.84</ele>
<time>2016-10-16T09:49:01Z</time>
</trkpt>
<trkpt lat="39.8042198" lon="2.8989624">
<ele>472.76</ele>
<time>2016-10-16T09:49:04Z</time>
</trkpt>
<trkpt lat="39.8043235" lon="2.8987394">
<ele>474.99</ele>
<time>2016-10-16T09:49:07Z</time>
</trkpt>
<trkpt lat="39.8044676" lon="2.8984988">
<ele>478.30</ele>
<time>2016-10-16T09:49:11Z</time>
</trkpt>
<trkpt lat="39.8046452" lon="2.8983945">
<ele>484.06</ele>
<time>2016-10-16T09:49:15Z</time>
</trkpt>
<trkpt lat="39.8048702" lon="2.8984905">
<ele>486.00</ele>
<time>2016-10-16T09:49:18Z</time>
</trkpt>
<trkpt lat="39.8050812" lon="2.8985765">
<ele>486.02</ele>
<time>2016-10-16T09:49:21Z</time>
</trkpt>
<trkpt lat="39.8052970" lon="2.8986420">
<ele>484.51</ele>
<time>2016-10-16T09:49:24Z</time>
</trkpt>
<trkpt lat="39.8054849" lon="2.8986887">
<ele>481.25</ele>
<time>2016-10-16T09:49:28Z</time>
</trkpt>
<trkpt lat="39.8057001" lon="2.8986915">
<ele>480.27</ele>
<time>2016-10-16T09:49:33Z</time>
</trkpt>
<trkpt lat="39.8059011" lon="2.8986507">
<ele>479.38</ele>
<time>2016-10-16T09:49:38Z</time>
</trkpt>
<trkpt lat="39.8060834" lon="2.8985706">
<ele>478.86</ele>
<time>2016-10-16T09:49:44Z</time>
</trkpt>
<trkpt lat="39.8062573" lon="2.8984866">
<ele>478.90</ele>
<time>2016-10-16T09:49:51Z</time>
</trkpt>
<trkpt lat="39.8064531" lon="2.8984196">
<ele>478.97</ele>
<time>2016-10-16T09:49:57Z</time>
</trkpt>
<trkpt lat="39.8066364" lon="2.8984406">
<ele>479.28</ele>
<time>2016-10-16T09:50:03Z</time>
</trkpt>
<trkpt lat="39.8068290" lon="2.8984433">
<ele>480.21</ele>
<time>2016-10-16T09:50:11Z</time>
</trkpt>
<trkpt lat="39.8070090" lon="2.8984067">
<ele>480.03</ele>
<time>2016-10-16T09:50:17Z</time>
</trkpt>
<trkpt lat="39.8071916" lon="2.8983142">
<ele>479.90</ele>
<time>2016-10-16T09:50:24Z</time>
</trkpt>
<trkpt lat="39.8072465" lon="2.8980873">
<ele>481.61</ele>
<time>2016-10-16T09:50:42Z</time>
</trkpt>
<trkpt lat="39.8070632" lon="2.8980983">
<ele>482.59</ele>
<time>2016-10-16T09:50:51Z</time>
</trkpt>
<trkpt lat="39.8068916" lon="2.8981950">
<ele>483.49</ele>
<time>2016-10-16T09:50:58Z</time>
</trkpt>
<trkpt lat="39.8067250" lon="2.8982856">
<ele>484.95</ele>
<time>2016-10-16T09:51:04Z</time>
</trkpt>
<trkpt lat="39.8065501" lon="2.8983747">
<ele>489.01</ele>
<time>2016-10-16T09:51:12Z</time>
</trkpt>
<trkpt lat="39.8063509" lon="2.8984537">
<ele>490.37</ele>
<time>2016-10-16T09:51:19Z</time>
</trkpt>
<trkpt lat="39.8061586" lon="2.8984791">
<ele>490.71</ele>
<time>2016-10-16T09:51:26Z</time>
</trkpt>
<trkpt lat="39.8061299" lon="2.8982380">
<ele>491.67</ele>
<time>2016-10-16T09:51:33Z</time>
</trkpt>
<trkpt lat="39.8062535" lon="2.8980546">
<ele>494.30</ele>
<time>2016-10-16T09:51:42Z</time>
</trkpt>
<trkpt lat="39.8064281" lon="2.8979406">
<ele>496.48</ele>
<time>2016-10-16T09:51:51Z</time>
</trkpt>
<trkpt lat="39.8066300" lon="2.8978310">
<ele>497.69</ele>
<time>2016-10-16T09:51:58Z</time>
</trkpt>
<trkpt lat="39.8068105" lon="2.8977406">
<ele>498.95</ele>
<time>2016-10-16T09:52:04Z</time>
</trkpt>
<trkpt lat="39.8070117" lon="2.8976944">
<ele>499.96</ele>
<time>2016-10-16T09:52:10Z</time>
</trkpt>
<trkpt lat="39.8071929" lon="2.8976684">
<ele>501.47</ele>
<time>2016-10-16T09:52:18Z</time>
</trkpt>
<trkpt lat="39.8073693" lon="2.8975944">
<ele>501.79</ele>
<time>2016-10-16T09:52:27Z</time>
</trkpt>
<trkpt lat="39.8072088" lon="2.8977348">
<ele>506.60</ele>
<time>2016-10-16T09:52:56Z</time>
</trkpt>
<trkpt lat="39.8070286" lon="2.8977572">
<ele>509.27</ele>
<time>2016-10-16T09:53:04Z</time>
</trkpt>
<trkpt lat="39.8068449" lon="2.8976950">
<ele>510.55</ele>
<time>2016-10-16T09:53:10Z</time>
</trkpt>
<trkpt lat="39.8067902" lon="2.8974653">
<ele>512.99</ele>
<time>2016-10-16T09:53:19Z</time>
</trkpt>
<trkpt lat="39.8069675" lon="2.8973561">
<ele>516.04</ele>
<time>2016-10-16T09:53:28Z</time>
</trkpt>
<trkpt lat="39.8071467" lon="2.8972261">
<ele>519.40</ele>
<time>2016-10-16T09:53:38Z</time>
</trkpt>
<trkpt lat="39.8073268" lon="2.8971220">
<ele>521.51</ele>
<time>2016-10-16T09:53:45Z</time>
</trkpt>
<trkpt lat="39.8074854" lon="2.8970093">
<ele>522.66</ele>
<time>2016-10-16T09:53:49Z</time>
</trkpt>
<trkpt lat="39.8076822" lon="2.8969989">
<ele>524.48</ele>
<time>2016-10-16T09:53:57Z</time>
</trkpt>
<trkpt lat="39.8078543" lon="2.8968699">
<ele>527.10</ele>
<time>2016-10-16T09:54:05Z</time>
</trkpt>
<trkpt lat="39.8080256" lon="2.8967860">
<ele>528.71</ele>
<time>2016-10-16T09:54:13Z</time>
</trkpt>
<trkpt lat="39.8078253" lon="2.8968203">
<ele>527.43</ele>
<time>2016-10-16T09:54:38Z</time>
</trkpt>
<trkpt lat="39.8076600" lon="2.8969394">
<ele>528.70</ele>
<time>2016-10-16T09:54:46Z</time>
</trkpt>
<trkpt lat="39.8074598" lon="2.8970649">
<ele>530.35</ele>
<time>2016-10-16T09:54:54Z</time>
</trkpt>
<trkpt lat="39.8073100" lon="2.8969231">
<ele>530.86</ele>
<time>2016-10-16T09:54:59Z</time>
</trkpt>
<trkpt lat="39.8073880" lon="2.8966923">
<ele>531.22</ele>
<time>2016-10-16T09:55:08Z</time>
</trkpt>
<trkpt lat="39.8075222" lon="2.8965353">
<ele>531.67</ele>
<time>2016-10-16T09:55:16Z</time>
</trkpt>
<trkpt lat="39.8076719" lon="2.8963643">
<ele>533.31</ele>
<time>2016-10-16T09:55:25Z</time>
</trkpt>
<trkpt lat="39.8078482" lon="2.8962290">
<ele>534.78</ele>
<time>2016-10-16T09:55:33Z</time>
</trkpt>
<trkpt lat="39.8080186" lon="2.8961295">
<ele>540.01</ele>
<time>2016-10-16T09:55:38Z</time>
</trkpt>
<trkpt lat="39.8082021" lon="2.8960385">
<ele>542.83</ele>
<time>2016-10-16T09:55:45Z</time>
</trkpt>
<trkpt lat="39.8083808" lon="2.8959311">
<ele>545.20</ele>
<time>2016-10-16T09:55:53Z</time>
</trkpt>
<trkpt lat="39.8085504" lon="2.8957839">
<ele>545.91</ele>
<time>2016-10-16T09:56:02Z</time>
</trkpt>
<trkpt lat="39.8086838" lon="2.8956126">
<ele>546.27</ele>
<time>2016-10-16T09:56:10Z</time>
</trkpt>
<trkpt lat="39.8088122" lon="2.8954313">
<ele>546.77</ele>
<time>2016-10-16T09:56:18Z</time>
</trkpt>
<trkpt lat="39.8089614" lon="2.8952924">
<ele>547.00</ele>
<time>2016-10-16T09:56:22Z</time>
</trkpt>
<trkpt lat="39.8091334" lon="2.8952050">
<ele>548.28</ele>
<time>2016-10-16T09:56:30Z</time>
</trkpt>
<trkpt lat="39.8092901" lon="2.8950886">
<ele>549.50</ele>
<time>2016-10-16T09:56:35Z</time>
</trkpt>
<trkpt lat="39.8094666" lon="2.8950203">
<ele>550.79</ele>
<time>2016-10-16T09:56:42Z</time>
</trkpt>
<trkpt lat="39.8096499" lon="2.8950052">
<ele>552.10</ele>
<time>2016-10-16T09:56:49Z</time>
</trkpt>
<trkpt lat="39.8098195" lon="2.8948981">
<ele>557.51</ele>
<time>2016-10-16T09:56:58Z</time>
</trkpt>
<trkpt lat="39.8099960" lon="2.8948050">
<ele>559.61</ele>
<time>2016-10-16T09:57:08Z</time>
</trkpt>
<trkpt lat="39.8101324" lon="2.8945851">
<ele>559.50</ele>
<time>2016-10-16T09:57:16Z</time>
</trkpt>
<trkpt lat="39.8102320" lon="2.8943811">
<ele>559.47</ele>
<time>2016-10-16T09:57:21Z</time>
</trkpt>
<trkpt lat="39.8103511" lon="2.8941820">
<ele>560.23</ele>
<time>2016-10-16T09:57:28Z</time>
</trkpt>
<trkpt lat="39.8104300" lon="2.8939653">
<ele>560.55</ele>
<time>2016-10-16T09:57:37Z</time>
</trkpt>
<trkpt lat="39.8104974" lon="2.8937440">
<ele>560.15</ele>
<time>2016-10-16T09:57:45Z</time>
</trkpt>
<trkpt lat="39.8106057" lon="2.8935032">
<ele>559.45</ele>
<time>2016-10-16T09:57:51Z</time>
</trkpt>
<trkpt lat="39.8107032" lon="2.8932752">
<ele>558.71</ele>
<time>2016-10-16T09:57:57Z</time>
</trkpt>
<trkpt lat="39.8107863" lon="2.8930390">
<ele>558.20</ele>
<time>2016-10-16T09:58:05Z</time>
</trkpt>
<trkpt lat="39.8108503" lon="2.8928052">
<ele>558.54</ele>
<time>2016-10-16T09:58:13Z</time>
</trkpt>
<trkpt lat="39.8109059" lon="2.8925661">
<ele>558.48</ele>
<time>2016-10-16T09:58:21Z</time>
</trkpt>
<trkpt lat="39.8109285" lon="2.8923045">
<ele>558.83</ele>
<time>2016-10-16T09:58:29Z</time>
</trkpt>
<trkpt lat="39.8109550" lon="2.8920586">
<ele>559.57</ele>
<time>2016-10-16T09:58:36Z</time>
</trkpt>
<trkpt lat="39.8109734" lon="2.8918024">
<ele>560.78</ele>
<time>2016-10-16T09:58:42Z</time>
</trkpt>
<trkpt lat="39.8110347" lon="2.8915534">
<ele>561.95</ele>
<time>2016-10-16T09:58:50Z</time>
</trkpt>
<trkpt lat="39.8110718" lon="2.8912954">
<ele>562.82</ele>
<time>2016-10-16T09:58:57Z</time>
</trkpt>
<trkpt lat="39.8111489" lon="2.8910562">
<ele>563.88</ele>
<time>2016-10-16T09:59:04Z</time>
</trkpt>
<trkpt lat="39.8112281" lon="2.8908033">
<ele>564.77</ele>
<time>2016-10-16T09:59:11Z</time>
</trkpt>
<trkpt lat="39.8112482" lon="2.8905372">
<ele>565.59</ele>
<time>2016-10-16T09:59:20Z</time>
</trkpt>
<trkpt lat="39.8111705" lon="2.8902969">
<ele>566.11</ele>
<time>2016-10-16T09:59:29Z</time>
</trkpt>
<trkpt lat="39.8110835" lon="2.8900708">
<ele>566.86</ele>
<time>2016-10-16T09:59:36Z</time>
</trkpt>
<trkpt lat="39.8110371" lon="2.8897994">
<ele>567.95</ele>
<time>2016-10-16T09:59:45Z</time>
</trkpt>
<trkpt lat="39.8110447" lon="2.8895350">
<ele>568.97</ele>
<time>2016-10-16T09:59:49Z</time>
</trkpt>
<trkpt lat="39.8112605" lon="2.8894705">
<ele>570.26</ele>
<time>2016-10-16T09:59:53Z</time>
</trkpt>
<trkpt lat="39.8114452" lon="2.8894777">
<ele>573.30</ele>
<time>2016-10-16T10:00:00Z</time>
</trkpt>
<trkpt lat="39.8116435" lon="2.8895204">
<ele>577.99</ele>
<time>2016-10-16T10:00:08Z</time>
</trkpt>
<trkpt lat="39.8118251" lon="2.8895914">
<ele>580.53</ele>
<time>2016-10-16T10:00:14Z</time>
</trkpt>
<trkpt lat="39.8120182" lon="2.8895859">
<ele>583.11</ele>
<time>2016-10-16T10:00:21Z</time>
</trkpt>
<trkpt lat="39.8122131" lon="2.8895477">
<ele>585.90</ele>
<time>2016-10-16T10:00:28Z</time>
</trkpt>
<trkpt lat="39.8124090" lon="2.8895803">
<ele>588.51</ele>
<time>2016-10-16T10:00:36Z</time>
</trkpt>
<trkpt lat="39.8125852" lon="2.8896459">
<ele>592.64</ele>
<time>2016-10-16T10:02:00Z</time>
</trkpt>
<trkpt lat="39.8127938" lon="2.8896343">
<ele>594.38</ele>
<time>2016-10-16T10:19:16Z</time>
</trkpt>
<trkpt lat="39.8129715" lon="2.8895536">
<ele>599.19</ele>
<time>2016-10-16T10:19:20Z</time>
</trkpt>
<trkpt lat="39.8131790" lon="2.8895144">
<ele>600.34</ele>
<time>2016-10-16T10:19:24Z</time>
</trkpt>
<trkpt lat="39.8133481" lon="2.8897035">
<ele>593.56</ele>
<time>2016-10-16T10:19:28Z</time>
</trkpt>
<trkpt lat="39.8135247" lon="2.8898878">
<ele>591.62</ele>
<time>2016-10-16T10:19:33Z</time>
</trkpt>
<trkpt lat="39.8136821" lon="2.8901116">
<ele>593.21</ele>
<time>2016-10-16T10:19:36Z</time>
</trkpt>
<trkpt lat="39.8138235" lon="2.8902763">
<ele>593.50</ele>
<time>2016-10-16T10:19:38Z</time>
</trkpt>
<trkpt lat="39.8140397" lon="2.8904538">
<ele>590.96</ele>
<time>2016-10-16T10:19:41Z</time>
</trkpt>
<trkpt lat="39.8142322" lon="2.8906345">
<ele>591.15</ele>
<time>2016-10-16T10:19:44Z</time>
</trkpt>
<trkpt lat="39.8143563" lon="2.8908895">
<ele>588.34</ele>
<time>2016-10-16T10:19:48Z</time>
</trkpt>
<trkpt lat="39.8144418" lon="2.8911263">
<ele>586.01</ele>
<time>2016-10-16T10:19:52Z</time>
</trkpt>
<trkpt lat="39.8145285" lon="2.8913812">
<ele>584.81</ele>
<time>2016-10-16T10:19:56Z</time>
</trkpt>
<trkpt lat="39.8145941" lon="2.8916318">
<ele>581.00</ele>
<time>2016-10-16T10:20:00Z</time>
</trkpt>
<trkpt lat="39.8147070" lon="2.8918904">
<ele>574.59</ele>
<time>2016-10-16T10:20:05Z</time>
</trkpt>
<trkpt lat="39.8148293" lon="2.8921296">
<ele>574.98</ele>
<time>2016-10-16T10:20:09Z</time>
</trkpt>
<trkpt lat="39.8149689" lon="2.8923931">
<ele>575.44</ele>
<time>2016-10-16T10:20:13Z</time>
</trkpt>
<trkpt lat="39.8151033" lon="2.8926615">
<ele>572.80</ele>
<time>2016-10-16T10:20:16Z</time>
</trkpt>
<trkpt lat="39.8152121" lon="2.8929675">
<ele>567.60</ele>
<time>2016-10-16T10:20:19Z</time>
</trkpt>
<trkpt lat="39.8152951" lon="2.8932982">
<ele>562.31</ele>
<time>2016-10-16T10:20:22Z</time>
</trkpt>
<trkpt lat="39.8153355" lon="2.8935889">
<ele>560.16</ele>
<time>2016-10-16T10:20:25Z</time>
</trkpt>
<trkpt lat="39.8153776" lon="2.8938183">
<ele>555.97</ele>
<time>2016-10-16T10:20:28Z</time>
</trkpt>
<trkpt lat="39.8154329" lon="2.8940506">
<ele>552.95</ele>
<time>2016-10-16T10:20:31Z</time>
</trkpt>
<trkpt lat="39.8155018" lon="2.8943242">
<ele>550.75</ele>
<time>2016-10-16T10:20:34Z</time>
</trkpt>
<trkpt lat="39.8155443" lon="2.8946080">
<ele>548.72</ele>
<time>2016-10-16T10:20:37Z</time>
</trkpt>
<trkpt lat="39.8155660" lon="2.8948866">
<ele>546.25</ele>
<time>2016-10-16T10:20:40Z</time>
</trkpt>
<trkpt lat="39.8155887" lon="2.8952048">
<ele>544.51</ele>
<time>2016-10-16T10:20:43Z</time>
</trkpt>
<trkpt lat="39.8155901" lon="2.8955338">
<ele>543.14</ele>
<time>2016-10-16T10:20:46Z</time>
</trkpt>
<trkpt lat="39.8155896" lon="2.8957872">
<ele>541.81</ele>
<time>2016-10-16T10:20:49Z</time>
</trkpt>
<trkpt lat="39.8155874" lon="2.8960636">
<ele>542.62</ele>
<time>2016-10-16T10:20:52Z</time>
</trkpt>
<trkpt lat="39.8156993" lon="2.8962480">
<ele>542.84</ele>
<time>2016-10-16T10:20:55Z</time>
</trkpt>
<trkpt lat="39.8159138" lon="2.8963215">
<ele>543.60</ele>
<time>2016-10-16T10:20:58Z</time>
</trkpt>
<trkpt lat="39.8161136" lon="2.8961952">
<ele>547.04</ele>
<time>2016-10-16T10:21:02Z</time>
</trkpt>
<trkpt lat="39.8162383" lon="2.8959561">
<ele>545.29</ele>
<time>2016-10-16T10:21:05Z</time>
</trkpt>
<trkpt lat="39.8163443" lon="2.8956723">
<ele>544.05</ele>
<time>2016-10-16T10:21:08Z</time>
</trkpt>
<trkpt lat="39.8164087" lon="2.8954178">
<ele>542.56</ele>
<time>2016-10-16T10:21:11Z</time>
</trkpt>
<trkpt lat="39.8164698" lon="2.8951451">
<ele>540.97</ele>
<time>2016-10-16T10:21:14Z</time>
</trkpt>
<trkpt lat="39.8165239" lon="2.8949174">
<ele>540.54</ele>
<time>2016-10-16T10:21:16Z</time>
</trkpt>
<trkpt lat="39.8165950" lon="2.8946300">
<ele>539.79</ele>
<time>2016-10-16T10:21:19Z</time>
</trkpt>
<trkpt lat="39.8166662" lon="2.8943601">
<ele>538.70</ele>
<time>2016-10-16T10:21:22Z</time>
</trkpt>
<trkpt lat="39.8167632" lon="2.8941227">
<ele>539.16</ele>
<time>2016-10-16T10:21:25Z</time>
</trkpt>
<trkpt lat="39.8169016" lon="2.8939530">
<ele>540.87</ele>
<time>2016-10-16T10:21:29Z</time>
</trkpt>
<trkpt lat="39.8170592" lon="2.8938277">
<ele>543.46</ele>
<time>2016-10-16T10:21:33Z</time>
</trkpt>
<trkpt lat="39.8172498" lon="2.8936647">
<ele>541.70</ele>
<time>2016-10-16T10:21:37Z</time>
</trkpt>
<trkpt lat="39.8173422" lon="2.8934495">
<ele>539.59</ele>
<time>2016-10-16T10:21:40Z</time>
</trkpt>
<trkpt lat="39.8174199" lon="2.8932038">
<ele>538.25</ele>
<time>2016-10-16T10:21:43Z</time>
</trkpt>
<trkpt lat="39.8175142" lon="2.8929360">
<ele>535.68</ele>
<time>2016-10-16T10:21:46Z</time>
</trkpt>
<trkpt lat="39.8175944" lon="2.8927203">
<ele>533.10</ele>
<time>2016-10-16T10:21:49Z</time>
</trkpt>
<trkpt lat="39.8176810" lon="2.8924638">
<ele>532.55</ele>
<time>2016-10-16T10:21:53Z</time>
</trkpt>
<trkpt lat="39.8178671" lon="2.8924085">
<ele>535.64</ele>
<time>2016-10-16T10:21:57Z</time>
</trkpt>
<trkpt lat="39.8180621" lon="2.8924570">
<ele>537.79</ele>
<time>2016-10-16T10:22:00Z</time>
</trkpt>
<trkpt lat="39.8182626" lon="2.8925098">
<ele>538.36</ele>
<time>2016-10-16T10:22:03Z</time>
</trkpt>
<trkpt lat="39.8184577" lon="2.8925356">
<ele>537.47</ele>
<time>2016-10-16T10:22:06Z</time>
</trkpt>
<trkpt lat="39.8186771" lon="2.8925764">
<ele>536.32</ele>
<time>2016-10-16T10:22:09Z</time>
</trkpt>
<trkpt lat="39.8189004" lon="2.8926006">
<ele>534.62</ele>
<time>2016-10-16T10:22:12Z</time>
</trkpt>
<trkpt lat="39.8191145" lon="2.8926169">
<ele>532.32</ele>
<time>2016-10-16T10:22:15Z</time>
</trkpt>
<trkpt lat="39.8193554" lon="2.8926251">
<ele>529.19</ele>
<time>2016-10-16T10:22:19Z</time>
</trkpt>
<trkpt lat="39.8195690" lon="2.8926237">
<ele>527.97</ele>
<time>2016-10-16T10:22:22Z</time>
</trkpt>
<trkpt lat="39.8197401" lon="2.8925013">
<ele>525.81</ele>
<time>2016-10-16T10:22:25Z</time>
</trkpt>
<trkpt lat="39.8198823" lon="2.8923489">
<ele>521.09</ele>
<time>2016-10-16T10:22:28Z</time>
</trkpt>
<trkpt lat="39.8200731" lon="2.8922495">
<ele>516.68</ele>
<time>2016-10-16T10:22:32Z</time>
</trkpt>
<trkpt lat="39.8202613" lon="2.8922468">
<ele>514.66</ele>
<time>2016-10-16T10:22:35Z</time>
</trkpt>
<trkpt lat="39.8204688" lon="2.8923014">
<ele>512.91</ele>
<time>2016-10-16T10:22:39Z</time>
</trkpt>
<trkpt lat="39.8206567" lon="2.8923225">
<ele>512.96</ele>
<time>2016-10-16T10:22:43Z</time>
</trkpt>
<trkpt lat="39.8208077" lon="2.8921440">
<ele>509.73</ele>
<time>2016-10-16T10:22:47Z</time>
</trkpt>
<trkpt lat="39.8209084" lon="2.8918958">
<ele>506.23</ele>
<time>2016-10-16T10:22:50Z</time>
</trkpt>
<trkpt lat="39.8210118" lon="2.8915986">
<ele>505.92</ele>
<time>2016-10-16T10:22:53Z</time>
</trkpt>
<trkpt lat="39.8211162" lon="2.8912901">
<ele>505.27</ele>
<time>2016-10-16T10:22:56Z</time>
</trkpt>
<trkpt lat="39.8212063" lon="2.8909789">
<ele>504.25</ele>
<time>2016-10-16T10:22:59Z</time>
</trkpt>
<trkpt lat="39.8212871" lon="2.8906987">
<ele>504.28</ele>
<time>2016-10-16T10:23:02Z</time>
</trkpt>
<trkpt lat="39.8213456" lon="2.8904757">
<ele>504.26</ele>
<time>2016-10-16T10:23:04Z</time>
</trkpt>
<trkpt lat="39.8214135" lon="2.8902473">
<ele>503.45</ele>
<time>2016-10-16T10:23:06Z</time>
</trkpt>
<trkpt lat="39.8215132" lon="2.8899323">
<ele>502.19</ele>
<time>2016-10-16T10:23:09Z</time>
</trkpt>
<trkpt lat="39.8215954" lon="2.8896211">
<ele>502.03</ele>
<time>2016-10-16T10:23:12Z</time>
</trkpt>
<trkpt lat="39.8216708" lon="2.8893253">
<ele>501.87</ele>
<time>2016-10-16T10:23:15Z</time>
</trkpt>
<trkpt lat="39.8217382" lon="2.8890651">
<ele>500.81</ele>
<time>2016-10-16T10:23:18Z</time>
</trkpt>
<trkpt lat="39.8217976" lon="2.8887591">
<ele>498.79</ele>
<time>2016-10-16T10:23:21Z</time>
</trkpt>
<trkpt lat="39.8218385" lon="2.8885016">
<ele>496.98</ele>
<time>2016-10-16T10:23:24Z</time>
</trkpt>
<trkpt lat="39.8218861" lon="2.8882030">
<ele>495.00</ele>
<time>2016-10-16T10:23:27Z</time>
</trkpt>
<trkpt lat="39.8219272" lon="2.8879100">
<ele>492.18</ele>
<time>2016-10-16T10:23:30Z</time>
</trkpt>
<trkpt lat="39.8219501" lon="2.8876517">
<ele>492.04</ele>
<time>2016-10-16T10:23:33Z</time>
</trkpt>
<trkpt lat="39.8218958" lon="2.8873513">
<ele>491.59</ele>
<time>2016-10-16T10:23:36Z</time>
</trkpt>
<trkpt lat="39.8218324" lon="2.8870897">
<ele>488.33</ele>
<time>2016-10-16T10:23:39Z</time>
</trkpt>
<trkpt lat="39.8217479" lon="2.8868384">
<ele>484.74</ele>
<time>2016-10-16T10:23:42Z</time>
</trkpt>
<trkpt lat="39.8216388" lon="2.8865670">
<ele>481.75</ele>
<time>2016-10-16T10:23:45Z</time>
</trkpt>
<trkpt lat="39.8215426" lon="2.8863157">
<ele>480.20</ele>
<time>2016-10-16T10:23:49Z</time>
</trkpt>
<trkpt lat="39.8214386" lon="2.8860677">
<ele>478.94</ele>
<time>2016-10-16T10:23:54Z</time>
</trkpt>
<trkpt lat="39.8213086" lon="2.8858363">
<ele>481.38</ele>
<time>2016-10-16T10:23:59Z</time>
</trkpt>
<trkpt lat="39.8212030" lon="2.8856144">
<ele>481.87</ele>
<time>2016-10-16T10:24:06Z</time>
</trkpt>
<trkpt lat="39.8210917" lon="2.8854288">
<ele>482.51</ele>
<time>2016-10-16T10:24:12Z</time>
</trkpt>
<trkpt lat="39.8210189" lon="2.8852062">
<ele>482.91</ele>
<time>2016-10-16T10:24:17Z</time>
</trkpt>
<trkpt lat="39.8210142" lon="2.8849365">
<ele>482.84</ele>
<time>2016-10-16T10:24:22Z</time>
</trkpt>
<trkpt lat="39.8210906" lon="2.8847156">
<ele>482.27</ele>
<time>2016-10-16T10:24:31Z</time>
</trkpt>
<trkpt lat="39.8212854" lon="2.8846596">
<ele>484.66</ele>
<time>2016-10-16T10:24:42Z</time>
</trkpt>
<trkpt lat="39.8214722" lon="2.8845849">
<ele>485.71</ele>
<time>2016-10-16T10:24:54Z</time>
</trkpt>
<trkpt lat="39.8216484" lon="2.8844903">
<ele>485.76</ele>
<time>2016-10-16T10:25:00Z</time>
</trkpt>
<trkpt lat="39.8218351" lon="2.8843932">
<ele>485.87</ele>
<time>2016-10-16T10:25:07Z</time>
</trkpt>
<trkpt lat="39.8220242" lon="2.8843162">
<ele>485.63</ele>
<time>2016-10-16T10:25:14Z</time>
</trkpt>
<trkpt lat="39.8221810" lon="2.8840981">
<ele>481.45</ele>
<time>2016-10-16T10:26:47Z</time>
</trkpt>
<trkpt lat="39.8220294" lon="2.8842399">
<ele>509.78</ele>
<time>2016-10-16T11:21:46Z</time>
</trkpt>
<trkpt lat="39.8222112" lon="2.8842026">
<ele>502.35</ele>
<time>2016-10-16T11:27:02Z</time>
</trkpt>
<trkpt lat="39.8224032" lon="2.8841677">
<ele>492.54</ele>
<time>2016-10-16T11:28:49Z</time>
</trkpt>
<trkpt lat="39.8222241" lon="2.8842512">
<ele>496.26</ele>
<time>2016-10-16T11:29:52Z</time>
</trkpt>
<trkpt lat="39.8220936" lon="2.8844198">
<ele>478.90</ele>
<time>2016-10-16T11:38:41Z</time>
</trkpt>
<trkpt lat="39.8219017" lon="2.8844567">
<ele>478.41</ele>
<time>2016-10-16T11:38:49Z</time>
</trkpt>
<trkpt lat="39.8217270" lon="2.8845601">
<ele>478.08</ele>
<time>2016-10-16T11:38:56Z</time>
</trkpt>
<trkpt lat="39.8215761" lon="2.8847066">
<ele>478.13</ele>
<time>2016-10-16T11:39:03Z</time>
</trkpt>
<trkpt lat="39.8213954" lon="2.8847364">
<ele>478.81</ele>
<time>2016-10-16T11:39:12Z</time>
</trkpt>
<trkpt lat="39.8212305" lon="2.8848679">
<ele>479.52</ele>
<time>2016-10-16T11:39:19Z</time>
</trkpt>
<trkpt lat="39.8210978" lon="2.8850582">
<ele>479.92</ele>
<time>2016-10-16T11:39:27Z</time>
</trkpt>
<trkpt lat="39.8210327" lon="2.8853099">
<ele>480.52</ele>
<time>2016-10-16T11:39:34Z</time>
</trkpt>
<trkpt lat="39.8210472" lon="2.8855505">
<ele>480.79</ele>
<time>2016-10-16T11:39:40Z</time>
</trkpt>
<trkpt lat="39.8211294" lon="2.8857686">
<ele>481.18</ele>
<time>2016-10-16T11:39:45Z</time>
</trkpt>
<trkpt lat="39.8212275" lon="2.8859933">
<ele>480.67</ele>
<time>2016-10-16T11:39:50Z</time>
</trkpt>
<trkpt lat="39.8213408" lon="2.8862151">
<ele>479.40</ele>
<time>2016-10-16T11:39:55Z</time>
</trkpt>
<trkpt lat="39.8214580" lon="2.8864495">
<ele>479.20</ele>
<time>2016-10-16T11:39:59Z</time>
</trkpt>
<trkpt lat="39.8215657" lon="2.8866855">
<ele>479.41</ele>
<time>2016-10-16T11:40:03Z</time>
</trkpt>
<trkpt lat="39.8216855" lon="2.8869198">
<ele>480.51</ele>
<time>2016-10-16T11:40:07Z</time>
</trkpt>
<trkpt lat="39.8218080" lon="2.8871463">
<ele>479.98</ele>
<time>2016-10-16T11:40:11Z</time>
</trkpt>
<trkpt lat="39.8219032" lon="2.8873803">
<ele>478.74</ele>
<time>2016-10-16T11:40:15Z</time>
</trkpt>
<trkpt lat="39.8219690" lon="2.8876224">
<ele>476.39</ele>
<time>2016-10-16T11:40:19Z</time>
</trkpt>
<trkpt lat="39.8219794" lon="2.8878628">
<ele>476.99</ele>
<time>2016-10-16T11:40:23Z</time>
</trkpt>
<trkpt lat="39.8219734" lon="2.8881151">
<ele>478.78</ele>
<time>2016-10-16T11:40:28Z</time>
</trkpt>
<trkpt lat="39.8219439" lon="2.8883803">
<ele>481.04</ele>
<time>2016-10-16T11:40:33Z</time>
</trkpt>
<trkpt lat="39.8219217" lon="2.8886149">
<ele>481.33</ele>
<time>2016-10-16T11:40:38Z</time>
</trkpt>
<trkpt lat="39.8219059" lon="2.8888639">
<ele>482.28</ele>
<time>2016-10-16T11:40:44Z</time>
</trkpt>
<trkpt lat="39.8218776" lon="2.8890954">
<ele>483.01</ele>
<time>2016-10-16T11:40:49Z</time>
</trkpt>
<trkpt lat="39.8218186" lon="2.8893534">
<ele>484.37</ele>
<time>2016-10-16T11:40:56Z</time>
</trkpt>
<trkpt lat="39.8217514" lon="2.8895844">
<ele>485.39</ele>
<time>2016-10-16T11:41:02Z</time>
</trkpt>
<trkpt lat="39.8217113" lon="2.8898356">
<ele>486.49</ele>
<time>2016-10-16T11:41:08Z</time>
</trkpt>
<trkpt lat="39.8216435" lon="2.8900643">
<ele>487.28</ele>
<time>2016-10-16T11:41:14Z</time>
</trkpt>
<trkpt lat="39.8215820" lon="2.8902983">
<ele>488.46</ele>
<time>2016-10-16T11:41:20Z</time>
</trkpt>
<trkpt lat="39.8215025" lon="2.8905165">
<ele>489.07</ele>
<time>2016-10-16T11:41:25Z</time>
</trkpt>
<trkpt lat="39.8214254" lon="2.8907543">
<ele>489.99</ele>
<time>2016-10-16T11:41:31Z</time>
</trkpt>
<trkpt lat="39.8213629" lon="2.8909827">
<ele>490.82</ele>
<time>2016-10-16T11:41:37Z</time>
</trkpt>
<trkpt lat="39.8212977" lon="2.8912409">
<ele>491.62</ele>
<time>2016-10-16T11:41:43Z</time>
</trkpt>
<trkpt lat="39.8212068" lon="2.8914734">
<ele>492.18</ele>
<time>2016-10-16T11:41:49Z</time>
</trkpt>
<trkpt lat="39.8211309" lon="2.8917080">
<ele>492.86</ele>
<time>2016-10-16T11:41:55Z</time>
</trkpt>
<trkpt lat="39.8210504" lon="2.8919257">
<ele>494.03</ele>
<time>2016-10-16T11:42:02Z</time>
</trkpt>
<trkpt lat="39.8209713" lon="2.8921696">
<ele>495.46</ele>
<time>2016-10-16T11:42:10Z</time>
</trkpt>
<trkpt lat="39.8208877" lon="2.8924120">
<ele>496.20</ele>
<time>2016-10-16T11:42:16Z</time>
</trkpt>
<trkpt lat="39.8208277" lon="2.8926655">
<ele>496.79</ele>
<time>2016-10-16T11:42:23Z</time>
</trkpt>
<trkpt lat="39.8208009" lon="2.8929120">
<ele>498.20</ele>
<time>2016-10-16T11:42:28Z</time>
</trkpt>
<trkpt lat="39.8207365" lon="2.8931741">
<ele>500.20</ele>
<time>2016-10-16T11:42:33Z</time>
</trkpt>
<trkpt lat="39.8206803" lon="2.8934136">
<ele>500.52</ele>
<time>2016-10-16T11:42:38Z</time>
</trkpt>
<trkpt lat="39.8206192" lon="2.8936564">
<ele>501.58</ele>
<time>2016-10-16T11:42:43Z</time>
</trkpt>
<trkpt lat="39.8206068" lon="2.8939068">
<ele>505.04</ele>
<time>2016-10-16T11:42:48Z</time>
</trkpt>
<trkpt lat="39.8206298" lon="2.8941595">
<ele>507.34</ele>
<time>2016-10-16T11:42:53Z</time>
</trkpt>
<trkpt lat="39.8207020" lon="2.8943935">
<ele>507.30</ele>
<time>2016-10-16T11:42:59Z</time>
</trkpt>
<trkpt lat="39.8208076" lon="2.8946017">
<ele>507.08</ele>
<time>2016-10-16T11:43:05Z</time>
</trkpt>
<trkpt lat="39.8209392" lon="2.8947825">
<ele>506.81</ele>
<time>2016-10-16T11:43:11Z</time>
</trkpt>
<trkpt lat="39.8210712" lon="2.8949695">
<ele>506.62</ele>
<time>2016-10-16T11:43:18Z</time>
</trkpt>
<trkpt lat="39.8212035" lon="2.8951673">
<ele>506.41</ele>
<time>2016-10-16T11:43:24Z</time>
</trkpt>
<trkpt lat="39.8213336" lon="2.8953630">
<ele>506.62</ele>
<time>2016-10-16T11:43:31Z</time>
</trkpt>
<trkpt lat="39.8214778" lon="2.8955518">
<ele>506.96</ele>
<time>2016-10-16T11:43:38Z</time>
</trkpt>
<trkpt lat="39.8216264" lon="2.8956910">
<ele>507.47</ele>
<time>2016-10-16T11:43:45Z</time>
</trkpt>
<trkpt lat="39.8217695" lon="2.8958775">
<ele>508.22</ele>
<time>2016-10-16T11:43:52Z</time>
</trkpt>
<trkpt lat="39.8219256" lon="2.8960145">
<ele>508.90</ele>
<time>2016-10-16T11:43:58Z</time>
</trkpt>
<trkpt lat="39.8220770" lon="2.8962191">
<ele>509.87</ele>
<time>2016-10-16T11:44:04Z</time>
</trkpt>
<trkpt lat="39.8222107" lon="2.8964100">
<ele>511.01</ele>
<time>2016-10-16T11:44:10Z</time>
</trkpt>
<trkpt lat="39.8223367" lon="2.8965821">
<ele>511.95</ele>
<time>2016-10-16T11:44:15Z</time>
</trkpt>
<trkpt lat="39.8224625" lon="2.8967506">
<ele>512.88</ele>
<time>2016-10-16T11:44:21Z</time>
</trkpt>
<trkpt lat="39.8225952" lon="2.8969408">
<ele>513.75</ele>
<time>2016-10-16T11:44:26Z</time>
</trkpt>
<trkpt lat="39.8227203" lon="2.8971151">
<ele>514.77</ele>
<time>2016-10-16T11:44:31Z</time>
</trkpt>
<trkpt lat="39.8228758" lon="2.8972996">
<ele>516.02</ele>
<time>2016-10-16T11:44:37Z</time>
</trkpt>
<trkpt lat="39.8229942" lon="2.8974888">
<ele>518.57</ele>
<time>2016-10-16T11:44:42Z</time>
</trkpt>
<trkpt lat="39.8231303" lon="2.8976494">
<ele>520.01</ele>
<time>2016-10-16T11:44:48Z</time>
</trkpt>
<trkpt lat="39.8232682" lon="2.8978038">
<ele>520.77</ele>
<time>2016-10-16T11:44:53Z</time>
</trkpt>
<trkpt lat="39.8234148" lon="2.8979649">
<ele>521.40</ele>
<time>2016-10-16T11:44:59Z</time>
</trkpt>
<trkpt lat="39.8235477" lon="2.8981537">
<ele>522.29</ele>
<time>2016-10-16T11:45:05Z</time>
</trkpt>
<trkpt lat="39.8236995" lon="2.8983401">
<ele>522.99</ele>
<time>2016-10-16T11:45:11Z</time>
</trkpt>
<trkpt lat="39.8238533" lon="2.8985023">
<ele>523.43</ele>
<time>2016-10-16T11:45:16Z</time>
</trkpt>
<trkpt lat="39.8239953" lon="2.8986591">
<ele>523.67</ele>
<time>2016-10-16T11:45:22Z</time>
</trkpt>
<trkpt lat="39.8241543" lon="2.8988245">
<ele>523.92</ele>
<time>2016-10-16T11:45:27Z</time>
</trkpt>
<trkpt lat="39.8243010" lon="2.8989655">
<ele>524.70</ele>
<time>2016-10-16T11:45:33Z</time>
</trkpt>
<trkpt lat="39.8244514" lon="2.8991112">
<ele>525.39</ele>
<time>2016-10-16T11:45:39Z</time>
</trkpt>
<trkpt lat="39.8245992" lon="2.8992492">
<ele>525.53</ele>
<time>2016-10-16T11:45:44Z</time>
</trkpt>
<trkpt lat="39.8247551" lon="2.8993732">
<ele>525.78</ele>
<time>2016-10-16T11:45:49Z</time>
</trkpt>
<trkpt lat="39.8249209" lon="2.8994807">
<ele>525.98</ele>
<time>2016-10-16T11:45:55Z</time>
</trkpt>
<trkpt lat="39.8250944" lon="2.8995853">
<ele>526.73</ele>
<time>2016-10-16T11:46:01Z</time>
</trkpt>
<trkpt lat="39.8252617" lon="2.8997319">
<ele>527.88</ele>
<time>2016-10-16T11:46:07Z</time>
</trkpt>
<trkpt lat="39.8254618" lon="2.8998180">
<ele>529.12</ele>
<time>2016-10-16T11:46:13Z</time>
</trkpt>
<trkpt lat="39.8256549" lon="2.8999387">
<ele>530.30</ele>
<time>2016-10-16T11:46:19Z</time>
</trkpt>
<trkpt lat="39.8258349" lon="2.8999958">
<ele>531.29</ele>
<time>2016-10-16T11:46:25Z</time>
</trkpt>
<trkpt lat="39.8260394" lon="2.8999821">
<ele>533.32</ele>
<time>2016-10-16T11:46:32Z</time>
</trkpt>
<trkpt lat="39.8262266" lon="2.8999759">
<ele>535.41</ele>
<time>2016-10-16T11:46:38Z</time>
</trkpt>
<trkpt lat="39.8264168" lon="2.8999272">
<ele>540.12</ele>
<time>2016-10-16T11:46:43Z</time>
</trkpt>
<trkpt lat="39.8265988" lon="2.8998917">
<ele>541.43</ele>
<time>2016-10-16T11:46:49Z</time>
</trkpt>
<trkpt lat="39.8267963" lon="2.8998559">
<ele>543.16</ele>
<time>2016-10-16T11:46:56Z</time>
</trkpt>
<trkpt lat="39.8269720" lon="2.8997307">
<ele>544.24</ele>
<time>2016-10-16T11:47:04Z</time>
</trkpt>
<trkpt lat="39.8270509" lon="2.8995108">
<ele>544.99</ele>
<time>2016-10-16T11:47:10Z</time>
</trkpt>
<trkpt lat="39.8271348" lon="2.8992714">
<ele>545.42</ele>
<time>2016-10-16T11:47:17Z</time>
</trkpt>
<trkpt lat="39.8272090" lon="2.8990279">
<ele>545.95</ele>
<time>2016-10-16T11:47:24Z</time>
</trkpt>
<trkpt lat="39.8272948" lon="2.8987908">
<ele>547.38</ele>
<time>2016-10-16T11:47:30Z</time>
</trkpt>
<trkpt lat="39.8274000" lon="2.8985961">
<ele>549.57</ele>
<time>2016-10-16T11:47:36Z</time>
</trkpt>
<trkpt lat="39.8275061" lon="2.8983650">
<ele>551.57</ele>
<time>2016-10-16T11:47:43Z</time>
</trkpt>
<trkpt lat="39.8276552" lon="2.8981929">
<ele>552.81</ele>
<time>2016-10-16T11:47:50Z</time>
</trkpt>
<trkpt lat="39.8278348" lon="2.8981406">
<ele>553.59</ele>
<time>2016-10-16T11:47:56Z</time>
</trkpt>
<trkpt lat="39.8280161" lon="2.8981340">
<ele>553.99</ele>
<time>2016-10-16T11:48:00Z</time>
</trkpt>
<trkpt lat="39.8282346" lon="2.8981796">
<ele>553.99</ele>
<time>2016-10-16T11:48:05Z</time>
</trkpt>
<trkpt lat="39.8284418" lon="2.8982270">
<ele>553.51</ele>
<time>2016-10-16T11:48:10Z</time>
</trkpt>
<trkpt lat="39.8286240" lon="2.8982755">
<ele>552.84</ele>
<time>2016-10-16T11:48:16Z</time>
</trkpt>
<trkpt lat="39.8288204" lon="2.8983247">
<ele>551.86</ele>
<time>2016-10-16T11:48:23Z</time>
</trkpt>
<trkpt lat="39.8290125" lon="2.8982942">
<ele>551.19</ele>
<time>2016-10-16T11:48:31Z</time>
</trkpt>
<trkpt lat="39.8291673" lon="2.8981232">
<ele>550.83</ele>
<time>2016-10-16T11:48:38Z</time>
</trkpt>
<trkpt lat="39.8292887" lon="2.8979484">
<ele>550.85</ele>
<time>2016-10-16T11:48:44Z</time>
</trkpt>
<trkpt lat="39.8294029" lon="2.8977414">
<ele>550.79</ele>
<time>2016-10-16T11:48:50Z</time>
</trkpt>
<trkpt lat="39.8294927" lon="2.8974884">
<ele>551.70</ele>
<time>2016-10-16T11:48:56Z</time>
</trkpt>
<trkpt lat="39.8295980" lon="2.8972448">
<ele>557.13</ele>
<time>2016-10-16T11:49:02Z</time>
</trkpt>
<trkpt lat="39.8296994" lon="2.8970029">
<ele>563.80</ele>
<time>2016-10-16T11:49:08Z</time>
</trkpt>
<trkpt lat="39.8298010" lon="2.8968061">
<ele>566.73</ele>
<time>2016-10-16T11:49:13Z</time>
</trkpt>
<trkpt lat="39.8299117" lon="2.8965849">
<ele>570.34</ele>
<time>2016-10-16T11:49:19Z</time>
</trkpt>
<trkpt lat="39.8300172" lon="2.8963641">
<ele>573.09</ele>
<time>2016-10-16T11:49:24Z</time>
</trkpt>
<trkpt lat="39.8301475" lon="2.8961685">
<ele>574.60</ele>
<time>2016-10-16T11:49:29Z</time>
</trkpt>
<trkpt lat="39.8302986" lon="2.8960363">
<ele>574.57</ele>
<time>2016-10-16T11:49:34Z</time>
</trkpt>
<trkpt lat="39.8305183" lon="2.8959504">
<ele>573.44</ele>
<time>2016-10-16T11:49:39Z</time>
</trkpt>
<trkpt lat="39.8307067" lon="2.8958921">
<ele>573.20</ele>
<time>2016-10-16T11:49:43Z</time>
</trkpt>
<trkpt lat="39.8309046" lon="2.8958586">
<ele>572.82</ele>
<time>2016-10-16T11:49:47Z</time>
</trkpt>
<trkpt lat="39.8311163" lon="2.8958323">
<ele>568.97</ele>
<time>2016-10-16T11:49:52Z</time>
</trkpt>
<trkpt lat="39.8313297" lon="2.8958128">
<ele>567.69</ele>
<time>2016-10-16T11:49:58Z</time>
</trkpt>
<trkpt lat="39.8315176" lon="2.8958137">
<ele>566.89</ele>
<time>2016-10-16T11:50:03Z</time>
</trkpt>
<trkpt lat="39.8317097" lon="2.8958271">
<ele>566.00</ele>
<time>2016-10-16T11:50:09Z</time>
</trkpt>
<trkpt lat="39.8319033" lon="2.8958519">
<ele>565.03</ele>
<time>2016-10-16T11:50:16Z</time>
</trkpt>
<trkpt lat="39.8321084" lon="2.8958874">
<ele>560.74</ele>
<time>2016-10-16T11:51:27Z</time>
</trkpt>
<trkpt lat="39.8322864" lon="2.8959269">
<ele>558.20</ele>
<time>2016-10-16T11:51:31Z</time>
</trkpt>
<trkpt lat="39.8325135" lon="2.8959480">
<ele>557.89</ele>
<time>2016-10-16T11:51:35Z</time>
</trkpt>
<trkpt lat="39.8327183" lon="2.8959843">
<ele>556.66</ele>
<time>2016-10-16T11:51:38Z</time>
</trkpt>
<trkpt lat="39.8329650" lon="2.8960333">
<ele>554.72</ele>
<time>2016-10-16T11:51:41Z</time>
</trkpt>
<trkpt lat="39.8331547" lon="2.8960736">
<ele>553.30</ele>
<time>2016-10-16T11:51:43Z</time>
</trkpt>
<trkpt lat="39.8333462" lon="2.8961009">
<ele>552.27</ele>
<time>2016-10-16T11:51:45Z</time>
</trkpt>
<trkpt lat="39.8335510" lon="2.8960975">
<ele>551.66</ele>
<time>2016-10-16T11:51:47Z</time>
</trkpt>
<trkpt lat="39.8337559" lon="2.8960822">
<ele>551.56</ele>
<time>2016-10-16T11:51:49Z</time>
</trkpt>
<trkpt lat="39.8339551" lon="2.8960639">
<ele>551.00</ele>
<time>2016-10-16T11:51:51Z</time>
</trkpt>
<trkpt lat="39.8341549" lon="2.8960480">
<ele>549.96</ele>
<time>2016-10-16T11:51:53Z</time>
</trkpt>
<trkpt lat="39.8343704" lon="2.8960292">
<ele>549.38</ele>
<time>2016-10-16T11:51:55Z</time>
</trkpt>
<trkpt lat="39.8345726" lon="2.8960325">
<ele>548.64</ele>
<time>2016-10-16T11:51:57Z</time>
</trkpt>
<trkpt lat="39.8347603" lon="2.8961128">
<ele>547.06</ele>
<time>2016-10-16T11:51:59Z</time>
</trkpt>
<trkpt lat="39.8349185" lon="2.8962745">
<ele>545.37</ele>
<time>2016-10-16T11:52:01Z</time>
</trkpt>
<trkpt lat="39.8350752" lon="2.8964452">
<ele>543.72</ele>
<time>2016-10-16T11:52:03Z</time>
</trkpt>
<trkpt lat="39.8352326" lon="2.8966150">
<ele>542.89</ele>
<time>2016-10-16T11:52:05Z</time>
</trkpt>
<trkpt lat="39.8354026" lon="2.8967867">
<ele>542.17</ele>
<time>2016-10-16T11:52:07Z</time>
</trkpt>
<trkpt lat="39.8355956" lon="2.8969134">
<ele>541.98</ele>
<time>2016-10-16T11:52:09Z</time>
</trkpt>
<trkpt lat="39.8357991" lon="2.8970077">
<ele>542.05</ele>
<time>2016-10-16T11:52:11Z</time>
</trkpt>
<trkpt lat="39.8360121" lon="2.8970957">
<ele>541.04</ele>
<time>2016-10-16T11:52:13Z</time>
</trkpt>
<trkpt lat="39.8362178" lon="2.8971759">
<ele>539.63</ele>
<time>2016-10-16T11:52:15Z</time>
</trkpt>
<trkpt lat="39.8364181" lon="2.8972513">
<ele>538.11</ele>
<time>2016-10-16T11:52:17Z</time>
</trkpt>
<trkpt lat="39.8366186" lon="2.8973283">
<ele>535.73</ele>
<time>2016-10-16T11:52:19Z</time>
</trkpt>
<trkpt lat="39.8368159" lon="2.8973911">
<ele>533.04</ele>
<time>2016-10-16T11:52:21Z</time>
</trkpt>
<trkpt lat="39.8370022" lon="2.8974335">
<ele>531.14</ele>
<time>2016-10-16T11:52:23Z</time>
</trkpt>
<trkpt lat="39.8371937" lon="2.8974764">
<ele>529.86</ele>
<time>2016-10-16T11:52:25Z</time>
</trkpt>
<trkpt lat="39.8373946" lon="2.8975043">
<ele>528.75</ele>
<time>2016-10-16T11:52:27Z</time>
</trkpt>
<trkpt lat="39.8376058" lon="2.8974704">
<ele>527.97</ele>
<time>2016-10-16T11:52:29Z</time>
</trkpt>
<trkpt lat="39.8378211" lon="2.8974267">
<ele>528.22</ele>
<time>2016-10-16T11:52:31Z</time>
</trkpt>
<trkpt lat="39.8380445" lon="2.8973701">
<ele>528.03</ele>
<time>2016-10-16T11:52:33Z</time>
</trkpt>
<trkpt lat="39.8382905" lon="2.8972946">
<ele>527.29</ele>
<time>2016-10-16T11:52:35Z</time>
</trkpt>
<trkpt lat="39.8385347" lon="2.8972032">
<ele>526.26</ele>
<time>2016-10-16T11:52:37Z</time>
</trkpt>
<trkpt lat="39.8387705" lon="2.8971095">
<ele>525.95</ele>
<time>2016-10-16T11:52:39Z</time>
</trkpt>
<trkpt lat="39.8389940" lon="2.8970378">
<ele>525.76</ele>
<time>2016-10-16T11:52:41Z</time>
</trkpt>
<trkpt lat="39.8392156" lon="2.8969801">
<ele>525.04</ele>
<time>2016-10-16T11:52:43Z</time>
</trkpt>
<trkpt lat="39.8394608" lon="2.8969107">
<ele>524.36</ele>
<time>2016-10-16T11:52:45Z</time>
</trkpt>
<trkpt lat="39.8397058" lon="2.8968404">
<ele>523.52</ele>
<time>2016-10-16T11:52:47Z</time>
</trkpt>
<trkpt lat="39.8399532" lon="2.8967630">
<ele>522.27</ele>
<time>2016-10-16T11:52:49Z</time>
</trkpt>
<trkpt lat="39.8402224" lon="2.8966831">
<ele>520.44</ele>
<time>2016-10-16T11:52:51Z</time>
</trkpt>
<trkpt lat="39.8404815" lon="2.8966025">
<ele>519.73</ele>
<time>2016-10-16T11:52:53Z</time>
</trkpt>
<trkpt lat="39.8407508" lon="2.8965152">
<ele>518.76</ele>
<time>2016-10-16T11:52:55Z</time>
</trkpt>
<trkpt lat="39.8410421" lon="2.8964290">
<ele>516.65</ele>
<time>2016-10-16T11:52:57Z</time>
</trkpt>
<trkpt lat="39.8413252" lon="2.8963513">
<ele>515.01</ele>
<time>2016-10-16T11:52:59Z</time>
</trkpt>
<trkpt lat="39.8416087" lon="2.8962751">
<ele>512.64</ele>
<time>2016-10-16T11:53:01Z</time>
</trkpt>
<trkpt lat="39.8418857" lon="2.8962043">
<ele>511.17</ele>
<time>2016-10-16T11:53:03Z</time>
</trkpt>
<trkpt lat="39.8421635" lon="2.8961287">
<ele>510.41</ele>
<time>2016-10-16T11:53:05Z</time>
</trkpt>
<trkpt lat="39.8424044" lon="2.8960644">
<ele>509.81</ele>
<time>2016-10-16T11:53:07Z</time>
</trkpt>
<trkpt lat="39.8425949" lon="2.8960148">
<ele>509.10</ele>
<time>2016-10-16T11:53:09Z</time>
</trkpt>
<trkpt lat="39.8427737" lon="2.8959688">
<ele>508.44</ele>
<time>2016-10-16T11:53:11Z</time>
</trkpt>
<trkpt lat="39.8430252" lon="2.8958902">
<ele>507.40</ele>
<time>2016-10-16T11:53:14Z</time>
</trkpt>
<trkpt lat="39.8432648" lon="2.8958194">
<ele>507.90</ele>
<time>2016-10-16T11:53:17Z</time>
</trkpt>
<trkpt lat="39.8434635" lon="2.8957463">
<ele>508.01</ele>
<time>2016-10-16T11:53:20Z</time>
</trkpt>
<trkpt lat="39.8436439" lon="2.8956864">
<ele>508.52</ele>
<time>2016-10-16T11:53:23Z</time>
</trkpt>
<trkpt lat="39.8438610" lon="2.8956219">
<ele>510.33</ele>
<time>2016-10-16T11:53:27Z</time>
</trkpt>
<trkpt lat="39.8440692" lon="2.8955505">
<ele>513.22</ele>
<time>2016-10-16T11:53:31Z</time>
</trkpt>
<trkpt lat="39.8442850" lon="2.8954872">
<ele>514.66</ele>
<time>2016-10-16T11:53:35Z</time>
</trkpt>
<trkpt lat="39.8444653" lon="2.8954302">
<ele>515.45</ele>
<time>2016-10-16T11:53:38Z</time>
</trkpt>
<trkpt lat="39.8446474" lon="2.8953524">
<ele>517.20</ele>
<time>2016-10-16T11:53:42Z</time>
</trkpt>
<trkpt lat="39.8448312" lon="2.8953151">
<ele>517.98</ele>
<time>2016-10-16T11:53:46Z</time>
</trkpt>
<trkpt lat="39.8450126" lon="2.8952728">
<ele>518.66</ele>
<time>2016-10-16T11:53:50Z</time>
</trkpt>
<trkpt lat="39.8451911" lon="2.8952125">
<ele>520.13</ele>
<time>2016-10-16T11:53:54Z</time>
</trkpt>
<trkpt lat="39.8454000" lon="2.8951434">
<ele>521.62</ele>
<time>2016-10-16T11:53:58Z</time>
</trkpt>
<trkpt lat="39.8456296" lon="2.8950801">
<ele>522.27</ele>
<time>2016-10-16T11:54:02Z</time>
</trkpt>
<trkpt lat="39.8458120" lon="2.8950458">
<ele>521.53</ele>
<time>2016-10-16T11:54:05Z</time>
</trkpt>
<trkpt lat="39.8459979" lon="2.8950373">
<ele>518.56</ele>
<time>2016-10-16T11:54:08Z</time>
</trkpt>
<trkpt lat="39.8461806" lon="2.8950995">
<ele>516.26</ele>
<time>2016-10-16T11:54:11Z</time>
</trkpt>
<trkpt lat="39.8463605" lon="2.8951876">
<ele>514.18</ele>
<time>2016-10-16T11:54:14Z</time>
</trkpt>
<trkpt lat="39.8465497" lon="2.8952976">
<ele>513.27</ele>
<time>2016-10-16T11:54:17Z</time>
</trkpt>
<trkpt lat="39.8467426" lon="2.8954144">
<ele>510.85</ele>
<time>2016-10-16T11:54:20Z</time>
</trkpt>
<trkpt lat="39.8469398" lon="2.8955357">
<ele>508.71</ele>
<time>2016-10-16T11:54:23Z</time>
</trkpt>
<trkpt lat="39.8471302" lon="2.8956682">
<ele>507.55</ele>
<time>2016-10-16T11:54:26Z</time>
</trkpt>
<trkpt lat="39.8472987" lon="2.8957946">
<ele>509.23</ele>
<time>2016-10-16T11:54:29Z</time>
</trkpt>
<trkpt lat="39.8474896" lon="2.8959364">
<ele>512.24</ele>
<time>2016-10-16T11:54:32Z</time>
</trkpt>
<trkpt lat="39.8476976" lon="2.8960927">
<ele>514.01</ele>
<time>2016-10-16T11:54:35Z</time>
</trkpt>
<trkpt lat="39.8479151" lon="2.8962436">
<ele>515.77</ele>
<time>2016-10-16T11:54:38Z</time>
</trkpt>
<trkpt lat="39.8481347" lon="2.8963959">
<ele>517.53</ele>
<time>2016-10-16T11:54:41Z</time>
</trkpt>
<trkpt lat="39.8483822" lon="2.8964918">
<ele>517.65</ele>
<time>2016-10-16T11:54:44Z</time>
</trkpt>
<trkpt lat="39.8486495" lon="2.8965462">
<ele>515.62</ele>
<time>2016-10-16T11:54:47Z</time>
</trkpt>
<trkpt lat="39.8488429" lon="2.8965762">
<ele>513.88</ele>
<time>2016-10-16T11:54:49Z</time>
</trkpt>
<trkpt lat="39.8490327" lon="2.8966058">
<ele>513.22</ele>
<time>2016-10-16T11:54:51Z</time>
</trkpt>
<trkpt lat="39.8492340" lon="2.8966353">
<ele>512.43</ele>
<time>2016-10-16T11:54:53Z</time>
</trkpt>
<trkpt lat="39.8494316" lon="2.8966624">
<ele>510.77</ele>
<time>2016-10-16T11:54:55Z</time>
</trkpt>
<trkpt lat="39.8496342" lon="2.8966904">
<ele>509.07</ele>
<time>2016-10-16T11:54:57Z</time>
</trkpt>
<trkpt lat="39.8498508" lon="2.8967159">
<ele>506.74</ele>
<time>2016-10-16T11:54:59Z</time>
</trkpt>
<trkpt lat="39.8500558" lon="2.8967494">
<ele>505.63</ele>
<time>2016-10-16T11:55:01Z</time>
</trkpt>
<trkpt lat="39.8502396" lon="2.8967768">
<ele>505.25</ele>
<time>2016-10-16T11:55:03Z</time>
</trkpt>
<trkpt lat="39.8504327" lon="2.8968096">
<ele>505.65</ele>
<time>2016-10-16T11:55:05Z</time>
</trkpt>
<trkpt lat="39.8506238" lon="2.8968466">
<ele>505.43</ele>
<time>2016-10-16T11:55:07Z</time>
</trkpt>
<trkpt lat="39.8508779" lon="2.8968962">
<ele>505.02</ele>
<time>2016-10-16T11:55:10Z</time>
</trkpt>
<trkpt lat="39.8511027" lon="2.8969465">
<ele>503.93</ele>
<time>2016-10-16T11:55:13Z</time>
</trkpt>
<trkpt lat="39.8513379" lon="2.8970243">
<ele>504.00</ele>
<time>2016-10-16T11:55:16Z</time>
</trkpt>
<trkpt lat="39.8515815" lon="2.8971038">
<ele>503.41</ele>
<time>2016-10-16T11:55:19Z</time>
</trkpt>
<trkpt lat="39.8518160" lon="2.8971671">
<ele>503.33</ele>
<time>2016-10-16T11:55:22Z</time>
</trkpt>
<trkpt lat="39.8520189" lon="2.8972211">
<ele>504.61</ele>
<time>2016-10-16T11:55:25Z</time>
</trkpt>
<trkpt lat="39.8522089" lon="2.8972900">
<ele>505.48</ele>
<time>2016-10-16T11:55:29Z</time>
</trkpt>
<trkpt lat="39.8523954" lon="2.8973640">
<ele>507.47</ele>
<time>2016-10-16T11:55:34Z</time>
</trkpt>
<trkpt lat="39.8525900" lon="2.8974196">
<ele>508.00</ele>
<time>2016-10-16T11:55:39Z</time>
</trkpt>
<trkpt lat="39.8527703" lon="2.8974823">
<ele>509.03</ele>
<time>2016-10-16T11:55:42Z</time>
</trkpt>
<trkpt lat="39.8529499" lon="2.8975697">
<ele>511.27</ele>
<time>2016-10-16T11:55:46Z</time>
</trkpt>
<trkpt lat="39.8531453" lon="2.8976728">
<ele>512.35</ele>
<time>2016-10-16T11:55:51Z</time>
</trkpt>
<trkpt lat="39.8533434" lon="2.8977851">
<ele>513.57</ele>
<time>2016-10-16T11:55:56Z</time>
</trkpt>
<trkpt lat="39.8535292" lon="2.8978850">
<ele>515.58</ele>
<time>2016-10-16T11:56:01Z</time>
</trkpt>
<trkpt lat="39.8537008" lon="2.8980073">
<ele>517.50</ele>
<time>2016-10-16T11:56:05Z</time>
</trkpt>
<trkpt lat="39.8538475" lon="2.8981567">
<ele>518.19</ele>
<time>2016-10-16T11:56:09Z</time>
</trkpt>
<trkpt lat="39.8539810" lon="2.8983361">
<ele>519.37</ele>
<time>2016-10-16T11:56:13Z</time>
</trkpt>
<trkpt lat="39.8541104" lon="2.8985371">
<ele>519.64</ele>
<time>2016-10-16T11:56:17Z</time>
</trkpt>
<trkpt lat="39.8542521" lon="2.8987672">
<ele>517.58</ele>
<time>2016-10-16T11:56:21Z</time>
</trkpt>
<trkpt lat="39.8543828" lon="2.8990087">
<ele>515.98</ele>
<time>2016-10-16T11:56:26Z</time>
</trkpt>
<trkpt lat="39.8544931" lon="2.8992157">
<ele>518.17</ele>
<time>2016-10-16T11:56:31Z</time>
</trkpt>
<trkpt lat="39.8545970" lon="2.8994249">
<ele>518.90</ele>
<time>2016-10-16T11:56:36Z</time>
</trkpt>
<trkpt lat="39.8547218" lon="2.8996186">
<ele>519.64</ele>
<time>2016-10-16T11:56:42Z</time>
</trkpt>
<trkpt lat="39.8548495" lon="2.8998318">
<ele>520.00</ele>
<time>2016-10-16T11:56:49Z</time>
</trkpt>
<trkpt lat="39.8549726" lon="2.9000214">
<ele>520.11</ele>
<time>2016-10-16T11:56:56Z</time>
</trkpt>
<trkpt lat="39.8550786" lon="2.9002364">
<ele>520.71</ele>
<time>2016-10-16T11:57:03Z</time>
</trkpt>
<trkpt lat="39.8552015" lon="2.9004381">
<ele>521.79</ele>
<time>2016-10-16T11:57:12Z</time>
</trkpt>
<trkpt lat="39.8553065" lon="2.9006455">
<ele>522.99</ele>
<time>2016-10-16T11:57:20Z</time>
</trkpt>
<trkpt lat="39.8554324" lon="2.9008504">
<ele>524.29</ele>
<time>2016-10-16T11:57:28Z</time>
</trkpt>
<trkpt lat="39.8555468" lon="2.9010526">
<ele>526.19</ele>
<time>2016-10-16T11:57:37Z</time>
</trkpt>
<trkpt lat="39.8556677" lon="2.9012525">
<ele>527.91</ele>
<time>2016-10-16T11:57:47Z</time>
</trkpt>
<trkpt lat="39.8557821" lon="2.9014562">
<ele>529.64</ele>
<time>2016-10-16T11:57:55Z</time>
</trkpt>
<trkpt lat="39.8558987" lon="2.9016687">
<ele>530.49</ele>
<time>2016-10-16T11:58:01Z</time>
</trkpt>
<trkpt lat="39.8560239" lon="2.9018630">
<ele>533.75</ele>
<time>2016-10-16T11:58:08Z</time>
</trkpt>
<trkpt lat="39.8561237" lon="2.9020938">
<ele>533.70</ele>
<time>2016-10-16T11:58:47Z</time>
</trkpt>
<trkpt lat="39.8561355" lon="2.9023303">
<ele>534.25</ele>
<time>2016-10-16T11:58:53Z</time>
</trkpt>
<trkpt lat="39.8561353" lon="2.9026044">
<ele>535.36</ele>
<time>2016-10-16T11:59:03Z</time>
</trkpt>
<trkpt lat="39.8561562" lon="2.9028445">
<ele>534.48</ele>
<time>2016-10-16T11:59:08Z</time>
</trkpt>
<trkpt lat="39.8561677" lon="2.9031125">
<ele>532.07</ele>
<time>2016-10-16T11:59:12Z</time>
</trkpt>
<trkpt lat="39.8561685" lon="2.9034210">
<ele>529.10</ele>
<time>2016-10-16T11:59:16Z</time>
</trkpt>
<trkpt lat="39.8561230" lon="2.9037126">
<ele>527.26</ele>
<time>2016-10-16T11:59:20Z</time>
</trkpt>
<trkpt lat="39.8560258" lon="2.9039546">
<ele>527.17</ele>
<time>2016-10-16T11:59:23Z</time>
</trkpt>
<trkpt lat="39.8558453" lon="2.9041749">
<ele>525.90</ele>
<time>2016-10-16T11:59:26Z</time>
</trkpt>
<trkpt lat="39.8556010" lon="2.9042698">
<ele>523.25</ele>
<time>2016-10-16T11:59:29Z</time>
</trkpt>
<trkpt lat="39.8553994" lon="2.9042783">
<ele>520.25</ele>
<time>2016-10-16T11:59:32Z</time>
</trkpt>
<trkpt lat="39.8551563" lon="2.9042978">
<ele>515.54</ele>
<time>2016-10-16T11:59:35Z</time>
</trkpt>
<trkpt lat="39.8549595" lon="2.9044478">
<ele>512.13</ele>
<time>2016-10-16T11:59:38Z</time>
</trkpt>
<trkpt lat="39.8548117" lon="2.9046386">
<ele>510.49</ele>
<time>2016-10-16T11:59:41Z</time>
</trkpt>
<trkpt lat="39.8546526" lon="2.9048372">
<ele>508.83</ele>
<time>2016-10-16T11:59:44Z</time>
</trkpt>
<trkpt lat="39.8545344" lon="2.9050377">
<ele>508.54</ele>
<time>2016-10-16T11:59:47Z</time>
</trkpt>
<trkpt lat="39.8544853" lon="2.9052938">
<ele>508.00</ele>
<time>2016-10-16T11:59:50Z</time>
</trkpt>
<trkpt lat="39.8544691" lon="2.9055810">
<ele>506.80</ele>
<time>2016-10-16T11:59:53Z</time>
</trkpt>
<trkpt lat="39.8544483" lon="2.9058696">
<ele>505.22</ele>
<time>2016-10-16T11:59:56Z</time>
</trkpt>
<trkpt lat="39.8543412" lon="2.9061318">
<ele>504.85</ele>
<time>2016-10-16T11:59:59Z</time>
</trkpt>
<trkpt lat="39.8541898" lon="2.9064176">
<ele>503.79</ele>
<time>2016-10-16T12:00:02Z</time>
</trkpt>
<trkpt lat="39.8540902" lon="2.9066737">
<ele>501.03</ele>
<time>2016-10-16T12:00:05Z</time>
</trkpt>
<trkpt lat="39.8540830" lon="2.9069648">
<ele>499.22</ele>
<time>2016-10-16T12:00:08Z</time>
</trkpt>
<trkpt lat="39.8541505" lon="2.9072555">
<ele>497.98</ele>
<time>2016-10-16T12:00:11Z</time>
</trkpt>
<trkpt lat="39.8542388" lon="2.9075514">
<ele>496.81</ele>
<time>2016-10-16T12:00:14Z</time>
</trkpt>
<trkpt lat="39.8543288" lon="2.9078287">
<ele>495.85</ele>
<time>2016-10-16T12:00:17Z</time>
</trkpt>
<trkpt lat="39.8544964" lon="2.9080690">
<ele>493.07</ele>
<time>2016-10-16T12:00:20Z</time>
</trkpt>
<trkpt lat="39.8547050" lon="2.9082861">
<ele>489.07</ele>
<time>2016-10-16T12:00:23Z</time>
</trkpt>
<trkpt lat="39.8549227" lon="2.9084838">
<ele>486.17</ele>
<time>2016-10-16T12:00:26Z</time>
</trkpt>
<trkpt lat="39.8551485" lon="2.9086739">
<ele>484.59</ele>
<time>2016-10-16T12:00:29Z</time>
</trkpt>
<trkpt lat="39.8553677" lon="2.9088578">
<ele>483.73</ele>
<time>2016-10-16T12:00:32Z</time>
</trkpt>
<trkpt lat="39.8555856" lon="2.9090525">
<ele>483.58</ele>
<time>2016-10-16T12:00:35Z</time>
</trkpt>
<trkpt lat="39.8557789" lon="2.9092242">
<ele>484.43</ele>
<time>2016-10-16T12:00:38Z</time>
</trkpt>
<trkpt lat="39.8559347" lon="2.9093603">
<ele>485.85</ele>
<time>2016-10-16T12:00:41Z</time>
</trkpt>
<trkpt lat="39.8560994" lon="2.9095511">
<ele>487.35</ele>
<time>2016-10-16T12:00:45Z</time>
</trkpt>
<trkpt lat="39.8562612" lon="2.9097633">
<ele>484.59</ele>
<time>2016-10-16T12:00:49Z</time>
</trkpt>
<trkpt lat="39.8564255" lon="2.9099569">
<ele>482.58</ele>
<time>2016-10-16T12:00:53Z</time>
</trkpt>
<trkpt lat="39.8565658" lon="2.9101046">
<ele>481.25</ele>
<time>2016-10-16T12:00:56Z</time>
</trkpt>
<trkpt lat="39.8567162" lon="2.9102439">
<ele>480.25</ele>
<time>2016-10-16T12:00:59Z</time>
</trkpt>
<trkpt lat="39.8568831" lon="2.9103802">
<ele>478.14</ele>
<time>2016-10-16T12:01:02Z</time>
</trkpt>
<trkpt lat="39.8570759" lon="2.9104685">
<ele>475.29</ele>
<time>2016-10-16T12:01:05Z</time>
</trkpt>
<trkpt lat="39.8572838" lon="2.9105405">
<ele>472.48</ele>
<time>2016-10-16T12:01:08Z</time>
</trkpt>
<trkpt lat="39.8574957" lon="2.9105960">
<ele>470.46</ele>
<time>2016-10-16T12:01:11Z</time>
</trkpt>
<trkpt lat="39.8577083" lon="2.9106354">
<ele>468.08</ele>
<time>2016-10-16T12:01:14Z</time>
</trkpt>
<trkpt lat="39.8579329" lon="2.9106568">
<ele>467.29</ele>
<time>2016-10-16T12:01:17Z</time>
</trkpt>
<trkpt lat="39.8581582" lon="2.9106520">
<ele>466.54</ele>
<time>2016-10-16T12:01:20Z</time>
</trkpt>
<trkpt lat="39.8583562" lon="2.9107130">
<ele>464.82</ele>
<time>2016-10-16T12:01:23Z</time>
</trkpt>
<trkpt lat="39.8584559" lon="2.9109228">
<ele>462.31</ele>
<time>2016-10-16T12:01:26Z</time>
</trkpt>
<trkpt lat="39.8583567" lon="2.9111378">
<ele>460.56</ele>
<time>2016-10-16T12:01:29Z</time>
</trkpt>
<trkpt lat="39.8581762" lon="2.9113429">
<ele>459.17</ele>
<time>2016-10-16T12:01:32Z</time>
</trkpt>
<trkpt lat="39.8580241" lon="2.9115061">
<ele>458.54</ele>
<time>2016-10-16T12:01:34Z</time>
</trkpt>
<trkpt lat="39.8578040" lon="2.9117403">
<ele>456.73</ele>
<time>2016-10-16T12:01:37Z</time>
</trkpt>
<trkpt lat="39.8576264" lon="2.9119217">
<ele>454.56</ele>
<time>2016-10-16T12:01:39Z</time>
</trkpt>
<trkpt lat="39.8574281" lon="2.9121115">
<ele>451.91</ele>
<time>2016-10-16T12:01:41Z</time>
</trkpt>
<trkpt lat="39.8572277" lon="2.9122949">
<ele>450.12</ele>
<time>2016-10-16T12:01:43Z</time>
</trkpt>
<trkpt lat="39.8570455" lon="2.9124817">
<ele>449.13</ele>
<time>2016-10-16T12:01:45Z</time>
</trkpt>
<trkpt lat="39.8568846" lon="2.9126848">
<ele>448.23</ele>
<time>2016-10-16T12:01:47Z</time>
</trkpt>
<trkpt lat="39.8567575" lon="2.9128999">
<ele>447.16</ele>
<time>2016-10-16T12:01:49Z</time>
</trkpt>
<trkpt lat="39.8566471" lon="2.9132120">
<ele>445.80</ele>
<time>2016-10-16T12:01:52Z</time>
</trkpt>
<trkpt lat="39.8567005" lon="2.9135462">
<ele>444.03</ele>
<time>2016-10-16T12:01:55Z</time>
</trkpt>
<trkpt lat="39.8568260" lon="2.9137443">
<ele>444.48</ele>
<time>2016-10-16T12:01:57Z</time>
</trkpt>
<trkpt lat="39.8569478" lon="2.9139501">
<ele>445.00</ele>
<time>2016-10-16T12:01:59Z</time>
</trkpt>
<trkpt lat="39.8570608" lon="2.9141353">
<ele>445.26</ele>
<time>2016-10-16T12:02:01Z</time>
</trkpt>
<trkpt lat="39.8572251" lon="2.9142347">
<ele>444.68</ele>
<time>2016-10-16T12:02:03Z</time>
</trkpt>
<trkpt lat="39.8574774" lon="2.9142769">
<ele>443.54</ele>
<time>2016-10-16T12:02:06Z</time>
</trkpt>
<trkpt lat="39.8577405" lon="2.9142741">
<ele>443.27</ele>
<time>2016-10-16T12:02:09Z</time>
</trkpt>
<trkpt lat="39.8579243" lon="2.9142607">
<ele>442.47</ele>
<time>2016-10-16T12:02:11Z</time>
</trkpt>
<trkpt lat="39.8581182" lon="2.9142825">
<ele>440.54</ele>
<time>2016-10-16T12:02:13Z</time>
</trkpt>
<trkpt lat="39.8582988" lon="2.9143340">
<ele>438.35</ele>
<time>2016-10-16T12:02:15Z</time>
</trkpt>
<trkpt lat="39.8584745" lon="2.9144138">
<ele>436.15</ele>
<time>2016-10-16T12:02:17Z</time>
</trkpt>
<trkpt lat="39.8586541" lon="2.9145101">
<ele>433.40</ele>
<time>2016-10-16T12:02:19Z</time>
</trkpt>
<trkpt lat="39.8588462" lon="2.9146163">
<ele>431.33</ele>
<time>2016-10-16T12:02:21Z</time>
</trkpt>
<trkpt lat="39.8590119" lon="2.9147819">
<ele>430.22</ele>
<time>2016-10-16T12:02:23Z</time>
</trkpt>
<trkpt lat="39.8591608" lon="2.9149475">
<ele>429.44</ele>
<time>2016-10-16T12:02:25Z</time>
</trkpt>
<trkpt lat="39.8592903" lon="2.9151142">
<ele>429.83</ele>
<time>2016-10-16T12:02:27Z</time>
</trkpt>
<trkpt lat="39.8594244" lon="2.9153950">
<ele>430.29</ele>
<time>2016-10-16T12:02:30Z</time>
</trkpt>
<trkpt lat="39.8595981" lon="2.9156067">
<ele>429.29</ele>
<time>2016-10-16T12:02:33Z</time>
</trkpt>
<trkpt lat="39.8598400" lon="2.9156094">
<ele>427.64</ele>
<time>2016-10-16T12:02:36Z</time>
</trkpt>
<trkpt lat="39.8600949" lon="2.9156311">
<ele>427.11</ele>
<time>2016-10-16T12:02:39Z</time>
</trkpt>
<trkpt lat="39.8602797" lon="2.9157050">
<ele>426.80</ele>
<time>2016-10-16T12:02:41Z</time>
</trkpt>
<trkpt lat="39.8604517" lon="2.9157950">
<ele>426.36</ele>
<time>2016-10-16T12:02:43Z</time>
</trkpt>
<trkpt lat="39.8606321" lon="2.9159014">
<ele>425.24</ele>
<time>2016-10-16T12:02:45Z</time>
</trkpt>
<trkpt lat="39.8608231" lon="2.9160392">
<ele>423.86</ele>
<time>2016-10-16T12:02:47Z</time>
</trkpt>
<trkpt lat="39.8609675" lon="2.9162529">
<ele>422.82</ele>
<time>2016-10-16T12:02:49Z</time>
</trkpt>
<trkpt lat="39.8610801" lon="2.9164508">
<ele>421.45</ele>
<time>2016-10-16T12:02:51Z</time>
</trkpt>
<trkpt lat="39.8612505" lon="2.9166471">
<ele>418.93</ele>
<time>2016-10-16T12:02:54Z</time>
</trkpt>
<trkpt lat="39.8614999" lon="2.9166767">
<ele>418.10</ele>
<time>2016-10-16T12:02:57Z</time>
</trkpt>
<trkpt lat="39.8616870" lon="2.9166610">
<ele>419.47</ele>
<time>2016-10-16T12:02:59Z</time>
</trkpt>
<trkpt lat="39.8618803" lon="2.9166339">
<ele>420.24</ele>
<time>2016-10-16T12:03:01Z</time>
</trkpt>
<trkpt lat="39.8620835" lon="2.9165823">
<ele>420.73</ele>
<time>2016-10-16T12:03:03Z</time>
</trkpt>
<trkpt lat="39.8623411" lon="2.9165455">
<ele>419.38</ele>
<time>2016-10-16T12:03:06Z</time>
</trkpt>
<trkpt lat="39.8625876" lon="2.9165517">
<ele>416.98</ele>
<time>2016-10-16T12:03:09Z</time>
</trkpt>
<trkpt lat="39.8628320" lon="2.9166757">
<ele>414.10</ele>
<time>2016-10-16T12:03:12Z</time>
</trkpt>
<trkpt lat="39.8629748" lon="2.9168436">
<ele>412.19</ele>
<time>2016-10-16T12:03:14Z</time>
</trkpt>
<trkpt lat="39.8630832" lon="2.9170691">
<ele>410.83</ele>
<time>2016-10-16T12:03:16Z</time>
</trkpt>
<trkpt lat="39.8632074" lon="2.9172710">
<ele>409.48</ele>
<time>2016-10-16T12:03:18Z</time>
</trkpt>
<trkpt lat="39.8633820" lon="2.9173984">
<ele>407.93</ele>
<time>2016-10-16T12:03:20Z</time>
</trkpt>
<trkpt lat="39.8635779" lon="2.9174969">
<ele>407.80</ele>
<time>2016-10-16T12:03:22Z</time>
</trkpt>
<trkpt lat="39.8637758" lon="2.9175787">
<ele>407.10</ele>
<time>2016-10-16T12:03:24Z</time>
</trkpt>
<trkpt lat="39.8639728" lon="2.9176661">
<ele>405.57</ele>
<time>2016-10-16T12:03:26Z</time>
</trkpt>
<trkpt lat="39.8641239" lon="2.9178085">
<ele>404.23</ele>
<time>2016-10-16T12:03:28Z</time>
</trkpt>
<trkpt lat="39.8642283" lon="2.9180073">
<ele>402.93</ele>
<time>2016-10-16T12:03:30Z</time>
</trkpt>
<trkpt lat="39.8643161" lon="2.9182382">
<ele>401.31</ele>
<time>2016-10-16T12:03:32Z</time>
</trkpt>
<trkpt lat="39.8644026" lon="2.9184871">
<ele>400.17</ele>
<time>2016-10-16T12:03:34Z</time>
</trkpt>
<trkpt lat="39.8644885" lon="2.9187414">
<ele>399.88</ele>
<time>2016-10-16T12:03:36Z</time>
</trkpt>
<trkpt lat="39.8646114" lon="2.9189682">
<ele>399.23</ele>
<time>2016-10-16T12:03:38Z</time>
</trkpt>
<trkpt lat="39.8647807" lon="2.9191994">
<ele>398.13</ele>
<time>2016-10-16T12:03:40Z</time>
</trkpt>
<trkpt lat="39.8649653" lon="2.9194743">
<ele>396.06</ele>
<time>2016-10-16T12:03:42Z</time>
</trkpt>
<trkpt lat="39.8651570" lon="2.9197774">
<ele>394.28</ele>
<time>2016-10-16T12:03:44Z</time>
</trkpt>
<trkpt lat="39.8653265" lon="2.9200634">
<ele>392.70</ele>
<time>2016-10-16T12:03:46Z</time>
</trkpt>
<trkpt lat="39.8654695" lon="2.9203064">
<ele>391.18</ele>
<time>2016-10-16T12:03:48Z</time>
</trkpt>
<trkpt lat="39.8656039" lon="2.9205225">
<ele>390.01</ele>
<time>2016-10-16T12:03:50Z</time>
</trkpt>
<trkpt lat="39.8657271" lon="2.9207179">
<ele>390.04</ele>
<time>2016-10-16T12:03:52Z</time>
</trkpt>
<trkpt lat="39.8658853" lon="2.9209630">
<ele>389.82</ele>
<time>2016-10-16T12:03:55Z</time>
</trkpt>
<trkpt lat="39.8660118" lon="2.9211896">
<ele>390.40</ele>
<time>2016-10-16T12:03:59Z</time>
</trkpt>
<trkpt lat="39.8660423" lon="2.9214655">
<ele>392.54</ele>
<time>2016-10-16T12:04:04Z</time>
</trkpt>
<trkpt lat="39.8660312" lon="2.9217314">
<ele>396.31</ele>
<time>2016-10-16T12:04:09Z</time>
</trkpt>
<trkpt lat="39.8660217" lon="2.9220163">
<ele>402.09</ele>
<time>2016-10-16T12:04:14Z</time>
</trkpt>
<trkpt lat="39.8660182" lon="2.9222667">
<ele>403.28</ele>
<time>2016-10-16T12:04:17Z</time>
</trkpt>
<trkpt lat="39.8660527" lon="2.9225627">
<ele>400.92</ele>
<time>2016-10-16T12:04:20Z</time>
</trkpt>
<trkpt lat="39.8661030" lon="2.9229019">
<ele>398.70</ele>
<time>2016-10-16T12:04:23Z</time>
</trkpt>
<trkpt lat="39.8661418" lon="2.9231330">
<ele>397.49</ele>
<time>2016-10-16T12:04:25Z</time>
</trkpt>
<trkpt lat="39.8661839" lon="2.9233641">
<ele>396.39</ele>
<time>2016-10-16T12:04:27Z</time>
</trkpt>
<trkpt lat="39.8662427" lon="2.9236942">
<ele>396.67</ele>
<time>2016-10-16T12:04:30Z</time>
</trkpt>
<trkpt lat="39.8663024" lon="2.9240063">
<ele>397.42</ele>
<time>2016-10-16T12:04:33Z</time>
</trkpt>
<trkpt lat="39.8663678" lon="2.9242909">
<ele>398.94</ele>
<time>2016-10-16T12:04:36Z</time>
</trkpt>
<trkpt lat="39.8665222" lon="2.9244635">
<ele>400.27</ele>
<time>2016-10-16T12:04:39Z</time>
</trkpt>
<trkpt lat="39.8667184" lon="2.9245296">
<ele>397.40</ele>
<time>2016-10-16T12:04:42Z</time>
</trkpt>
<trkpt lat="39.8669323" lon="2.9245458">
<ele>395.71</ele>
<time>2016-10-16T12:04:45Z</time>
</trkpt>
<trkpt lat="39.8671593" lon="2.9245622">
<ele>394.59</ele>
<time>2016-10-16T12:04:48Z</time>
</trkpt>
<trkpt lat="39.8673895" lon="2.9246109">
<ele>392.11</ele>
<time>2016-10-16T12:04:51Z</time>
</trkpt>
<trkpt lat="39.8676277" lon="2.9246882">
<ele>389.00</ele>
<time>2016-10-16T12:04:54Z</time>
</trkpt>
<trkpt lat="39.8678075" lon="2.9247412">
<ele>386.92</ele>
<time>2016-10-16T12:04:56Z</time>
</trkpt>
<trkpt lat="39.8680657" lon="2.9248154">
<ele>384.11</ele>
<time>2016-10-16T12:04:59Z</time>
</trkpt>
<trkpt lat="39.8683082" lon="2.9248885">
<ele>382.18</ele>
<time>2016-10-16T12:05:02Z</time>
</trkpt>
<trkpt lat="39.8685595" lon="2.9249687">
<ele>381.22</ele>
<time>2016-10-16T12:05:05Z</time>
</trkpt>
<trkpt lat="39.8688307" lon="2.9250426">
<ele>380.33</ele>
<time>2016-10-16T12:05:08Z</time>
</trkpt>
<trkpt lat="39.8690095" lon="2.9251296">
<ele>380.70</ele>
<time>2016-10-16T12:05:10Z</time>
</trkpt>
<trkpt lat="39.8691757" lon="2.9252438">
<ele>379.83</ele>
<time>2016-10-16T12:05:12Z</time>
</trkpt>
<trkpt lat="39.8693605" lon="2.9254869">
<ele>378.41</ele>
<time>2016-10-16T12:05:15Z</time>
</trkpt>
<trkpt lat="39.8694165" lon="2.9258233">
<ele>375.80</ele>
<time>2016-10-16T12:05:19Z</time>
</trkpt>
<trkpt lat="39.8693536" lon="2.9260464">
<ele>374.35</ele>
<time>2016-10-16T12:05:21Z</time>
</trkpt>
<trkpt lat="39.8692641" lon="2.9263688">
<ele>371.82</ele>
<time>2016-10-16T12:05:24Z</time>
</trkpt>
<trkpt lat="39.8691726" lon="2.9265761">
<ele>370.45</ele>
<time>2016-10-16T12:05:26Z</time>
</trkpt>
<trkpt lat="39.8690561" lon="2.9267606">
<ele>369.16</ele>
<time>2016-10-16T12:05:28Z</time>
</trkpt>
<trkpt lat="39.8688944" lon="2.9270168">
<ele>368.18</ele>
<time>2016-10-16T12:05:31Z</time>
</trkpt>
<trkpt lat="39.8687848" lon="2.9273121">
<ele>369.41</ele>
<time>2016-10-16T12:05:34Z</time>
</trkpt>
<trkpt lat="39.8686834" lon="2.9276304">
<ele>368.67</ele>
<time>2016-10-16T12:05:37Z</time>
</trkpt>
<trkpt lat="39.8686229" lon="2.9278809">
<ele>367.73</ele>
<time>2016-10-16T12:05:39Z</time>
</trkpt>
<trkpt lat="39.8685633" lon="2.9281459">
<ele>365.97</ele>
<time>2016-10-16T12:05:41Z</time>
</trkpt>
<trkpt lat="39.8685055" lon="2.9283753">
<ele>365.29</ele>
<time>2016-10-16T12:05:43Z</time>
</trkpt>
<trkpt lat="39.8684218" lon="2.9286084">
<ele>364.86</ele>
<time>2016-10-16T12:05:46Z</time>
</trkpt>
<trkpt lat="39.8681961" lon="2.9287901">
<ele>362.98</ele>
<time>2016-10-16T12:05:49Z</time>
</trkpt>
<trkpt lat="39.8680162" lon="2.9287725">
<ele>362.18</ele>
<time>2016-10-16T12:05:51Z</time>
</trkpt>
<trkpt lat="39.8678963" lon="2.9285802">
<ele>362.32</ele>
<time>2016-10-16T12:05:53Z</time>
</trkpt>
<trkpt lat="39.8678184" lon="2.9283656">
<ele>362.44</ele>
<time>2016-10-16T12:05:55Z</time>
</trkpt>
<trkpt lat="39.8677401" lon="2.9281520">
<ele>362.19</ele>
<time>2016-10-16T12:05:57Z</time>
</trkpt>
<trkpt lat="39.8675952" lon="2.9278671">
<ele>359.24</ele>
<time>2016-10-16T12:06:00Z</time>
</trkpt>
<trkpt lat="39.8673861" lon="2.9277080">
<ele>351.37</ele>
<time>2016-10-16T12:06:03Z</time>
</trkpt>
<trkpt lat="39.8671961" lon="2.9278149">
<ele>342.66</ele>
<time>2016-10-16T12:06:07Z</time>
</trkpt>
<trkpt lat="39.8671211" lon="2.9280510">
<ele>343.12</ele>
<time>2016-10-16T12:06:10Z</time>
</trkpt>
<trkpt lat="39.8670199" lon="2.9283442">
<ele>345.66</ele>
<time>2016-10-16T12:06:13Z</time>
</trkpt>
<trkpt lat="39.8669027" lon="2.9286400">
<ele>345.62</ele>
<time>2016-10-16T12:06:16Z</time>
</trkpt>
<trkpt lat="39.8667823" lon="2.9289515">
<ele>343.89</ele>
<time>2016-10-16T12:06:19Z</time>
</trkpt>
<trkpt lat="39.8666682" lon="2.9292466">
<ele>341.86</ele>
<time>2016-10-16T12:06:22Z</time>
</trkpt>
<trkpt lat="39.8664925" lon="2.9295051">
<ele>340.32</ele>
<time>2016-10-16T12:06:25Z</time>
</trkpt>
<trkpt lat="39.8663052" lon="2.9297082">
<ele>339.64</ele>
<time>2016-10-16T12:06:28Z</time>
</trkpt>
<trkpt lat="39.8661713" lon="2.9299517">
<ele>337.97</ele>
<time>2016-10-16T12:06:31Z</time>
</trkpt>
<trkpt lat="39.8661190" lon="2.9302920">
<ele>338.14</ele>
<time>2016-10-16T12:06:34Z</time>
</trkpt>
<trkpt lat="39.8660805" lon="2.9305292">
<ele>336.96</ele>
<time>2016-10-16T12:06:37Z</time>
</trkpt>
<trkpt lat="39.8660248" lon="2.9307852">
<ele>336.24</ele>
<time>2016-10-16T12:06:42Z</time>
</trkpt>
<trkpt lat="39.8661078" lon="2.9310122">
<ele>336.10</ele>
<time>2016-10-16T12:06:45Z</time>
</trkpt>
<trkpt lat="39.8662973" lon="2.9311766">
<ele>334.43</ele>
<time>2016-10-16T12:06:48Z</time>
</trkpt>
<trkpt lat="39.8665182" lon="2.9312853">
<ele>329.54</ele>
<time>2016-10-16T12:06:51Z</time>
</trkpt>
<trkpt lat="39.8667602" lon="2.9314002">
<ele>326.48</ele>
<time>2016-10-16T12:06:54Z</time>
</trkpt>
<trkpt lat="39.8668997" lon="2.9315640">
<ele>325.35</ele>
<time>2016-10-16T12:06:56Z</time>
</trkpt>
<trkpt lat="39.8669871" lon="2.9317703">
<ele>324.75</ele>
<time>2016-10-16T12:06:58Z</time>
</trkpt>
<trkpt lat="39.8670693" lon="2.9319795">
<ele>323.96</ele>
<time>2016-10-16T12:07:00Z</time>
</trkpt>
<trkpt lat="39.8671928" lon="2.9322838">
<ele>321.64</ele>
<time>2016-10-16T12:07:03Z</time>
</trkpt>
<trkpt lat="39.8673026" lon="2.9325812">
<ele>319.34</ele>
<time>2016-10-16T12:07:06Z</time>
</trkpt>
<trkpt lat="39.8672920" lon="2.9328641">
<ele>316.15</ele>
<time>2016-10-16T12:07:09Z</time>
</trkpt>
<trkpt lat="39.8671516" lon="2.9331165">
<ele>310.82</ele>
<time>2016-10-16T12:07:12Z</time>
</trkpt>
<trkpt lat="39.8669905" lon="2.9333683">
<ele>306.09</ele>
<time>2016-10-16T12:07:15Z</time>
</trkpt>
<trkpt lat="39.8668428" lon="2.9336152">
<ele>305.15</ele>
<time>2016-10-16T12:07:18Z</time>
</trkpt>
<trkpt lat="39.8667706" lon="2.9339195">
<ele>306.33</ele>
<time>2016-10-16T12:07:21Z</time>
</trkpt>
<trkpt lat="39.8667288" lon="2.9341682">
<ele>307.25</ele>
<time>2016-10-16T12:07:24Z</time>
</trkpt>
<trkpt lat="39.8666916" lon="2.9344440">
<ele>307.39</ele>
<time>2016-10-16T12:07:27Z</time>
</trkpt>
<trkpt lat="39.8666665" lon="2.9347780">
<ele>306.17</ele>
<time>2016-10-16T12:07:30Z</time>
</trkpt>
<trkpt lat="39.8666487" lon="2.9350859">
<ele>303.69</ele>
<time>2016-10-16T12:07:33Z</time>
</trkpt>
<trkpt lat="39.8666220" lon="2.9353911">
<ele>301.62</ele>
<time>2016-10-16T12:07:36Z</time>
</trkpt>
<trkpt lat="39.8666275" lon="2.9357091">
<ele>299.02</ele>
<time>2016-10-16T12:07:39Z</time>
</trkpt>
<trkpt lat="39.8666765" lon="2.9360581">
<ele>296.27</ele>
<time>2016-10-16T12:07:42Z</time>
</trkpt>
<trkpt lat="39.8667225" lon="2.9362947">
<ele>293.96</ele>
<time>2016-10-16T12:07:44Z</time>
</trkpt>
<trkpt lat="39.8667642" lon="2.9365368">
<ele>291.79</ele>
<time>2016-10-16T12:07:46Z</time>
</trkpt>
<trkpt lat="39.8668231" lon="2.9368535">
<ele>288.86</ele>
<time>2016-10-16T12:07:49Z</time>
</trkpt>
<trkpt lat="39.8668802" lon="2.9371757">
<ele>288.24</ele>
<time>2016-10-16T12:07:52Z</time>
</trkpt>
<trkpt lat="39.8669361" lon="2.9375086">
<ele>287.73</ele>
<time>2016-10-16T12:07:55Z</time>
</trkpt>
<trkpt lat="39.8669792" lon="2.9377382">
<ele>288.44</ele>
<time>2016-10-16T12:07:57Z</time>
</trkpt>
<trkpt lat="39.8670676" lon="2.9380534">
<ele>288.22</ele>
<time>2016-10-16T12:08:00Z</time>
</trkpt>
<trkpt lat="39.8671750" lon="2.9383543">
<ele>285.68</ele>
<time>2016-10-16T12:08:03Z</time>
</trkpt>
<trkpt lat="39.8672617" lon="2.9386303">
<ele>283.44</ele>
<time>2016-10-16T12:08:06Z</time>
</trkpt>
<trkpt lat="39.8672958" lon="2.9389397">
<ele>282.91</ele>
<time>2016-10-16T12:08:09Z</time>
</trkpt>
<trkpt lat="39.8673363" lon="2.9392264">
<ele>282.63</ele>
<time>2016-10-16T12:08:12Z</time>
</trkpt>
<trkpt lat="39.8674188" lon="2.9394720">
<ele>283.13</ele>
<time>2016-10-16T12:08:15Z</time>
</trkpt>
<trkpt lat="39.8675413" lon="2.9396496">
<ele>283.80</ele>
<time>2016-10-16T12:08:17Z</time>
</trkpt>
<trkpt lat="39.8676462" lon="2.9398430">
<ele>283.39</ele>
<time>2016-10-16T12:08:19Z</time>
</trkpt>
<trkpt lat="39.8677536" lon="2.9400415">
<ele>283.21</ele>
<time>2016-10-16T12:08:21Z</time>
</trkpt>
<trkpt lat="39.8678795" lon="2.9402243">
<ele>281.67</ele>
<time>2016-10-16T12:08:23Z</time>
</trkpt>
<trkpt lat="39.8680565" lon="2.9404501">
<ele>278.09</ele>
<time>2016-10-16T12:08:26Z</time>
</trkpt>
<trkpt lat="39.8682416" lon="2.9406625">
<ele>274.45</ele>
<time>2016-10-16T12:08:29Z</time>
</trkpt>
<trkpt lat="39.8684460" lon="2.9408269">
<ele>272.35</ele>
<time>2016-10-16T12:08:32Z</time>
</trkpt>
<trkpt lat="39.8686417" lon="2.9409665">
<ele>271.04</ele>
<time>2016-10-16T12:08:35Z</time>
</trkpt>
<trkpt lat="39.8688595" lon="2.9410727">
<ele>269.27</ele>
<time>2016-10-16T12:08:38Z</time>
</trkpt>
<trkpt lat="39.8690682" lon="2.9411429">
<ele>267.28</ele>
<time>2016-10-16T12:08:41Z</time>
</trkpt>
<trkpt lat="39.8692474" lon="2.9412382">
<ele>264.34</ele>
<time>2016-10-16T12:08:44Z</time>
</trkpt>
<trkpt lat="39.8693117" lon="2.9414836">
<ele>262.23</ele>
<time>2016-10-16T12:08:47Z</time>
</trkpt>
<trkpt lat="39.8693494" lon="2.9417921">
<ele>260.78</ele>
<time>2016-10-16T12:08:50Z</time>
</trkpt>
<trkpt lat="39.8694307" lon="2.9421135">
<ele>260.05</ele>
<time>2016-10-16T12:08:53Z</time>
</trkpt>
<trkpt lat="39.8694996" lon="2.9423341">
<ele>259.76</ele>
<time>2016-10-16T12:08:55Z</time>
</trkpt>
<trkpt lat="39.8695947" lon="2.9426376">
<ele>258.99</ele>
<time>2016-10-16T12:08:58Z</time>
</trkpt>
<trkpt lat="39.8696868" lon="2.9429018">
<ele>255.32</ele>
<time>2016-10-16T12:09:01Z</time>
</trkpt>
<trkpt lat="39.8697676" lon="2.9431753">
<ele>250.93</ele>
<time>2016-10-16T12:09:04Z</time>
</trkpt>
<trkpt lat="39.8697195" lon="2.9434340">
<ele>249.10</ele>
<time>2016-10-16T12:09:07Z</time>
</trkpt>
<trkpt lat="39.8695360" lon="2.9435546">
<ele>247.61</ele>
<time>2016-10-16T12:09:10Z</time>
</trkpt>
<trkpt lat="39.8693456" lon="2.9434883">
<ele>246.32</ele>
<time>2016-10-16T12:09:13Z</time>
</trkpt>
<trkpt lat="39.8691798" lon="2.9432548">
<ele>244.42</ele>
<time>2016-10-16T12:09:16Z</time>
</trkpt>
<trkpt lat="39.8691038" lon="2.9430403">
<ele>242.51</ele>
<time>2016-10-16T12:09:18Z</time>
</trkpt>
<trkpt lat="39.8690248" lon="2.9427794">
<ele>238.58</ele>
<time>2016-10-16T12:09:20Z</time>
</trkpt>
<trkpt lat="39.8689531" lon="2.9425048">
<ele>234.34</ele>
<time>2016-10-16T12:09:22Z</time>
</trkpt>
<trkpt lat="39.8688933" lon="2.9422657">
<ele>230.72</ele>
<time>2016-10-16T12:09:24Z</time>
</trkpt>
<trkpt lat="39.8688672" lon="2.9419872">
<ele>226.06</ele>
<time>2016-10-16T12:09:27Z</time>
</trkpt>
<trkpt lat="39.8688752" lon="2.9417153">
<ele>221.55</ele>
<time>2016-10-16T12:09:30Z</time>
</trkpt>
<trkpt lat="39.8687368" lon="2.9415009">
<ele>217.16</ele>
<time>2016-10-16T12:09:34Z</time>
</trkpt>
<trkpt lat="39.8685367" lon="2.9414812">
<ele>213.69</ele>
<time>2016-10-16T12:09:37Z</time>
</trkpt>
<trkpt lat="39.8682795" lon="2.9414641">
<ele>213.49</ele>
<time>2016-10-16T12:09:40Z</time>
</trkpt>
<trkpt lat="39.8681014" lon="2.9413907">
<ele>214.26</ele>
<time>2016-10-16T12:09:42Z</time>
</trkpt>
<trkpt lat="39.8678378" lon="2.9412990">
<ele>215.07</ele>
<time>2016-10-16T12:09:45Z</time>
</trkpt>
<trkpt lat="39.8676540" lon="2.9412290">
<ele>214.17</ele>
<time>2016-10-16T12:09:47Z</time>
</trkpt>
<trkpt lat="39.8674100" lon="2.9411305">
<ele>212.47</ele>
<time>2016-10-16T12:09:50Z</time>
</trkpt>
<trkpt lat="39.8671748" lon="2.9410286">
<ele>208.39</ele>
<time>2016-10-16T12:09:53Z</time>
</trkpt>
<trkpt lat="39.8669648" lon="2.9408498">
<ele>205.35</ele>
<time>2016-10-16T12:09:56Z</time>
</trkpt>
<trkpt lat="39.8667803" lon="2.9406270">
<ele>204.18</ele>
<time>2016-10-16T12:09:59Z</time>
</trkpt>
<trkpt lat="39.8666563" lon="2.9404465">
<ele>203.33</ele>
<time>2016-10-16T12:10:01Z</time>
</trkpt>
<trkpt lat="39.8665108" lon="2.9402201">
<ele>201.09</ele>
<time>2016-10-16T12:10:04Z</time>
</trkpt>
<trkpt lat="39.8663532" lon="2.9400048">
<ele>200.25</ele>
<time>2016-10-16T12:10:07Z</time>
</trkpt>
<trkpt lat="39.8662215" lon="2.9397829">
<ele>200.25</ele>
<time>2016-10-16T12:10:10Z</time>
</trkpt>
<trkpt lat="39.8661620" lon="2.9394809">
<ele>202.80</ele>
<time>2016-10-16T12:10:13Z</time>
</trkpt>
<trkpt lat="39.8661456" lon="2.9391632">
<ele>206.32</ele>
<time>2016-10-16T12:10:16Z</time>
</trkpt>
<trkpt lat="39.8660965" lon="2.9389031">
<ele>205.99</ele>
<time>2016-10-16T12:10:18Z</time>
</trkpt>
<trkpt lat="39.8659566" lon="2.9387393">
<ele>202.68</ele>
<time>2016-10-16T12:10:22Z</time>
</trkpt>
<trkpt lat="39.8658016" lon="2.9389086">
<ele>197.63</ele>
<time>2016-10-16T12:10:26Z</time>
</trkpt>
<trkpt lat="39.8658233" lon="2.9391815">
<ele>196.90</ele>
<time>2016-10-16T12:10:29Z</time>
</trkpt>
<trkpt lat="39.8658918" lon="2.9394687">
<ele>195.05</ele>
<time>2016-10-16T12:10:32Z</time>
</trkpt>
<trkpt lat="39.8659636" lon="2.9397443">
<ele>193.09</ele>
<time>2016-10-16T12:10:35Z</time>
</trkpt>
<trkpt lat="39.8660379" lon="2.9400263">
<ele>193.05</ele>
<time>2016-10-16T12:10:38Z</time>
</trkpt>
<trkpt lat="39.8661229" lon="2.9402895">
<ele>193.04</ele>
<time>2016-10-16T12:10:41Z</time>
</trkpt>
<trkpt lat="39.8662212" lon="2.9405722">
<ele>191.73</ele>
<time>2016-10-16T12:10:44Z</time>
</trkpt>
<trkpt lat="39.8663399" lon="2.9408465">
<ele>189.89</ele>
<time>2016-10-16T12:10:47Z</time>
</trkpt>
<trkpt lat="39.8664575" lon="2.9411320">
<ele>188.44</ele>
<time>2016-10-16T12:10:50Z</time>
</trkpt>
<trkpt lat="39.8665160" lon="2.9414467">
<ele>188.72</ele>
<time>2016-10-16T12:10:53Z</time>
</trkpt>
<trkpt lat="39.8665484" lon="2.9417394">
<ele>187.81</ele>
<time>2016-10-16T12:10:56Z</time>
</trkpt>
<trkpt lat="39.8666165" lon="2.9420506">
<ele>186.26</ele>
<time>2016-10-16T12:10:59Z</time>
</trkpt>
<trkpt lat="39.8667567" lon="2.9423377">
<ele>184.54</ele>
<time>2016-10-16T12:11:02Z</time>
</trkpt>
<trkpt lat="39.8668961" lon="2.9425888">
<ele>182.49</ele>
<time>2016-10-16T12:11:05Z</time>
</trkpt>
<trkpt lat="39.8670458" lon="2.9428251">
<ele>178.70</ele>
<time>2016-10-16T12:11:08Z</time>
</trkpt>
<trkpt lat="39.8672088" lon="2.9430641">
<ele>177.17</ele>
<time>2016-10-16T12:11:11Z</time>
</trkpt>
<trkpt lat="39.8673931" lon="2.9432828">
<ele>178.45</ele>
<time>2016-10-16T12:11:14Z</time>
</trkpt>
<trkpt lat="39.8675462" lon="2.9434255">
<ele>178.84</ele>
<time>2016-10-16T12:11:17Z</time>
</trkpt>
<trkpt lat="39.8677095" lon="2.9435675">
<ele>179.18</ele>
<time>2016-10-16T12:11:20Z</time>
</trkpt>
<trkpt lat="39.8678287" lon="2.9437578">
<ele>179.29</ele>
<time>2016-10-16T12:11:23Z</time>
</trkpt>
<trkpt lat="39.8678916" lon="2.9439830">
<ele>180.90</ele>
<time>2016-10-16T12:11:26Z</time>
</trkpt>
<trkpt lat="39.8679774" lon="2.9442292">
<ele>183.01</ele>
<time>2016-10-16T12:11:29Z</time>
</trkpt>
<trkpt lat="39.8680733" lon="2.9444875">
<ele>184.45</ele>
<time>2016-10-16T12:11:32Z</time>
</trkpt>
<trkpt lat="39.8681820" lon="2.9447550">
<ele>182.44</ele>
<time>2016-10-16T12:11:35Z</time>
</trkpt>
<trkpt lat="39.8682834" lon="2.9450180">
<ele>178.45</ele>
<time>2016-10-16T12:11:38Z</time>
</trkpt>
<trkpt lat="39.8684150" lon="2.9452570">
<ele>174.31</ele>
<time>2016-10-16T12:11:41Z</time>
</trkpt>
<trkpt lat="39.8685545" lon="2.9454168">
<ele>171.97</ele>
<time>2016-10-16T12:11:43Z</time>
</trkpt>
<trkpt lat="39.8687073" lon="2.9455653">
<ele>169.82</ele>
<time>2016-10-16T12:11:45Z</time>
</trkpt>
<trkpt lat="39.8689010" lon="2.9457380">
<ele>165.68</ele>
<time>2016-10-16T12:11:48Z</time>
</trkpt>
<trkpt lat="39.8690753" lon="2.9458607">
<ele>162.84</ele>
<time>2016-10-16T12:11:51Z</time>
</trkpt>
<trkpt lat="39.8692630" lon="2.9460432">
<ele>162.09</ele>
<time>2016-10-16T12:11:54Z</time>
</trkpt>
<trkpt lat="39.8693528" lon="2.9463321">
<ele>159.35</ele>
<time>2016-10-16T12:11:57Z</time>
</trkpt>
<trkpt lat="39.8693042" lon="2.9466528">
<ele>157.79</ele>
<time>2016-10-16T12:12:00Z</time>
</trkpt>
<trkpt lat="39.8692314" lon="2.9469294">
<ele>156.58</ele>
<time>2016-10-16T12:12:03Z</time>
</trkpt>
<trkpt lat="39.8692010" lon="2.9472276">
<ele>153.78</ele>
<time>2016-10-16T12:12:06Z</time>
</trkpt>
<trkpt lat="39.8691791" lon="2.9474612">
<ele>150.75</ele>
<time>2016-10-16T12:12:08Z</time>
</trkpt>
<trkpt lat="39.8692150" lon="2.9477395">
<ele>148.03</ele>
<time>2016-10-16T12:12:11Z</time>
</trkpt>
<trkpt lat="39.8692481" lon="2.9480586">
<ele>146.75</ele>
<time>2016-10-16T12:12:14Z</time>
</trkpt>
<trkpt lat="39.8692703" lon="2.9483677">
<ele>147.36</ele>
<time>2016-10-16T12:12:17Z</time>
</trkpt>
<trkpt lat="39.8692877" lon="2.9486722">
<ele>147.36</ele>
<time>2016-10-16T12:12:20Z</time>
</trkpt>
<trkpt lat="39.8692456" lon="2.9489310">
<ele>148.26</ele>
<time>2016-10-16T12:12:22Z</time>
</trkpt>
<trkpt lat="39.8691962" lon="2.9492928">
<ele>145.80</ele>
<time>2016-10-16T12:12:25Z</time>
</trkpt>
<trkpt lat="39.8691501" lon="2.9495396">
<ele>142.57</ele>
<time>2016-10-16T12:12:27Z</time>
</trkpt>
<trkpt lat="39.8691061" lon="2.9498939">
<ele>137.12</ele>
<time>2016-10-16T12:12:30Z</time>
</trkpt>
<trkpt lat="39.8690675" lon="2.9501443">
<ele>133.17</ele>
<time>2016-10-16T12:12:32Z</time>
</trkpt>
<trkpt lat="39.8690144" lon="2.9503781">
<ele>129.71</ele>
<time>2016-10-16T12:12:34Z</time>
</trkpt>
<trkpt lat="39.8689517" lon="2.9506056">
<ele>127.40</ele>
<time>2016-10-16T12:12:36Z</time>
</trkpt>
<trkpt lat="39.8688740" lon="2.9508346">
<ele>124.86</ele>
<time>2016-10-16T12:12:38Z</time>
</trkpt>
<trkpt lat="39.8687640" lon="2.9510393">
<ele>122.18</ele>
<time>2016-10-16T12:12:40Z</time>
</trkpt>
<trkpt lat="39.8686684" lon="2.9512487">
<ele>119.52</ele>
<time>2016-10-16T12:12:42Z</time>
</trkpt>
<trkpt lat="39.8685953" lon="2.9515060">
<ele>117.66</ele>
<time>2016-10-16T12:12:44Z</time>
</trkpt>
<trkpt lat="39.8685569" lon="2.9517693">
<ele>116.33</ele>
<time>2016-10-16T12:12:46Z</time>
</trkpt>
<trkpt lat="39.8685204" lon="2.9520468">
<ele>115.40</ele>
<time>2016-10-16T12:12:48Z</time>
</trkpt>
<trkpt lat="39.8684872" lon="2.9523468">
<ele>113.39</ele>
<time>2016-10-16T12:12:50Z</time>
</trkpt>
<trkpt lat="39.8684598" lon="2.9526276">
<ele>110.79</ele>
<time>2016-10-16T12:12:52Z</time>
</trkpt>
<trkpt lat="39.8684286" lon="2.9528832">
<ele>109.10</ele>
<time>2016-10-16T12:12:54Z</time>
</trkpt>
<trkpt lat="39.8684135" lon="2.9531273">
<ele>107.78</ele>
<time>2016-10-16T12:12:56Z</time>
</trkpt>
<trkpt lat="39.8684090" lon="2.9533763">
<ele>106.74</ele>
<time>2016-10-16T12:12:58Z</time>
</trkpt>
<trkpt lat="39.8684181" lon="2.9536414">
<ele>106.75</ele>
<time>2016-10-16T12:13:00Z</time>
</trkpt>
<trkpt lat="39.8684543" lon="2.9538930">
<ele>106.62</ele>
<time>2016-10-16T12:13:02Z</time>
</trkpt>
<trkpt lat="39.8685114" lon="2.9541273">
<ele>106.40</ele>
<time>2016-10-16T12:13:04Z</time>
</trkpt>
<trkpt lat="39.8685806" lon="2.9543656">
<ele>105.72</ele>
<time>2016-10-16T12:13:06Z</time>
</trkpt>
<trkpt lat="39.8686462" lon="2.9545909">
<ele>104.49</ele>
<time>2016-10-16T12:13:08Z</time>
</trkpt>
<trkpt lat="39.8687554" lon="2.9549101">
<ele>101.29</ele>
<time>2016-10-16T12:13:11Z</time>
</trkpt>
<trkpt lat="39.8688463" lon="2.9552134">
<ele>98.05</ele>
<time>2016-10-16T12:13:14Z</time>
</trkpt>
<trkpt lat="39.8689515" lon="2.9555002">
<ele>95.25</ele>
<time>2016-10-16T12:13:17Z</time>
</trkpt>
<trkpt lat="39.8690291" lon="2.9557271">
<ele>94.65</ele>
<time>2016-10-16T12:13:20Z</time>
</trkpt>
<trkpt lat="39.8690995" lon="2.9559828">
<ele>95.17</ele>
<time>2016-10-16T12:13:23Z</time>
</trkpt>
<trkpt lat="39.8691705" lon="2.9562325">
<ele>95.93</ele>
<time>2016-10-16T12:13:26Z</time>
</trkpt>
<trkpt lat="39.8692386" lon="2.9564939">
<ele>97.12</ele>
<time>2016-10-16T12:13:29Z</time>
</trkpt>
<trkpt lat="39.8693124" lon="2.9567523">
<ele>97.68</ele>
<time>2016-10-16T12:13:32Z</time>
</trkpt>
<trkpt lat="39.8693863" lon="2.9570233">
<ele>98.00</ele>
<time>2016-10-16T12:13:35Z</time>
</trkpt>
<trkpt lat="39.8694386" lon="2.9573116">
<ele>98.28</ele>
<time>2016-10-16T12:13:38Z</time>
</trkpt>
<trkpt lat="39.8694805" lon="2.9576409">
<ele>97.06</ele>
<time>2016-10-16T12:13:41Z</time>
</trkpt>
<trkpt lat="39.8695190" lon="2.9579702">
<ele>95.96</ele>
<time>2016-10-16T12:13:44Z</time>
</trkpt>
<trkpt lat="39.8695446" lon="2.9582952">
<ele>95.31</ele>
<time>2016-10-16T12:13:47Z</time>
</trkpt>
<trkpt lat="39.8695785" lon="2.9586173">
<ele>94.80</ele>
<time>2016-10-16T12:13:50Z</time>
</trkpt>
<trkpt lat="39.8696093" lon="2.9589429">
<ele>94.29</ele>
<time>2016-10-16T12:13:53Z</time>
</trkpt>
<trkpt lat="39.8696280" lon="2.9592613">
<ele>93.57</ele>
<time>2016-10-16T12:13:56Z</time>
</trkpt>
<trkpt lat="39.8696499" lon="2.9595964">
<ele>92.52</ele>
<time>2016-10-16T12:13:59Z</time>
</trkpt>
<trkpt lat="39.8696704" lon="2.9599360">
<ele>90.57</ele>
<time>2016-10-16T12:14:01Z</time>
</trkpt>
<trkpt lat="39.8697008" lon="2.9602663">
<ele>88.45</ele>
<time>2016-10-16T12:14:04Z</time>
</trkpt>
<trkpt lat="39.8697255" lon="2.9605829">
<ele>86.44</ele>
<time>2016-10-16T12:14:07Z</time>
</trkpt>
<trkpt lat="39.8697498" lon="2.9608931">
<ele>85.08</ele>
<time>2016-10-16T12:14:10Z</time>
</trkpt>
<trkpt lat="39.8697779" lon="2.9612126">
<ele>83.07</ele>
<time>2016-10-16T12:14:13Z</time>
</trkpt>
<trkpt lat="39.8698038" lon="2.9615270">
<ele>81.41</ele>
<time>2016-10-16T12:14:16Z</time>
</trkpt>
<trkpt lat="39.8698268" lon="2.9618337">
<ele>80.48</ele>
<time>2016-10-16T12:14:19Z</time>
</trkpt>
<trkpt lat="39.8698528" lon="2.9621337">
<ele>80.14</ele>
<time>2016-10-16T12:14:22Z</time>
</trkpt>
<trkpt lat="39.8698700" lon="2.9624099">
<ele>80.09</ele>
<time>2016-10-16T12:14:25Z</time>
</trkpt>
<trkpt lat="39.8698524" lon="2.9626596">
<ele>80.13</ele>
<time>2016-10-16T12:14:28Z</time>
</trkpt>
<trkpt lat="39.8698039" lon="2.9629018">
<ele>81.48</ele>
<time>2016-10-16T12:14:31Z</time>
</trkpt>
<trkpt lat="39.8697394" lon="2.9631521">
<ele>83.26</ele>
<time>2016-10-16T12:14:34Z</time>
</trkpt>
<trkpt lat="39.8696729" lon="2.9633894">
<ele>84.67</ele>
<time>2016-10-16T12:14:37Z</time>
</trkpt>
<trkpt lat="39.8696181" lon="2.9636237">
<ele>85.86</ele>
<time>2016-10-16T12:14:40Z</time>
</trkpt>
<trkpt lat="39.8695551" lon="2.9638867">
<ele>87.48</ele>
<time>2016-10-16T12:14:43Z</time>
</trkpt>
<trkpt lat="39.8694756" lon="2.9641848">
<ele>91.94</ele>
<time>2016-10-16T12:14:47Z</time>
</trkpt>
<trkpt lat="39.8694099" lon="2.9644621">
<ele>93.70</ele>
<time>2016-10-16T12:14:50Z</time>
</trkpt>
<trkpt lat="39.8693438" lon="2.9647304">
<ele>94.92</ele>
<time>2016-10-16T12:14:53Z</time>
</trkpt>
<trkpt lat="39.8692841" lon="2.9650112">
<ele>95.73</ele>
<time>2016-10-16T12:14:56Z</time>
</trkpt>
<trkpt lat="39.8692188" lon="2.9652685">
<ele>96.33</ele>
<time>2016-10-16T12:14:59Z</time>
</trkpt>
<trkpt lat="39.8691474" lon="2.9655178">
<ele>97.08</ele>
<time>2016-10-16T12:15:02Z</time>
</trkpt>
<trkpt lat="39.8690628" lon="2.9657963">
<ele>99.29</ele>
<time>2016-10-16T12:15:05Z</time>
</trkpt>
<trkpt lat="39.8689839" lon="2.9660906">
<ele>100.06</ele>
<time>2016-10-16T12:15:08Z</time>
</trkpt>
<trkpt lat="39.8689102" lon="2.9663887">
<ele>99.95</ele>
<time>2016-10-16T12:15:11Z</time>
</trkpt>
<trkpt lat="39.8688595" lon="2.9666563">
<ele>99.50</ele>
<time>2016-10-16T12:15:14Z</time>
</trkpt>
<trkpt lat="39.8687952" lon="2.9669579">
<ele>99.79</ele>
<time>2016-10-16T12:15:17Z</time>
</trkpt>
<trkpt lat="39.8687190" lon="2.9672529">
<ele>98.69</ele>
<time>2016-10-16T12:15:20Z</time>
</trkpt>
<trkpt lat="39.8686476" lon="2.9675418">
<ele>97.72</ele>
<time>2016-10-16T12:15:23Z</time>
</trkpt>
<trkpt lat="39.8685635" lon="2.9678520">
<ele>96.58</ele>
<time>2016-10-16T12:15:26Z</time>
</trkpt>
<trkpt lat="39.8684871" lon="2.9681605">
<ele>96.87</ele>
<time>2016-10-16T12:15:29Z</time>
</trkpt>
<trkpt lat="39.8684110" lon="2.9684539">
<ele>97.13</ele>
<time>2016-10-16T12:15:32Z</time>
</trkpt>
<trkpt lat="39.8683371" lon="2.9687374">
<ele>96.38</ele>
<time>2016-10-16T12:15:35Z</time>
</trkpt>
<trkpt lat="39.8682643" lon="2.9690372">
<ele>95.37</ele>
<time>2016-10-16T12:15:38Z</time>
</trkpt>
<trkpt lat="39.8681897" lon="2.9693314">
<ele>94.50</ele>
<time>2016-10-16T12:15:41Z</time>
</trkpt>
<trkpt lat="39.8681202" lon="2.9696261">
<ele>93.76</ele>
<time>2016-10-16T12:15:44Z</time>
</trkpt>
<trkpt lat="39.8680526" lon="2.9699186">
<ele>93.19</ele>
<time>2016-10-16T12:15:47Z</time>
</trkpt>
<trkpt lat="39.8679834" lon="2.9702037">
<ele>93.28</ele>
<time>2016-10-16T12:15:50Z</time>
</trkpt>
<trkpt lat="39.8679154" lon="2.9704926">
<ele>93.29</ele>
<time>2016-10-16T12:15:53Z</time>
</trkpt>
<trkpt lat="39.8678546" lon="2.9707725">
<ele>93.84</ele>
<time>2016-10-16T12:15:56Z</time>
</trkpt>
<trkpt lat="39.8677905" lon="2.9710866">
<ele>94.23</ele>
<time>2016-10-16T12:15:59Z</time>
</trkpt>
<trkpt lat="39.8677202" lon="2.9713910">
<ele>94.43</ele>
<time>2016-10-16T12:16:02Z</time>
</trkpt>
<trkpt lat="39.8676575" lon="2.9716724">
<ele>94.26</ele>
<time>2016-10-16T12:16:05Z</time>
</trkpt>
<trkpt lat="39.8676486" lon="2.9719727">
<ele>93.84</ele>
<time>2016-10-16T12:16:08Z</time>
</trkpt>
<trkpt lat="39.8676822" lon="2.9723006">
<ele>94.52</ele>
<time>2016-10-16T12:16:11Z</time>
</trkpt>
<trkpt lat="39.8677316" lon="2.9726234">
<ele>93.47</ele>
<time>2016-10-16T12:16:14Z</time>
</trkpt>
<trkpt lat="39.8677897" lon="2.9729251">
<ele>94.50</ele>
<time>2016-10-16T12:16:17Z</time>
</trkpt>
<trkpt lat="39.8678469" lon="2.9731540">
<ele>95.13</ele>
<time>2016-10-16T12:16:19Z</time>
</trkpt>
<trkpt lat="39.8679136" lon="2.9734648">
<ele>95.46</ele>
<time>2016-10-16T12:16:22Z</time>
</trkpt>
<trkpt lat="39.8679935" lon="2.9737913">
<ele>95.53</ele>
<time>2016-10-16T12:16:25Z</time>
</trkpt>
<trkpt lat="39.8680715" lon="2.9740813">
<ele>96.64</ele>
<time>2016-10-16T12:16:28Z</time>
</trkpt>
<trkpt lat="39.8681476" lon="2.9743805">
<ele>96.46</ele>
<time>2016-10-16T12:16:31Z</time>
</trkpt>
<trkpt lat="39.8682230" lon="2.9747041">
<ele>96.85</ele>
<time>2016-10-16T12:16:34Z</time>
</trkpt>
<trkpt lat="39.8682963" lon="2.9750173">
<ele>95.72</ele>
<time>2016-10-16T12:16:37Z</time>
</trkpt>
<trkpt lat="39.8683766" lon="2.9753510">
<ele>95.10</ele>
<time>2016-10-16T12:16:40Z</time>
</trkpt>
<trkpt lat="39.8684338" lon="2.9756566">
<ele>93.84</ele>
<time>2016-10-16T12:16:43Z</time>
</trkpt>
<trkpt lat="39.8685255" lon="2.9759797">
<ele>91.59</ele>
<time>2016-10-16T12:16:46Z</time>
</trkpt>
<trkpt lat="39.8685803" lon="2.9763073">
<ele>91.41</ele>
<time>2016-10-16T12:16:49Z</time>
</trkpt>
<trkpt lat="39.8686406" lon="2.9766165">
<ele>91.00</ele>
<time>2016-10-16T12:16:52Z</time>
</trkpt>
<trkpt lat="39.8686885" lon="2.9768455">
<ele>90.85</ele>
<time>2016-10-16T12:16:54Z</time>
</trkpt>
<trkpt lat="39.8687385" lon="2.9770762">
<ele>91.61</ele>
<time>2016-10-16T12:16:56Z</time>
</trkpt>
<trkpt lat="39.8688096" lon="2.9774166">
<ele>91.43</ele>
<time>2016-10-16T12:16:59Z</time>
</trkpt>
<trkpt lat="39.8688608" lon="2.9776417">
<ele>91.00</ele>
<time>2016-10-16T12:17:01Z</time>
</trkpt>
<trkpt lat="39.8689410" lon="2.9779553">
<ele>90.41</ele>
<time>2016-10-16T12:17:04Z</time>
</trkpt>
<trkpt lat="39.8690236" lon="2.9782803">
<ele>91.16</ele>
<time>2016-10-16T12:17:07Z</time>
</trkpt>
<trkpt lat="39.8690824" lon="2.9785179">
<ele>90.79</ele>
<time>2016-10-16T12:17:09Z</time>
</trkpt>
<trkpt lat="39.8691372" lon="2.9787447">
<ele>90.12</ele>
<time>2016-10-16T12:17:11Z</time>
</trkpt>
<trkpt lat="39.8691928" lon="2.9789808">
<ele>88.83</ele>
<time>2016-10-16T12:17:13Z</time>
</trkpt>
<trkpt lat="39.8692773" lon="2.9793020">
<ele>86.85</ele>
<time>2016-10-16T12:17:16Z</time>
</trkpt>
<trkpt lat="39.8693459" lon="2.9795361">
<ele>87.22</ele>
<time>2016-10-16T12:17:18Z</time>
</trkpt>
<trkpt lat="39.8694601" lon="2.9798532">
<ele>88.41</ele>
<time>2016-10-16T12:17:21Z</time>
</trkpt>
<trkpt lat="39.8695485" lon="2.9800639">
<ele>88.29</ele>
<time>2016-10-16T12:17:23Z</time>
</trkpt>
<trkpt lat="39.8696721" lon="2.9803539">
<ele>87.25</ele>
<time>2016-10-16T12:17:26Z</time>
</trkpt>
<trkpt lat="39.8698022" lon="2.9806597">
<ele>88.39</ele>
<time>2016-10-16T12:17:29Z</time>
</trkpt>
<trkpt lat="39.8698936" lon="2.9808629">
<ele>89.11</ele>
<time>2016-10-16T12:17:31Z</time>
</trkpt>
<trkpt lat="39.8699832" lon="2.9810739">
<ele>88.72</ele>
<time>2016-10-16T12:17:33Z</time>
</trkpt>
<trkpt lat="39.8701069" lon="2.9813821">
<ele>87.07</ele>
<time>2016-10-16T12:17:36Z</time>
</trkpt>
<trkpt lat="39.8702334" lon="2.9816799">
<ele>85.97</ele>
<time>2016-10-16T12:17:39Z</time>
</trkpt>
<trkpt lat="39.8703624" lon="2.9819681">
<ele>84.37</ele>
<time>2016-10-16T12:17:42Z</time>
</trkpt>
<trkpt lat="39.8705173" lon="2.9822197">
<ele>82.84</ele>
<time>2016-10-16T12:17:45Z</time>
</trkpt>
<trkpt lat="39.8706521" lon="2.9823799">
<ele>83.11</ele>
<time>2016-10-16T12:17:47Z</time>
</trkpt>
<trkpt lat="39.8707994" lon="2.9825348">
<ele>83.17</ele>
<time>2016-10-16T12:17:49Z</time>
</trkpt>
<trkpt lat="39.8709392" lon="2.9826945">
<ele>84.08</ele>
<time>2016-10-16T12:17:51Z</time>
</trkpt>
<trkpt lat="39.8711547" lon="2.9828702">
<ele>85.17</ele>
<time>2016-10-16T12:17:54Z</time>
</trkpt>
<trkpt lat="39.8713386" lon="2.9830755">
<ele>87.10</ele>
<time>2016-10-16T12:17:57Z</time>
</trkpt>
<trkpt lat="39.8715116" lon="2.9833033">
<ele>88.59</ele>
<time>2016-10-16T12:18:00Z</time>
</trkpt>
<trkpt lat="39.8716702" lon="2.9835290">
<ele>88.98</ele>
<time>2016-10-16T12:18:03Z</time>
</trkpt>
<trkpt lat="39.8718154" lon="2.9837638">
<ele>89.36</ele>
<time>2016-10-16T12:18:06Z</time>
</trkpt>
<trkpt lat="39.8719453" lon="2.9840372">
<ele>89.57</ele>
<time>2016-10-16T12:18:09Z</time>
</trkpt>
<trkpt lat="39.8720599" lon="2.9843250">
<ele>89.18</ele>
<time>2016-10-16T12:18:12Z</time>
</trkpt>
<trkpt lat="39.8721497" lon="2.9845715">
<ele>87.67</ele>
<time>2016-10-16T12:18:15Z</time>
</trkpt>
<trkpt lat="39.8722255" lon="2.9848036">
<ele>85.97</ele>
<time>2016-10-16T12:18:18Z</time>
</trkpt>
<trkpt lat="39.8723183" lon="2.9850602">
<ele>86.83</ele>
<time>2016-10-16T12:18:21Z</time>
</trkpt>
<trkpt lat="39.8724163" lon="2.9853323">
<ele>87.43</ele>
<time>2016-10-16T12:18:24Z</time>
</trkpt>
<trkpt lat="39.8725202" lon="2.9856076">
<ele>87.99</ele>
<time>2016-10-16T12:18:27Z</time>
</trkpt>
<trkpt lat="39.8726226" lon="2.9858843">
<ele>88.01</ele>
<time>2016-10-16T12:18:30Z</time>
</trkpt>
<trkpt lat="39.8727135" lon="2.9861655">
<ele>88.76</ele>
<time>2016-10-16T12:18:33Z</time>
</trkpt>
<trkpt lat="39.8728165" lon="2.9864599">
<ele>88.16</ele>
<time>2016-10-16T12:18:36Z</time>
</trkpt>
<trkpt lat="39.8728988" lon="2.9866712">
<ele>87.30</ele>
<time>2016-10-16T12:18:38Z</time>
</trkpt>
<trkpt lat="39.8729956" lon="2.9869580">
<ele>85.96</ele>
<time>2016-10-16T12:18:41Z</time>
</trkpt>
<trkpt lat="39.8731035" lon="2.9872646">
<ele>84.93</ele>
<time>2016-10-16T12:18:44Z</time>
</trkpt>
<trkpt lat="39.8731885" lon="2.9874994">
<ele>83.97</ele>
<time>2016-10-16T12:18:46Z</time>
</trkpt>
<trkpt lat="39.8732708" lon="2.9877253">
<ele>83.43</ele>
<time>2016-10-16T12:18:48Z</time>
</trkpt>
<trkpt lat="39.8733508" lon="2.9879534">
<ele>82.44</ele>
<time>2016-10-16T12:18:50Z</time>
</trkpt>
<trkpt lat="39.8734296" lon="2.9881653">
<ele>81.33</ele>
<time>2016-10-16T12:18:52Z</time>
</trkpt>
<trkpt lat="39.8735118" lon="2.9883861">
<ele>80.86</ele>
<time>2016-10-16T12:18:54Z</time>
</trkpt>
<trkpt lat="39.8735926" lon="2.9886094">
<ele>80.06</ele>
<time>2016-10-16T12:18:56Z</time>
</trkpt>
<trkpt lat="39.8736698" lon="2.9888227">
<ele>79.05</ele>
<time>2016-10-16T12:18:58Z</time>
</trkpt>
<trkpt lat="39.8737816" lon="2.9891323">
<ele>77.85</ele>
<time>2016-10-16T12:19:01Z</time>
</trkpt>
<trkpt lat="39.8738957" lon="2.9894311">
<ele>77.05</ele>
<time>2016-10-16T12:19:04Z</time>
</trkpt>
<trkpt lat="39.8740144" lon="2.9897161">
<ele>76.82</ele>
<time>2016-10-16T12:19:07Z</time>
</trkpt>
<trkpt lat="39.8741370" lon="2.9900105">
<ele>78.08</ele>
<time>2016-10-16T12:19:10Z</time>
</trkpt>
<trkpt lat="39.8742360" lon="2.9903165">
<ele>80.03</ele>
<time>2016-10-16T12:19:13Z</time>
</trkpt>
<trkpt lat="39.8743188" lon="2.9906402">
<ele>80.10</ele>
<time>2016-10-16T12:19:16Z</time>
</trkpt>
<trkpt lat="39.8743710" lon="2.9908730">
<ele>79.58</ele>
<time>2016-10-16T12:19:18Z</time>
</trkpt>
<trkpt lat="39.8744203" lon="2.9911076">
<ele>79.23</ele>
<time>2016-10-16T12:19:20Z</time>
</trkpt>
<trkpt lat="39.8744894" lon="2.9914267">
<ele>79.41</ele>
<time>2016-10-16T12:19:23Z</time>
</trkpt>
<trkpt lat="39.8745375" lon="2.9916561">
<ele>79.55</ele>
<time>2016-10-16T12:19:25Z</time>
</trkpt>
<trkpt lat="39.8745799" lon="2.9918957">
<ele>78.98</ele>
<time>2016-10-16T12:19:27Z</time>
</trkpt>
<trkpt lat="39.8746400" lon="2.9922269">
<ele>77.24</ele>
<time>2016-10-16T12:19:30Z</time>
</trkpt>
<trkpt lat="39.8747037" lon="2.9925323">
<ele>75.77</ele>
<time>2016-10-16T12:19:33Z</time>
</trkpt>
<trkpt lat="39.8747638" lon="2.9928361">
<ele>75.31</ele>
<time>2016-10-16T12:19:36Z</time>
</trkpt>
<trkpt lat="39.8748312" lon="2.9931316">
<ele>74.89</ele>
<time>2016-10-16T12:19:39Z</time>
</trkpt>
<trkpt lat="39.8749303" lon="2.9934160">
<ele>75.67</ele>
<time>2016-10-16T12:19:42Z</time>
</trkpt>
<trkpt lat="39.8750231" lon="2.9936255">
<ele>76.93</ele>
<time>2016-10-16T12:19:44Z</time>
</trkpt>
<trkpt lat="39.8751256" lon="2.9938233">
<ele>77.41</ele>
<time>2016-10-16T12:19:46Z</time>
</trkpt>
<trkpt lat="39.8752408" lon="2.9940288">
<ele>77.09</ele>
<time>2016-10-16T12:19:48Z</time>
</trkpt>
<trkpt lat="39.8753586" lon="2.9942357">
<ele>76.89</ele>
<time>2016-10-16T12:19:50Z</time>
</trkpt>
<trkpt lat="39.8754796" lon="2.9944447">
<ele>76.96</ele>
<time>2016-10-16T12:19:52Z</time>
</trkpt>
<trkpt lat="39.8756018" lon="2.9946758">
<ele>76.17</ele>
<time>2016-10-16T12:19:54Z</time>
</trkpt>
<trkpt lat="39.8757220" lon="2.9948951">
<ele>74.80</ele>
<time>2016-10-16T12:19:56Z</time>
</trkpt>
<trkpt lat="39.8758471" lon="2.9951227">
<ele>73.74</ele>
<time>2016-10-16T12:19:58Z</time>
</trkpt>
<trkpt lat="39.8759671" lon="2.9953368">
<ele>72.89</ele>
<time>2016-10-16T12:20:00Z</time>
</trkpt>
<trkpt lat="39.8760809" lon="2.9955459">
<ele>72.28</ele>
<time>2016-10-16T12:20:02Z</time>
</trkpt>
<trkpt lat="39.8761943" lon="2.9957558">
<ele>72.03</ele>
<time>2016-10-16T12:20:04Z</time>
</trkpt>
<trkpt lat="39.8763069" lon="2.9959660">
<ele>71.83</ele>
<time>2016-10-16T12:20:06Z</time>
</trkpt>
<trkpt lat="39.8764165" lon="2.9961697">
<ele>71.81</ele>
<time>2016-10-16T12:20:08Z</time>
</trkpt>
<trkpt lat="39.8765243" lon="2.9963688">
<ele>71.67</ele>
<time>2016-10-16T12:20:10Z</time>
</trkpt>
<trkpt lat="39.8766333" lon="2.9965787">
<ele>70.60</ele>
<time>2016-10-16T12:20:12Z</time>
</trkpt>
<trkpt lat="39.8767421" lon="2.9967864">
<ele>69.86</ele>
<time>2016-10-16T12:20:14Z</time>
</trkpt>
<trkpt lat="39.8768498" lon="2.9970057">
<ele>69.21</ele>
<time>2016-10-16T12:20:16Z</time>
</trkpt>
<trkpt lat="39.8769516" lon="2.9972100">
<ele>68.58</ele>
<time>2016-10-16T12:20:18Z</time>
</trkpt>
<trkpt lat="39.8770634" lon="2.9974245">
<ele>68.44</ele>
<time>2016-10-16T12:20:20Z</time>
</trkpt>
<trkpt lat="39.8771724" lon="2.9976271">
<ele>67.89</ele>
<time>2016-10-16T12:20:22Z</time>
</trkpt>
<trkpt lat="39.8772863" lon="2.9978293">
<ele>67.97</ele>
<time>2016-10-16T12:20:24Z</time>
</trkpt>
<trkpt lat="39.8773959" lon="2.9980399">
<ele>67.63</ele>
<time>2016-10-16T12:20:26Z</time>
</trkpt>
<trkpt lat="39.8775020" lon="2.9982431">
<ele>67.78</ele>
<time>2016-10-16T12:20:28Z</time>
</trkpt>
<trkpt lat="39.8776146" lon="2.9984521">
<ele>66.91</ele>
<time>2016-10-16T12:20:30Z</time>
</trkpt>
<trkpt lat="39.8777206" lon="2.9986509">
<ele>66.83</ele>
<time>2016-10-16T12:20:32Z</time>
</trkpt>
<trkpt lat="39.8778261" lon="2.9988438">
<ele>66.62</ele>
<time>2016-10-16T12:20:34Z</time>
</trkpt>
<trkpt lat="39.8779305" lon="2.9990441">
<ele>66.75</ele>
<time>2016-10-16T12:20:36Z</time>
</trkpt>
<trkpt lat="39.8780302" lon="2.9992395">
<ele>66.37</ele>
<time>2016-10-16T12:20:38Z</time>
</trkpt>
<trkpt lat="39.8781380" lon="2.9994403">
<ele>64.81</ele>
<time>2016-10-16T12:20:40Z</time>
</trkpt>
<trkpt lat="39.8782488" lon="2.9996512">
<ele>63.20</ele>
<time>2016-10-16T12:20:42Z</time>
</trkpt>
<trkpt lat="39.8783704" lon="2.9998757">
<ele>62.91</ele>
<time>2016-10-16T12:20:44Z</time>
</trkpt>
<trkpt lat="39.8785234" lon="3.0001580">
<ele>62.40</ele>
<time>2016-10-16T12:20:47Z</time>
</trkpt>
<trkpt lat="39.8786286" lon="3.0003506">
<ele>62.62</ele>
<time>2016-10-16T12:20:49Z</time>
</trkpt>
<trkpt lat="39.8787861" lon="3.0006348">
<ele>63.42</ele>
<time>2016-10-16T12:20:52Z</time>
</trkpt>
<trkpt lat="39.8788835" lon="3.0008335">
<ele>64.02</ele>
<time>2016-10-16T12:20:54Z</time>
</trkpt>
<trkpt lat="39.8789822" lon="3.0010333">
<ele>64.30</ele>
<time>2016-10-16T12:20:56Z</time>
</trkpt>
<trkpt lat="39.8790924" lon="3.0012503">
<ele>64.81</ele>
<time>2016-10-16T12:20:58Z</time>
</trkpt>
<trkpt lat="39.8791974" lon="3.0014489">
<ele>65.61</ele>
<time>2016-10-16T12:21:00Z</time>
</trkpt>
<trkpt lat="39.8793193" lon="3.0016661">
<ele>65.68</ele>
<time>2016-10-16T12:21:02Z</time>
</trkpt>
<trkpt lat="39.8794800" lon="3.0019534">
<ele>64.92</ele>
<time>2016-10-16T12:21:05Z</time>
</trkpt>
<trkpt lat="39.8795884" lon="3.0021538">
<ele>63.99</ele>
<time>2016-10-16T12:21:07Z</time>
</trkpt>
<trkpt lat="39.8796883" lon="3.0023502">
<ele>62.76</ele>
<time>2016-10-16T12:21:09Z</time>
</trkpt>
<trkpt lat="39.8798028" lon="3.0025661">
<ele>61.36</ele>
<time>2016-10-16T12:21:11Z</time>
</trkpt>
<trkpt lat="39.8799441" lon="3.0028262">
<ele>62.30</ele>
<time>2016-10-16T12:21:14Z</time>
</trkpt>
<trkpt lat="39.8800972" lon="3.0031185">
<ele>63.46</ele>
<time>2016-10-16T12:21:17Z</time>
</trkpt>
<trkpt lat="39.8801988" lon="3.0033235">
<ele>64.22</ele>
<time>2016-10-16T12:21:19Z</time>
</trkpt>
<trkpt lat="39.8803062" lon="3.0035225">
<ele>63.38</ele>
<time>2016-10-16T12:21:21Z</time>
</trkpt>
<trkpt lat="39.8804157" lon="3.0037222">
<ele>62.04</ele>
<time>2016-10-16T12:21:23Z</time>
</trkpt>
<trkpt lat="39.8805239" lon="3.0039319">
<ele>60.27</ele>
<time>2016-10-16T12:21:25Z</time>
</trkpt>
<trkpt lat="39.8806728" lon="3.0042025">
<ele>59.15</ele>
<time>2016-10-16T12:21:28Z</time>
</trkpt>
<trkpt lat="39.8807774" lon="3.0043965">
<ele>58.74</ele>
<time>2016-10-16T12:21:30Z</time>
</trkpt>
<trkpt lat="39.8809281" lon="3.0046869">
<ele>57.43</ele>
<time>2016-10-16T12:21:33Z</time>
</trkpt>
<trkpt lat="39.8810319" lon="3.0048844">
<ele>57.80</ele>
<time>2016-10-16T12:21:35Z</time>
</trkpt>
<trkpt lat="39.8811379" lon="3.0050850">
<ele>57.92</ele>
<time>2016-10-16T12:21:37Z</time>
</trkpt>
<trkpt lat="39.8812387" lon="3.0052842">
<ele>58.00</ele>
<time>2016-10-16T12:21:39Z</time>
</trkpt>
<trkpt lat="39.8813920" lon="3.0055774">
<ele>57.56</ele>
<time>2016-10-16T12:21:42Z</time>
</trkpt>
<trkpt lat="39.8815006" lon="3.0057825">
<ele>57.11</ele>
<time>2016-10-16T12:21:44Z</time>
</trkpt>
<trkpt lat="39.8816022" lon="3.0059760">
<ele>58.19</ele>
<time>2016-10-16T12:21:46Z</time>
</trkpt>
<trkpt lat="39.8817057" lon="3.0061773">
<ele>59.55</ele>
<time>2016-10-16T12:21:48Z</time>
</trkpt>
<trkpt lat="39.8818073" lon="3.0063721">
<ele>60.27</ele>
<time>2016-10-16T12:21:50Z</time>
</trkpt>
<trkpt lat="39.8819147" lon="3.0065651">
<ele>61.00</ele>
<time>2016-10-16T12:21:52Z</time>
</trkpt>
<trkpt lat="39.8820247" lon="3.0067646">
<ele>60.39</ele>
<time>2016-10-16T12:21:54Z</time>
</trkpt>
<trkpt lat="39.8821436" lon="3.0069740">
<ele>60.10</ele>
<time>2016-10-16T12:21:56Z</time>
</trkpt>
<trkpt lat="39.8822491" lon="3.0071726">
<ele>60.13</ele>
<time>2016-10-16T12:21:58Z</time>
</trkpt>
<trkpt lat="39.8823656" lon="3.0073834">
<ele>60.42</ele>
<time>2016-10-16T12:22:00Z</time>
</trkpt>
<trkpt lat="39.8824781" lon="3.0075840">
<ele>61.03</ele>
<time>2016-10-16T12:22:02Z</time>
</trkpt>
<trkpt lat="39.8825982" lon="3.0077909">
<ele>61.40</ele>
<time>2016-10-16T12:22:04Z</time>
</trkpt>
<trkpt lat="39.8827041" lon="3.0079893">
<ele>61.18</ele>
<time>2016-10-16T12:22:06Z</time>
</trkpt>
<trkpt lat="39.8828530" lon="3.0082799">
<ele>59.91</ele>
<time>2016-10-16T12:22:09Z</time>
</trkpt>
<trkpt lat="39.8829404" lon="3.0084851">
<ele>59.20</ele>
<time>2016-10-16T12:22:11Z</time>
</trkpt>
<trkpt lat="39.8829841" lon="3.0087279">
<ele>58.38</ele>
<time>2016-10-16T12:22:13Z</time>
</trkpt>
<trkpt lat="39.8830135" lon="3.0089662">
<ele>57.12</ele>
<time>2016-10-16T12:22:15Z</time>
</trkpt>
<trkpt lat="39.8830279" lon="3.0092295">
<ele>55.71</ele>
<time>2016-10-16T12:22:17Z</time>
</trkpt>
<trkpt lat="39.8830349" lon="3.0094848">
<ele>55.61</ele>
<time>2016-10-16T12:22:19Z</time>
</trkpt>
<trkpt lat="39.8830335" lon="3.0097473">
<ele>54.91</ele>
<time>2016-10-16T12:22:21Z</time>
</trkpt>
<trkpt lat="39.8830370" lon="3.0100137">
<ele>54.18</ele>
<time>2016-10-16T12:22:23Z</time>
</trkpt>
<trkpt lat="39.8830394" lon="3.0102636">
<ele>53.09</ele>
<time>2016-10-16T12:22:25Z</time>
</trkpt>
<trkpt lat="39.8830403" lon="3.0105796">
<ele>53.47</ele>
<time>2016-10-16T12:22:28Z</time>
</trkpt>
<trkpt lat="39.8830373" lon="3.0109207">
<ele>53.68</ele>
<time>2016-10-16T12:22:31Z</time>
</trkpt>
<trkpt lat="39.8830422" lon="3.0112565">
<ele>54.42</ele>
<time>2016-10-16T12:22:34Z</time>
</trkpt>
<trkpt lat="39.8830473" lon="3.0115683">
<ele>55.32</ele>
<time>2016-10-16T12:22:37Z</time>
</trkpt>
<trkpt lat="39.8830536" lon="3.0119009">
<ele>55.38</ele>
<time>2016-10-16T12:22:40Z</time>
</trkpt>
<trkpt lat="39.8830621" lon="3.0122439">
<ele>56.98</ele>
<time>2016-10-16T12:22:44Z</time>
</trkpt>
<trkpt lat="39.8830661" lon="3.0126021">
<ele>57.56</ele>
<time>2016-10-16T12:22:47Z</time>
</trkpt>
<trkpt lat="39.8830701" lon="3.0128457">
<ele>57.18</ele>
<time>2016-10-16T12:22:49Z</time>
</trkpt>
<trkpt lat="39.8830702" lon="3.0131469">
<ele>56.29</ele>
<time>2016-10-16T12:22:52Z</time>
</trkpt>
<trkpt lat="39.8830712" lon="3.0134137">
<ele>55.41</ele>
<time>2016-10-16T12:22:55Z</time>
</trkpt>
<trkpt lat="39.8830794" lon="3.0136741">
<ele>55.71</ele>
<time>2016-10-16T12:22:59Z</time>
</trkpt>
<trkpt lat="39.8829624" lon="3.0138646">
<ele>54.26</ele>
<time>2016-10-16T12:26:32Z</time>
</trkpt>
<trkpt lat="39.8827567" lon="3.0139116">
<ele>54.53</ele>
<time>2016-10-16T12:26:39Z</time>
</trkpt>
<trkpt lat="39.8825440" lon="3.0139977">
<ele>51.94</ele>
<time>2016-10-16T12:26:44Z</time>
</trkpt>
<trkpt lat="39.8823361" lon="3.0141179">
<ele>51.23</ele>
<time>2016-10-16T12:26:49Z</time>
</trkpt>
<trkpt lat="39.8821374" lon="3.0142503">
<ele>51.17</ele>
<time>2016-10-16T12:26:54Z</time>
</trkpt>
<trkpt lat="39.8819740" lon="3.0143754">
<ele>51.78</ele>
<time>2016-10-16T12:26:58Z</time>
</trkpt>
<trkpt lat="39.8818022" lon="3.0144810">
<ele>52.47</ele>
<time>2016-10-16T12:27:03Z</time>
</trkpt>
<trkpt lat="39.8816707" lon="3.0146514">
<ele>53.24</ele>
<time>2016-10-16T12:27:10Z</time>
</trkpt>
<trkpt lat="39.8815226" lon="3.0148401">
<ele>58.60</ele>
<time>2016-10-16T12:27:15Z</time>
</trkpt>
<trkpt lat="39.8813335" lon="3.0149883">
<ele>61.04</ele>
<time>2016-10-16T12:27:20Z</time>
</trkpt>
<trkpt lat="39.8811387" lon="3.0150936">
<ele>61.92</ele>
<time>2016-10-16T12:27:24Z</time>
</trkpt>
<trkpt lat="39.8809301" lon="3.0152228">
<ele>60.78</ele>
<time>2016-10-16T12:27:28Z</time>
</trkpt>
<trkpt lat="39.8807628" lon="3.0153265">
<ele>58.24</ele>
<time>2016-10-16T12:27:31Z</time>
</trkpt>
<trkpt lat="39.8805814" lon="3.0154281">
<ele>57.70</ele>
<time>2016-10-16T12:27:35Z</time>
</trkpt>
<trkpt lat="39.8804095" lon="3.0155331">
<ele>56.41</ele>
<time>2016-10-16T12:27:39Z</time>
</trkpt>
<trkpt lat="39.8802092" lon="3.0156677">
<ele>54.36</ele>
<time>2016-10-16T12:27:44Z</time>
</trkpt>
<trkpt lat="39.8800432" lon="3.0157706">
<ele>52.28</ele>
<time>2016-10-16T12:27:48Z</time>
</trkpt>
<trkpt lat="39.8798697" lon="3.0159020">
<ele>49.73</ele>
<time>2016-10-16T12:27:53Z</time>
</trkpt>
<trkpt lat="39.8797420" lon="3.0160895">
<ele>49.79</ele>
<time>2016-10-16T12:27:59Z</time>
</trkpt>
<trkpt lat="39.8797916" lon="3.0163569">
<ele>54.11</ele>
<time>2016-10-16T12:28:12Z</time>
</trkpt>
<trkpt lat="39.8798828" lon="3.0165966">
<ele>52.74</ele>
<time>2016-10-16T12:28:17Z</time>
</trkpt>
<trkpt lat="39.8800080" lon="3.0168181">
<ele>52.34</ele>
<time>2016-10-16T12:28:22Z</time>
</trkpt>
<trkpt lat="39.8801221" lon="3.0170014">
<ele>51.50</ele>
<time>2016-10-16T12:28:33Z</time>
</trkpt>
<trkpt lat="39.8799770" lon="3.0171981">
<ele>51.85</ele>
<time>2016-10-16T12:28:40Z</time>
</trkpt>
<trkpt lat="39.8798205" lon="3.0173754">
<ele>52.13</ele>
<time>2016-10-16T12:28:46Z</time>
</trkpt>
<trkpt lat="39.8796451" lon="3.0175209">
<ele>53.64</ele>
<time>2016-10-16T12:28:51Z</time>
</trkpt>
<trkpt lat="39.8794812" lon="3.0176893">
<ele>58.22</ele>
<time>2016-10-16T12:28:56Z</time>
</trkpt>
<trkpt lat="39.8793403" lon="3.0178680">
<ele>58.60</ele>
<time>2016-10-16T12:29:04Z</time>
</trkpt>
<trkpt lat="39.8792918" lon="3.0181139">
<ele>58.03</ele>
<time>2016-10-16T12:29:12Z</time>
</trkpt>
<trkpt lat="39.8794002" lon="3.0183117">
<ele>57.58</ele>
<time>2016-10-16T12:29:19Z</time>
</trkpt>
<trkpt lat="39.8795458" lon="3.0184828">
<ele>56.71</ele>
<time>2016-10-16T12:29:27Z</time>
</trkpt>
<trkpt lat="39.8797199" lon="3.0186237">
<ele>56.32</ele>
<time>2016-10-16T12:29:34Z</time>
</trkpt>
<trkpt lat="39.8798734" lon="3.0187498">
<ele>55.87</ele>
<time>2016-10-16T12:29:40Z</time>
</trkpt>
<trkpt lat="39.8797991" lon="3.0189715">
<ele>56.31</ele>
<time>2016-10-16T12:29:48Z</time>
</trkpt>
<trkpt lat="39.8796845" lon="3.0192026">
<ele>56.95</ele>
<time>2016-10-16T12:29:54Z</time>
</trkpt>
<trkpt lat="39.8795034" lon="3.0191411">
<ele>60.26</ele>
<time>2016-10-16T12:30:04Z</time>
</trkpt>
<trkpt lat="39.8793682" lon="3.0189462">
<ele>60.66</ele>
<time>2016-10-16T12:30:08Z</time>
</trkpt>
<trkpt lat="39.8792263" lon="3.0187688">
<ele>56.47</ele>
<time>2016-10-16T12:30:12Z</time>
</trkpt>
<trkpt lat="39.8790615" lon="3.0186109">
<ele>50.02</ele>
<time>2016-10-16T12:30:16Z</time>
</trkpt>
<trkpt lat="39.8789137" lon="3.0184405">
<ele>48.44</ele>
<time>2016-10-16T12:30:23Z</time>
</trkpt>
<trkpt lat="39.8787082" lon="3.0185389">
<ele>45.46</ele>
<time>2016-10-16T12:30:29Z</time>
</trkpt>
<trkpt lat="39.8785693" lon="3.0186951">
<ele>44.72</ele>
<time>2016-10-16T12:30:33Z</time>
</trkpt>
<trkpt lat="39.8783875" lon="3.0188405">
<ele>47.43</ele>
<time>2016-10-16T12:30:37Z</time>
</trkpt>
<trkpt lat="39.8781802" lon="3.0189818">
<ele>49.61</ele>
<time>2016-10-16T12:30:41Z</time>
</trkpt>
<trkpt lat="39.8780198" lon="3.0190980">
<ele>51.32</ele>
<time>2016-10-16T12:30:44Z</time>
</trkpt>
<trkpt lat="39.8778511" lon="3.0192481">
<ele>55.00</ele>
<time>2016-10-16T12:30:49Z</time>
</trkpt>
<trkpt lat="39.8776868" lon="3.0193531">
<ele>53.97</ele>
<time>2016-10-16T12:30:53Z</time>
</trkpt>
<trkpt lat="39.8775190" lon="3.0194539">
<ele>51.76</ele>
<time>2016-10-16T12:30:57Z</time>
</trkpt>
<trkpt lat="39.8773393" lon="3.0195678">
<ele>51.94</ele>
<time>2016-10-16T12:31:01Z</time>
</trkpt>
<trkpt lat="39.8771626" lon="3.0196894">
<ele>51.56</ele>
<time>2016-10-16T12:31:06Z</time>
</trkpt>
<trkpt lat="39.8770143" lon="3.0195509">
<ele>52.00</ele>
<time>2016-10-16T12:31:12Z</time>
</trkpt>
<trkpt lat="39.8768622" lon="3.0193454">
<ele>49.52</ele>
<time>2016-10-16T12:31:17Z</time>
</trkpt>
<trkpt lat="39.8766621" lon="3.0193957">
<ele>46.11</ele>
<time>2016-10-16T12:31:21Z</time>
</trkpt>
<trkpt lat="39.8764973" lon="3.0195204">
<ele>47.29</ele>
<time>2016-10-16T12:31:25Z</time>
</trkpt>
<trkpt lat="39.8763252" lon="3.0196758">
<ele>52.88</ele>
<time>2016-10-16T12:31:30Z</time>
</trkpt>
<trkpt lat="39.8761621" lon="3.0198238">
<ele>53.40</ele>
<time>2016-10-16T12:31:35Z</time>
</trkpt>
<trkpt lat="39.8759874" lon="3.0199676">
<ele>52.73</ele>
<time>2016-10-16T12:31:41Z</time>
</trkpt>
<trkpt lat="39.8757987" lon="3.0201131">
<ele>48.44</ele>
<time>2016-10-16T12:31:47Z</time>
</trkpt>
<trkpt lat="39.8756587" lon="3.0202739">
<ele>46.67</ele>
<time>2016-10-16T12:31:52Z</time>
</trkpt>
<trkpt lat="39.8756529" lon="3.0205596">
<ele>44.52</ele>
<time>2016-10-16T12:31:56Z</time>
</trkpt>
<trkpt lat="39.8756907" lon="3.0208445">
<ele>41.43</ele>
<time>2016-10-16T12:32:00Z</time>
</trkpt>
<trkpt lat="39.8756770" lon="3.0210797">
<ele>40.04</ele>
<time>2016-10-16T12:32:12Z</time>
</trkpt>
<trkpt lat="39.8755843" lon="3.0212970">
<ele>39.98</ele>
<time>2016-10-16T12:32:18Z</time>
</trkpt>
<trkpt lat="39.8755432" lon="3.0215711">
<ele>40.49</ele>
<time>2016-10-16T12:32:23Z</time>
</trkpt>
<trkpt lat="39.8753995" lon="3.0218146">
<ele>39.52</ele>
<time>2016-10-16T12:32:27Z</time>
</trkpt>
<trkpt lat="39.8752193" lon="3.0220234">
<ele>39.77</ele>
<time>2016-10-16T12:32:31Z</time>
</trkpt>
<trkpt lat="39.8750600" lon="3.0221681">
<ele>39.07</ele>
<time>2016-10-16T12:32:34Z</time>
</trkpt>
<trkpt lat="39.8749022" lon="3.0222987">
<ele>39.08</ele>
<time>2016-10-16T12:32:37Z</time>
</trkpt>
<trkpt lat="39.8747320" lon="3.0224344">
<ele>38.47</ele>
<time>2016-10-16T12:32:40Z</time>
</trkpt>
<trkpt lat="39.8745526" lon="3.0225761">
<ele>37.78</ele>
<time>2016-10-16T12:32:43Z</time>
</trkpt>
<trkpt lat="39.8743786" lon="3.0227223">
<ele>39.03</ele>
<time>2016-10-16T12:32:46Z</time>
</trkpt>
<trkpt lat="39.8742555" lon="3.0229219">
<ele>39.34</ele>
<time>2016-10-16T12:32:49Z</time>
</trkpt>
<trkpt lat="39.8741578" lon="3.0231814">
<ele>39.19</ele>
<time>2016-10-16T12:32:52Z</time>
</trkpt>
<trkpt lat="39.8740657" lon="3.0234365">
<ele>38.58</ele>
<time>2016-10-16T12:32:55Z</time>
</trkpt>
<trkpt lat="39.8739548" lon="3.0237120">
<ele>37.59</ele>
<time>2016-10-16T12:32:58Z</time>
</trkpt>
<trkpt lat="39.8738210" lon="3.0239829">
<ele>37.06</ele>
<time>2016-10-16T12:33:01Z</time>
</trkpt>
<trkpt lat="39.8736967" lon="3.0242342">
<ele>36.77</ele>
<time>2016-10-16T12:33:04Z</time>
</trkpt>
<trkpt lat="39.8735737" lon="3.0245165">
<ele>36.62</ele>
<time>2016-10-16T12:33:07Z</time>
</trkpt>
<trkpt lat="39.8734611" lon="3.0248206">
<ele>36.52</ele>
<time>2016-10-16T12:33:10Z</time>
</trkpt>
<trkpt lat="39.8733562" lon="3.0251181">
<ele>35.96</ele>
<time>2016-10-16T12:33:13Z</time>
</trkpt>
<trkpt lat="39.8732448" lon="3.0254276">
<ele>35.25</ele>
<time>2016-10-16T12:33:16Z</time>
</trkpt>
<trkpt lat="39.8731353" lon="3.0257189">
<ele>35.81</ele>
<time>2016-10-16T12:33:19Z</time>
</trkpt>
<trkpt lat="39.8730291" lon="3.0260026">
<ele>35.19</ele>
<time>2016-10-16T12:33:22Z</time>
</trkpt>
<trkpt lat="39.8729313" lon="3.0262751">
<ele>34.37</ele>
<time>2016-10-16T12:33:25Z</time>
</trkpt>
<trkpt lat="39.8728923" lon="3.0265449">
<ele>33.86</ele>
<time>2016-10-16T12:33:28Z</time>
</trkpt>
<trkpt lat="39.8728601" lon="3.0268494">
<ele>34.33</ele>
<time>2016-10-16T12:33:31Z</time>
</trkpt>
<trkpt lat="39.8728350" lon="3.0271615">
<ele>33.93</ele>
<time>2016-10-16T12:33:34Z</time>
</trkpt>
<trkpt lat="39.8728184" lon="3.0274713">
<ele>32.89</ele>
<time>2016-10-16T12:33:37Z</time>
</trkpt>
<trkpt lat="39.8727755" lon="3.0277810">
<ele>32.25</ele>
<time>2016-10-16T12:33:40Z</time>
</trkpt>
<trkpt lat="39.8727051" lon="3.0280955">
<ele>31.45</ele>
<time>2016-10-16T12:33:43Z</time>
</trkpt>
<trkpt lat="39.8726056" lon="3.0283832">
<ele>30.53</ele>
<time>2016-10-16T12:33:46Z</time>
</trkpt>
<trkpt lat="39.8724958" lon="3.0286630">
<ele>29.72</ele>
<time>2016-10-16T12:33:49Z</time>
</trkpt>
<trkpt lat="39.8723842" lon="3.0289323">
<ele>29.99</ele>
<time>2016-10-16T12:33:52Z</time>
</trkpt>
<trkpt lat="39.8722694" lon="3.0292052">
<ele>29.49</ele>
<time>2016-10-16T12:33:55Z</time>
</trkpt>
<trkpt lat="39.8721581" lon="3.0294616">
<ele>29.12</ele>
<time>2016-10-16T12:33:58Z</time>
</trkpt>
<trkpt lat="39.8720525" lon="3.0297220">
<ele>29.03</ele>
<time>2016-10-16T12:34:01Z</time>
</trkpt>
<trkpt lat="39.8719455" lon="3.0299929">
<ele>29.09</ele>
<time>2016-10-16T12:34:04Z</time>
</trkpt>
<trkpt lat="39.8718309" lon="3.0302652">
<ele>28.32</ele>
<time>2016-10-16T12:34:07Z</time>
</trkpt>
<trkpt lat="39.8717237" lon="3.0305565">
<ele>28.03</ele>
<time>2016-10-16T12:34:10Z</time>
</trkpt>
<trkpt lat="39.8716519" lon="3.0308523">
<ele>27.99</ele>
<time>2016-10-16T12:34:13Z</time>
</trkpt>
<trkpt lat="39.8716575" lon="3.0311983">
<ele>27.52</ele>
<time>2016-10-16T12:34:16Z</time>
</trkpt>
<trkpt lat="39.8716752" lon="3.0315411">
<ele>27.42</ele>
<time>2016-10-16T12:34:19Z</time>
</trkpt>
<trkpt lat="39.8716366" lon="3.0317704">
<ele>27.44</ele>
<time>2016-10-16T12:34:21Z</time>
</trkpt>
<trkpt lat="39.8715513" lon="3.0321055">
<ele>27.60</ele>
<time>2016-10-16T12:34:24Z</time>
</trkpt>
<trkpt lat="39.8714837" lon="3.0323381">
<ele>27.49</ele>
<time>2016-10-16T12:34:26Z</time>
</trkpt>
<trkpt lat="39.8714053" lon="3.0325783">
<ele>26.69</ele>
<time>2016-10-16T12:34:28Z</time>
</trkpt>
<trkpt lat="39.8712884" lon="3.0328902">
<ele>25.22</ele>
<time>2016-10-16T12:34:31Z</time>
</trkpt>
<trkpt lat="39.8711659" lon="3.0331856">
<ele>26.17</ele>
<time>2016-10-16T12:34:34Z</time>
</trkpt>
<trkpt lat="39.8710775" lon="3.0333991">
<ele>26.80</ele>
<time>2016-10-16T12:34:36Z</time>
</trkpt>
<trkpt lat="39.8709950" lon="3.0336173">
<ele>26.27</ele>
<time>2016-10-16T12:34:38Z</time>
</trkpt>
<trkpt lat="39.8708872" lon="3.0339317">
<ele>24.99</ele>
<time>2016-10-16T12:34:41Z</time>
</trkpt>
<trkpt lat="39.8707942" lon="3.0342156">
<ele>23.64</ele>
<time>2016-10-16T12:34:44Z</time>
</trkpt>
<trkpt lat="39.8706935" lon="3.0344910">
<ele>23.25</ele>
<time>2016-10-16T12:34:47Z</time>
</trkpt>
<trkpt lat="39.8705886" lon="3.0347655">
<ele>23.69</ele>
<time>2016-10-16T12:34:50Z</time>
</trkpt>
<trkpt lat="39.8704814" lon="3.0350466">
<ele>23.20</ele>
<time>2016-10-16T12:34:53Z</time>
</trkpt>
<trkpt lat="39.8703833" lon="3.0353027">
<ele>23.01</ele>
<time>2016-10-16T12:34:56Z</time>
</trkpt>
<trkpt lat="39.8702886" lon="3.0355554">
<ele>22.60</ele>
<time>2016-10-16T12:34:59Z</time>
</trkpt>
<trkpt lat="39.8701913" lon="3.0358249">
<ele>23.22</ele>
<time>2016-10-16T12:35:02Z</time>
</trkpt>
<trkpt lat="39.8701169" lon="3.0360910">
<ele>23.16</ele>
<time>2016-10-16T12:35:05Z</time>
</trkpt>
<trkpt lat="39.8700567" lon="3.0363529">
<ele>23.94</ele>
<time>2016-10-16T12:35:08Z</time>
</trkpt>
<trkpt lat="39.8700040" lon="3.0366211">
<ele>24.26</ele>
<time>2016-10-16T12:35:11Z</time>
</trkpt>
<trkpt lat="39.8699422" lon="3.0369086">
<ele>23.69</ele>
<time>2016-10-16T12:35:14Z</time>
</trkpt>
<trkpt lat="39.8698766" lon="3.0371908">
<ele>23.51</ele>
<time>2016-10-16T12:35:17Z</time>
</trkpt>
<trkpt lat="39.8698142" lon="3.0374739">
<ele>22.45</ele>
<time>2016-10-16T12:35:20Z</time>
</trkpt>
<trkpt lat="39.8697641" lon="3.0377454">
<ele>23.07</ele>
<time>2016-10-16T12:35:23Z</time>
</trkpt>
<trkpt lat="39.8697034" lon="3.0380027">
<ele>24.70</ele>
<time>2016-10-16T12:35:26Z</time>
</trkpt>
<trkpt lat="39.8696198" lon="3.0382190">
<ele>25.70</ele>
<time>2016-10-16T12:35:29Z</time>
</trkpt>
<trkpt lat="39.8694933" lon="3.0383994">
<ele>26.78</ele>
<time>2016-10-16T12:35:32Z</time>
</trkpt>
<trkpt lat="39.8693284" lon="3.0385728">
<ele>26.47</ele>
<time>2016-10-16T12:35:35Z</time>
</trkpt>
<trkpt lat="39.8691741" lon="3.0387497">
<ele>27.82</ele>
<time>2016-10-16T12:35:38Z</time>
</trkpt>
<trkpt lat="39.8690421" lon="3.0389403">
<ele>27.69</ele>
<time>2016-10-16T12:35:41Z</time>
</trkpt>
<trkpt lat="39.8689168" lon="3.0391279">
<ele>26.95</ele>
<time>2016-10-16T12:35:44Z</time>
</trkpt>
<trkpt lat="39.8687711" lon="3.0393512">
<ele>26.76</ele>
<time>2016-10-16T12:35:48Z</time>
</trkpt>
<trkpt lat="39.8686409" lon="3.0395663">
<ele>26.15</ele>
<time>2016-10-16T12:35:52Z</time>
</trkpt>
<trkpt lat="39.8685266" lon="3.0397511">
<ele>26.33</ele>
<time>2016-10-16T12:35:56Z</time>
</trkpt>
<trkpt lat="39.8683418" lon="3.0398778">
<ele>29.34</ele>
<time>2016-10-16T12:36:01Z</time>
</trkpt>
<trkpt lat="39.8681619" lon="3.0399396">
<ele>34.33</ele>
<time>2016-10-16T12:36:06Z</time>
</trkpt>
<trkpt lat="39.8679713" lon="3.0400038">
<ele>37.53</ele>
<time>2016-10-16T12:36:11Z</time>
</trkpt>
<trkpt lat="39.8677668" lon="3.0400796">
<ele>36.58</ele>
<time>2016-10-16T12:36:16Z</time>
</trkpt>
<trkpt lat="39.8675988" lon="3.0401944">
<ele>37.43</ele>
<time>2016-10-16T12:36:21Z</time>
</trkpt>
<trkpt lat="39.8674201" lon="3.0403641">
<ele>37.36</ele>
<time>2016-10-16T12:36:26Z</time>
</trkpt>
<trkpt lat="39.8672747" lon="3.0405121">
<ele>36.72</ele>
<time>2016-10-16T12:36:30Z</time>
</trkpt>
<trkpt lat="39.8671194" lon="3.0406637">
<ele>37.47</ele>
<time>2016-10-16T12:36:35Z</time>
</trkpt>
<trkpt lat="39.8669627" lon="3.0408303">
<ele>39.11</ele>
<time>2016-10-16T12:36:40Z</time>
</trkpt>
<trkpt lat="39.8667951" lon="3.0410067">
<ele>39.10</ele>
<time>2016-10-16T12:36:45Z</time>
</trkpt>
<trkpt lat="39.8666160" lon="3.0411785">
<ele>40.45</ele>
<time>2016-10-16T12:36:50Z</time>
</trkpt>
<trkpt lat="39.8664512" lon="3.0413509">
<ele>41.79</ele>
<time>2016-10-16T12:36:55Z</time>
</trkpt>
<trkpt lat="39.8662759" lon="3.0415311">
<ele>40.52</ele>
<time>2016-10-16T12:37:00Z</time>
</trkpt>
<trkpt lat="39.8660986" lon="3.0417183">
<ele>40.93</ele>
<time>2016-10-16T12:37:04Z</time>
</trkpt>
<trkpt lat="39.8659403" lon="3.0418813">
<ele>41.30</ele>
<time>2016-10-16T12:37:07Z</time>
</trkpt>
<trkpt lat="39.8657736" lon="3.0420484">
<ele>41.43</ele>
<time>2016-10-16T12:37:10Z</time>
</trkpt>
<trkpt lat="39.8655992" lon="3.0422185">
<ele>39.64</ele>
<time>2016-10-16T12:37:13Z</time>
</trkpt>
<trkpt lat="39.8654110" lon="3.0423984">
<ele>37.50</ele>
<time>2016-10-16T12:37:16Z</time>
</trkpt>
<trkpt lat="39.8652494" lon="3.0425721">
<ele>36.72</ele>
<time>2016-10-16T12:37:19Z</time>
</trkpt>
<trkpt lat="39.8651070" lon="3.0427486">
<ele>37.01</ele>
<time>2016-10-16T12:37:22Z</time>
</trkpt>
<trkpt lat="39.8649746" lon="3.0429170">
<ele>38.29</ele>
<time>2016-10-16T12:37:25Z</time>
</trkpt>
<trkpt lat="39.8647950" lon="3.0431273">
<ele>38.94</ele>
<time>2016-10-16T12:37:29Z</time>
</trkpt>
<trkpt lat="39.8646566" lon="3.0432895">
<ele>39.15</ele>
<time>2016-10-16T12:37:32Z</time>
</trkpt>
<trkpt lat="39.8644842" lon="3.0434944">
<ele>39.98</ele>
<time>2016-10-16T12:37:36Z</time>
</trkpt>
<trkpt lat="39.8643324" lon="3.0436652">
<ele>41.21</ele>
<time>2016-10-16T12:37:40Z</time>
</trkpt>
<trkpt lat="39.8641683" lon="3.0438448">
<ele>41.23</ele>
<time>2016-10-16T12:37:44Z</time>
</trkpt>
<trkpt lat="39.8640101" lon="3.0440242">
<ele>40.60</ele>
<time>2016-10-16T12:37:49Z</time>
</trkpt>
<trkpt lat="39.8638694" lon="3.0441997">
<ele>44.13</ele>
<time>2016-10-16T12:37:53Z</time>
</trkpt>
<trkpt lat="39.8637206" lon="3.0443924">
<ele>45.20</ele>
<time>2016-10-16T12:37:57Z</time>
</trkpt>
<trkpt lat="39.8635909" lon="3.0445844">
<ele>45.36</ele>
<time>2016-10-16T12:38:00Z</time>
</trkpt>
<trkpt lat="39.8634420" lon="3.0448005">
<ele>45.73</ele>
<time>2016-10-16T12:38:03Z</time>
</trkpt>
<trkpt lat="39.8632709" lon="3.0450585">
<ele>44.04</ele>
<time>2016-10-16T12:38:06Z</time>
</trkpt>
<trkpt lat="39.8631437" lon="3.0452439">
<ele>41.95</ele>
<time>2016-10-16T12:38:08Z</time>
</trkpt>
<trkpt lat="39.8630225" lon="3.0454244">
<ele>40.00</ele>
<time>2016-10-16T12:38:10Z</time>
</trkpt>
<trkpt lat="39.8628923" lon="3.0456233">
<ele>38.60</ele>
<time>2016-10-16T12:38:12Z</time>
</trkpt>
<trkpt lat="39.8627613" lon="3.0458282">
<ele>37.49</ele>
<time>2016-10-16T12:38:14Z</time>
</trkpt>
<trkpt lat="39.8626373" lon="3.0460321">
<ele>36.45</ele>
<time>2016-10-16T12:38:16Z</time>
</trkpt>
<trkpt lat="39.8625086" lon="3.0462324">
<ele>34.91</ele>
<time>2016-10-16T12:38:18Z</time>
</trkpt>
<trkpt lat="39.8623745" lon="3.0464242">
<ele>32.92</ele>
<time>2016-10-16T12:38:20Z</time>
</trkpt>
<trkpt lat="39.8622094" lon="3.0465871">
<ele>31.07</ele>
<time>2016-10-16T12:38:22Z</time>
</trkpt>
<trkpt lat="39.8620381" lon="3.0467391">
<ele>29.62</ele>
<time>2016-10-16T12:38:24Z</time>
</trkpt>
<trkpt lat="39.8618726" lon="3.0469227">
<ele>28.62</ele>
<time>2016-10-16T12:38:26Z</time>
</trkpt>
<trkpt lat="39.8617265" lon="3.0471107">
<ele>28.50</ele>
<time>2016-10-16T12:38:28Z</time>
</trkpt>
<trkpt lat="39.8615816" lon="3.0473084">
<ele>28.25</ele>
<time>2016-10-16T12:38:30Z</time>
</trkpt>
<trkpt lat="39.8614397" lon="3.0475058">
<ele>27.82</ele>
<time>2016-10-16T12:38:32Z</time>
</trkpt>
<trkpt lat="39.8612945" lon="3.0477167">
<ele>26.97</ele>
<time>2016-10-16T12:38:34Z</time>
</trkpt>
<trkpt lat="39.8611611" lon="3.0479146">
<ele>26.05</ele>
<time>2016-10-16T12:38:36Z</time>
</trkpt>
<trkpt lat="39.8610240" lon="3.0481114">
<ele>25.46</ele>
<time>2016-10-16T12:38:38Z</time>
</trkpt>
<trkpt lat="39.8608824" lon="3.0483221">
<ele>25.13</ele>
<time>2016-10-16T12:38:40Z</time>
</trkpt>
<trkpt lat="39.8607454" lon="3.0485275">
<ele>24.92</ele>
<time>2016-10-16T12:38:42Z</time>
</trkpt>
<trkpt lat="39.8606064" lon="3.0487262">
<ele>24.50</ele>
<time>2016-10-16T12:38:44Z</time>
</trkpt>
<trkpt lat="39.8604584" lon="3.0489325">
<ele>23.61</ele>
<time>2016-10-16T12:38:46Z</time>
</trkpt>
<trkpt lat="39.8603086" lon="3.0491254">
<ele>22.75</ele>
<time>2016-10-16T12:38:48Z</time>
</trkpt>
<trkpt lat="39.8601595" lon="3.0493124">
<ele>21.60</ele>
<time>2016-10-16T12:38:50Z</time>
</trkpt>
<trkpt lat="39.8599999" lon="3.0495111">
<ele>21.24</ele>
<time>2016-10-16T12:38:52Z</time>
</trkpt>
<trkpt lat="39.8598366" lon="3.0497254">
<ele>20.40</ele>
<time>2016-10-16T12:38:54Z</time>
</trkpt>
<trkpt lat="39.8596704" lon="3.0499342">
<ele>19.80</ele>
<time>2016-10-16T12:38:56Z</time>
</trkpt>
<trkpt lat="39.8595242" lon="3.0501272">
<ele>18.34</ele>
<time>2016-10-16T12:38:58Z</time>
</trkpt>
<trkpt lat="39.8593790" lon="3.0503258">
<ele>17.67</ele>
<time>2016-10-16T12:39:00Z</time>
</trkpt>
<trkpt lat="39.8592292" lon="3.0505291">
<ele>18.00</ele>
<time>2016-10-16T12:39:02Z</time>
</trkpt>
<trkpt lat="39.8590880" lon="3.0507195">
<ele>18.90</ele>
<time>2016-10-16T12:39:04Z</time>
</trkpt>
<trkpt lat="39.8589139" lon="3.0509511">
<ele>18.95</ele>
<time>2016-10-16T12:39:07Z</time>
</trkpt>
<trkpt lat="39.8587294" lon="3.0511746">
<ele>19.28</ele>
<time>2016-10-16T12:39:10Z</time>
</trkpt>
<trkpt lat="39.8585752" lon="3.0513610">
<ele>18.88</ele>
<time>2016-10-16T12:39:13Z</time>
</trkpt>
<trkpt lat="39.8584244" lon="3.0515455">
<ele>18.90</ele>
<time>2016-10-16T12:39:16Z</time>
</trkpt>
<trkpt lat="39.8582665" lon="3.0517414">
<ele>19.64</ele>
<time>2016-10-16T12:39:19Z</time>
</trkpt>
<trkpt lat="39.8581054" lon="3.0519497">
<ele>20.22</ele>
<time>2016-10-16T12:39:22Z</time>
</trkpt>
<trkpt lat="39.8579250" lon="3.0521830">
<ele>20.49</ele>
<time>2016-10-16T12:39:25Z</time>
</trkpt>
<trkpt lat="39.8577531" lon="3.0524122">
<ele>19.31</ele>
<time>2016-10-16T12:39:28Z</time>
</trkpt>
<trkpt lat="39.8575901" lon="3.0526183">
<ele>18.17</ele>
<time>2016-10-16T12:39:31Z</time>
</trkpt>
<trkpt lat="39.8574334" lon="3.0528205">
<ele>17.91</ele>
<time>2016-10-16T12:39:34Z</time>
</trkpt>
<trkpt lat="39.8572815" lon="3.0530078">
<ele>18.20</ele>
<time>2016-10-16T12:39:37Z</time>
</trkpt>
<trkpt lat="39.8571565" lon="3.0531921">
<ele>18.81</ele>
<time>2016-10-16T12:39:40Z</time>
</trkpt>
<trkpt lat="39.8570663" lon="3.0534295">
<ele>20.04</ele>
<time>2016-10-16T12:39:44Z</time>
</trkpt>
<trkpt lat="39.8570345" lon="3.0536871">
<ele>21.37</ele>
<time>2016-10-16T12:39:48Z</time>
</trkpt>
<trkpt lat="39.8570212" lon="3.0539278">
<ele>22.34</ele>
<time>2016-10-16T12:39:52Z</time>
</trkpt>
<trkpt lat="39.8569755" lon="3.0542160">
<ele>22.65</ele>
<time>2016-10-16T12:39:57Z</time>
</trkpt>
<trkpt lat="39.8569076" lon="3.0544918">
<ele>22.58</ele>
<time>2016-10-16T12:40:00Z</time>
</trkpt>
<trkpt lat="39.8567752" lon="3.0547437">
<ele>21.62</ele>
<time>2016-10-16T12:40:03Z</time>
</trkpt>
<trkpt lat="39.8566352" lon="3.0549759">
<ele>20.58</ele>
<time>2016-10-16T12:40:06Z</time>
</trkpt>
<trkpt lat="39.8564768" lon="3.0552108">
<ele>19.33</ele>
<time>2016-10-16T12:40:09Z</time>
</trkpt>
<trkpt lat="39.8563220" lon="3.0554306">
<ele>17.49</ele>
<time>2016-10-16T12:40:12Z</time>
</trkpt>
<trkpt lat="39.8561669" lon="3.0556500">
<ele>16.54</ele>
<time>2016-10-16T12:40:15Z</time>
</trkpt>
<trkpt lat="39.8560226" lon="3.0558706">
<ele>16.99</ele>
<time>2016-10-16T12:40:18Z</time>
</trkpt>
<trkpt lat="39.8558900" lon="3.0560825">
<ele>17.58</ele>
<time>2016-10-16T12:40:21Z</time>
</trkpt>
<trkpt lat="39.8557606" lon="3.0563003">
<ele>19.35</ele>
<time>2016-10-16T12:40:24Z</time>
</trkpt>
<trkpt lat="39.8556172" lon="3.0565391">
<ele>20.07</ele>
<time>2016-10-16T12:40:27Z</time>
</trkpt>
<trkpt lat="39.8554790" lon="3.0567693">
<ele>20.02</ele>
<time>2016-10-16T12:40:30Z</time>
</trkpt>
<trkpt lat="39.8553509" lon="3.0569633">
<ele>18.96</ele>
<time>2016-10-16T12:40:33Z</time>
</trkpt>
<trkpt lat="39.8552145" lon="3.0571834">
<ele>17.09</ele>
<time>2016-10-16T12:40:36Z</time>
</trkpt>
<trkpt lat="39.8550721" lon="3.0573986">
<ele>16.76</ele>
<time>2016-10-16T12:40:39Z</time>
</trkpt>
<trkpt lat="39.8549284" lon="3.0576171">
<ele>16.94</ele>
<time>2016-10-16T12:40:42Z</time>
</trkpt>
<trkpt lat="39.8547926" lon="3.0578225">
<ele>17.45</ele>
<time>2016-10-16T12:40:45Z</time>
</trkpt>
<trkpt lat="39.8546496" lon="3.0580328">
<ele>17.37</ele>
<time>2016-10-16T12:40:48Z</time>
</trkpt>
<trkpt lat="39.8545153" lon="3.0582375">
<ele>16.35</ele>
<time>2016-10-16T12:40:51Z</time>
</trkpt>
<trkpt lat="39.8543736" lon="3.0584694">
<ele>16.21</ele>
<time>2016-10-16T12:40:54Z</time>
</trkpt>
<trkpt lat="39.8542345" lon="3.0586691">
<ele>16.98</ele>
<time>2016-10-16T12:40:57Z</time>
</trkpt>
<trkpt lat="39.8540723" lon="3.0588996">
<ele>16.50</ele>
<time>2016-10-16T12:41:00Z</time>
</trkpt>
<trkpt lat="39.8539242" lon="3.0591119">
<ele>14.94</ele>
<time>2016-10-16T12:41:03Z</time>
</trkpt>
<trkpt lat="39.8537870" lon="3.0593348">
<ele>14.42</ele>
<time>2016-10-16T12:41:06Z</time>
</trkpt>
<trkpt lat="39.8536548" lon="3.0595413">
<ele>13.93</ele>
<time>2016-10-16T12:41:09Z</time>
</trkpt>
<trkpt lat="39.8535136" lon="3.0597624">
<ele>13.84</ele>
<time>2016-10-16T12:41:12Z</time>
</trkpt>
<trkpt lat="39.8533787" lon="3.0599674">
<ele>14.01</ele>
<time>2016-10-16T12:41:15Z</time>
</trkpt>
<trkpt lat="39.8532209" lon="3.0601004">
<ele>14.87</ele>
<time>2016-10-16T12:41:18Z</time>
</trkpt>
<trkpt lat="39.8530330" lon="3.0602314">
<ele>16.21</ele>
<time>2016-10-16T12:41:22Z</time>
</trkpt>
<trkpt lat="39.8529715" lon="3.0604617">
<ele>16.02</ele>
<time>2016-10-16T12:41:25Z</time>
</trkpt>
<trkpt lat="39.8529182" lon="3.0607577">
<ele>14.26</ele>
<time>2016-10-16T12:41:28Z</time>
</trkpt>
<trkpt lat="39.8528476" lon="3.0610527">
<ele>12.93</ele>
<time>2016-10-16T12:41:31Z</time>
</trkpt>
<trkpt lat="39.8527780" lon="3.0613388">
<ele>12.68</ele>
<time>2016-10-16T12:41:34Z</time>
</trkpt>
<trkpt lat="39.8527056" lon="3.0616213">
<ele>12.90</ele>
<time>2016-10-16T12:41:37Z</time>
</trkpt>
<trkpt lat="39.8526317" lon="3.0619372">
<ele>12.91</ele>
<time>2016-10-16T12:41:40Z</time>
</trkpt>
<trkpt lat="39.8525600" lon="3.0622177">
<ele>12.03</ele>
<time>2016-10-16T12:41:43Z</time>
</trkpt>
<trkpt lat="39.8524988" lon="3.0624651">
<ele>11.16</ele>
<time>2016-10-16T12:41:46Z</time>
</trkpt>
<trkpt lat="39.8524326" lon="3.0627302">
<ele>10.49</ele>
<time>2016-10-16T12:41:49Z</time>
</trkpt>
<trkpt lat="39.8523664" lon="3.0629860">
<ele>10.15</ele>
<time>2016-10-16T12:41:52Z</time>
</trkpt>
<trkpt lat="39.8523044" lon="3.0632380">
<ele>10.06</ele>
<time>2016-10-16T12:41:55Z</time>
</trkpt>
<trkpt lat="39.8522435" lon="3.0634816">
<ele>9.80</ele>
<time>2016-10-16T12:41:58Z</time>
</trkpt>
<trkpt lat="39.8521803" lon="3.0637351">
<ele>9.57</ele>
<time>2016-10-16T12:42:01Z</time>
</trkpt>
<trkpt lat="39.8521228" lon="3.0639823">
<ele>9.65</ele>
<time>2016-10-16T12:42:04Z</time>
</trkpt>
<trkpt lat="39.8520626" lon="3.0642210">
<ele>9.88</ele>
<time>2016-10-16T12:42:07Z</time>
</trkpt>
<trkpt lat="39.8520017" lon="3.0644657">
<ele>10.26</ele>
<time>2016-10-16T12:42:10Z</time>
</trkpt>
<trkpt lat="39.8519434" lon="3.0647122">
<ele>9.85</ele>
<time>2016-10-16T12:42:13Z</time>
</trkpt>
<trkpt lat="39.8518893" lon="3.0649483">
<ele>10.54</ele>
<time>2016-10-16T12:42:16Z</time>
</trkpt>
<trkpt lat="39.8518312" lon="3.0652052">
<ele>11.17</ele>
<time>2016-10-16T12:42:19Z</time>
</trkpt>
<trkpt lat="39.8517723" lon="3.0654656">
<ele>10.70</ele>
<time>2016-10-16T12:42:22Z</time>
</trkpt>
<trkpt lat="39.8517091" lon="3.0657274">
<ele>9.91</ele>
<time>2016-10-16T12:42:25Z</time>
</trkpt>
<trkpt lat="39.8516499" lon="3.0659781">
<ele>8.80</ele>
<time>2016-10-16T12:42:28Z</time>
</trkpt>
<trkpt lat="39.8515766" lon="3.0662770">
<ele>9.61</ele>
<time>2016-10-16T12:42:32Z</time>
</trkpt>
<trkpt lat="39.8515135" lon="3.0665212">
<ele>10.39</ele>
<time>2016-10-16T12:42:35Z</time>
</trkpt>
<trkpt lat="39.8514567" lon="3.0667544">
<ele>10.48</ele>
<time>2016-10-16T12:42:38Z</time>
</trkpt>
<trkpt lat="39.8513971" lon="3.0669914">
<ele>10.74</ele>
<time>2016-10-16T12:42:41Z</time>
</trkpt>
<trkpt lat="39.8513336" lon="3.0672414">
<ele>10.39</ele>
<time>2016-10-16T12:42:44Z</time>
</trkpt>
<trkpt lat="39.8512725" lon="3.0674770">
<ele>10.03</ele>
<time>2016-10-16T12:42:47Z</time>
</trkpt>
<trkpt lat="39.8512071" lon="3.0677170">
<ele>9.65</ele>
<time>2016-10-16T12:42:50Z</time>
</trkpt>
<trkpt lat="39.8511467" lon="3.0679501">
<ele>9.15</ele>
<time>2016-10-16T12:42:53Z</time>
</trkpt>
<trkpt lat="39.8510870" lon="3.0681799">
<ele>8.77</ele>
<time>2016-10-16T12:42:56Z</time>
</trkpt>
<trkpt lat="39.8510323" lon="3.0684043">
<ele>8.84</ele>
<time>2016-10-16T12:42:59Z</time>
</trkpt>
<trkpt lat="39.8509786" lon="3.0686333">
<ele>9.93</ele>
<time>2016-10-16T12:43:02Z</time>
</trkpt>
<trkpt lat="39.8509063" lon="3.0688568">
<ele>11.16</ele>
<time>2016-10-16T12:43:05Z</time>
</trkpt>
<trkpt lat="39.8508083" lon="3.0690986">
<ele>11.30</ele>
<time>2016-10-16T12:43:08Z</time>
</trkpt>
<trkpt lat="39.8507036" lon="3.0693194">
<ele>11.49</ele>
<time>2016-10-16T12:43:11Z</time>
</trkpt>
<trkpt lat="39.8505888" lon="3.0695616">
<ele>10.16</ele>
<time>2016-10-16T12:43:14Z</time>
</trkpt>
<trkpt lat="39.8504864" lon="3.0697822">
<ele>8.84</ele>
<time>2016-10-16T12:43:17Z</time>
</trkpt>
<trkpt lat="39.8503813" lon="3.0700058">
<ele>8.02</ele>
<time>2016-10-16T12:43:20Z</time>
</trkpt>
<trkpt lat="39.8502859" lon="3.0702049">
<ele>8.62</ele>
<time>2016-10-16T12:43:23Z</time>
</trkpt>
<trkpt lat="39.8501860" lon="3.0704019">
<ele>9.40</ele>
<time>2016-10-16T12:43:26Z</time>
</trkpt>
<trkpt lat="39.8500718" lon="3.0706278">
<ele>9.04</ele>
<time>2016-10-16T12:43:29Z</time>
</trkpt>
<trkpt lat="39.8499678" lon="3.0708383">
<ele>8.35</ele>
<time>2016-10-16T12:43:32Z</time>
</trkpt>
<trkpt lat="39.8498446" lon="3.0710905">
<ele>8.02</ele>
<time>2016-10-16T12:43:36Z</time>
</trkpt>
<trkpt lat="39.8497154" lon="3.0713169">
<ele>8.58</ele>
<time>2016-10-16T12:43:40Z</time>
</trkpt>
<trkpt lat="39.8495598" lon="3.0715405">
<ele>8.68</ele>
<time>2016-10-16T12:43:44Z</time>
</trkpt>
<trkpt lat="39.8494346" lon="3.0717162">
<ele>7.87</ele>
<time>2016-10-16T12:43:47Z</time>
</trkpt>
<trkpt lat="39.8492941" lon="3.0719251">
<ele>7.73</ele>
<time>2016-10-16T12:43:50Z</time>
</trkpt>
<trkpt lat="39.8491538" lon="3.0721204">
<ele>8.31</ele>
<time>2016-10-16T12:43:53Z</time>
</trkpt>
<trkpt lat="39.8489904" lon="3.0723383">
<ele>8.83</ele>
<time>2016-10-16T12:43:56Z</time>
</trkpt>
<trkpt lat="39.8488188" lon="3.0725581">
<ele>8.17</ele>
<time>2016-10-16T12:43:59Z</time>
</trkpt>
<trkpt lat="39.8486656" lon="3.0727626">
<ele>7.96</ele>
<time>2016-10-16T12:44:02Z</time>
</trkpt>
<trkpt lat="39.8485220" lon="3.0729675">
<ele>7.11</ele>
<time>2016-10-16T12:44:05Z</time>
</trkpt>
<trkpt lat="39.8483775" lon="3.0731796">
<ele>6.63</ele>
<time>2016-10-16T12:44:08Z</time>
</trkpt>
<trkpt lat="39.8482260" lon="3.0733849">
<ele>6.22</ele>
<time>2016-10-16T12:44:11Z</time>
</trkpt>
<trkpt lat="39.8480828" lon="3.0735812">
<ele>6.09</ele>
<time>2016-10-16T12:44:14Z</time>
</trkpt>
<trkpt lat="39.8479375" lon="3.0737822">
<ele>6.01</ele>
<time>2016-10-16T12:44:17Z</time>
</trkpt>
<trkpt lat="39.8477958" lon="3.0739845">
<ele>6.22</ele>
<time>2016-10-16T12:44:20Z</time>
</trkpt>
<trkpt lat="39.8476499" lon="3.0741732">
<ele>6.53</ele>
<time>2016-10-16T12:44:23Z</time>
</trkpt>
<trkpt lat="39.8475171" lon="3.0743565">
<ele>6.93</ele>
<time>2016-10-16T12:44:26Z</time>
</trkpt>
<trkpt lat="39.8473546" lon="3.0745804">
<ele>7.93</ele>
<time>2016-10-16T12:44:30Z</time>
</trkpt>
<trkpt lat="39.8471906" lon="3.0747896">
<ele>7.85</ele>
<time>2016-10-16T12:44:34Z</time>
</trkpt>
<trkpt lat="39.8470632" lon="3.0749756">
<ele>7.91</ele>
<time>2016-10-16T12:44:37Z</time>
</trkpt>
<trkpt lat="39.8469406" lon="3.0751512">
<ele>7.75</ele>
<time>2016-10-16T12:44:40Z</time>
</trkpt>
<trkpt lat="39.8467822" lon="3.0753642">
<ele>8.84</ele>
<time>2016-10-16T12:44:44Z</time>
</trkpt>
<trkpt lat="39.8466164" lon="3.0755889">
<ele>10.61</ele>
<time>2016-10-16T12:44:48Z</time>
</trkpt>
<trkpt lat="39.8464889" lon="3.0757670">
<ele>11.78</ele>
<time>2016-10-16T12:44:51Z</time>
</trkpt>
<trkpt lat="39.8463582" lon="3.0759418">
<ele>12.59</ele>
<time>2016-10-16T12:44:54Z</time>
</trkpt>
<trkpt lat="39.8462274" lon="3.0761212">
<ele>12.58</ele>
<time>2016-10-16T12:44:57Z</time>
</trkpt>
<trkpt lat="39.8460989" lon="3.0763038">
<ele>11.83</ele>
<time>2016-10-16T12:45:00Z</time>
</trkpt>
<trkpt lat="39.8459752" lon="3.0764899">
<ele>10.35</ele>
<time>2016-10-16T12:45:03Z</time>
</trkpt>
<trkpt lat="39.8458537" lon="3.0766627">
<ele>9.84</ele>
<time>2016-10-16T12:45:06Z</time>
</trkpt>
<trkpt lat="39.8457223" lon="3.0768422">
<ele>9.52</ele>
<time>2016-10-16T12:45:09Z</time>
</trkpt>
<trkpt lat="39.8455876" lon="3.0770062">
<ele>9.81</ele>
<time>2016-10-16T12:45:12Z</time>
</trkpt>
<trkpt lat="39.8454187" lon="3.0772233">
<ele>10.22</ele>
<time>2016-10-16T12:45:16Z</time>
</trkpt>
<trkpt lat="39.8452933" lon="3.0773998">
<ele>10.31</ele>
<time>2016-10-16T12:45:19Z</time>
</trkpt>
<trkpt lat="39.8451405" lon="3.0776190">
<ele>10.55</ele>
<time>2016-10-16T12:45:23Z</time>
</trkpt>
<trkpt lat="39.8450144" lon="3.0777898">
<ele>10.26</ele>
<time>2016-10-16T12:45:26Z</time>
</trkpt>
<trkpt lat="39.8448697" lon="3.0779955">
<ele>9.70</ele>
<time>2016-10-16T12:45:30Z</time>
</trkpt>
<trkpt lat="39.8447253" lon="3.0781996">
<ele>9.67</ele>
<time>2016-10-16T12:45:34Z</time>
</trkpt>
<trkpt lat="39.8445812" lon="3.0783978">
<ele>10.33</ele>
<time>2016-10-16T12:45:38Z</time>
</trkpt>
<trkpt lat="39.8444528" lon="3.0785798">
<ele>10.86</ele>
<time>2016-10-16T12:45:42Z</time>
</trkpt>
<trkpt lat="39.8443068" lon="3.0787478">
<ele>11.92</ele>
<time>2016-10-16T12:45:46Z</time>
</trkpt>
<trkpt lat="39.8441497" lon="3.0789248">
<ele>12.49</ele>
<time>2016-10-16T12:45:50Z</time>
</trkpt>
<trkpt lat="39.8439829" lon="3.0791128">
<ele>12.39</ele>
<time>2016-10-16T12:45:54Z</time>
</trkpt>
<trkpt lat="39.8438249" lon="3.0792836">
<ele>12.80</ele>
<time>2016-10-16T12:45:58Z</time>
</trkpt>
<trkpt lat="39.8436543" lon="3.0794711">
<ele>12.97</ele>
<time>2016-10-16T12:46:02Z</time>
</trkpt>
<trkpt lat="39.8435147" lon="3.0796297">
<ele>12.81</ele>
<time>2016-10-16T12:46:06Z</time>
</trkpt>
<trkpt lat="39.8433686" lon="3.0798001">
<ele>15.26</ele>
<time>2016-10-16T12:46:10Z</time>
</trkpt>
<trkpt lat="39.8432233" lon="3.0799887">
<ele>16.03</ele>
<time>2016-10-16T12:46:14Z</time>
</trkpt>
<trkpt lat="39.8430761" lon="3.0801639">
<ele>16.08</ele>
<time>2016-10-16T12:46:18Z</time>
</trkpt>
<trkpt lat="39.8429254" lon="3.0803332">
<ele>16.32</ele>
<time>2016-10-16T12:46:22Z</time>
</trkpt>
<trkpt lat="39.8427591" lon="3.0805235">
<ele>16.76</ele>
<time>2016-10-16T12:46:26Z</time>
</trkpt>
<trkpt lat="39.8426007" lon="3.0806958">
<ele>17.12</ele>
<time>2016-10-16T12:46:30Z</time>
</trkpt>
<trkpt lat="39.8424592" lon="3.0808442">
<ele>17.85</ele>
<time>2016-10-16T12:46:34Z</time>
</trkpt>
<trkpt lat="39.8423168" lon="3.0809922">
<ele>18.92</ele>
<time>2016-10-16T12:46:38Z</time>
</trkpt>
<trkpt lat="39.8421745" lon="3.0811423">
<ele>19.20</ele>
<time>2016-10-16T12:46:42Z</time>
</trkpt>
<trkpt lat="39.8420075" lon="3.0812912">
<ele>20.52</ele>
<time>2016-10-16T12:46:47Z</time>
</trkpt>
<trkpt lat="39.8418278" lon="3.0813256">
<ele>21.62</ele>
<time>2016-10-16T12:46:52Z</time>
</trkpt>
<trkpt lat="39.8416325" lon="3.0813055">
<ele>22.56</ele>
<time>2016-10-16T12:46:58Z</time>
</trkpt>
<trkpt lat="39.8414561" lon="3.0811716">
<ele>24.69</ele>
<time>2016-10-16T12:47:04Z</time>
</trkpt>
<trkpt lat="39.8412410" lon="3.0811459">
<ele>26.47</ele>
<time>2016-10-16T12:47:10Z</time>
</trkpt>
<trkpt lat="39.8411334" lon="3.0813760">
<ele>26.28</ele>
<time>2016-10-16T12:47:15Z</time>
</trkpt>
<trkpt lat="39.8411998" lon="3.0816067">
<ele>26.59</ele>
<time>2016-10-16T12:47:19Z</time>
</trkpt>
<trkpt lat="39.8413492" lon="3.0817960">
<ele>25.48</ele>
<time>2016-10-16T12:47:24Z</time>
</trkpt>
<trkpt lat="39.8414789" lon="3.0819967">
<ele>25.20</ele>
<time>2016-10-16T12:47:28Z</time>
</trkpt>
<trkpt lat="39.8415765" lon="3.0822320">
<ele>26.03</ele>
<time>2016-10-16T12:47:32Z</time>
</trkpt>
<trkpt lat="39.8416941" lon="3.0824904">
<ele>26.64</ele>
<time>2016-10-16T12:47:36Z</time>
</trkpt>
<trkpt lat="39.8417807" lon="3.0827075">
<ele>26.64</ele>
<time>2016-10-16T12:47:39Z</time>
</trkpt>
<trkpt lat="39.8418644" lon="3.0829180">
<ele>27.05</ele>
<time>2016-10-16T12:47:42Z</time>
</trkpt>
<trkpt lat="39.8419639" lon="3.0831914">
<ele>29.01</ele>
<time>2016-10-16T12:47:46Z</time>
</trkpt>
<trkpt lat="39.8420594" lon="3.0834670">
<ele>28.65</ele>
<time>2016-10-16T12:47:50Z</time>
</trkpt>
<trkpt lat="39.8421530" lon="3.0837417">
<ele>27.79</ele>
<time>2016-10-16T12:47:54Z</time>
</trkpt>
<trkpt lat="39.8422427" lon="3.0840009">
<ele>28.42</ele>
<time>2016-10-16T12:47:58Z</time>
</trkpt>
<trkpt lat="39.8423284" lon="3.0842491">
<ele>29.07</ele>
<time>2016-10-16T12:48:02Z</time>
</trkpt>
<trkpt lat="39.8424050" lon="3.0844938">
<ele>29.12</ele>
<time>2016-10-16T12:48:06Z</time>
</trkpt>
<trkpt lat="39.8424752" lon="3.0847401">
<ele>28.92</ele>
<time>2016-10-16T12:48:10Z</time>
</trkpt>
<trkpt lat="39.8425461" lon="3.0849815">
<ele>28.13</ele>
<time>2016-10-16T12:48:14Z</time>
</trkpt>
<trkpt lat="39.8426143" lon="3.0852376">
<ele>27.75</ele>
<time>2016-10-16T12:48:18Z</time>
</trkpt>
<trkpt lat="39.8426884" lon="3.0854946">
<ele>28.74</ele>
<time>2016-10-16T12:48:22Z</time>
</trkpt>
<trkpt lat="39.8427696" lon="3.0857719">
<ele>28.86</ele>
<time>2016-10-16T12:48:26Z</time>
</trkpt>
<trkpt lat="39.8428557" lon="3.0860595">
<ele>29.03</ele>
<time>2016-10-16T12:48:30Z</time>
</trkpt>
<trkpt lat="39.8429267" lon="3.0862918">
<ele>29.10</ele>
<time>2016-10-16T12:48:32Z</time>
</trkpt>
<trkpt lat="39.8429990" lon="3.0865294">
<ele>28.63</ele>
<time>2016-10-16T12:48:35Z</time>
</trkpt>
<trkpt lat="39.8430729" lon="3.0867581">
<ele>28.50</ele>
<time>2016-10-16T12:48:38Z</time>
</trkpt>
<trkpt lat="39.8431480" lon="3.0870048">
<ele>27.74</ele>
<time>2016-10-16T12:48:41Z</time>
</trkpt>
<trkpt lat="39.8432172" lon="3.0872374">
<ele>27.91</ele>
<time>2016-10-16T12:48:44Z</time>
</trkpt>
<trkpt lat="39.8432915" lon="3.0874659">
<ele>28.80</ele>
<time>2016-10-16T12:48:47Z</time>
</trkpt>
<trkpt lat="39.8433678" lon="3.0877226">
<ele>29.24</ele>
<time>2016-10-16T12:48:50Z</time>
</trkpt>
<trkpt lat="39.8434453" lon="3.0879853">
<ele>29.21</ele>
<time>2016-10-16T12:48:53Z</time>
</trkpt>
<trkpt lat="39.8435212" lon="3.0882567">
<ele>27.52</ele>
<time>2016-10-16T12:48:56Z</time>
</trkpt>
<trkpt lat="39.8435960" lon="3.0885151">
<ele>26.34</ele>
<time>2016-10-16T12:48:59Z</time>
</trkpt>
<trkpt lat="39.8436740" lon="3.0887827">
<ele>25.82</ele>
<time>2016-10-16T12:49:02Z</time>
</trkpt>
<trkpt lat="39.8437469" lon="3.0890355">
<ele>25.60</ele>
<time>2016-10-16T12:49:05Z</time>
</trkpt>
<trkpt lat="39.8438280" lon="3.0892957">
<ele>25.30</ele>
<time>2016-10-16T12:49:08Z</time>
</trkpt>
<trkpt lat="39.8439015" lon="3.0895541">
<ele>24.86</ele>
<time>2016-10-16T12:49:11Z</time>
</trkpt>
<trkpt lat="39.8439853" lon="3.0898218">
<ele>24.09</ele>
<time>2016-10-16T12:49:14Z</time>
</trkpt>
<trkpt lat="39.8440614" lon="3.0900685">
<ele>24.26</ele>
<time>2016-10-16T12:49:17Z</time>
</trkpt>
<trkpt lat="39.8441427" lon="3.0903275">
<ele>24.58</ele>
<time>2016-10-16T12:49:20Z</time>
</trkpt>
<trkpt lat="39.8442214" lon="3.0905910">
<ele>24.58</ele>
<time>2016-10-16T12:49:23Z</time>
</trkpt>
<trkpt lat="39.8442815" lon="3.0908511">
<ele>24.56</ele>
<time>2016-10-16T12:49:26Z</time>
</trkpt>
<trkpt lat="39.8443310" lon="3.0911257">
<ele>24.20</ele>
<time>2016-10-16T12:49:29Z</time>
</trkpt>
<trkpt lat="39.8443725" lon="3.0913930">
<ele>24.69</ele>
<time>2016-10-16T12:49:32Z</time>
</trkpt>
<trkpt lat="39.8444069" lon="3.0916770">
<ele>25.06</ele>
<time>2016-10-16T12:49:35Z</time>
</trkpt>
<trkpt lat="39.8444337" lon="3.0919547">
<ele>23.85</ele>
<time>2016-10-16T12:49:38Z</time>
</trkpt>
<trkpt lat="39.8444506" lon="3.0922393">
<ele>23.46</ele>
<time>2016-10-16T12:49:41Z</time>
</trkpt>
<trkpt lat="39.8444550" lon="3.0925323">
<ele>23.19</ele>
<time>2016-10-16T12:49:44Z</time>
</trkpt>
<trkpt lat="39.8444369" lon="3.0928176">
<ele>22.87</ele>
<time>2016-10-16T12:49:47Z</time>
</trkpt>
<trkpt lat="39.8443862" lon="3.0930733">
<ele>22.36</ele>
<time>2016-10-16T12:49:50Z</time>
</trkpt>
<trkpt lat="39.8442900" lon="3.0933560">
<ele>21.44</ele>
<time>2016-10-16T12:49:54Z</time>
</trkpt>
<trkpt lat="39.8442209" lon="3.0936340">
<ele>20.01</ele>
<time>2016-10-16T12:49:58Z</time>
</trkpt>
<trkpt lat="39.8442972" lon="3.0938677">
<ele>19.59</ele>
<time>2016-10-16T12:50:02Z</time>
</trkpt>
<trkpt lat="39.8444980" lon="3.0939414">
<ele>20.98</ele>
<time>2016-10-16T12:50:07Z</time>
</trkpt>
<trkpt lat="39.8446934" lon="3.0939768">
<ele>21.11</ele>
<time>2016-10-16T12:50:11Z</time>
</trkpt>
<trkpt lat="39.8448803" lon="3.0940323">
<ele>21.56</ele>
<time>2016-10-16T12:50:14Z</time>
</trkpt>
<trkpt lat="39.8450670" lon="3.0941766">
<ele>22.19</ele>
<time>2016-10-16T12:50:17Z</time>
</trkpt>
<trkpt lat="39.8452759" lon="3.0943766">
<ele>22.00</ele>
<time>2016-10-16T12:50:20Z</time>
</trkpt>
<trkpt lat="39.8454059" lon="3.0945500">
<ele>21.22</ele>
<time>2016-10-16T12:50:22Z</time>
</trkpt>
<trkpt lat="39.8455240" lon="3.0947411">
<ele>20.73</ele>
<time>2016-10-16T12:50:24Z</time>
</trkpt>
<trkpt lat="39.8456246" lon="3.0949604">
<ele>19.81</ele>
<time>2016-10-16T12:50:26Z</time>
</trkpt>
<trkpt lat="39.8457075" lon="3.0951900">
<ele>18.69</ele>
<time>2016-10-16T12:50:28Z</time>
</trkpt>
<trkpt lat="39.8458081" lon="3.0955080">
<ele>17.75</ele>
<time>2016-10-16T12:50:31Z</time>
</trkpt>
<trkpt lat="39.8458961" lon="3.0958148">
<ele>17.35</ele>
<time>2016-10-16T12:50:34Z</time>
</trkpt>
<trkpt lat="39.8459723" lon="3.0960933">
<ele>17.03</ele>
<time>2016-10-16T12:50:37Z</time>
</trkpt>
<trkpt lat="39.8460446" lon="3.0963686">
<ele>16.84</ele>
<time>2016-10-16T12:50:40Z</time>
</trkpt>
<trkpt lat="39.8461326" lon="3.0966478">
<ele>17.41</ele>
<time>2016-10-16T12:50:43Z</time>
</trkpt>
<trkpt lat="39.8462213" lon="3.0969544">
<ele>15.93</ele>
<time>2016-10-16T12:50:46Z</time>
</trkpt>
<trkpt lat="39.8463167" lon="3.0972739">
<ele>16.11</ele>
<time>2016-10-16T12:50:49Z</time>
</trkpt>
<trkpt lat="39.8464050" lon="3.0975808">
<ele>16.25</ele>
<time>2016-10-16T12:50:52Z</time>
</trkpt>
<trkpt lat="39.8465004" lon="3.0979035">
<ele>15.40</ele>
<time>2016-10-16T12:50:55Z</time>
</trkpt>
<trkpt lat="39.8465678" lon="3.0981312">
<ele>14.38</ele>
<time>2016-10-16T12:50:57Z</time>
</trkpt>
<trkpt lat="39.8466338" lon="3.0983592">
<ele>13.46</ele>
<time>2016-10-16T12:50:59Z</time>
</trkpt>
<trkpt lat="39.8467036" lon="3.0986001">
<ele>12.63</ele>
<time>2016-10-16T12:51:01Z</time>
</trkpt>
<trkpt lat="39.8467701" lon="3.0988385">
<ele>11.54</ele>
<time>2016-10-16T12:51:03Z</time>
</trkpt>
<trkpt lat="39.8468353" lon="3.0990791">
<ele>10.24</ele>
<time>2016-10-16T12:51:05Z</time>
</trkpt>
<trkpt lat="39.8469037" lon="3.0993177">
<ele>9.54</ele>
<time>2016-10-16T12:51:07Z</time>
</trkpt>
<trkpt lat="39.8469677" lon="3.0995660">
<ele>9.39</ele>
<time>2016-10-16T12:51:09Z</time>
</trkpt>
<trkpt lat="39.8470348" lon="3.0997903">
<ele>9.52</ele>
<time>2016-10-16T12:51:11Z</time>
</trkpt>
<trkpt lat="39.8471040" lon="3.1000304">
<ele>8.90</ele>
<time>2016-10-16T12:51:13Z</time>
</trkpt>
<trkpt lat="39.8471631" lon="3.1002597">
<ele>8.43</ele>
<time>2016-10-16T12:51:15Z</time>
</trkpt>
<trkpt lat="39.8472479" lon="3.1006002">
<ele>7.32</ele>
<time>2016-10-16T12:51:18Z</time>
</trkpt>
<trkpt lat="39.8473133" lon="3.1008230">
<ele>7.05</ele>
<time>2016-10-16T12:51:20Z</time>
</trkpt>
<trkpt lat="39.8474053" lon="3.1011423">
<ele>7.08</ele>
<time>2016-10-16T12:51:23Z</time>
</trkpt>
<trkpt lat="39.8474887" lon="3.1014421">
<ele>7.25</ele>
<time>2016-10-16T12:51:26Z</time>
</trkpt>
<trkpt lat="39.8475758" lon="3.1017304">
<ele>7.50</ele>
<time>2016-10-16T12:51:29Z</time>
</trkpt>
<trkpt lat="39.8476589" lon="3.1020076">
<ele>7.76</ele>
<time>2016-10-16T12:51:32Z</time>
</trkpt>
<trkpt lat="39.8477326" lon="3.1022527">
<ele>8.45</ele>
<time>2016-10-16T12:51:35Z</time>
</trkpt>
<trkpt lat="39.8478034" lon="3.1024873">
<ele>8.07</ele>
<time>2016-10-16T12:51:38Z</time>
</trkpt>
<trkpt lat="39.8478732" lon="3.1027149">
<ele>7.84</ele>
<time>2016-10-16T12:51:41Z</time>
</trkpt>
<trkpt lat="39.8479370" lon="3.1029397">
<ele>7.64</ele>
<time>2016-10-16T12:51:44Z</time>
</trkpt>
<trkpt lat="39.8479979" lon="3.1031715">
<ele>7.42</ele>
<time>2016-10-16T12:51:47Z</time>
</trkpt>
<trkpt lat="39.8480692" lon="3.1034086">
<ele>7.29</ele>
<time>2016-10-16T12:51:50Z</time>
</trkpt>
<trkpt lat="39.8481342" lon="3.1036321">
<ele>7.58</ele>
<time>2016-10-16T12:51:53Z</time>
</trkpt>
<trkpt lat="39.8481940" lon="3.1038660">
<ele>7.33</ele>
<time>2016-10-16T12:51:56Z</time>
</trkpt>
<trkpt lat="39.8482600" lon="3.1041135">
<ele>6.55</ele>
<time>2016-10-16T12:51:59Z</time>
</trkpt>
<trkpt lat="39.8483239" lon="3.1043601">
<ele>6.08</ele>
<time>2016-10-16T12:52:02Z</time>
</trkpt>
<trkpt lat="39.8483942" lon="3.1046156">
<ele>5.70</ele>
<time>2016-10-16T12:52:05Z</time>
</trkpt>
<trkpt lat="39.8484668" lon="3.1048654">
<ele>6.17</ele>
<time>2016-10-16T12:52:08Z</time>
</trkpt>
<trkpt lat="39.8485426" lon="3.1051101">
<ele>7.76</ele>
<time>2016-10-16T12:52:11Z</time>
</trkpt>
<trkpt lat="39.8486244" lon="3.1053701">
<ele>8.33</ele>
<time>2016-10-16T12:52:14Z</time>
</trkpt>
<trkpt lat="39.8487017" lon="3.1056244">
<ele>7.44</ele>
<time>2016-10-16T12:52:17Z</time>
</trkpt>
<trkpt lat="39.8487807" lon="3.1058908">
<ele>6.84</ele>
<time>2016-10-16T12:52:20Z</time>
</trkpt>
<trkpt lat="39.8488549" lon="3.1061662">
<ele>5.40</ele>
<time>2016-10-16T12:52:23Z</time>
</trkpt>
<trkpt lat="39.8489285" lon="3.1064445">
<ele>4.22</ele>
<time>2016-10-16T12:52:26Z</time>
</trkpt>
<trkpt lat="39.8489977" lon="3.1067195">
<ele>3.28</ele>
<time>2016-10-16T12:52:29Z</time>
</trkpt>
<trkpt lat="39.8490669" lon="3.1069977">
<ele>2.58</ele>
<time>2016-10-16T12:52:32Z</time>
</trkpt>
<trkpt lat="39.8491351" lon="3.1072869">
<ele>0.89</ele>
<time>2016-10-16T12:52:35Z</time>
</trkpt>
<trkpt lat="39.8492031" lon="3.1075636">
<ele>-0.69</ele>
<time>2016-10-16T12:52:38Z</time>
</trkpt>
<trkpt lat="39.8492792" lon="3.1078364">
<ele>0.21</ele>
<time>2016-10-16T12:52:41Z</time>
</trkpt>
<trkpt lat="39.8493626" lon="3.1080880">
<ele>1.81</ele>
<time>2016-10-16T12:52:44Z</time>
</trkpt>
<trkpt lat="39.8494392" lon="3.1083558">
<ele>3.37</ele>
<time>2016-10-16T12:52:47Z</time>
</trkpt>
<trkpt lat="39.8495219" lon="3.1086272">
<ele>3.67</ele>
<time>2016-10-16T12:52:50Z</time>
</trkpt>
<trkpt lat="39.8496084" lon="3.1088932">
<ele>3.16</ele>
<time>2016-10-16T12:52:53Z</time>
</trkpt>
<trkpt lat="39.8496869" lon="3.1091511">
<ele>3.51</ele>
<time>2016-10-16T12:52:56Z</time>
</trkpt>
<trkpt lat="39.8497660" lon="3.1094193">
<ele>4.23</ele>
<time>2016-10-16T12:52:59Z</time>
</trkpt>
<trkpt lat="39.8498530" lon="3.1096718">
<ele>4.42</ele>
<time>2016-10-16T12:53:02Z</time>
</trkpt>
<trkpt lat="39.8499402" lon="3.1099336">
<ele>4.57</ele>
<time>2016-10-16T12:53:05Z</time>
</trkpt>
<trkpt lat="39.8500157" lon="3.1101936">
<ele>5.41</ele>
<time>2016-10-16T12:53:08Z</time>
</trkpt>
<trkpt lat="39.8500907" lon="3.1104684">
<ele>5.46</ele>
<time>2016-10-16T12:53:11Z</time>
</trkpt>
<trkpt lat="39.8501650" lon="3.1107407">
<ele>4.52</ele>
<time>2016-10-16T12:53:14Z</time>
</trkpt>
<trkpt lat="39.8502389" lon="3.1110195">
<ele>3.53</ele>
<time>2016-10-16T12:53:17Z</time>
</trkpt>
<trkpt lat="39.8503109" lon="3.1112892">
<ele>3.36</ele>
<time>2016-10-16T12:53:20Z</time>
</trkpt>
<trkpt lat="39.8503820" lon="3.1115412">
<ele>3.72</ele>
<time>2016-10-16T12:53:23Z</time>
</trkpt>
<trkpt lat="39.8504573" lon="3.1117947">
<ele>4.12</ele>
<time>2016-10-16T12:53:26Z</time>
</trkpt>
<trkpt lat="39.8505289" lon="3.1120656">
<ele>3.37</ele>
<time>2016-10-16T12:53:29Z</time>
</trkpt>
<trkpt lat="39.8506018" lon="3.1123221">
<ele>0.91</ele>
<time>2016-10-16T12:53:32Z</time>
</trkpt>
<trkpt lat="39.8506684" lon="3.1125488">
<ele>-0.02</ele>
<time>2016-10-16T12:53:35Z</time>
</trkpt>
<trkpt lat="39.8507391" lon="3.1127760">
<ele>0.59</ele>
<time>2016-10-16T12:53:38Z</time>
</trkpt>
<trkpt lat="39.8508130" lon="3.1130172">
<ele>1.55</ele>
<time>2016-10-16T12:53:41Z</time>
</trkpt>
<trkpt lat="39.8508912" lon="3.1132615">
<ele>2.54</ele>
<time>2016-10-16T12:53:44Z</time>
</trkpt>
<trkpt lat="39.8509608" lon="3.1135036">
<ele>3.18</ele>
<time>2016-10-16T12:53:47Z</time>
</trkpt>
<trkpt lat="39.8510245" lon="3.1137336">
<ele>2.69</ele>
<time>2016-10-16T12:53:50Z</time>
</trkpt>
<trkpt lat="39.8510943" lon="3.1139605">
<ele>3.52</ele>
<time>2016-10-16T12:53:53Z</time>
</trkpt>
<trkpt lat="39.8511931" lon="3.1142457">
<ele>5.87</ele>
<time>2016-10-16T12:53:57Z</time>
</trkpt>
<trkpt lat="39.8512565" lon="3.1144700">
<ele>6.33</ele>
<time>2016-10-16T12:54:00Z</time>
</trkpt>
<trkpt lat="39.8513365" lon="3.1147399">
<ele>6.33</ele>
<time>2016-10-16T12:54:04Z</time>
</trkpt>
<trkpt lat="39.8514184" lon="3.1150000">
<ele>5.89</ele>
<time>2016-10-16T12:54:08Z</time>
</trkpt>
<trkpt lat="39.8515122" lon="3.1152224">
<ele>6.29</ele>
<time>2016-10-16T12:54:12Z</time>
</trkpt>
<trkpt lat="39.8515833" lon="3.1154691">
<ele>7.67</ele>
<time>2016-10-16T12:54:16Z</time>
</trkpt>
<trkpt lat="39.8516586" lon="3.1157437">
<ele>7.62</ele>
<time>2016-10-16T12:54:20Z</time>
</trkpt>
<trkpt lat="39.8517292" lon="3.1159621">
<ele>6.51</ele>
<time>2016-10-16T12:54:23Z</time>
</trkpt>
<trkpt lat="39.8518342" lon="3.1162232">
<ele>4.76</ele>
<time>2016-10-16T12:54:27Z</time>
</trkpt>
<trkpt lat="39.8519465" lon="3.1164596">
<ele>3.31</ele>
<time>2016-10-16T12:54:31Z</time>
</trkpt>
<trkpt lat="39.8520721" lon="3.1166757">
<ele>2.19</ele>
<time>2016-10-16T12:54:35Z</time>
</trkpt>
<trkpt lat="39.8522037" lon="3.1168826">
<ele>2.75</ele>
<time>2016-10-16T12:54:39Z</time>
</trkpt>
<trkpt lat="39.8523120" lon="3.1170983">
<ele>3.21</ele>
<time>2016-10-16T12:54:43Z</time>
</trkpt>
<trkpt lat="39.8524154" lon="3.1173024">
<ele>3.30</ele>
<time>2016-10-16T12:54:47Z</time>
</trkpt>
<trkpt lat="39.8525230" lon="3.1175127">
<ele>2.68</ele>
<time>2016-10-16T12:54:51Z</time>
</trkpt>
<trkpt lat="39.8526404" lon="3.1177437">
<ele>1.48</ele>
<time>2016-10-16T12:54:55Z</time>
</trkpt>
<trkpt lat="39.8527511" lon="3.1179734">
<ele>3.64</ele>
<time>2016-10-16T12:55:00Z</time>
</trkpt>
<trkpt lat="39.8528504" lon="3.1181795">
<ele>4.21</ele>
<time>2016-10-16T12:55:04Z</time>
</trkpt>
<trkpt lat="39.8529778" lon="3.1183864">
<ele>5.06</ele>
<time>2016-10-16T12:55:09Z</time>
</trkpt>
<trkpt lat="39.8529730" lon="3.1186265">
<ele>7.97</ele>
<time>2016-10-16T12:55:15Z</time>
</trkpt>
<trkpt lat="39.8528866" lon="3.1188367">
<ele>8.62</ele>
<time>2016-10-16T12:55:22Z</time>
</trkpt>
<trkpt lat="39.8528739" lon="3.1191784">
<ele>11.83</ele>
<time>2016-10-16T12:56:13Z</time>
</trkpt>
<trkpt lat="39.8529204" lon="3.1195364">
<ele>12.13</ele>
<time>2016-10-16T12:56:49Z</time>
</trkpt>
<trkpt lat="39.8528991" lon="3.1198165">
<ele>11.76</ele>
<time>2016-10-16T12:57:25Z</time>
</trkpt>
<trkpt lat="39.8529787" lon="3.1200648">
<ele>11.32</ele>
<time>2016-10-16T12:58:02Z</time>
</trkpt>
<trkpt lat="39.8530633" lon="3.1203430">
<ele>10.16</ele>
<time>2016-10-16T12:58:26Z</time>
</trkpt>
<trkpt lat="39.8531122" lon="3.1205700">
<ele>9.56</ele>
<time>2016-10-16T12:58:41Z</time>
</trkpt>
<trkpt lat="39.8531357" lon="3.1208829">
<ele>11.43</ele>
<time>2016-10-16T12:59:05Z</time>
</trkpt>
<trkpt lat="39.8531204" lon="3.1211177">
<ele>12.77</ele>
<time>2016-10-16T12:59:23Z</time>
</trkpt>
<trkpt lat="39.8531592" lon="3.1213585">
<ele>13.46</ele>
<time>2016-10-16T12:59:45Z</time>
</trkpt>
<trkpt lat="39.8532210" lon="3.1215867">
<ele>13.91</ele>
<time>2016-10-16T12:59:59Z</time>
</trkpt>
<trkpt lat="39.8533360" lon="3.1218265">
<ele>13.24</ele>
<time>2016-10-16T13:00:28Z</time>
</trkpt>
<trkpt lat="39.8533488" lon="3.1220787">
<ele>15.08</ele>
<time>2016-10-16T13:00:54Z</time>
</trkpt>
<trkpt lat="39.8532293" lon="3.1222818">
<ele>16.01</ele>
<time>2016-10-16T13:01:15Z</time>
</trkpt>
<trkpt lat="39.8533110" lon="3.1225006">
<ele>12.90</ele>
<time>2016-10-16T13:01:59Z</time>
</trkpt>
<trkpt lat="39.8533637" lon="3.1227301">
<ele>11.21</ele>
<time>2016-10-16T13:02:22Z</time>
</trkpt>
<trkpt lat="39.8533440" lon="3.1229681">
<ele>11.78</ele>
<time>2016-10-16T13:02:43Z</time>
</trkpt>
<trkpt lat="39.8533198" lon="3.1232319">
<ele>12.36</ele>
<time>2016-10-16T13:02:59Z</time>
</trkpt>
<trkpt lat="39.8533318" lon="3.1234733">
<ele>12.05</ele>
<time>2016-10-16T13:03:23Z</time>
</trkpt>
<trkpt lat="39.8532670" lon="3.1237063">
<ele>10.55</ele>
<time>2016-10-16T13:03:47Z</time>
</trkpt>
<trkpt lat="39.8531491" lon="3.1239213">
<ele>11.13</ele>
<time>2016-10-16T13:04:00Z</time>
</trkpt>
<trkpt lat="39.8530512" lon="3.1241194">
<ele>10.97</ele>
<time>2016-10-16T13:04:29Z</time>
</trkpt>
<trkpt lat="39.8528766" lon="3.1240618">
<ele>13.88</ele>
<time>2016-10-16T13:50:37Z</time>
</trkpt>
<trkpt lat="39.8527413" lon="3.1238963">
<ele>15.09</ele>
<time>2016-10-16T13:50:45Z</time>
</trkpt>
<trkpt lat="39.8525524" lon="3.1238733">
<ele>16.01</ele>
<time>2016-10-16T13:50:52Z</time>
</trkpt>
<trkpt lat="39.8523664" lon="3.1238463">
<ele>16.98</ele>
<time>2016-10-16T13:50:59Z</time>
</trkpt>
<trkpt lat="39.8521758" lon="3.1238702">
<ele>17.68</ele>
<time>2016-10-16T13:51:05Z</time>
</trkpt>
<trkpt lat="39.8519584" lon="3.1238492">
<ele>18.04</ele>
<time>2016-10-16T13:51:11Z</time>
</trkpt>
<trkpt lat="39.8517918" lon="3.1237173">
<ele>18.20</ele>
<time>2016-10-16T13:51:16Z</time>
</trkpt>
<trkpt lat="39.8516786" lon="3.1235193">
<ele>18.47</ele>
<time>2016-10-16T13:51:23Z</time>
</trkpt>
<trkpt lat="39.8516245" lon="3.1232705">
<ele>18.53</ele>
<time>2016-10-16T13:51:28Z</time>
</trkpt>
<trkpt lat="39.8515790" lon="3.1230144">
<ele>18.04</ele>
<time>2016-10-16T13:51:34Z</time>
</trkpt>
<trkpt lat="39.8516060" lon="3.1227784">
<ele>17.43</ele>
<time>2016-10-16T13:51:43Z</time>
</trkpt>
<trkpt lat="39.8514978" lon="3.1225514">
<ele>17.06</ele>
<time>2016-10-16T13:51:58Z</time>
</trkpt>
<trkpt lat="39.8514373" lon="3.1223019">
<ele>16.64</ele>
<time>2016-10-16T13:52:04Z</time>
</trkpt>
<trkpt lat="39.8513845" lon="3.1220592">
<ele>16.52</ele>
<time>2016-10-16T13:52:09Z</time>
</trkpt>
<trkpt lat="39.8513150" lon="3.1218405">
<ele>15.79</ele>
<time>2016-10-16T13:52:14Z</time>
</trkpt>
<trkpt lat="39.8512762" lon="3.1216080">
<ele>15.30</ele>
<time>2016-10-16T13:52:21Z</time>
</trkpt>
<trkpt lat="39.8512535" lon="3.1213552">
<ele>15.17</ele>
<time>2016-10-16T13:52:32Z</time>
</trkpt>
<trkpt lat="39.8511925" lon="3.1210850">
<ele>15.17</ele>
<time>2016-10-16T13:52:40Z</time>
</trkpt>
<trkpt lat="39.8511616" lon="3.1208354">
<ele>15.20</ele>
<time>2016-10-16T13:52:45Z</time>
</trkpt>
<trkpt lat="39.8511767" lon="3.1205812">
<ele>15.55</ele>
<time>2016-10-16T13:52:50Z</time>
</trkpt>
<trkpt lat="39.8512634" lon="3.1203530">
<ele>15.98</ele>
<time>2016-10-16T13:52:56Z</time>
</trkpt>
<trkpt lat="39.8514255" lon="3.1202020">
<ele>13.16</ele>
<time>2016-10-16T13:53:53Z</time>
</trkpt>
<trkpt lat="39.8514876" lon="3.1199763">
<ele>12.88</ele>
<time>2016-10-16T13:53:59Z</time>
</trkpt>
<trkpt lat="39.8513852" lon="3.1197706">
<ele>14.10</ele>
<time>2016-10-16T13:54:03Z</time>
</trkpt>
<trkpt lat="39.8512184" lon="3.1195829">
<ele>18.99</ele>
<time>2016-10-16T13:54:08Z</time>
</trkpt>
<trkpt lat="39.8509929" lon="3.1195782">
<ele>18.74</ele>
<time>2016-10-16T13:54:12Z</time>
</trkpt>
<trkpt lat="39.8507855" lon="3.1197032">
<ele>15.51</ele>
<time>2016-10-16T13:54:16Z</time>
</trkpt>
<trkpt lat="39.8505878" lon="3.1198620">
<ele>12.91</ele>
<time>2016-10-16T13:54:19Z</time>
</trkpt>
<trkpt lat="39.8503993" lon="3.1200234">
<ele>10.99</ele>
<time>2016-10-16T13:54:22Z</time>
</trkpt>
<trkpt lat="39.8502279" lon="3.1201755">
<ele>10.69</ele>
<time>2016-10-16T13:54:25Z</time>
</trkpt>
<trkpt lat="39.8500591" lon="3.1203263">
<ele>10.61</ele>
<time>2016-10-16T13:54:28Z</time>
</trkpt>
<trkpt lat="39.8498916" lon="3.1204727">
<ele>10.64</ele>
<time>2016-10-16T13:54:31Z</time>
</trkpt>
<trkpt lat="39.8497266" lon="3.1206087">
<ele>10.64</ele>
<time>2016-10-16T13:54:34Z</time>
</trkpt>
<trkpt lat="39.8495606" lon="3.1207452">
<ele>10.53</ele>
<time>2016-10-16T13:54:37Z</time>
</trkpt>
<trkpt lat="39.8494073" lon="3.1208714">
<ele>10.45</ele>
<time>2016-10-16T13:54:40Z</time>
</trkpt>
<trkpt lat="39.8492344" lon="3.1210108">
<ele>10.69</ele>
<time>2016-10-16T13:54:44Z</time>
</trkpt>
<trkpt lat="39.8490442" lon="3.1211408">
<ele>11.66</ele>
<time>2016-10-16T13:54:48Z</time>
</trkpt>
<trkpt lat="39.8488517" lon="3.1212479">
<ele>12.64</ele>
<time>2016-10-16T13:54:52Z</time>
</trkpt>
<trkpt lat="39.8486380" lon="3.1213602">
<ele>12.29</ele>
<time>2016-10-16T13:54:56Z</time>
</trkpt>
<trkpt lat="39.8484271" lon="3.1214826">
<ele>10.12</ele>
<time>2016-10-16T13:55:00Z</time>
</trkpt>
<trkpt lat="39.8482215" lon="3.1216187">
<ele>10.20</ele>
<time>2016-10-16T13:55:04Z</time>
</trkpt>
<trkpt lat="39.8480369" lon="3.1217422">
<ele>10.79</ele>
<time>2016-10-16T13:55:08Z</time>
</trkpt>
<trkpt lat="39.8478558" lon="3.1218817">
<ele>12.44</ele>
<time>2016-10-16T13:55:12Z</time>
</trkpt>
<trkpt lat="39.8476844" lon="3.1220116">
<ele>12.11</ele>
<time>2016-10-16T13:55:16Z</time>
</trkpt>
<trkpt lat="39.8475176" lon="3.1222125">
<ele>12.36</ele>
<time>2016-10-16T13:55:20Z</time>
</trkpt>
<trkpt lat="39.8474257" lon="3.1224335">
<ele>12.23</ele>
<time>2016-10-16T13:55:23Z</time>
</trkpt>
<trkpt lat="39.8473505" lon="3.1226668">
<ele>11.61</ele>
<time>2016-10-16T13:55:26Z</time>
</trkpt>
<trkpt lat="39.8472357" lon="3.1228987">
<ele>11.01</ele>
<time>2016-10-16T13:55:29Z</time>
</trkpt>
<trkpt lat="39.8470828" lon="3.1231331">
<ele>10.24</ele>
<time>2016-10-16T13:55:32Z</time>
</trkpt>
<trkpt lat="39.8469159" lon="3.1233556">
<ele>9.07</ele>
<time>2016-10-16T13:55:35Z</time>
</trkpt>
<trkpt lat="39.8467502" lon="3.1235858">
<ele>7.88</ele>
<time>2016-10-16T13:55:38Z</time>
</trkpt>
<trkpt lat="39.8465874" lon="3.1238171">
<ele>6.64</ele>
<time>2016-10-16T13:55:41Z</time>
</trkpt>
<trkpt lat="39.8464366" lon="3.1240469">
<ele>5.28</ele>
<time>2016-10-16T13:55:44Z</time>
</trkpt>
<trkpt lat="39.8463071" lon="3.1242307">
<ele>3.59</ele>
<time>2016-10-16T13:55:47Z</time>
</trkpt>
<trkpt lat="39.8461461" lon="3.1243924">
<ele>3.91</ele>
<time>2016-10-16T13:55:53Z</time>
</trkpt>
<trkpt lat="39.8459593" lon="3.1244147">
<ele>4.90</ele>
<time>2016-10-16T13:55:58Z</time>
</trkpt>
<trkpt lat="39.8457562" lon="3.1245197">
<ele>5.84</ele>
<time>2016-10-16T13:56:02Z</time>
</trkpt>
<trkpt lat="39.8455750" lon="3.1244978">
<ele>6.37</ele>
<time>2016-10-16T13:56:05Z</time>
</trkpt>
<trkpt lat="39.8453694" lon="3.1243831">
<ele>6.34</ele>
<time>2016-10-16T13:56:09Z</time>
</trkpt>
<trkpt lat="39.8451699" lon="3.1242574">
<ele>5.35</ele>
<time>2016-10-16T13:56:13Z</time>
</trkpt>
<trkpt lat="39.8449704" lon="3.1241355">
<ele>5.87</ele>
<time>2016-10-16T13:56:17Z</time>
</trkpt>
<trkpt lat="39.8447729" lon="3.1240094">
<ele>6.43</ele>
<time>2016-10-16T13:56:21Z</time>
</trkpt>
<trkpt lat="39.8445741" lon="3.1238873">
<ele>7.00</ele>
<time>2016-10-16T13:56:25Z</time>
</trkpt>
<trkpt lat="39.8443671" lon="3.1237500">
<ele>8.36</ele>
<time>2016-10-16T13:56:29Z</time>
</trkpt>
<trkpt lat="39.8441945" lon="3.1236434">
<ele>8.84</ele>
<time>2016-10-16T13:56:32Z</time>
</trkpt>
<trkpt lat="39.8439828" lon="3.1235148">
<ele>7.73</ele>
<time>2016-10-16T13:56:36Z</time>
</trkpt>
<trkpt lat="39.8437610" lon="3.1233991">
<ele>7.58</ele>
<time>2016-10-16T13:56:40Z</time>
</trkpt>
<trkpt lat="39.8435976" lon="3.1233001">
<ele>7.85</ele>
<time>2016-10-16T13:56:43Z</time>
</trkpt>
<trkpt lat="39.8434311" lon="3.1232071">
<ele>8.04</ele>
<time>2016-10-16T13:56:46Z</time>
</trkpt>
<trkpt lat="39.8432694" lon="3.1231008">
<ele>7.22</ele>
<time>2016-10-16T13:56:49Z</time>
</trkpt>
<trkpt lat="39.8430713" lon="3.1229624">
<ele>5.79</ele>
<time>2016-10-16T13:56:53Z</time>
</trkpt>
<trkpt lat="39.8428525" lon="3.1228464">
<ele>6.09</ele>
<time>2016-10-16T13:56:57Z</time>
</trkpt>
<trkpt lat="39.8426297" lon="3.1227271">
<ele>5.63</ele>
<time>2016-10-16T13:57:01Z</time>
</trkpt>
<trkpt lat="39.8424654" lon="3.1226307">
<ele>5.22</ele>
<time>2016-10-16T13:57:04Z</time>
</trkpt>
<trkpt lat="39.8422655" lon="3.1225092">
<ele>7.27</ele>
<time>2016-10-16T13:57:08Z</time>
</trkpt>
<trkpt lat="39.8420514" lon="3.1224000">
<ele>7.89</ele>
<time>2016-10-16T13:57:12Z</time>
</trkpt>
<trkpt lat="39.8418372" lon="3.1222707">
<ele>8.70</ele>
<time>2016-10-16T13:57:16Z</time>
</trkpt>
<trkpt lat="39.8416723" lon="3.1221750">
<ele>9.08</ele>
<time>2016-10-16T13:57:19Z</time>
</trkpt>
<trkpt lat="39.8414596" lon="3.1220444">
<ele>9.29</ele>
<time>2016-10-16T13:57:23Z</time>
</trkpt>
<trkpt lat="39.8412566" lon="3.1219101">
<ele>8.04</ele>
<time>2016-10-16T13:57:27Z</time>
</trkpt>
<trkpt lat="39.8410505" lon="3.1217766">
<ele>7.68</ele>
<time>2016-10-16T13:57:31Z</time>
</trkpt>
<trkpt lat="39.8408450" lon="3.1216487">
<ele>6.85</ele>
<time>2016-10-16T13:57:35Z</time>
</trkpt>
<trkpt lat="39.8406391" lon="3.1215324">
<ele>5.76</ele>
<time>2016-10-16T13:57:39Z</time>
</trkpt>
<trkpt lat="39.8404358" lon="3.1214037">
<ele>6.02</ele>
<time>2016-10-16T13:57:43Z</time>
</trkpt>
<trkpt lat="39.8402431" lon="3.1213026">
<ele>7.53</ele>
<time>2016-10-16T13:57:47Z</time>
</trkpt>
<trkpt lat="39.8400529" lon="3.1211791">
<ele>6.73</ele>
<time>2016-10-16T13:57:51Z</time>
</trkpt>
<trkpt lat="39.8398630" lon="3.1210483">
<ele>6.53</ele>
<time>2016-10-16T13:57:55Z</time>
</trkpt>
<trkpt lat="39.8396346" lon="3.1210048">
<ele>6.51</ele>
<time>2016-10-16T13:57:59Z</time>
</trkpt>
<trkpt lat="39.8394186" lon="3.1209079">
<ele>5.97</ele>
<time>2016-10-16T13:58:03Z</time>
</trkpt>
<trkpt lat="39.8392279" lon="3.1207498">
<ele>5.03</ele>
<time>2016-10-16T13:58:07Z</time>
</trkpt>
<trkpt lat="39.8390754" lon="3.1206229">
<ele>4.55</ele>
<time>2016-10-16T13:58:10Z</time>
</trkpt>
<trkpt lat="39.8389068" lon="3.1205009">
<ele>4.37</ele>
<time>2016-10-16T13:58:13Z</time>
</trkpt>
<trkpt lat="39.8386937" lon="3.1203664">
<ele>2.97</ele>
<time>2016-10-16T13:58:17Z</time>
</trkpt>
<trkpt lat="39.8385279" lon="3.1202732">
<ele>2.33</ele>
<time>2016-10-16T13:58:20Z</time>
</trkpt>
<trkpt lat="39.8383615" lon="3.1201790">
<ele>2.63</ele>
<time>2016-10-16T13:58:23Z</time>
</trkpt>
<trkpt lat="39.8381550" lon="3.1200669">
<ele>4.71</ele>
<time>2016-10-16T13:58:27Z</time>
</trkpt>
<trkpt lat="39.8379350" lon="3.1199405">
<ele>5.79</ele>
<time>2016-10-16T13:58:31Z</time>
</trkpt>
<trkpt lat="39.8377675" lon="3.1198445">
<ele>4.92</ele>
<time>2016-10-16T13:58:34Z</time>
</trkpt>
<trkpt lat="39.8375981" lon="3.1197607">
<ele>4.75</ele>
<time>2016-10-16T13:58:37Z</time>
</trkpt>
<trkpt lat="39.8374309" lon="3.1196686">
<ele>5.25</ele>
<time>2016-10-16T13:58:40Z</time>
</trkpt>
<trkpt lat="39.8372226" lon="3.1195458">
<ele>5.31</ele>
<time>2016-10-16T13:58:44Z</time>
</trkpt>
<trkpt lat="39.8370546" lon="3.1194405">
<ele>5.93</ele>
<time>2016-10-16T13:58:47Z</time>
</trkpt>
<trkpt lat="39.8368490" lon="3.1193083">
<ele>5.44</ele>
<time>2016-10-16T13:58:51Z</time>
</trkpt>
<trkpt lat="39.8366896" lon="3.1191974">
<ele>4.21</ele>
<time>2016-10-16T13:58:54Z</time>
</trkpt>
<trkpt lat="39.8364842" lon="3.1190545">
<ele>3.86</ele>
<time>2016-10-16T13:58:58Z</time>
</trkpt>
<trkpt lat="39.8363186" lon="3.1189478">
<ele>3.76</ele>
<time>2016-10-16T13:59:01Z</time>
</trkpt>
<trkpt lat="39.8361509" lon="3.1188524">
<ele>5.04</ele>
<time>2016-10-16T13:59:04Z</time>
</trkpt>
<trkpt lat="39.8359572" lon="3.1187437">
<ele>5.87</ele>
<time>2016-10-16T13:59:08Z</time>
</trkpt>
<trkpt lat="39.8357585" lon="3.1186484">
<ele>5.86</ele>
<time>2016-10-16T13:59:12Z</time>
</trkpt>
<trkpt lat="39.8355958" lon="3.1185469">
<ele>4.42</ele>
<time>2016-10-16T13:59:15Z</time>
</trkpt>
<trkpt lat="39.8353792" lon="3.1184139">
<ele>3.00</ele>
<time>2016-10-16T13:59:19Z</time>
</trkpt>
<trkpt lat="39.8352128" lon="3.1183045">
<ele>3.21</ele>
<time>2016-10-16T13:59:22Z</time>
</trkpt>
<trkpt lat="39.8350458" lon="3.1181984">
<ele>2.97</ele>
<time>2016-10-16T13:59:25Z</time>
</trkpt>
<trkpt lat="39.8348758" lon="3.1181210">
<ele>3.39</ele>
<time>2016-10-16T13:59:28Z</time>
</trkpt>
<trkpt lat="39.8346538" lon="3.1180404">
<ele>5.58</ele>
<time>2016-10-16T13:59:32Z</time>
</trkpt>
<trkpt lat="39.8344278" lon="3.1179595">
<ele>5.94</ele>
<time>2016-10-16T13:59:36Z</time>
</trkpt>
<trkpt lat="39.8342417" lon="3.1178964">
<ele>6.72</ele>
<time>2016-10-16T13:59:39Z</time>
</trkpt>
<trkpt lat="39.8340647" lon="3.1178270">
<ele>7.56</ele>
<time>2016-10-16T13:59:43Z</time>
</trkpt>
<trkpt lat="39.8338650" lon="3.1177538">
<ele>7.71</ele>
<time>2016-10-16T13:59:49Z</time>
</trkpt>
<trkpt lat="39.8336597" lon="3.1176979">
<ele>8.46</ele>
<time>2016-10-16T13:59:54Z</time>
</trkpt>
<trkpt lat="39.8334527" lon="3.1176276">
<ele>7.64</ele>
<time>2016-10-16T13:59:59Z</time>
</trkpt>
<trkpt lat="39.8332456" lon="3.1175748">
<ele>9.11</ele>
<time>2016-10-16T14:00:03Z</time>
</trkpt>
<trkpt lat="39.8330239" lon="3.1175216">
<ele>9.97</ele>
<time>2016-10-16T14:00:07Z</time>
</trkpt>
<trkpt lat="39.8328420" lon="3.1174687">
<ele>10.41</ele>
<time>2016-10-16T14:00:10Z</time>
</trkpt>
<trkpt lat="39.8326190" lon="3.1173940">
<ele>11.15</ele>
<time>2016-10-16T14:00:14Z</time>
</trkpt>
<trkpt lat="39.8323906" lon="3.1173077">
<ele>10.02</ele>
<time>2016-10-16T14:00:18Z</time>
</trkpt>
<trkpt lat="39.8321769" lon="3.1172211">
<ele>8.79</ele>
<time>2016-10-16T14:00:22Z</time>
</trkpt>
<trkpt lat="39.8319717" lon="3.1171502">
<ele>8.39</ele>
<time>2016-10-16T14:00:26Z</time>
</trkpt>
<trkpt lat="39.8317764" lon="3.1170522">
<ele>8.25</ele>
<time>2016-10-16T14:00:30Z</time>
</trkpt>
<trkpt lat="39.8315620" lon="3.1169874">
<ele>6.37</ele>
<time>2016-10-16T14:00:34Z</time>
</trkpt>
<trkpt lat="39.8313425" lon="3.1169556">
<ele>4.86</ele>
<time>2016-10-16T14:00:38Z</time>
</trkpt>
<trkpt lat="39.8311495" lon="3.1168970">
<ele>6.28</ele>
<time>2016-10-16T14:00:42Z</time>
</trkpt>
<trkpt lat="39.8309317" lon="3.1168233">
<ele>7.47</ele>
<time>2016-10-16T14:00:46Z</time>
</trkpt>
<trkpt lat="39.8307227" lon="3.1167584">
<ele>9.44</ele>
<time>2016-10-16T14:00:50Z</time>
</trkpt>
<trkpt lat="39.8305187" lon="3.1166851">
<ele>9.43</ele>
<time>2016-10-16T14:00:54Z</time>
</trkpt>
<trkpt lat="39.8303338" lon="3.1166278">
<ele>8.94</ele>
<time>2016-10-16T14:00:57Z</time>
</trkpt>
<trkpt lat="39.8301584" lon="3.1165652">
<ele>8.38</ele>
<time>2016-10-16T14:01:00Z</time>
</trkpt>
<trkpt lat="39.8299821" lon="3.1165048">
<ele>8.07</ele>
<time>2016-10-16T14:01:03Z</time>
</trkpt>
<trkpt lat="39.8298041" lon="3.1164302">
<ele>6.78</ele>
<time>2016-10-16T14:01:06Z</time>
</trkpt>
<trkpt lat="39.8295730" lon="3.1163529">
<ele>5.89</ele>
<time>2016-10-16T14:01:10Z</time>
</trkpt>
<trkpt lat="39.8293444" lon="3.1162740">
<ele>5.30</ele>
<time>2016-10-16T14:01:14Z</time>
</trkpt>
<trkpt lat="39.8291365" lon="3.1161971">
<ele>4.73</ele>
<time>2016-10-16T14:01:18Z</time>
</trkpt>
<trkpt lat="39.8289201" lon="3.1161242">
<ele>4.91</ele>
<time>2016-10-16T14:01:22Z</time>
</trkpt>
<trkpt lat="39.8287037" lon="3.1160551">
<ele>5.09</ele>
<time>2016-10-16T14:01:26Z</time>
</trkpt>
<trkpt lat="39.8284986" lon="3.1159863">
<ele>5.52</ele>
<time>2016-10-16T14:01:30Z</time>
</trkpt>
<trkpt lat="39.8282827" lon="3.1159128">
<ele>5.73</ele>
<time>2016-10-16T14:01:34Z</time>
</trkpt>
<trkpt lat="39.8280658" lon="3.1158744">
<ele>6.00</ele>
<time>2016-10-16T14:01:38Z</time>
</trkpt>
<trkpt lat="39.8278336" lon="3.1158409">
<ele>7.12</ele>
<time>2016-10-16T14:01:42Z</time>
</trkpt>
<trkpt lat="39.8276110" lon="3.1158171">
<ele>9.40</ele>
<time>2016-10-16T14:01:46Z</time>
</trkpt>
<trkpt lat="39.8273814" lon="3.1157847">
<ele>11.21</ele>
<time>2016-10-16T14:01:50Z</time>
</trkpt>
<trkpt lat="39.8271965" lon="3.1157485">
<ele>11.34</ele>
<time>2016-10-16T14:01:53Z</time>
</trkpt>
<trkpt lat="39.8269949" lon="3.1157053">
<ele>10.79</ele>
<time>2016-10-16T14:01:57Z</time>
</trkpt>
<trkpt lat="39.8268098" lon="3.1156673">
<ele>8.97</ele>
<time>2016-10-16T14:02:00Z</time>
</trkpt>
<trkpt lat="39.8266180" lon="3.1156367">
<ele>8.73</ele>
<time>2016-10-16T14:02:03Z</time>
</trkpt>
<trkpt lat="39.8263796" lon="3.1156002">
<ele>8.50</ele>
<time>2016-10-16T14:02:07Z</time>
</trkpt>
<trkpt lat="39.8261813" lon="3.1155641">
<ele>7.91</ele>
<time>2016-10-16T14:02:10Z</time>
</trkpt>
<trkpt lat="39.8259901" lon="3.1155330">
<ele>7.57</ele>
<time>2016-10-16T14:02:13Z</time>
</trkpt>
<trkpt lat="39.8257522" lon="3.1154870">
<ele>7.69</ele>
<time>2016-10-16T14:02:17Z</time>
</trkpt>
<trkpt lat="39.8255702" lon="3.1154525">
<ele>6.89</ele>
<time>2016-10-16T14:02:20Z</time>
</trkpt>
<trkpt lat="39.8253428" lon="3.1154078">
<ele>6.21</ele>
<time>2016-10-16T14:02:24Z</time>
</trkpt>
<trkpt lat="39.8251243" lon="3.1153612">
<ele>7.09</ele>
<time>2016-10-16T14:02:28Z</time>
</trkpt>
<trkpt lat="39.8249434" lon="3.1153313">
<ele>7.43</ele>
<time>2016-10-16T14:02:31Z</time>
</trkpt>
<trkpt lat="39.8247010" lon="3.1152857">
<ele>8.03</ele>
<time>2016-10-16T14:02:35Z</time>
</trkpt>
<trkpt lat="39.8245049" lon="3.1152501">
<ele>7.90</ele>
<time>2016-10-16T14:02:38Z</time>
</trkpt>
<trkpt lat="39.8243021" lon="3.1152112">
<ele>7.74</ele>
<time>2016-10-16T14:02:41Z</time>
</trkpt>
<trkpt lat="39.8241096" lon="3.1151856">
<ele>8.29</ele>
<time>2016-10-16T14:02:44Z</time>
</trkpt>
<trkpt lat="39.8239159" lon="3.1151589">
<ele>9.15</ele>
<time>2016-10-16T14:02:47Z</time>
</trkpt>
<trkpt lat="39.8237270" lon="3.1151259">
<ele>9.33</ele>
<time>2016-10-16T14:02:50Z</time>
</trkpt>
<trkpt lat="39.8235311" lon="3.1150789">
<ele>10.15</ele>
<time>2016-10-16T14:02:53Z</time>
</trkpt>
<trkpt lat="39.8233313" lon="3.1150522">
<ele>10.42</ele>
<time>2016-10-16T14:02:56Z</time>
</trkpt>
<trkpt lat="39.8231463" lon="3.1150116">
<ele>10.49</ele>
<time>2016-10-16T14:02:59Z</time>
</trkpt>
<trkpt lat="39.8229442" lon="3.1149768">
<ele>9.51</ele>
<time>2016-10-16T14:03:02Z</time>
</trkpt>
<trkpt lat="39.8227382" lon="3.1149319">
<ele>9.47</ele>
<time>2016-10-16T14:03:05Z</time>
</trkpt>
<trkpt lat="39.8225509" lon="3.1148973">
<ele>8.94</ele>
<time>2016-10-16T14:03:08Z</time>
</trkpt>
<trkpt lat="39.8223459" lon="3.1148672">
<ele>8.83</ele>
<time>2016-10-16T14:03:11Z</time>
</trkpt>
<trkpt lat="39.8221366" lon="3.1148373">
<ele>8.19</ele>
<time>2016-10-16T14:03:14Z</time>
</trkpt>
<trkpt lat="39.8219412" lon="3.1148020">
<ele>7.51</ele>
<time>2016-10-16T14:03:17Z</time>
</trkpt>
<trkpt lat="39.8217266" lon="3.1147654">
<ele>6.35</ele>
<time>2016-10-16T14:03:20Z</time>
</trkpt>
<trkpt lat="39.8215150" lon="3.1147398">
<ele>5.68</ele>
<time>2016-10-16T14:03:23Z</time>
</trkpt>
<trkpt lat="39.8212807" lon="3.1146991">
<ele>5.87</ele>
<time>2016-10-16T14:03:27Z</time>
</trkpt>
<trkpt lat="39.8210902" lon="3.1146558">
<ele>6.47</ele>
<time>2016-10-16T14:03:30Z</time>
</trkpt>
<trkpt lat="39.8208548" lon="3.1146085">
<ele>7.70</ele>
<time>2016-10-16T14:03:34Z</time>
</trkpt>
<trkpt lat="39.8206174" lon="3.1145545">
<ele>8.90</ele>
<time>2016-10-16T14:03:38Z</time>
</trkpt>
<trkpt lat="39.8204004" lon="3.1144991">
<ele>7.60</ele>
<time>2016-10-16T14:03:42Z</time>
</trkpt>
<trkpt lat="39.8202187" lon="3.1144584">
<ele>8.25</ele>
<time>2016-10-16T14:03:45Z</time>
</trkpt>
<trkpt lat="39.8200376" lon="3.1144269">
<ele>9.29</ele>
<time>2016-10-16T14:03:48Z</time>
</trkpt>
<trkpt lat="39.8198363" lon="3.1144050">
<ele>10.53</ele>
<time>2016-10-16T14:03:51Z</time>
</trkpt>
<trkpt lat="39.8196431" lon="3.1143769">
<ele>10.35</ele>
<time>2016-10-16T14:03:54Z</time>
</trkpt>
<trkpt lat="39.8194445" lon="3.1143685">
<ele>11.84</ele>
<time>2016-10-16T14:03:57Z</time>
</trkpt>
<trkpt lat="39.8192354" lon="3.1143353">
<ele>11.85</ele>
<time>2016-10-16T14:04:00Z</time>
</trkpt>
<trkpt lat="39.8190311" lon="3.1143003">
<ele>11.20</ele>
<time>2016-10-16T14:04:03Z</time>
</trkpt>
<trkpt lat="39.8188414" lon="3.1142534">
<ele>11.14</ele>
<time>2016-10-16T14:04:06Z</time>
</trkpt>
<trkpt lat="39.8186447" lon="3.1142044">
<ele>9.30</ele>
<time>2016-10-16T14:04:09Z</time>
</trkpt>
<trkpt lat="39.8184429" lon="3.1141670">
<ele>8.44</ele>
<time>2016-10-16T14:04:12Z</time>
</trkpt>
<trkpt lat="39.8182373" lon="3.1141235">
<ele>8.24</ele>
<time>2016-10-16T14:04:15Z</time>
</trkpt>
<trkpt lat="39.8180419" lon="3.1140865">
<ele>8.50</ele>
<time>2016-10-16T14:04:18Z</time>
</trkpt>
<trkpt lat="39.8178548" lon="3.1140409">
<ele>7.27</ele>
<time>2016-10-16T14:04:21Z</time>
</trkpt>
<trkpt lat="39.8176473" lon="3.1140184">
<ele>6.73</ele>
<time>2016-10-16T14:04:24Z</time>
</trkpt>
<trkpt lat="39.8174526" lon="3.1139970">
<ele>6.71</ele>
<time>2016-10-16T14:04:27Z</time>
</trkpt>
<trkpt lat="39.8172665" lon="3.1139673">
<ele>6.27</ele>
<time>2016-10-16T14:04:30Z</time>
</trkpt>
<trkpt lat="39.8170741" lon="3.1139259">
<ele>6.18</ele>
<time>2016-10-16T14:04:33Z</time>
</trkpt>
<trkpt lat="39.8168744" lon="3.1139057">
<ele>6.76</ele>
<time>2016-10-16T14:04:36Z</time>
</trkpt>
<trkpt lat="39.8166939" lon="3.1139033">
<ele>7.43</ele>
<time>2016-10-16T14:04:39Z</time>
</trkpt>
<trkpt lat="39.8164657" lon="3.1139185">
<ele>7.32</ele>
<time>2016-10-16T14:04:43Z</time>
</trkpt>
<trkpt lat="39.8162786" lon="3.1139492">
<ele>6.86</ele>
<time>2016-10-16T14:04:46Z</time>
</trkpt>
<trkpt lat="39.8160932" lon="3.1139841">
<ele>7.73</ele>
<time>2016-10-16T14:04:49Z</time>
</trkpt>
<trkpt lat="39.8159103" lon="3.1140302">
<ele>8.07</ele>
<time>2016-10-16T14:04:52Z</time>
</trkpt>
<trkpt lat="39.8157307" lon="3.1140897">
<ele>8.22</ele>
<time>2016-10-16T14:04:55Z</time>
</trkpt>
<trkpt lat="39.8155139" lon="3.1141761">
<ele>7.08</ele>
<time>2016-10-16T14:04:59Z</time>
</trkpt>
<trkpt lat="39.8153191" lon="3.1142359">
<ele>6.60</ele>
<time>2016-10-16T14:05:03Z</time>
</trkpt>
<trkpt lat="39.8151381" lon="3.1142620">
<ele>6.64</ele>
<time>2016-10-16T14:05:06Z</time>
</trkpt>
<trkpt lat="39.8149158" lon="3.1143835">
<ele>6.15</ele>
<time>2016-10-16T14:05:10Z</time>
</trkpt>
<trkpt lat="39.8147304" lon="3.1144558">
<ele>5.88</ele>
<time>2016-10-16T14:05:13Z</time>
</trkpt>
<trkpt lat="39.8145573" lon="3.1145266">
<ele>4.98</ele>
<time>2016-10-16T14:05:16Z</time>
</trkpt>
<trkpt lat="39.8143256" lon="3.1145937">
<ele>5.61</ele>
<time>2016-10-16T14:05:20Z</time>
</trkpt>
<trkpt lat="39.8141449" lon="3.1146417">
<ele>7.04</ele>
<time>2016-10-16T14:05:23Z</time>
</trkpt>
<trkpt lat="39.8139651" lon="3.1146922">
<ele>7.87</ele>
<time>2016-10-16T14:05:26Z</time>
</trkpt>
<trkpt lat="39.8137438" lon="3.1147493">
<ele>10.01</ele>
<time>2016-10-16T14:05:30Z</time>
</trkpt>
<trkpt lat="39.8135483" lon="3.1148123">
<ele>10.52</ele>
<time>2016-10-16T14:05:34Z</time>
</trkpt>
<trkpt lat="39.8133681" lon="3.1148726">
<ele>11.39</ele>
<time>2016-10-16T14:05:38Z</time>
</trkpt>
<trkpt lat="39.8131698" lon="3.1149205">
<ele>9.77</ele>
<time>2016-10-16T14:05:42Z</time>
</trkpt>
<trkpt lat="39.8129446" lon="3.1150148">
<ele>7.81</ele>
<time>2016-10-16T14:05:46Z</time>
</trkpt>
<trkpt lat="39.8127624" lon="3.1150779">
<ele>6.29</ele>
<time>2016-10-16T14:05:49Z</time>
</trkpt>
<trkpt lat="39.8125346" lon="3.1151310">
<ele>5.71</ele>
<time>2016-10-16T14:05:53Z</time>
</trkpt>
<trkpt lat="39.8123521" lon="3.1151830">
<ele>7.18</ele>
<time>2016-10-16T14:05:56Z</time>
</trkpt>
<trkpt lat="39.8121126" lon="3.1152547">
<ele>7.42</ele>
<time>2016-10-16T14:06:00Z</time>
</trkpt>
<trkpt lat="39.8119184" lon="3.1153214">
<ele>7.37</ele>
<time>2016-10-16T14:06:03Z</time>
</trkpt>
<trkpt lat="39.8117277" lon="3.1153845">
<ele>6.72</ele>
<time>2016-10-16T14:06:06Z</time>
</trkpt>
<trkpt lat="39.8115319" lon="3.1154544">
<ele>7.93</ele>
<time>2016-10-16T14:06:09Z</time>
</trkpt>
<trkpt lat="39.8113556" lon="3.1155233">
<ele>9.45</ele>
<time>2016-10-16T14:06:12Z</time>
</trkpt>
<trkpt lat="39.8111382" lon="3.1155985">
<ele>11.94</ele>
<time>2016-10-16T14:06:16Z</time>
</trkpt>
<trkpt lat="39.8109636" lon="3.1156599">
<ele>10.93</ele>
<time>2016-10-16T14:06:19Z</time>
</trkpt>
<trkpt lat="39.8107844" lon="3.1157304">
<ele>9.15</ele>
<time>2016-10-16T14:06:22Z</time>
</trkpt>
<trkpt lat="39.8105927" lon="3.1157954">
<ele>9.29</ele>
<time>2016-10-16T14:06:25Z</time>
</trkpt>
<trkpt lat="39.8104059" lon="3.1158440">
<ele>9.64</ele>
<time>2016-10-16T14:06:28Z</time>
</trkpt>
<trkpt lat="39.8102128" lon="3.1158869">
<ele>8.27</ele>
<time>2016-10-16T14:06:31Z</time>
</trkpt>
<trkpt lat="39.8100219" lon="3.1159266">
<ele>6.43</ele>
<time>2016-10-16T14:06:34Z</time>
</trkpt>
<trkpt lat="39.8098288" lon="3.1159743">
<ele>4.72</ele>
<time>2016-10-16T14:06:37Z</time>
</trkpt>
<trkpt lat="39.8096497" lon="3.1160356">
<ele>4.65</ele>
<time>2016-10-16T14:06:40Z</time>
</trkpt>
<trkpt lat="39.8094686" lon="3.1161059">
<ele>5.32</ele>
<time>2016-10-16T14:06:43Z</time>
</trkpt>
<trkpt lat="39.8092450" lon="3.1161936">
<ele>4.94</ele>
<time>2016-10-16T14:06:47Z</time>
</trkpt>
<trkpt lat="39.8090134" lon="3.1162764">
<ele>4.55</ele>
<time>2016-10-16T14:06:51Z</time>
</trkpt>
<trkpt lat="39.8088274" lon="3.1163322">
<ele>4.93</ele>
<time>2016-10-16T14:06:54Z</time>
</trkpt>
<trkpt lat="39.8085973" lon="3.1163889">
<ele>7.31</ele>
<time>2016-10-16T14:06:58Z</time>
</trkpt>
<trkpt lat="39.8084088" lon="3.1164442">
<ele>8.40</ele>
<time>2016-10-16T14:07:01Z</time>
</trkpt>
<trkpt lat="39.8082263" lon="3.1164974">
<ele>7.42</ele>
<time>2016-10-16T14:07:04Z</time>
</trkpt>
<trkpt lat="39.8080422" lon="3.1165719">
<ele>6.21</ele>
<time>2016-10-16T14:07:07Z</time>
</trkpt>
<trkpt lat="39.8078050" lon="3.1166538">
<ele>5.39</ele>
<time>2016-10-16T14:07:11Z</time>
</trkpt>
<trkpt lat="39.8076188" lon="3.1167070">
<ele>4.67</ele>
<time>2016-10-16T14:07:14Z</time>
</trkpt>
<trkpt lat="39.8074315" lon="3.1167681">
<ele>4.60</ele>
<time>2016-10-16T14:07:17Z</time>
</trkpt>
<trkpt lat="39.8072472" lon="3.1168281">
<ele>4.98</ele>
<time>2016-10-16T14:07:20Z</time>
</trkpt>
<trkpt lat="39.8070555" lon="3.1169021">
<ele>7.08</ele>
<time>2016-10-16T14:07:23Z</time>
</trkpt>
<trkpt lat="39.8068329" lon="3.1169820">
<ele>10.66</ele>
<time>2016-10-16T14:07:27Z</time>
</trkpt>
<trkpt lat="39.8066475" lon="3.1170356">
<ele>12.59</ele>
<time>2016-10-16T14:07:30Z</time>
</trkpt>
<trkpt lat="39.8064633" lon="3.1170924">
<ele>13.36</ele>
<time>2016-10-16T14:07:33Z</time>
</trkpt>
<trkpt lat="39.8062353" lon="3.1171698">
<ele>13.69</ele>
<time>2016-10-16T14:07:37Z</time>
</trkpt>
<trkpt lat="39.8060490" lon="3.1172285">
<ele>12.47</ele>
<time>2016-10-16T14:07:40Z</time>
</trkpt>
<trkpt lat="39.8058578" lon="3.1172868">
<ele>11.05</ele>
<time>2016-10-16T14:07:43Z</time>
</trkpt>
<trkpt lat="39.8056776" lon="3.1173431">
<ele>11.02</ele>
<time>2016-10-16T14:07:46Z</time>
</trkpt>
<trkpt lat="39.8054912" lon="3.1173980">
<ele>12.66</ele>
<time>2016-10-16T14:07:49Z</time>
</trkpt>
<trkpt lat="39.8053027" lon="3.1174540">
<ele>12.15</ele>
<time>2016-10-16T14:07:52Z</time>
</trkpt>
<trkpt lat="39.8051180" lon="3.1175115">
<ele>11.49</ele>
<time>2016-10-16T14:07:55Z</time>
</trkpt>
<trkpt lat="39.8049432" lon="3.1175777">
<ele>9.90</ele>
<time>2016-10-16T14:07:58Z</time>
</trkpt>
<trkpt lat="39.8047636" lon="3.1176300">
<ele>8.72</ele>
<time>2016-10-16T14:08:01Z</time>
</trkpt>
<trkpt lat="39.8045385" lon="3.1176966">
<ele>7.51</ele>
<time>2016-10-16T14:08:05Z</time>
</trkpt>
<trkpt lat="39.8043536" lon="3.1177248">
<ele>5.80</ele>
<time>2016-10-16T14:08:08Z</time>
</trkpt>
<trkpt lat="39.8041438" lon="3.1177159">
<ele>5.74</ele>
<time>2016-10-16T14:08:11Z</time>
</trkpt>
<trkpt lat="39.8039742" lon="3.1178097">
<ele>6.53</ele>
<time>2016-10-16T14:08:14Z</time>
</trkpt>
<trkpt lat="39.8038008" lon="3.1179238">
<ele>5.49</ele>
<time>2016-10-16T14:08:17Z</time>
</trkpt>
<trkpt lat="39.8036125" lon="3.1180057">
<ele>5.05</ele>
<time>2016-10-16T14:08:20Z</time>
</trkpt>
<trkpt lat="39.8034360" lon="3.1180702">
<ele>4.48</ele>
<time>2016-10-16T14:08:23Z</time>
</trkpt>
<trkpt lat="39.8032607" lon="3.1181316">
<ele>3.17</ele>
<time>2016-10-16T14:08:26Z</time>
</trkpt>
<trkpt lat="39.8030826" lon="3.1181890">
<ele>3.18</ele>
<time>2016-10-16T14:08:29Z</time>
</trkpt>
<trkpt lat="39.8028976" lon="3.1182575">
<ele>4.84</ele>
<time>2016-10-16T14:08:32Z</time>
</trkpt>
<trkpt lat="39.8027144" lon="3.1183206">
<ele>6.91</ele>
<time>2016-10-16T14:08:35Z</time>
</trkpt>
<trkpt lat="39.8024800" lon="3.1183804">
<ele>6.97</ele>
<time>2016-10-16T14:08:39Z</time>
</trkpt>
<trkpt lat="39.8022383" lon="3.1184322">
<ele>5.94</ele>
<time>2016-10-16T14:08:43Z</time>
</trkpt>
<trkpt lat="39.8019987" lon="3.1184968">
<ele>5.67</ele>
<time>2016-10-16T14:08:47Z</time>
</trkpt>
<trkpt lat="39.8018160" lon="3.1185585">
<ele>4.79</ele>
<time>2016-10-16T14:08:50Z</time>
</trkpt>
<trkpt lat="39.8015896" lon="3.1186594">
<ele>6.30</ele>
<time>2016-10-16T14:08:54Z</time>
</trkpt>
<trkpt lat="39.8014168" lon="3.1187457">
<ele>6.73</ele>
<time>2016-10-16T14:08:57Z</time>
</trkpt>
<trkpt lat="39.8012083" lon="3.1188278">
<ele>6.24</ele>
<time>2016-10-16T14:09:01Z</time>
</trkpt>
<trkpt lat="39.8009859" lon="3.1188982">
<ele>6.48</ele>
<time>2016-10-16T14:09:05Z</time>
</trkpt>
<trkpt lat="39.8008065" lon="3.1189535">
<ele>6.83</ele>
<time>2016-10-16T14:09:08Z</time>
</trkpt>
<trkpt lat="39.8006302" lon="3.1190060">
<ele>7.03</ele>
<time>2016-10-16T14:09:11Z</time>
</trkpt>
<trkpt lat="39.8004538" lon="3.1190541">
<ele>6.14</ele>
<time>2016-10-16T14:09:14Z</time>
</trkpt>
<trkpt lat="39.8002712" lon="3.1191070">
<ele>5.15</ele>
<time>2016-10-16T14:09:17Z</time>
</trkpt>
<trkpt lat="39.8000825" lon="3.1191708">
<ele>4.67</ele>
<time>2016-10-16T14:09:20Z</time>
</trkpt>
<trkpt lat="39.7998809" lon="3.1192368">
<ele>3.80</ele>
<time>2016-10-16T14:09:23Z</time>
</trkpt>
<trkpt lat="39.7996897" lon="3.1192917">
<ele>3.84</ele>
<time>2016-10-16T14:09:26Z</time>
</trkpt>
<trkpt lat="39.7995054" lon="3.1193423">
<ele>4.18</ele>
<time>2016-10-16T14:09:29Z</time>
</trkpt>
<trkpt lat="39.7992754" lon="3.1193806">
<ele>4.72</ele>
<time>2016-10-16T14:09:33Z</time>
</trkpt>
<trkpt lat="39.7990747" lon="3.1194328">
<ele>4.30</ele>
<time>2016-10-16T14:09:37Z</time>
</trkpt>
<trkpt lat="39.7989026" lon="3.1195364">
<ele>3.93</ele>
<time>2016-10-16T14:09:40Z</time>
</trkpt>
<trkpt lat="39.7987173" lon="3.1196123">
<ele>3.79</ele>
<time>2016-10-16T14:09:43Z</time>
</trkpt>
<trkpt lat="39.7985400" lon="3.1196676">
<ele>4.10</ele>
<time>2016-10-16T14:09:46Z</time>
</trkpt>
<trkpt lat="39.7983072" lon="3.1197233">
<ele>4.86</ele>
<time>2016-10-16T14:09:50Z</time>
</trkpt>
<trkpt lat="39.7981212" lon="3.1197801">
<ele>5.13</ele>
<time>2016-10-16T14:09:53Z</time>
</trkpt>
<trkpt lat="39.7979008" lon="3.1198622">
<ele>5.64</ele>
<time>2016-10-16T14:09:57Z</time>
</trkpt>
<trkpt lat="39.7977046" lon="3.1199247">
<ele>3.65</ele>
<time>2016-10-16T14:10:00Z</time>
</trkpt>
<trkpt lat="39.7975063" lon="3.1199881">
<ele>2.65</ele>
<time>2016-10-16T14:10:03Z</time>
</trkpt>
<trkpt lat="39.7973229" lon="3.1200444">
<ele>2.30</ele>
<time>2016-10-16T14:10:06Z</time>
</trkpt>
<trkpt lat="39.7971449" lon="3.1200960">
<ele>2.44</ele>
<time>2016-10-16T14:10:09Z</time>
</trkpt>
<trkpt lat="39.7969621" lon="3.1201530">
<ele>2.73</ele>
<time>2016-10-16T14:10:12Z</time>
</trkpt>
<trkpt lat="39.7967742" lon="3.1202039">
<ele>3.19</ele>
<time>2016-10-16T14:10:15Z</time>
</trkpt>
<trkpt lat="39.7965685" lon="3.1202606">
<ele>3.74</ele>
<time>2016-10-16T14:10:18Z</time>
</trkpt>
<trkpt lat="39.7963849" lon="3.1203095">
<ele>3.53</ele>
<time>2016-10-16T14:10:21Z</time>
</trkpt>
<trkpt lat="39.7961969" lon="3.1203558">
<ele>3.52</ele>
<time>2016-10-16T14:10:24Z</time>
</trkpt>
<trkpt lat="39.7960008" lon="3.1204263">
<ele>3.27</ele>
<time>2016-10-16T14:10:27Z</time>
</trkpt>
<trkpt lat="39.7957802" lon="3.1205149">
<ele>5.91</ele>
<time>2016-10-16T14:10:31Z</time>
</trkpt>
<trkpt lat="39.7955893" lon="3.1205800">
<ele>5.71</ele>
<time>2016-10-16T14:10:34Z</time>
</trkpt>
<trkpt lat="39.7954016" lon="3.1206319">
<ele>5.00</ele>
<time>2016-10-16T14:10:36Z</time>
</trkpt>
<trkpt lat="39.7952068" lon="3.1206842">
<ele>4.55</ele>
<time>2016-10-16T14:10:39Z</time>
</trkpt>
<trkpt lat="39.7950247" lon="3.1207546">
<ele>4.70</ele>
<time>2016-10-16T14:10:42Z</time>
</trkpt>
<trkpt lat="39.7948470" lon="3.1208273">
<ele>5.58</ele>
<time>2016-10-16T14:10:45Z</time>
</trkpt>
<trkpt lat="39.7946712" lon="3.1209025">
<ele>5.85</ele>
<time>2016-10-16T14:10:48Z</time>
</trkpt>
<trkpt lat="39.7944888" lon="3.1210040">
<ele>6.71</ele>
<time>2016-10-16T14:10:51Z</time>
</trkpt>
<trkpt lat="39.7942743" lon="3.1211438">
<ele>7.45</ele>
<time>2016-10-16T14:10:55Z</time>
</trkpt>
<trkpt lat="39.7940950" lon="3.1212597">
<ele>7.48</ele>
<time>2016-10-16T14:10:58Z</time>
</trkpt>
<trkpt lat="39.7939159" lon="3.1213656">
<ele>6.91</ele>
<time>2016-10-16T14:11:01Z</time>
</trkpt>
<trkpt lat="39.7937280" lon="3.1214716">
<ele>6.22</ele>
<time>2016-10-16T14:11:04Z</time>
</trkpt>
<trkpt lat="39.7935438" lon="3.1215747">
<ele>5.77</ele>
<time>2016-10-16T14:11:07Z</time>
</trkpt>
<trkpt lat="39.7933631" lon="3.1216803">
<ele>5.48</ele>
<time>2016-10-16T14:11:10Z</time>
</trkpt>
<trkpt lat="39.7931924" lon="3.1217884">
<ele>4.71</ele>
<time>2016-10-16T14:11:13Z</time>
</trkpt>
<trkpt lat="39.7930232" lon="3.1218851">
<ele>4.91</ele>
<time>2016-10-16T14:11:16Z</time>
</trkpt>
<trkpt lat="39.7928481" lon="3.1219913">
<ele>5.12</ele>
<time>2016-10-16T14:11:19Z</time>
</trkpt>
<trkpt lat="39.7926711" lon="3.1221036">
<ele>5.17</ele>
<time>2016-10-16T14:11:22Z</time>
</trkpt>
<trkpt lat="39.7924997" lon="3.1222159">
<ele>4.60</ele>
<time>2016-10-16T14:11:25Z</time>
</trkpt>
<trkpt lat="39.7922851" lon="3.1223429">
<ele>4.37</ele>
<time>2016-10-16T14:11:29Z</time>
</trkpt>
<trkpt lat="39.7921063" lon="3.1224556">
<ele>4.16</ele>
<time>2016-10-16T14:11:32Z</time>
</trkpt>
<trkpt lat="39.7919353" lon="3.1225704">
<ele>4.04</ele>
<time>2016-10-16T14:11:35Z</time>
</trkpt>
<trkpt lat="39.7917536" lon="3.1226601">
<ele>5.15</ele>
<time>2016-10-16T14:11:38Z</time>
</trkpt>
<trkpt lat="39.7915692" lon="3.1227513">
<ele>5.32</ele>
<time>2016-10-16T14:11:41Z</time>
</trkpt>
<trkpt lat="39.7913930" lon="3.1228678">
<ele>4.48</ele>
<time>2016-10-16T14:11:44Z</time>
</trkpt>
<trkpt lat="39.7912235" lon="3.1229950">
<ele>5.91</ele>
<time>2016-10-16T14:11:47Z</time>
</trkpt>
<trkpt lat="39.7910615" lon="3.1231299">
<ele>6.10</ele>
<time>2016-10-16T14:11:50Z</time>
</trkpt>
<trkpt lat="39.7909085" lon="3.1232532">
<ele>6.15</ele>
<time>2016-10-16T14:11:53Z</time>
</trkpt>
<trkpt lat="39.7907468" lon="3.1233749">
<ele>3.98</ele>
<time>2016-10-16T14:11:56Z</time>
</trkpt>
<trkpt lat="39.7905781" lon="3.1235029">
<ele>2.72</ele>
<time>2016-10-16T14:11:59Z</time>
</trkpt>
<trkpt lat="39.7904027" lon="3.1236268">
<ele>2.24</ele>
<time>2016-10-16T14:12:02Z</time>
</trkpt>
<trkpt lat="39.7902391" lon="3.1237421">
<ele>1.99</ele>
<time>2016-10-16T14:12:05Z</time>
</trkpt>
<trkpt lat="39.7900769" lon="3.1238713">
<ele>1.68</ele>
<time>2016-10-16T14:12:08Z</time>
</trkpt>
<trkpt lat="39.7899065" lon="3.1240078">
<ele>1.50</ele>
<time>2016-10-16T14:12:11Z</time>
</trkpt>
<trkpt lat="39.7897297" lon="3.1241361">
<ele>3.55</ele>
<time>2016-10-16T14:12:14Z</time>
</trkpt>
<trkpt lat="39.7895589" lon="3.1242693">
<ele>4.70</ele>
<time>2016-10-16T14:12:17Z</time>
</trkpt>
<trkpt lat="39.7893989" lon="3.1243966">
<ele>5.38</ele>
<time>2016-10-16T14:12:20Z</time>
</trkpt>
<trkpt lat="39.7892350" lon="3.1245327">
<ele>5.52</ele>
<time>2016-10-16T14:12:23Z</time>
</trkpt>
<trkpt lat="39.7890321" lon="3.1246913">
<ele>4.60</ele>
<time>2016-10-16T14:12:27Z</time>
</trkpt>
<trkpt lat="39.7888338" lon="3.1248347">
<ele>2.44</ele>
<time>2016-10-16T14:12:31Z</time>
</trkpt>
<trkpt lat="39.7886383" lon="3.1249813">
<ele>2.39</ele>
<time>2016-10-16T14:12:35Z</time>
</trkpt>
<trkpt lat="39.7884784" lon="3.1251204">
<ele>2.87</ele>
<time>2016-10-16T14:12:38Z</time>
</trkpt>
<trkpt lat="39.7882949" lon="3.1252893">
<ele>2.94</ele>
<time>2016-10-16T14:12:42Z</time>
</trkpt>
<trkpt lat="39.7881302" lon="3.1254196">
<ele>3.62</ele>
<time>2016-10-16T14:12:45Z</time>
</trkpt>
<trkpt lat="39.7879556" lon="3.1255601">
<ele>4.09</ele>
<time>2016-10-16T14:12:48Z</time>
</trkpt>
<trkpt lat="39.7877947" lon="3.1256932">
<ele>5.22</ele>
<time>2016-10-16T14:12:51Z</time>
</trkpt>
<trkpt lat="39.7876301" lon="3.1258161">
<ele>5.31</ele>
<time>2016-10-16T14:12:54Z</time>
</trkpt>
<trkpt lat="39.7874481" lon="3.1259519">
<ele>4.46</ele>
<time>2016-10-16T14:12:57Z</time>
</trkpt>
<trkpt lat="39.7872723" lon="3.1260847">
<ele>5.56</ele>
<time>2016-10-16T14:13:00Z</time>
</trkpt>
<trkpt lat="39.7871093" lon="3.1262109">
<ele>5.52</ele>
<time>2016-10-16T14:13:03Z</time>
</trkpt>
<trkpt lat="39.7869061" lon="3.1263676">
<ele>5.17</ele>
<time>2016-10-16T14:13:07Z</time>
</trkpt>
<trkpt lat="39.7867303" lon="3.1264997">
<ele>4.57</ele>
<time>2016-10-16T14:13:10Z</time>
</trkpt>
<trkpt lat="39.7865495" lon="3.1266308">
<ele>3.33</ele>
<time>2016-10-16T14:13:13Z</time>
</trkpt>
<trkpt lat="39.7863750" lon="3.1267649">
<ele>1.61</ele>
<time>2016-10-16T14:13:16Z</time>
</trkpt>
<trkpt lat="39.7862070" lon="3.1268873">
<ele>0.72</ele>
<time>2016-10-16T14:13:19Z</time>
</trkpt>
<trkpt lat="39.7860450" lon="3.1270008">
<ele>1.04</ele>
<time>2016-10-16T14:13:22Z</time>
</trkpt>
<trkpt lat="39.7858703" lon="3.1271272">
<ele>1.04</ele>
<time>2016-10-16T14:13:25Z</time>
</trkpt>
<trkpt lat="39.7856976" lon="3.1272491">
<ele>2.12</ele>
<time>2016-10-16T14:13:28Z</time>
</trkpt>
<trkpt lat="39.7855376" lon="3.1273637">
<ele>4.34</ele>
<time>2016-10-16T14:13:31Z</time>
</trkpt>
<trkpt lat="39.7853602" lon="3.1274770">
<ele>6.67</ele>
<time>2016-10-16T14:13:34Z</time>
</trkpt>
<trkpt lat="39.7851769" lon="3.1276090">
<ele>6.04</ele>
<time>2016-10-16T14:13:37Z</time>
</trkpt>
<trkpt lat="39.7850133" lon="3.1277191">
<ele>5.38</ele>
<time>2016-10-16T14:13:40Z</time>
</trkpt>
<trkpt lat="39.7848017" lon="3.1278740">
<ele>3.57</ele>
<time>2016-10-16T14:13:44Z</time>
</trkpt>
<trkpt lat="39.7846345" lon="3.1279880">
<ele>3.35</ele>
<time>2016-10-16T14:13:47Z</time>
</trkpt>
<trkpt lat="39.7844562" lon="3.1281113">
<ele>3.96</ele>
<time>2016-10-16T14:13:50Z</time>
</trkpt>
<trkpt lat="39.7842830" lon="3.1282330">
<ele>4.27</ele>
<time>2016-10-16T14:13:53Z</time>
</trkpt>
<trkpt lat="39.7841069" lon="3.1283550">
<ele>4.51</ele>
<time>2016-10-16T14:13:56Z</time>
</trkpt>
<trkpt lat="39.7839267" lon="3.1284843">
<ele>4.55</ele>
<time>2016-10-16T14:13:59Z</time>
</trkpt>
<trkpt lat="39.7837569" lon="3.1286108">
<ele>4.02</ele>
<time>2016-10-16T14:14:02Z</time>
</trkpt>
<trkpt lat="39.7835798" lon="3.1287352">
<ele>3.98</ele>
<time>2016-10-16T14:14:05Z</time>
</trkpt>
<trkpt lat="39.7834079" lon="3.1288491">
<ele>4.46</ele>
<time>2016-10-16T14:14:08Z</time>
</trkpt>
<trkpt lat="39.7832291" lon="3.1289828">
<ele>4.74</ele>
<time>2016-10-16T14:14:11Z</time>
</trkpt>
<trkpt lat="39.7830696" lon="3.1291058">
<ele>3.91</ele>
<time>2016-10-16T14:14:14Z</time>
</trkpt>
<trkpt lat="39.7828839" lon="3.1292378">
<ele>2.67</ele>
<time>2016-10-16T14:14:17Z</time>
</trkpt>
<trkpt lat="39.7827063" lon="3.1293590">
<ele>2.05</ele>
<time>2016-10-16T14:14:20Z</time>
</trkpt>
<trkpt lat="39.7825111" lon="3.1294928">
<ele>2.80</ele>
<time>2016-10-16T14:14:23Z</time>
</trkpt>
<trkpt lat="39.7823216" lon="3.1296239">
<ele>2.40</ele>
<time>2016-10-16T14:14:26Z</time>
</trkpt>
<trkpt lat="39.7821361" lon="3.1297580">
<ele>1.86</ele>
<time>2016-10-16T14:14:29Z</time>
</trkpt>
<trkpt lat="39.7819687" lon="3.1299034">
<ele>1.63</ele>
<time>2016-10-16T14:14:32Z</time>
</trkpt>
<trkpt lat="39.7818087" lon="3.1300416">
<ele>1.51</ele>
<time>2016-10-16T14:14:35Z</time>
</trkpt>
<trkpt lat="39.7816580" lon="3.1301810">
<ele>1.91</ele>
<time>2016-10-16T14:14:38Z</time>
</trkpt>
<trkpt lat="39.7814662" lon="3.1303716">
<ele>2.19</ele>
<time>2016-10-16T14:14:42Z</time>
</trkpt>
<trkpt lat="39.7813182" lon="3.1305304">
<ele>2.10</ele>
<time>2016-10-16T14:14:45Z</time>
</trkpt>
<trkpt lat="39.7811303" lon="3.1307170">
<ele>1.04</ele>
<time>2016-10-16T14:14:49Z</time>
</trkpt>
<trkpt lat="39.7809757" lon="3.1308724">
<ele>0.90</ele>
<time>2016-10-16T14:14:52Z</time>
</trkpt>
<trkpt lat="39.7808176" lon="3.1310160">
<ele>1.58</ele>
<time>2016-10-16T14:14:55Z</time>
</trkpt>
<trkpt lat="39.7806752" lon="3.1311676">
<ele>2.04</ele>
<time>2016-10-16T14:14:58Z</time>
</trkpt>
<trkpt lat="39.7804949" lon="3.1313538">
<ele>1.99</ele>
<time>2016-10-16T14:15:02Z</time>
</trkpt>
<trkpt lat="39.7803120" lon="3.1315382">
<ele>2.02</ele>
<time>2016-10-16T14:15:06Z</time>
</trkpt>
<trkpt lat="39.7801337" lon="3.1317498">
<ele>3.90</ele>
<time>2016-10-16T14:15:10Z</time>
</trkpt>
<trkpt lat="39.7799608" lon="3.1319485">
<ele>4.11</ele>
<time>2016-10-16T14:15:14Z</time>
</trkpt>
<trkpt lat="39.7797789" lon="3.1321434">
<ele>4.00</ele>
<time>2016-10-16T14:15:18Z</time>
</trkpt>
<trkpt lat="39.7796371" lon="3.1322958">
<ele>3.52</ele>
<time>2016-10-16T14:15:21Z</time>
</trkpt>
<trkpt lat="39.7794681" lon="3.1324749">
<ele>4.00</ele>
<time>2016-10-16T14:15:25Z</time>
</trkpt>
<trkpt lat="39.7792818" lon="3.1326636">
<ele>2.83</ele>
<time>2016-10-16T14:15:29Z</time>
</trkpt>
<trkpt lat="39.7791398" lon="3.1328111">
<ele>2.35</ele>
<time>2016-10-16T14:15:32Z</time>
</trkpt>
<trkpt lat="39.7789642" lon="3.1330003">
<ele>2.01</ele>
<time>2016-10-16T14:15:36Z</time>
</trkpt>
<trkpt lat="39.7787775" lon="3.1332034">
<ele>5.15</ele>
<time>2016-10-16T14:15:40Z</time>
</trkpt>
<trkpt lat="39.7786308" lon="3.1333686">
<ele>4.77</ele>
<time>2016-10-16T14:15:43Z</time>
</trkpt>
<trkpt lat="39.7784857" lon="3.1335343">
<ele>4.06</ele>
<time>2016-10-16T14:15:46Z</time>
</trkpt>
<trkpt lat="39.7783340" lon="3.1336996">
<ele>3.98</ele>
<time>2016-10-16T14:15:49Z</time>
</trkpt>
<trkpt lat="39.7781826" lon="3.1338498">
<ele>4.33</ele>
<time>2016-10-16T14:15:52Z</time>
</trkpt>
<trkpt lat="39.7780182" lon="3.1340147">
<ele>4.44</ele>
<time>2016-10-16T14:15:55Z</time>
</trkpt>
<trkpt lat="39.7778678" lon="3.1341866">
<ele>4.27</ele>
<time>2016-10-16T14:15:58Z</time>
</trkpt>
<trkpt lat="39.7777226" lon="3.1343658">
<ele>3.78</ele>
<time>2016-10-16T14:16:01Z</time>
</trkpt>
<trkpt lat="39.7775535" lon="3.1345772">
<ele>3.43</ele>
<time>2016-10-16T14:16:05Z</time>
</trkpt>
<trkpt lat="39.7774203" lon="3.1347509">
<ele>4.31</ele>
<time>2016-10-16T14:16:08Z</time>
</trkpt>
<trkpt lat="39.7772868" lon="3.1349286">
<ele>4.81</ele>
<time>2016-10-16T14:16:11Z</time>
</trkpt>
<trkpt lat="39.7771508" lon="3.1351156">
<ele>4.54</ele>
<time>2016-10-16T14:16:14Z</time>
</trkpt>
<trkpt lat="39.7770032" lon="3.1352998">
<ele>4.10</ele>
<time>2016-10-16T14:16:17Z</time>
</trkpt>
<trkpt lat="39.7768628" lon="3.1354827">
<ele>2.84</ele>
<time>2016-10-16T14:16:20Z</time>
</trkpt>
<trkpt lat="39.7767284" lon="3.1356634">
<ele>2.25</ele>
<time>2016-10-16T14:16:23Z</time>
</trkpt>
<trkpt lat="39.7765981" lon="3.1358398">
<ele>2.45</ele>
<time>2016-10-16T14:16:26Z</time>
</trkpt>
<trkpt lat="39.7764667" lon="3.1360240">
<ele>2.45</ele>
<time>2016-10-16T14:16:29Z</time>
</trkpt>
<trkpt lat="39.7763295" lon="3.1362024">
<ele>2.47</ele>
<time>2016-10-16T14:16:32Z</time>
</trkpt>
<trkpt lat="39.7762046" lon="3.1363832">
<ele>2.11</ele>
<time>2016-10-16T14:16:35Z</time>
</trkpt>
<trkpt lat="39.7760663" lon="3.1365754">
<ele>2.00</ele>
<time>2016-10-16T14:16:38Z</time>
</trkpt>
<trkpt lat="39.7759403" lon="3.1367559">
<ele>1.97</ele>
<time>2016-10-16T14:16:41Z</time>
</trkpt>
<trkpt lat="39.7758052" lon="3.1369419">
<ele>2.04</ele>
<time>2016-10-16T14:16:44Z</time>
</trkpt>
<trkpt lat="39.7756702" lon="3.1371242">
<ele>3.05</ele>
<time>2016-10-16T14:16:47Z</time>
</trkpt>
<trkpt lat="39.7755244" lon="3.1373152">
<ele>3.43</ele>
<time>2016-10-16T14:16:50Z</time>
</trkpt>
<trkpt lat="39.7753850" lon="3.1374936">
<ele>3.08</ele>
<time>2016-10-16T14:16:53Z</time>
</trkpt>
<trkpt lat="39.7752539" lon="3.1376800">
<ele>2.94</ele>
<time>2016-10-16T14:16:56Z</time>
</trkpt>
<trkpt lat="39.7751233" lon="3.1378598">
<ele>3.17</ele>
<time>2016-10-16T14:16:59Z</time>
</trkpt>
<trkpt lat="39.7749611" lon="3.1380799">
<ele>3.29</ele>
<time>2016-10-16T14:17:03Z</time>
</trkpt>
<trkpt lat="39.7748312" lon="3.1382592">
<ele>3.83</ele>
<time>2016-10-16T14:17:06Z</time>
</trkpt>
<trkpt lat="39.7746939" lon="3.1384496">
<ele>4.18</ele>
<time>2016-10-16T14:17:09Z</time>
</trkpt>
<trkpt lat="39.7745537" lon="3.1386334">
<ele>3.92</ele>
<time>2016-10-16T14:17:12Z</time>
</trkpt>
<trkpt lat="39.7744236" lon="3.1388127">
<ele>3.08</ele>
<time>2016-10-16T14:17:15Z</time>
</trkpt>
<trkpt lat="39.7742890" lon="3.1389779">
<ele>3.07</ele>
<time>2016-10-16T14:17:18Z</time>
</trkpt>
<trkpt lat="39.7741558" lon="3.1391449">
<ele>3.09</ele>
<time>2016-10-16T14:17:21Z</time>
</trkpt>
<trkpt lat="39.7740179" lon="3.1393162">
<ele>3.06</ele>
<time>2016-10-16T14:17:24Z</time>
</trkpt>
<trkpt lat="39.7738724" lon="3.1394923">
<ele>3.06</ele>
<time>2016-10-16T14:17:27Z</time>
</trkpt>
<trkpt lat="39.7737324" lon="3.1396601">
<ele>2.96</ele>
<time>2016-10-16T14:17:30Z</time>
</trkpt>
<trkpt lat="39.7735727" lon="3.1398910">
<ele>2.37</ele>
<time>2016-10-16T14:17:34Z</time>
</trkpt>
<trkpt lat="39.7734435" lon="3.1400734">
<ele>4.54</ele>
<time>2016-10-16T14:17:37Z</time>
</trkpt>
<trkpt lat="39.7733208" lon="3.1402557">
<ele>4.58</ele>
<time>2016-10-16T14:17:40Z</time>
</trkpt>
<trkpt lat="39.7731955" lon="3.1404298">
<ele>4.14</ele>
<time>2016-10-16T14:17:43Z</time>
</trkpt>
<trkpt lat="39.7730619" lon="3.1406052">
<ele>3.56</ele>
<time>2016-10-16T14:17:46Z</time>
</trkpt>
<trkpt lat="39.7729223" lon="3.1407693">
<ele>2.25</ele>
<time>2016-10-16T14:17:49Z</time>
</trkpt>
<trkpt lat="39.7727645" lon="3.1409610">
<ele>2.41</ele>
<time>2016-10-16T14:17:53Z</time>
</trkpt>
<trkpt lat="39.7725863" lon="3.1411562">
<ele>3.52</ele>
<time>2016-10-16T14:17:57Z</time>
</trkpt>
<trkpt lat="39.7723925" lon="3.1413494">
<ele>3.13</ele>
<time>2016-10-16T14:18:01Z</time>
</trkpt>
<trkpt lat="39.7722347" lon="3.1414988">
<ele>2.43</ele>
<time>2016-10-16T14:18:04Z</time>
</trkpt>
<trkpt lat="39.7720460" lon="3.1416672">
<ele>2.00</ele>
<time>2016-10-16T14:18:08Z</time>
</trkpt>
<trkpt lat="39.7718585" lon="3.1418483">
<ele>1.39</ele>
<time>2016-10-16T14:18:12Z</time>
</trkpt>
<trkpt lat="39.7716877" lon="3.1419858">
<ele>3.44</ele>
<time>2016-10-16T14:18:16Z</time>
</trkpt>
<trkpt lat="39.7714705" lon="3.1420589">
<ele>5.94</ele>
<time>2016-10-16T14:18:21Z</time>
</trkpt>
<trkpt lat="39.7713233" lon="3.1421972">
<ele>4.31</ele>
<time>2016-10-16T14:18:25Z</time>
</trkpt>
<trkpt lat="39.7712292" lon="3.1424372">
<ele>3.92</ele>
<time>2016-10-16T14:18:29Z</time>
</trkpt>
<trkpt lat="39.7710901" lon="3.1426321">
<ele>4.45</ele>
<time>2016-10-16T14:18:33Z</time>
</trkpt>
<trkpt lat="39.7709489" lon="3.1428082">
<ele>5.74</ele>
<time>2016-10-16T14:18:37Z</time>
</trkpt>
<trkpt lat="39.7708150" lon="3.1429726">
<ele>6.92</ele>
<time>2016-10-16T14:18:41Z</time>
</trkpt>
<trkpt lat="39.7706773" lon="3.1431330">
<ele>7.36</ele>
<time>2016-10-16T14:18:45Z</time>
</trkpt>
<trkpt lat="39.7705330" lon="3.1432959">
<ele>8.47</ele>
<time>2016-10-16T14:18:49Z</time>
</trkpt>
<trkpt lat="39.7703840" lon="3.1434548">
<ele>8.17</ele>
<time>2016-10-16T14:18:53Z</time>
</trkpt>
<trkpt lat="39.7702060" lon="3.1436261">
<ele>6.88</ele>
<time>2016-10-16T14:18:57Z</time>
</trkpt>
<trkpt lat="39.7700486" lon="3.1437807">
<ele>6.01</ele>
<time>2016-10-16T14:19:01Z</time>
</trkpt>
<trkpt lat="39.7698861" lon="3.1439619">
<ele>7.21</ele>
<time>2016-10-16T14:19:06Z</time>
</trkpt>
<trkpt lat="39.7697459" lon="3.1441096">
<ele>8.36</ele>
<time>2016-10-16T14:19:10Z</time>
</trkpt>
<trkpt lat="39.7696030" lon="3.1442627">
<ele>9.66</ele>
<time>2016-10-16T14:19:14Z</time>
</trkpt>
<trkpt lat="39.7694263" lon="3.1444294">
<ele>10.38</ele>
<time>2016-10-16T14:19:18Z</time>
</trkpt>
<trkpt lat="39.7692588" lon="3.1445912">
<ele>9.53</ele>
<time>2016-10-16T14:19:22Z</time>
</trkpt>
<trkpt lat="39.7690747" lon="3.1447692">
<ele>9.59</ele>
<time>2016-10-16T14:19:28Z</time>
</trkpt>
<trkpt lat="39.7689241" lon="3.1449208">
<ele>11.71</ele>
<time>2016-10-16T14:19:32Z</time>
</trkpt>
<trkpt lat="39.7687746" lon="3.1450790">
<ele>11.29</ele>
<time>2016-10-16T14:19:36Z</time>
</trkpt>
<trkpt lat="39.7685980" lon="3.1452583">
<ele>10.55</ele>
<time>2016-10-16T14:19:41Z</time>
</trkpt>
<trkpt lat="39.7684345" lon="3.1454111">
<ele>10.23</ele>
<time>2016-10-16T14:19:45Z</time>
</trkpt>
<trkpt lat="39.7682673" lon="3.1455877">
<ele>11.05</ele>
<time>2016-10-16T14:19:50Z</time>
</trkpt>
<trkpt lat="39.7681190" lon="3.1457724">
<ele>11.64</ele>
<time>2016-10-16T14:19:55Z</time>
</trkpt>
<trkpt lat="39.7679791" lon="3.1459195">
<ele>12.59</ele>
<time>2016-10-16T14:19:59Z</time>
</trkpt>
<trkpt lat="39.7678090" lon="3.1460529">
<ele>12.50</ele>
<time>2016-10-16T14:20:03Z</time>
</trkpt>
<trkpt lat="39.7676576" lon="3.1461998">
<ele>11.76</ele>
<time>2016-10-16T14:20:07Z</time>
</trkpt>
<trkpt lat="39.7675165" lon="3.1463727">
<ele>13.35</ele>
<time>2016-10-16T14:20:12Z</time>
</trkpt>
<trkpt lat="39.7673716" lon="3.1465479">
<ele>14.07</ele>
<time>2016-10-16T14:20:16Z</time>
</trkpt>
<trkpt lat="39.7672161" lon="3.1467066">
<ele>14.50</ele>
<time>2016-10-16T14:20:20Z</time>
</trkpt>
<trkpt lat="39.7670551" lon="3.1468680">
<ele>13.42</ele>
<time>2016-10-16T14:20:24Z</time>
</trkpt>
<trkpt lat="39.7668845" lon="3.1470278">
<ele>12.37</ele>
<time>2016-10-16T14:20:29Z</time>
</trkpt>
<trkpt lat="39.7667292" lon="3.1471916">
<ele>13.18</ele>
<time>2016-10-16T14:20:34Z</time>
</trkpt>
<trkpt lat="39.7665674" lon="3.1473786">
<ele>14.19</ele>
<time>2016-10-16T14:20:39Z</time>
</trkpt>
<trkpt lat="39.7664195" lon="3.1475484">
<ele>16.44</ele>
<time>2016-10-16T14:20:43Z</time>
</trkpt>
<trkpt lat="39.7662777" lon="3.1477135">
<ele>17.54</ele>
<time>2016-10-16T14:20:47Z</time>
</trkpt>
<trkpt lat="39.7661240" lon="3.1478557">
<ele>17.11</ele>
<time>2016-10-16T14:20:52Z</time>
</trkpt>
<trkpt lat="39.7659722" lon="3.1480140">
<ele>15.68</ele>
<time>2016-10-16T14:20:57Z</time>
</trkpt>
<trkpt lat="39.7658060" lon="3.1481790">
<ele>15.58</ele>
<time>2016-10-16T14:21:03Z</time>
</trkpt>
<trkpt lat="39.7656248" lon="3.1481626">
<ele>15.37</ele>
<time>2016-10-16T14:21:10Z</time>
</trkpt>
<trkpt lat="39.7655649" lon="3.1479400">
<ele>11.84</ele>
<time>2016-10-16T14:24:01Z</time>
</trkpt>
<trkpt lat="39.7656419" lon="3.1481535">
<ele>14.45</ele>
<time>2016-10-16T14:26:16Z</time>
</trkpt>
</trkseg>
</trk>
</gpx>
